<?xml version="1.0" encoding="UTF-8" standalone="no" ?>
<gpx xmlns="http://www.topografix.com/GPX/1/1" xmlns:xsi="http://www.w3.org/2001/XMLSchema-instance" xsi:schemaLocation="http://www.topografix.com/GPX/1/1 http://www.topografix.com/GPX/1/1/gpx.xsd" version="1.1" creator="VisuGPX - https://www.visugpx.com">
  <metadata>
    <name>Test COROS - 24.03.2021</name>
  </metadata>
  <trk>
    <name><![CDATA[Carquefou Course]]></name>
    <trkseg>
      <trkpt lat="47.30096" lon="-1.5084">
        <ele>20</ele>
        <time>2021-03-24T11:41:37Z</time>
      </trkpt>
      <trkpt lat="47.30097" lon="-1.50839">
        <ele>20</ele>
        <time>2021-03-24T11:41:38Z</time>
      </trkpt>
      <trkpt lat="47.30097" lon="-1.50839">
        <ele>20</ele>
        <time>2021-03-24T11:41:39Z</time>
      </trkpt>
      <trkpt lat="47.30098" lon="-1.50838">
        <ele>20</ele>
        <time>2021-03-24T11:41:40Z</time>
      </trkpt>
      <trkpt lat="47.301" lon="-1.50838">
        <ele>20</ele>
        <time>2021-03-24T11:41:41Z</time>
      </trkpt>
      <trkpt lat="47.30102" lon="-1.50837">
        <ele>20</ele>
        <time>2021-03-24T11:41:42Z</time>
      </trkpt>
      <trkpt lat="47.30105" lon="-1.50837">
        <ele>20</ele>
        <time>2021-03-24T11:41:43Z</time>
      </trkpt>
      <trkpt lat="47.30109" lon="-1.50836">
        <ele>20</ele>
        <time>2021-03-24T11:41:44Z</time>
      </trkpt>
      <trkpt lat="47.30113" lon="-1.50835">
        <ele>20</ele>
        <time>2021-03-24T11:41:45Z</time>
      </trkpt>
      <trkpt lat="47.30117" lon="-1.50832">
        <ele>20</ele>
        <time>2021-03-24T11:41:46Z</time>
      </trkpt>
      <trkpt lat="47.3012" lon="-1.5083">
        <ele>20</ele>
        <time>2021-03-24T11:41:47Z</time>
      </trkpt>
      <trkpt lat="47.30122" lon="-1.50828">
        <ele>20</ele>
        <time>2021-03-24T11:41:48Z</time>
      </trkpt>
      <trkpt lat="47.30125" lon="-1.50825">
        <ele>20</ele>
        <time>2021-03-24T11:41:49Z</time>
      </trkpt>
      <trkpt lat="47.30126" lon="-1.50823">
        <ele>20</ele>
        <time>2021-03-24T11:41:50Z</time>
      </trkpt>
      <trkpt lat="47.30127" lon="-1.50821">
        <ele>20</ele>
        <time>2021-03-24T11:41:51Z</time>
      </trkpt>
      <trkpt lat="47.30127" lon="-1.50819">
        <ele>20</ele>
        <time>2021-03-24T11:41:52Z</time>
      </trkpt>
      <trkpt lat="47.30127" lon="-1.50818">
        <ele>20</ele>
        <time>2021-03-24T11:41:53Z</time>
      </trkpt>
      <trkpt lat="47.30127" lon="-1.50817">
        <ele>20</ele>
        <time>2021-03-24T11:41:54Z</time>
      </trkpt>
      <trkpt lat="47.30127" lon="-1.50816">
        <ele>20</ele>
        <time>2021-03-24T11:41:55Z</time>
      </trkpt>
      <trkpt lat="47.30128" lon="-1.50815">
        <ele>21</ele>
        <time>2021-03-24T11:41:56Z</time>
      </trkpt>
      <trkpt lat="47.30129" lon="-1.50814">
        <ele>21</ele>
        <time>2021-03-24T11:41:57Z</time>
      </trkpt>
      <trkpt lat="47.3013" lon="-1.50813">
        <ele>21</ele>
        <time>2021-03-24T11:41:58Z</time>
      </trkpt>
      <trkpt lat="47.30131" lon="-1.50812">
        <ele>21</ele>
        <time>2021-03-24T11:41:59Z</time>
      </trkpt>
      <trkpt lat="47.30132" lon="-1.50811">
        <ele>21</ele>
        <time>2021-03-24T11:42:00Z</time>
      </trkpt>
      <trkpt lat="47.30133" lon="-1.5081">
        <ele>21</ele>
        <time>2021-03-24T11:42:01Z</time>
      </trkpt>
      <trkpt lat="47.30134" lon="-1.50809">
        <ele>21</ele>
        <time>2021-03-24T11:42:02Z</time>
      </trkpt>
      <trkpt lat="47.30136" lon="-1.50808">
        <ele>21</ele>
        <time>2021-03-24T11:42:03Z</time>
      </trkpt>
      <trkpt lat="47.30137" lon="-1.50807">
        <ele>21</ele>
        <time>2021-03-24T11:42:04Z</time>
      </trkpt>
      <trkpt lat="47.30141" lon="-1.50804">
        <ele>20</ele>
        <time>2021-03-24T11:42:54Z</time>
      </trkpt>
      <trkpt lat="47.30141" lon="-1.50803">
        <ele>20</ele>
        <time>2021-03-24T11:42:55Z</time>
      </trkpt>
      <trkpt lat="47.30142" lon="-1.50802">
        <ele>20</ele>
        <time>2021-03-24T11:42:56Z</time>
      </trkpt>
      <trkpt lat="47.30143" lon="-1.50802">
        <ele>20</ele>
        <time>2021-03-24T11:42:57Z</time>
      </trkpt>
      <trkpt lat="47.30145" lon="-1.50802">
        <ele>20</ele>
        <time>2021-03-24T11:42:58Z</time>
      </trkpt>
      <trkpt lat="47.30146" lon="-1.50802">
        <ele>20</ele>
        <time>2021-03-24T11:42:59Z</time>
      </trkpt>
      <trkpt lat="47.30148" lon="-1.50802">
        <ele>20</ele>
        <time>2021-03-24T11:43:00Z</time>
      </trkpt>
      <trkpt lat="47.30188" lon="-1.50809">
        <ele>19</ele>
        <time>2021-03-24T11:43:43Z</time>
      </trkpt>
      <trkpt lat="47.30189" lon="-1.5081">
        <ele>19</ele>
        <time>2021-03-24T11:43:44Z</time>
      </trkpt>
      <trkpt lat="47.3019" lon="-1.5081">
        <ele>19</ele>
        <time>2021-03-24T11:43:45Z</time>
      </trkpt>
      <trkpt lat="47.30192" lon="-1.5081">
        <ele>19</ele>
        <time>2021-03-24T11:43:46Z</time>
      </trkpt>
      <trkpt lat="47.30194" lon="-1.50809">
        <ele>19</ele>
        <time>2021-03-24T11:43:47Z</time>
      </trkpt>
      <trkpt lat="47.30196" lon="-1.50809">
        <ele>19</ele>
        <time>2021-03-24T11:43:48Z</time>
      </trkpt>
      <trkpt lat="47.30199" lon="-1.50809">
        <ele>19</ele>
        <time>2021-03-24T11:43:49Z</time>
      </trkpt>
      <trkpt lat="47.30202" lon="-1.50809">
        <ele>19</ele>
        <time>2021-03-24T11:43:50Z</time>
      </trkpt>
      <trkpt lat="47.30204" lon="-1.50809">
        <ele>19</ele>
        <time>2021-03-24T11:43:51Z</time>
      </trkpt>
      <trkpt lat="47.30207" lon="-1.50808">
        <ele>19</ele>
        <time>2021-03-24T11:43:52Z</time>
      </trkpt>
      <trkpt lat="47.30209" lon="-1.50808">
        <ele>19</ele>
        <time>2021-03-24T11:43:53Z</time>
      </trkpt>
      <trkpt lat="47.30209" lon="-1.50807">
        <ele>19</ele>
        <time>2021-03-24T11:46:08Z</time>
      </trkpt>
      <trkpt lat="47.3021" lon="-1.50807">
        <ele>19</ele>
        <time>2021-03-24T11:46:09Z</time>
      </trkpt>
      <trkpt lat="47.30211" lon="-1.50807">
        <ele>19</ele>
        <time>2021-03-24T11:46:10Z</time>
      </trkpt>
      <trkpt lat="47.30212" lon="-1.50807">
        <ele>19</ele>
        <time>2021-03-24T11:46:11Z</time>
      </trkpt>
      <trkpt lat="47.30214" lon="-1.50807">
        <ele>19</ele>
        <time>2021-03-24T11:46:12Z</time>
      </trkpt>
      <trkpt lat="47.30216" lon="-1.50807">
        <ele>19</ele>
        <time>2021-03-24T11:46:13Z</time>
      </trkpt>
      <trkpt lat="47.30218" lon="-1.50807">
        <ele>19</ele>
        <time>2021-03-24T11:46:14Z</time>
      </trkpt>
      <trkpt lat="47.30221" lon="-1.50807">
        <ele>19</ele>
        <time>2021-03-24T11:46:15Z</time>
      </trkpt>
      <trkpt lat="47.30224" lon="-1.50807">
        <ele>19</ele>
        <time>2021-03-24T11:46:16Z</time>
      </trkpt>
      <trkpt lat="47.30227" lon="-1.50807">
        <ele>19</ele>
        <time>2021-03-24T11:46:17Z</time>
      </trkpt>
      <trkpt lat="47.3023" lon="-1.50807">
        <ele>19</ele>
        <time>2021-03-24T11:46:18Z</time>
      </trkpt>
      <trkpt lat="47.30233" lon="-1.50807">
        <ele>19</ele>
        <time>2021-03-24T11:46:19Z</time>
      </trkpt>
      <trkpt lat="47.30236" lon="-1.50807">
        <ele>19</ele>
        <time>2021-03-24T11:46:20Z</time>
      </trkpt>
      <trkpt lat="47.30239" lon="-1.50807">
        <ele>19</ele>
        <time>2021-03-24T11:46:21Z</time>
      </trkpt>
      <trkpt lat="47.30242" lon="-1.50807">
        <ele>19</ele>
        <time>2021-03-24T11:46:22Z</time>
      </trkpt>
      <trkpt lat="47.30246" lon="-1.50806">
        <ele>19</ele>
        <time>2021-03-24T11:46:23Z</time>
      </trkpt>
      <trkpt lat="47.30249" lon="-1.50806">
        <ele>19</ele>
        <time>2021-03-24T11:46:24Z</time>
      </trkpt>
      <trkpt lat="47.30252" lon="-1.50805">
        <ele>19</ele>
        <time>2021-03-24T11:46:25Z</time>
      </trkpt>
      <trkpt lat="47.30255" lon="-1.50804">
        <ele>19</ele>
        <time>2021-03-24T11:46:26Z</time>
      </trkpt>
      <trkpt lat="47.30258" lon="-1.50801">
        <ele>19</ele>
        <time>2021-03-24T11:46:27Z</time>
      </trkpt>
      <trkpt lat="47.30261" lon="-1.50799">
        <ele>19</ele>
        <time>2021-03-24T11:46:28Z</time>
      </trkpt>
      <trkpt lat="47.30264" lon="-1.50796">
        <ele>19</ele>
        <time>2021-03-24T11:46:29Z</time>
      </trkpt>
      <trkpt lat="47.30266" lon="-1.50793">
        <ele>19</ele>
        <time>2021-03-24T11:46:30Z</time>
      </trkpt>
      <trkpt lat="47.30269" lon="-1.5079">
        <ele>19</ele>
        <time>2021-03-24T11:46:31Z</time>
      </trkpt>
      <trkpt lat="47.30272" lon="-1.50787">
        <ele>19</ele>
        <time>2021-03-24T11:46:32Z</time>
      </trkpt>
      <trkpt lat="47.30274" lon="-1.50785">
        <ele>18</ele>
        <time>2021-03-24T11:46:33Z</time>
      </trkpt>
      <trkpt lat="47.30277" lon="-1.50782">
        <ele>18</ele>
        <time>2021-03-24T11:46:34Z</time>
      </trkpt>
      <trkpt lat="47.3028" lon="-1.5078">
        <ele>18</ele>
        <time>2021-03-24T11:46:35Z</time>
      </trkpt>
      <trkpt lat="47.30283" lon="-1.50778">
        <ele>18</ele>
        <time>2021-03-24T11:46:36Z</time>
      </trkpt>
      <trkpt lat="47.30285" lon="-1.50775">
        <ele>18</ele>
        <time>2021-03-24T11:46:37Z</time>
      </trkpt>
      <trkpt lat="47.30288" lon="-1.50773">
        <ele>18</ele>
        <time>2021-03-24T11:46:38Z</time>
      </trkpt>
      <trkpt lat="47.30291" lon="-1.5077">
        <ele>18</ele>
        <time>2021-03-24T11:46:39Z</time>
      </trkpt>
      <trkpt lat="47.30294" lon="-1.50768">
        <ele>18</ele>
        <time>2021-03-24T11:46:40Z</time>
      </trkpt>
      <trkpt lat="47.30296" lon="-1.50765">
        <ele>18</ele>
        <time>2021-03-24T11:46:41Z</time>
      </trkpt>
      <trkpt lat="47.30299" lon="-1.50763">
        <ele>18</ele>
        <time>2021-03-24T11:46:42Z</time>
      </trkpt>
      <trkpt lat="47.30302" lon="-1.5076">
        <ele>18</ele>
        <time>2021-03-24T11:46:43Z</time>
      </trkpt>
      <trkpt lat="47.30304" lon="-1.50757">
        <ele>18</ele>
        <time>2021-03-24T11:46:44Z</time>
      </trkpt>
      <trkpt lat="47.30306" lon="-1.50755">
        <ele>18</ele>
        <time>2021-03-24T11:46:45Z</time>
      </trkpt>
      <trkpt lat="47.30309" lon="-1.50752">
        <ele>18</ele>
        <time>2021-03-24T11:46:46Z</time>
      </trkpt>
      <trkpt lat="47.30311" lon="-1.50749">
        <ele>18</ele>
        <time>2021-03-24T11:46:47Z</time>
      </trkpt>
      <trkpt lat="47.30313" lon="-1.50746">
        <ele>18</ele>
        <time>2021-03-24T11:46:48Z</time>
      </trkpt>
      <trkpt lat="47.30315" lon="-1.50743">
        <ele>18</ele>
        <time>2021-03-24T11:46:49Z</time>
      </trkpt>
      <trkpt lat="47.30318" lon="-1.5074">
        <ele>18</ele>
        <time>2021-03-24T11:46:50Z</time>
      </trkpt>
      <trkpt lat="47.3032" lon="-1.50736">
        <ele>18</ele>
        <time>2021-03-24T11:46:51Z</time>
      </trkpt>
      <trkpt lat="47.30322" lon="-1.50733">
        <ele>18</ele>
        <time>2021-03-24T11:46:52Z</time>
      </trkpt>
      <trkpt lat="47.30324" lon="-1.50729">
        <ele>17</ele>
        <time>2021-03-24T11:46:53Z</time>
      </trkpt>
      <trkpt lat="47.30326" lon="-1.50726">
        <ele>17</ele>
        <time>2021-03-24T11:46:54Z</time>
      </trkpt>
      <trkpt lat="47.30328" lon="-1.50722">
        <ele>17</ele>
        <time>2021-03-24T11:46:55Z</time>
      </trkpt>
      <trkpt lat="47.3033" lon="-1.50719">
        <ele>17</ele>
        <time>2021-03-24T11:46:56Z</time>
      </trkpt>
      <trkpt lat="47.30332" lon="-1.50715">
        <ele>17</ele>
        <time>2021-03-24T11:46:57Z</time>
      </trkpt>
      <trkpt lat="47.30333" lon="-1.50711">
        <ele>17</ele>
        <time>2021-03-24T11:46:58Z</time>
      </trkpt>
      <trkpt lat="47.30335" lon="-1.50708">
        <ele>17</ele>
        <time>2021-03-24T11:46:59Z</time>
      </trkpt>
      <trkpt lat="47.30337" lon="-1.50704">
        <ele>17</ele>
        <time>2021-03-24T11:47:00Z</time>
      </trkpt>
      <trkpt lat="47.30339" lon="-1.507">
        <ele>17</ele>
        <time>2021-03-24T11:47:01Z</time>
      </trkpt>
      <trkpt lat="47.30341" lon="-1.50696">
        <ele>17</ele>
        <time>2021-03-24T11:47:02Z</time>
      </trkpt>
      <trkpt lat="47.30343" lon="-1.50693">
        <ele>17</ele>
        <time>2021-03-24T11:47:03Z</time>
      </trkpt>
      <trkpt lat="47.30345" lon="-1.50689">
        <ele>17</ele>
        <time>2021-03-24T11:47:04Z</time>
      </trkpt>
      <trkpt lat="47.30346" lon="-1.50685">
        <ele>17</ele>
        <time>2021-03-24T11:47:05Z</time>
      </trkpt>
      <trkpt lat="47.30348" lon="-1.50681">
        <ele>17</ele>
        <time>2021-03-24T11:47:06Z</time>
      </trkpt>
      <trkpt lat="47.30349" lon="-1.50677">
        <ele>17</ele>
        <time>2021-03-24T11:47:07Z</time>
      </trkpt>
      <trkpt lat="47.30351" lon="-1.50673">
        <ele>17</ele>
        <time>2021-03-24T11:47:08Z</time>
      </trkpt>
      <trkpt lat="47.30352" lon="-1.50668">
        <ele>17</ele>
        <time>2021-03-24T11:47:09Z</time>
      </trkpt>
      <trkpt lat="47.30354" lon="-1.50664">
        <ele>17</ele>
        <time>2021-03-24T11:47:10Z</time>
      </trkpt>
      <trkpt lat="47.30355" lon="-1.5066">
        <ele>17</ele>
        <time>2021-03-24T11:47:11Z</time>
      </trkpt>
      <trkpt lat="47.30356" lon="-1.50656">
        <ele>17</ele>
        <time>2021-03-24T11:47:12Z</time>
      </trkpt>
      <trkpt lat="47.30358" lon="-1.50651">
        <ele>17</ele>
        <time>2021-03-24T11:47:13Z</time>
      </trkpt>
      <trkpt lat="47.30359" lon="-1.50647">
        <ele>17</ele>
        <time>2021-03-24T11:47:14Z</time>
      </trkpt>
      <trkpt lat="47.30361" lon="-1.50643">
        <ele>17</ele>
        <time>2021-03-24T11:47:15Z</time>
      </trkpt>
      <trkpt lat="47.30362" lon="-1.50639">
        <ele>17</ele>
        <time>2021-03-24T11:47:16Z</time>
      </trkpt>
      <trkpt lat="47.30363" lon="-1.50635">
        <ele>17</ele>
        <time>2021-03-24T11:47:17Z</time>
      </trkpt>
      <trkpt lat="47.30365" lon="-1.50631">
        <ele>17</ele>
        <time>2021-03-24T11:47:18Z</time>
      </trkpt>
      <trkpt lat="47.30365" lon="-1.50627">
        <ele>17</ele>
        <time>2021-03-24T11:47:19Z</time>
      </trkpt>
      <trkpt lat="47.30366" lon="-1.50622">
        <ele>17</ele>
        <time>2021-03-24T11:47:20Z</time>
      </trkpt>
      <trkpt lat="47.30367" lon="-1.50617">
        <ele>17</ele>
        <time>2021-03-24T11:47:21Z</time>
      </trkpt>
      <trkpt lat="47.30367" lon="-1.50613">
        <ele>17</ele>
        <time>2021-03-24T11:47:22Z</time>
      </trkpt>
      <trkpt lat="47.30367" lon="-1.50608">
        <ele>17</ele>
        <time>2021-03-24T11:47:23Z</time>
      </trkpt>
      <trkpt lat="47.30368" lon="-1.50604">
        <ele>17</ele>
        <time>2021-03-24T11:47:24Z</time>
      </trkpt>
      <trkpt lat="47.30368" lon="-1.50599">
        <ele>17</ele>
        <time>2021-03-24T11:47:25Z</time>
      </trkpt>
      <trkpt lat="47.30369" lon="-1.50595">
        <ele>17</ele>
        <time>2021-03-24T11:47:26Z</time>
      </trkpt>
      <trkpt lat="47.30369" lon="-1.5059">
        <ele>17</ele>
        <time>2021-03-24T11:47:27Z</time>
      </trkpt>
      <trkpt lat="47.3037" lon="-1.50586">
        <ele>17</ele>
        <time>2021-03-24T11:47:28Z</time>
      </trkpt>
      <trkpt lat="47.3037" lon="-1.50581">
        <ele>17</ele>
        <time>2021-03-24T11:47:29Z</time>
      </trkpt>
      <trkpt lat="47.3037" lon="-1.50577">
        <ele>17</ele>
        <time>2021-03-24T11:47:30Z</time>
      </trkpt>
      <trkpt lat="47.3037" lon="-1.50573">
        <ele>17</ele>
        <time>2021-03-24T11:47:31Z</time>
      </trkpt>
      <trkpt lat="47.30371" lon="-1.50568">
        <ele>17</ele>
        <time>2021-03-24T11:47:32Z</time>
      </trkpt>
      <trkpt lat="47.30371" lon="-1.50564">
        <ele>17</ele>
        <time>2021-03-24T11:47:33Z</time>
      </trkpt>
      <trkpt lat="47.30371" lon="-1.50559">
        <ele>17</ele>
        <time>2021-03-24T11:47:34Z</time>
      </trkpt>
      <trkpt lat="47.30371" lon="-1.50555">
        <ele>17</ele>
        <time>2021-03-24T11:47:35Z</time>
      </trkpt>
      <trkpt lat="47.3037" lon="-1.5055">
        <ele>17</ele>
        <time>2021-03-24T11:47:36Z</time>
      </trkpt>
      <trkpt lat="47.3037" lon="-1.50546">
        <ele>17</ele>
        <time>2021-03-24T11:47:37Z</time>
      </trkpt>
      <trkpt lat="47.3037" lon="-1.50542">
        <ele>17</ele>
        <time>2021-03-24T11:47:38Z</time>
      </trkpt>
      <trkpt lat="47.3037" lon="-1.50537">
        <ele>17</ele>
        <time>2021-03-24T11:47:39Z</time>
      </trkpt>
      <trkpt lat="47.30369" lon="-1.50533">
        <ele>17</ele>
        <time>2021-03-24T11:47:40Z</time>
      </trkpt>
      <trkpt lat="47.30369" lon="-1.50529">
        <ele>17</ele>
        <time>2021-03-24T11:47:41Z</time>
      </trkpt>
      <trkpt lat="47.30369" lon="-1.50525">
        <ele>17</ele>
        <time>2021-03-24T11:47:42Z</time>
      </trkpt>
      <trkpt lat="47.30368" lon="-1.50521">
        <ele>17</ele>
        <time>2021-03-24T11:47:43Z</time>
      </trkpt>
      <trkpt lat="47.30368" lon="-1.50517">
        <ele>17</ele>
        <time>2021-03-24T11:47:44Z</time>
      </trkpt>
      <trkpt lat="47.30367" lon="-1.50513">
        <ele>17</ele>
        <time>2021-03-24T11:47:45Z</time>
      </trkpt>
      <trkpt lat="47.30367" lon="-1.50509">
        <ele>17</ele>
        <time>2021-03-24T11:47:46Z</time>
      </trkpt>
      <trkpt lat="47.30366" lon="-1.50505">
        <ele>17</ele>
        <time>2021-03-24T11:47:47Z</time>
      </trkpt>
      <trkpt lat="47.30365" lon="-1.50501">
        <ele>17</ele>
        <time>2021-03-24T11:47:48Z</time>
      </trkpt>
      <trkpt lat="47.30365" lon="-1.50497">
        <ele>17</ele>
        <time>2021-03-24T11:47:49Z</time>
      </trkpt>
      <trkpt lat="47.30364" lon="-1.50493">
        <ele>17</ele>
        <time>2021-03-24T11:47:50Z</time>
      </trkpt>
      <trkpt lat="47.30363" lon="-1.5049">
        <ele>17</ele>
        <time>2021-03-24T11:47:51Z</time>
      </trkpt>
      <trkpt lat="47.30362" lon="-1.50486">
        <ele>17</ele>
        <time>2021-03-24T11:47:52Z</time>
      </trkpt>
      <trkpt lat="47.30361" lon="-1.50482">
        <ele>17</ele>
        <time>2021-03-24T11:47:53Z</time>
      </trkpt>
      <trkpt lat="47.30361" lon="-1.50478">
        <ele>17</ele>
        <time>2021-03-24T11:47:54Z</time>
      </trkpt>
      <trkpt lat="47.30359" lon="-1.50474">
        <ele>17</ele>
        <time>2021-03-24T11:47:55Z</time>
      </trkpt>
      <trkpt lat="47.30358" lon="-1.50471">
        <ele>17</ele>
        <time>2021-03-24T11:47:56Z</time>
      </trkpt>
      <trkpt lat="47.30357" lon="-1.50467">
        <ele>17</ele>
        <time>2021-03-24T11:47:57Z</time>
      </trkpt>
      <trkpt lat="47.30356" lon="-1.50463">
        <ele>17</ele>
        <time>2021-03-24T11:47:58Z</time>
      </trkpt>
      <trkpt lat="47.30355" lon="-1.50459">
        <ele>17</ele>
        <time>2021-03-24T11:47:59Z</time>
      </trkpt>
      <trkpt lat="47.30354" lon="-1.50455">
        <ele>17</ele>
        <time>2021-03-24T11:48:00Z</time>
      </trkpt>
      <trkpt lat="47.30353" lon="-1.50451">
        <ele>17</ele>
        <time>2021-03-24T11:48:01Z</time>
      </trkpt>
      <trkpt lat="47.30353" lon="-1.50447">
        <ele>18</ele>
        <time>2021-03-24T11:48:02Z</time>
      </trkpt>
      <trkpt lat="47.30352" lon="-1.50443">
        <ele>18</ele>
        <time>2021-03-24T11:48:03Z</time>
      </trkpt>
      <trkpt lat="47.30351" lon="-1.50439">
        <ele>18</ele>
        <time>2021-03-24T11:48:04Z</time>
      </trkpt>
      <trkpt lat="47.30351" lon="-1.50436">
        <ele>18</ele>
        <time>2021-03-24T11:48:05Z</time>
      </trkpt>
      <trkpt lat="47.30351" lon="-1.50433">
        <ele>18</ele>
        <time>2021-03-24T11:48:06Z</time>
      </trkpt>
      <trkpt lat="47.30352" lon="-1.5043">
        <ele>18</ele>
        <time>2021-03-24T11:48:07Z</time>
      </trkpt>
      <trkpt lat="47.30354" lon="-1.50428">
        <ele>17</ele>
        <time>2021-03-24T11:48:08Z</time>
      </trkpt>
      <trkpt lat="47.30356" lon="-1.50425">
        <ele>17</ele>
        <time>2021-03-24T11:48:09Z</time>
      </trkpt>
      <trkpt lat="47.30358" lon="-1.50423">
        <ele>17</ele>
        <time>2021-03-24T11:48:10Z</time>
      </trkpt>
      <trkpt lat="47.30361" lon="-1.5042">
        <ele>17</ele>
        <time>2021-03-24T11:48:11Z</time>
      </trkpt>
      <trkpt lat="47.30364" lon="-1.50418">
        <ele>17</ele>
        <time>2021-03-24T11:48:12Z</time>
      </trkpt>
      <trkpt lat="47.30367" lon="-1.50415">
        <ele>17</ele>
        <time>2021-03-24T11:48:13Z</time>
      </trkpt>
      <trkpt lat="47.30371" lon="-1.50413">
        <ele>17</ele>
        <time>2021-03-24T11:48:14Z</time>
      </trkpt>
      <trkpt lat="47.30374" lon="-1.5041">
        <ele>17</ele>
        <time>2021-03-24T11:48:15Z</time>
      </trkpt>
      <trkpt lat="47.30378" lon="-1.50408">
        <ele>17</ele>
        <time>2021-03-24T11:48:16Z</time>
      </trkpt>
      <trkpt lat="47.30381" lon="-1.50405">
        <ele>17</ele>
        <time>2021-03-24T11:48:17Z</time>
      </trkpt>
      <trkpt lat="47.30385" lon="-1.50403">
        <ele>17</ele>
        <time>2021-03-24T11:48:18Z</time>
      </trkpt>
      <trkpt lat="47.30388" lon="-1.50401">
        <ele>17</ele>
        <time>2021-03-24T11:48:19Z</time>
      </trkpt>
      <trkpt lat="47.30391" lon="-1.50399">
        <ele>17</ele>
        <time>2021-03-24T11:48:20Z</time>
      </trkpt>
      <trkpt lat="47.30394" lon="-1.50397">
        <ele>17</ele>
        <time>2021-03-24T11:48:21Z</time>
      </trkpt>
      <trkpt lat="47.30396" lon="-1.50394">
        <ele>17</ele>
        <time>2021-03-24T11:48:22Z</time>
      </trkpt>
      <trkpt lat="47.30399" lon="-1.50392">
        <ele>17</ele>
        <time>2021-03-24T11:48:23Z</time>
      </trkpt>
      <trkpt lat="47.30401" lon="-1.5039">
        <ele>17</ele>
        <time>2021-03-24T11:48:24Z</time>
      </trkpt>
      <trkpt lat="47.30404" lon="-1.50387">
        <ele>17</ele>
        <time>2021-03-24T11:48:25Z</time>
      </trkpt>
      <trkpt lat="47.30407" lon="-1.50385">
        <ele>17</ele>
        <time>2021-03-24T11:48:26Z</time>
      </trkpt>
      <trkpt lat="47.3041" lon="-1.50383">
        <ele>17</ele>
        <time>2021-03-24T11:48:27Z</time>
      </trkpt>
      <trkpt lat="47.30413" lon="-1.50381">
        <ele>17</ele>
        <time>2021-03-24T11:48:28Z</time>
      </trkpt>
      <trkpt lat="47.30416" lon="-1.5038">
        <ele>17</ele>
        <time>2021-03-24T11:48:29Z</time>
      </trkpt>
      <trkpt lat="47.30419" lon="-1.50378">
        <ele>17</ele>
        <time>2021-03-24T11:48:30Z</time>
      </trkpt>
      <trkpt lat="47.30422" lon="-1.50376">
        <ele>17</ele>
        <time>2021-03-24T11:48:31Z</time>
      </trkpt>
      <trkpt lat="47.30425" lon="-1.50374">
        <ele>17</ele>
        <time>2021-03-24T11:48:32Z</time>
      </trkpt>
      <trkpt lat="47.30428" lon="-1.50372">
        <ele>17</ele>
        <time>2021-03-24T11:48:33Z</time>
      </trkpt>
      <trkpt lat="47.3043" lon="-1.5037">
        <ele>17</ele>
        <time>2021-03-24T11:48:34Z</time>
      </trkpt>
      <trkpt lat="47.30433" lon="-1.50368">
        <ele>17</ele>
        <time>2021-03-24T11:48:35Z</time>
      </trkpt>
      <trkpt lat="47.30436" lon="-1.50366">
        <ele>17</ele>
        <time>2021-03-24T11:48:36Z</time>
      </trkpt>
      <trkpt lat="47.30438" lon="-1.50363">
        <ele>17</ele>
        <time>2021-03-24T11:48:37Z</time>
      </trkpt>
      <trkpt lat="47.30441" lon="-1.5036">
        <ele>17</ele>
        <time>2021-03-24T11:48:38Z</time>
      </trkpt>
      <trkpt lat="47.30442" lon="-1.50356">
        <ele>17</ele>
        <time>2021-03-24T11:48:39Z</time>
      </trkpt>
      <trkpt lat="47.30443" lon="-1.50352">
        <ele>17</ele>
        <time>2021-03-24T11:48:40Z</time>
      </trkpt>
      <trkpt lat="47.30444" lon="-1.50348">
        <ele>17</ele>
        <time>2021-03-24T11:48:41Z</time>
      </trkpt>
      <trkpt lat="47.30444" lon="-1.50343">
        <ele>17</ele>
        <time>2021-03-24T11:48:42Z</time>
      </trkpt>
      <trkpt lat="47.30443" lon="-1.50338">
        <ele>17</ele>
        <time>2021-03-24T11:48:43Z</time>
      </trkpt>
      <trkpt lat="47.30443" lon="-1.50334">
        <ele>17</ele>
        <time>2021-03-24T11:48:44Z</time>
      </trkpt>
      <trkpt lat="47.30443" lon="-1.50329">
        <ele>17</ele>
        <time>2021-03-24T11:48:45Z</time>
      </trkpt>
      <trkpt lat="47.30442" lon="-1.50324">
        <ele>17</ele>
        <time>2021-03-24T11:48:46Z</time>
      </trkpt>
      <trkpt lat="47.30442" lon="-1.50319">
        <ele>17</ele>
        <time>2021-03-24T11:48:47Z</time>
      </trkpt>
      <trkpt lat="47.30442" lon="-1.50314">
        <ele>17</ele>
        <time>2021-03-24T11:48:48Z</time>
      </trkpt>
      <trkpt lat="47.30443" lon="-1.5031">
        <ele>17</ele>
        <time>2021-03-24T11:48:49Z</time>
      </trkpt>
      <trkpt lat="47.30444" lon="-1.50305">
        <ele>17</ele>
        <time>2021-03-24T11:48:50Z</time>
      </trkpt>
      <trkpt lat="47.30445" lon="-1.50302">
        <ele>17</ele>
        <time>2021-03-24T11:48:51Z</time>
      </trkpt>
      <trkpt lat="47.30446" lon="-1.50298">
        <ele>17</ele>
        <time>2021-03-24T11:48:52Z</time>
      </trkpt>
      <trkpt lat="47.30448" lon="-1.50295">
        <ele>17</ele>
        <time>2021-03-24T11:48:53Z</time>
      </trkpt>
      <trkpt lat="47.3045" lon="-1.50293">
        <ele>17</ele>
        <time>2021-03-24T11:48:54Z</time>
      </trkpt>
      <trkpt lat="47.30453" lon="-1.5029">
        <ele>17</ele>
        <time>2021-03-24T11:48:55Z</time>
      </trkpt>
      <trkpt lat="47.30455" lon="-1.50288">
        <ele>17</ele>
        <time>2021-03-24T11:48:56Z</time>
      </trkpt>
      <trkpt lat="47.30457" lon="-1.50285">
        <ele>17</ele>
        <time>2021-03-24T11:48:57Z</time>
      </trkpt>
      <trkpt lat="47.30459" lon="-1.50281">
        <ele>17</ele>
        <time>2021-03-24T11:48:58Z</time>
      </trkpt>
      <trkpt lat="47.30461" lon="-1.50277">
        <ele>17</ele>
        <time>2021-03-24T11:48:59Z</time>
      </trkpt>
      <trkpt lat="47.30462" lon="-1.50273">
        <ele>17</ele>
        <time>2021-03-24T11:49:00Z</time>
      </trkpt>
      <trkpt lat="47.30463" lon="-1.50269">
        <ele>17</ele>
        <time>2021-03-24T11:49:01Z</time>
      </trkpt>
      <trkpt lat="47.30463" lon="-1.50264">
        <ele>17</ele>
        <time>2021-03-24T11:49:02Z</time>
      </trkpt>
      <trkpt lat="47.30463" lon="-1.5026">
        <ele>17</ele>
        <time>2021-03-24T11:49:03Z</time>
      </trkpt>
      <trkpt lat="47.30463" lon="-1.50255">
        <ele>17</ele>
        <time>2021-03-24T11:49:04Z</time>
      </trkpt>
      <trkpt lat="47.30462" lon="-1.50251">
        <ele>17</ele>
        <time>2021-03-24T11:49:05Z</time>
      </trkpt>
      <trkpt lat="47.30462" lon="-1.50246">
        <ele>17</ele>
        <time>2021-03-24T11:49:06Z</time>
      </trkpt>
      <trkpt lat="47.30461" lon="-1.50242">
        <ele>18</ele>
        <time>2021-03-24T11:49:07Z</time>
      </trkpt>
      <trkpt lat="47.30461" lon="-1.50237">
        <ele>17</ele>
        <time>2021-03-24T11:49:08Z</time>
      </trkpt>
      <trkpt lat="47.3046" lon="-1.50233">
        <ele>17</ele>
        <time>2021-03-24T11:49:09Z</time>
      </trkpt>
      <trkpt lat="47.3046" lon="-1.50228">
        <ele>17</ele>
        <time>2021-03-24T11:49:10Z</time>
      </trkpt>
      <trkpt lat="47.30459" lon="-1.50224">
        <ele>17</ele>
        <time>2021-03-24T11:49:11Z</time>
      </trkpt>
      <trkpt lat="47.30459" lon="-1.5022">
        <ele>17</ele>
        <time>2021-03-24T11:49:12Z</time>
      </trkpt>
      <trkpt lat="47.30458" lon="-1.50215">
        <ele>17</ele>
        <time>2021-03-24T11:49:13Z</time>
      </trkpt>
      <trkpt lat="47.30457" lon="-1.50211">
        <ele>17</ele>
        <time>2021-03-24T11:49:14Z</time>
      </trkpt>
      <trkpt lat="47.30456" lon="-1.50207">
        <ele>17</ele>
        <time>2021-03-24T11:49:15Z</time>
      </trkpt>
      <trkpt lat="47.30455" lon="-1.50202">
        <ele>17</ele>
        <time>2021-03-24T11:49:16Z</time>
      </trkpt>
      <trkpt lat="47.30455" lon="-1.50198">
        <ele>17</ele>
        <time>2021-03-24T11:49:17Z</time>
      </trkpt>
      <trkpt lat="47.30454" lon="-1.50194">
        <ele>17</ele>
        <time>2021-03-24T11:49:18Z</time>
      </trkpt>
      <trkpt lat="47.30453" lon="-1.50189">
        <ele>17</ele>
        <time>2021-03-24T11:49:19Z</time>
      </trkpt>
      <trkpt lat="47.30452" lon="-1.50185">
        <ele>17</ele>
        <time>2021-03-24T11:49:20Z</time>
      </trkpt>
      <trkpt lat="47.30451" lon="-1.50181">
        <ele>17</ele>
        <time>2021-03-24T11:49:21Z</time>
      </trkpt>
      <trkpt lat="47.30449" lon="-1.50177">
        <ele>17</ele>
        <time>2021-03-24T11:49:22Z</time>
      </trkpt>
      <trkpt lat="47.30448" lon="-1.50173">
        <ele>17</ele>
        <time>2021-03-24T11:49:23Z</time>
      </trkpt>
      <trkpt lat="47.30447" lon="-1.50169">
        <ele>17</ele>
        <time>2021-03-24T11:49:24Z</time>
      </trkpt>
      <trkpt lat="47.30445" lon="-1.50166">
        <ele>17</ele>
        <time>2021-03-24T11:49:25Z</time>
      </trkpt>
      <trkpt lat="47.30444" lon="-1.50162">
        <ele>17</ele>
        <time>2021-03-24T11:49:26Z</time>
      </trkpt>
      <trkpt lat="47.30442" lon="-1.50159">
        <ele>18</ele>
        <time>2021-03-24T11:49:27Z</time>
      </trkpt>
      <trkpt lat="47.3044" lon="-1.50156">
        <ele>18</ele>
        <time>2021-03-24T11:49:28Z</time>
      </trkpt>
      <trkpt lat="47.30437" lon="-1.50153">
        <ele>18</ele>
        <time>2021-03-24T11:49:29Z</time>
      </trkpt>
      <trkpt lat="47.30435" lon="-1.5015">
        <ele>18</ele>
        <time>2021-03-24T11:49:30Z</time>
      </trkpt>
      <trkpt lat="47.30433" lon="-1.50147">
        <ele>18</ele>
        <time>2021-03-24T11:49:31Z</time>
      </trkpt>
      <trkpt lat="47.30431" lon="-1.50144">
        <ele>18</ele>
        <time>2021-03-24T11:49:32Z</time>
      </trkpt>
      <trkpt lat="47.3043" lon="-1.5014">
        <ele>18</ele>
        <time>2021-03-24T11:49:33Z</time>
      </trkpt>
      <trkpt lat="47.30428" lon="-1.50137">
        <ele>18</ele>
        <time>2021-03-24T11:49:34Z</time>
      </trkpt>
      <trkpt lat="47.30428" lon="-1.50133">
        <ele>18</ele>
        <time>2021-03-24T11:49:35Z</time>
      </trkpt>
      <trkpt lat="47.30428" lon="-1.50129">
        <ele>18</ele>
        <time>2021-03-24T11:49:36Z</time>
      </trkpt>
      <trkpt lat="47.30428" lon="-1.50125">
        <ele>18</ele>
        <time>2021-03-24T11:49:37Z</time>
      </trkpt>
      <trkpt lat="47.30428" lon="-1.5012">
        <ele>18</ele>
        <time>2021-03-24T11:49:38Z</time>
      </trkpt>
      <trkpt lat="47.30427" lon="-1.50116">
        <ele>18</ele>
        <time>2021-03-24T11:49:39Z</time>
      </trkpt>
      <trkpt lat="47.30426" lon="-1.50111">
        <ele>18</ele>
        <time>2021-03-24T11:49:40Z</time>
      </trkpt>
      <trkpt lat="47.30425" lon="-1.50107">
        <ele>18</ele>
        <time>2021-03-24T11:49:41Z</time>
      </trkpt>
      <trkpt lat="47.30424" lon="-1.50103">
        <ele>19</ele>
        <time>2021-03-24T11:49:42Z</time>
      </trkpt>
      <trkpt lat="47.30422" lon="-1.50099">
        <ele>19</ele>
        <time>2021-03-24T11:49:43Z</time>
      </trkpt>
      <trkpt lat="47.3042" lon="-1.50095">
        <ele>19</ele>
        <time>2021-03-24T11:49:44Z</time>
      </trkpt>
      <trkpt lat="47.30418" lon="-1.50091">
        <ele>19</ele>
        <time>2021-03-24T11:49:45Z</time>
      </trkpt>
      <trkpt lat="47.30416" lon="-1.50087">
        <ele>19</ele>
        <time>2021-03-24T11:49:46Z</time>
      </trkpt>
      <trkpt lat="47.30414" lon="-1.50083">
        <ele>19</ele>
        <time>2021-03-24T11:49:47Z</time>
      </trkpt>
      <trkpt lat="47.30412" lon="-1.50079">
        <ele>19</ele>
        <time>2021-03-24T11:49:48Z</time>
      </trkpt>
      <trkpt lat="47.30411" lon="-1.50076">
        <ele>19</ele>
        <time>2021-03-24T11:49:49Z</time>
      </trkpt>
      <trkpt lat="47.30409" lon="-1.50072">
        <ele>19</ele>
        <time>2021-03-24T11:49:50Z</time>
      </trkpt>
      <trkpt lat="47.30407" lon="-1.50068">
        <ele>19</ele>
        <time>2021-03-24T11:49:51Z</time>
      </trkpt>
      <trkpt lat="47.30405" lon="-1.50065">
        <ele>19</ele>
        <time>2021-03-24T11:49:52Z</time>
      </trkpt>
      <trkpt lat="47.30403" lon="-1.50061">
        <ele>19</ele>
        <time>2021-03-24T11:49:53Z</time>
      </trkpt>
      <trkpt lat="47.30401" lon="-1.50056">
        <ele>19</ele>
        <time>2021-03-24T11:49:54Z</time>
      </trkpt>
      <trkpt lat="47.30399" lon="-1.50052">
        <ele>19</ele>
        <time>2021-03-24T11:49:55Z</time>
      </trkpt>
      <trkpt lat="47.30397" lon="-1.50047">
        <ele>19</ele>
        <time>2021-03-24T11:49:56Z</time>
      </trkpt>
      <trkpt lat="47.30395" lon="-1.50042">
        <ele>20</ele>
        <time>2021-03-24T11:49:57Z</time>
      </trkpt>
      <trkpt lat="47.30393" lon="-1.50038">
        <ele>20</ele>
        <time>2021-03-24T11:49:58Z</time>
      </trkpt>
      <trkpt lat="47.30391" lon="-1.50034">
        <ele>20</ele>
        <time>2021-03-24T11:49:59Z</time>
      </trkpt>
      <trkpt lat="47.30389" lon="-1.5003">
        <ele>20</ele>
        <time>2021-03-24T11:50:00Z</time>
      </trkpt>
      <trkpt lat="47.30387" lon="-1.50026">
        <ele>20</ele>
        <time>2021-03-24T11:50:01Z</time>
      </trkpt>
      <trkpt lat="47.30385" lon="-1.50022">
        <ele>20</ele>
        <time>2021-03-24T11:50:02Z</time>
      </trkpt>
      <trkpt lat="47.30384" lon="-1.50019">
        <ele>20</ele>
        <time>2021-03-24T11:50:03Z</time>
      </trkpt>
      <trkpt lat="47.30382" lon="-1.50015">
        <ele>20</ele>
        <time>2021-03-24T11:50:04Z</time>
      </trkpt>
      <trkpt lat="47.30379" lon="-1.50012">
        <ele>20</ele>
        <time>2021-03-24T11:50:05Z</time>
      </trkpt>
      <trkpt lat="47.30377" lon="-1.50009">
        <ele>20</ele>
        <time>2021-03-24T11:50:06Z</time>
      </trkpt>
      <trkpt lat="47.30375" lon="-1.50007">
        <ele>20</ele>
        <time>2021-03-24T11:50:07Z</time>
      </trkpt>
      <trkpt lat="47.30373" lon="-1.50004">
        <ele>20</ele>
        <time>2021-03-24T11:50:08Z</time>
      </trkpt>
      <trkpt lat="47.30371" lon="-1.50001">
        <ele>20</ele>
        <time>2021-03-24T11:50:09Z</time>
      </trkpt>
      <trkpt lat="47.30369" lon="-1.49999">
        <ele>20</ele>
        <time>2021-03-24T11:50:10Z</time>
      </trkpt>
      <trkpt lat="47.30369" lon="-1.49995">
        <ele>20</ele>
        <time>2021-03-24T11:50:11Z</time>
      </trkpt>
      <trkpt lat="47.30368" lon="-1.49992">
        <ele>20</ele>
        <time>2021-03-24T11:50:12Z</time>
      </trkpt>
      <trkpt lat="47.30369" lon="-1.49988">
        <ele>20</ele>
        <time>2021-03-24T11:50:13Z</time>
      </trkpt>
      <trkpt lat="47.30369" lon="-1.49984">
        <ele>20</ele>
        <time>2021-03-24T11:50:14Z</time>
      </trkpt>
      <trkpt lat="47.30368" lon="-1.4998">
        <ele>20</ele>
        <time>2021-03-24T11:50:15Z</time>
      </trkpt>
      <trkpt lat="47.30368" lon="-1.49976">
        <ele>20</ele>
        <time>2021-03-24T11:50:16Z</time>
      </trkpt>
      <trkpt lat="47.30367" lon="-1.49972">
        <ele>20</ele>
        <time>2021-03-24T11:50:17Z</time>
      </trkpt>
      <trkpt lat="47.30367" lon="-1.49968">
        <ele>20</ele>
        <time>2021-03-24T11:50:18Z</time>
      </trkpt>
      <trkpt lat="47.30365" lon="-1.49964">
        <ele>20</ele>
        <time>2021-03-24T11:50:19Z</time>
      </trkpt>
      <trkpt lat="47.30364" lon="-1.4996">
        <ele>20</ele>
        <time>2021-03-24T11:50:20Z</time>
      </trkpt>
      <trkpt lat="47.30363" lon="-1.49955">
        <ele>20</ele>
        <time>2021-03-24T11:50:21Z</time>
      </trkpt>
      <trkpt lat="47.30361" lon="-1.49951">
        <ele>20</ele>
        <time>2021-03-24T11:50:22Z</time>
      </trkpt>
      <trkpt lat="47.3036" lon="-1.49947">
        <ele>20</ele>
        <time>2021-03-24T11:50:23Z</time>
      </trkpt>
      <trkpt lat="47.30358" lon="-1.49943">
        <ele>20</ele>
        <time>2021-03-24T11:50:24Z</time>
      </trkpt>
      <trkpt lat="47.30357" lon="-1.49939">
        <ele>20</ele>
        <time>2021-03-24T11:50:25Z</time>
      </trkpt>
      <trkpt lat="47.30355" lon="-1.49934">
        <ele>20</ele>
        <time>2021-03-24T11:50:26Z</time>
      </trkpt>
      <trkpt lat="47.30354" lon="-1.49931">
        <ele>20</ele>
        <time>2021-03-24T11:50:27Z</time>
      </trkpt>
      <trkpt lat="47.30352" lon="-1.49927">
        <ele>19</ele>
        <time>2021-03-24T11:50:28Z</time>
      </trkpt>
      <trkpt lat="47.30351" lon="-1.49923">
        <ele>19</ele>
        <time>2021-03-24T11:50:29Z</time>
      </trkpt>
      <trkpt lat="47.30349" lon="-1.4992">
        <ele>19</ele>
        <time>2021-03-24T11:50:30Z</time>
      </trkpt>
      <trkpt lat="47.30347" lon="-1.49916">
        <ele>19</ele>
        <time>2021-03-24T11:50:31Z</time>
      </trkpt>
      <trkpt lat="47.30345" lon="-1.49913">
        <ele>19</ele>
        <time>2021-03-24T11:50:32Z</time>
      </trkpt>
      <trkpt lat="47.30343" lon="-1.49911">
        <ele>19</ele>
        <time>2021-03-24T11:50:33Z</time>
      </trkpt>
      <trkpt lat="47.3034" lon="-1.49908">
        <ele>19</ele>
        <time>2021-03-24T11:50:34Z</time>
      </trkpt>
      <trkpt lat="47.30337" lon="-1.49906">
        <ele>19</ele>
        <time>2021-03-24T11:50:35Z</time>
      </trkpt>
      <trkpt lat="47.30335" lon="-1.49905">
        <ele>19</ele>
        <time>2021-03-24T11:50:36Z</time>
      </trkpt>
      <trkpt lat="47.30332" lon="-1.49905">
        <ele>19</ele>
        <time>2021-03-24T11:50:37Z</time>
      </trkpt>
      <trkpt lat="47.30329" lon="-1.49904">
        <ele>19</ele>
        <time>2021-03-24T11:50:38Z</time>
      </trkpt>
      <trkpt lat="47.30327" lon="-1.49904">
        <ele>19</ele>
        <time>2021-03-24T11:50:39Z</time>
      </trkpt>
      <trkpt lat="47.30324" lon="-1.49903">
        <ele>19</ele>
        <time>2021-03-24T11:50:40Z</time>
      </trkpt>
      <trkpt lat="47.30323" lon="-1.49901">
        <ele>19</ele>
        <time>2021-03-24T11:50:41Z</time>
      </trkpt>
      <trkpt lat="47.30321" lon="-1.49899">
        <ele>19</ele>
        <time>2021-03-24T11:50:42Z</time>
      </trkpt>
      <trkpt lat="47.3032" lon="-1.49896">
        <ele>19</ele>
        <time>2021-03-24T11:50:43Z</time>
      </trkpt>
      <trkpt lat="47.30319" lon="-1.49893">
        <ele>19</ele>
        <time>2021-03-24T11:50:44Z</time>
      </trkpt>
      <trkpt lat="47.30319" lon="-1.49889">
        <ele>19</ele>
        <time>2021-03-24T11:50:45Z</time>
      </trkpt>
      <trkpt lat="47.30319" lon="-1.49886">
        <ele>19</ele>
        <time>2021-03-24T11:50:46Z</time>
      </trkpt>
      <trkpt lat="47.30319" lon="-1.49881">
        <ele>19</ele>
        <time>2021-03-24T11:50:47Z</time>
      </trkpt>
      <trkpt lat="47.30319" lon="-1.49877">
        <ele>18</ele>
        <time>2021-03-24T11:50:48Z</time>
      </trkpt>
      <trkpt lat="47.30318" lon="-1.49873">
        <ele>18</ele>
        <time>2021-03-24T11:50:49Z</time>
      </trkpt>
      <trkpt lat="47.30317" lon="-1.49868">
        <ele>18</ele>
        <time>2021-03-24T11:50:50Z</time>
      </trkpt>
      <trkpt lat="47.30316" lon="-1.49864">
        <ele>18</ele>
        <time>2021-03-24T11:50:51Z</time>
      </trkpt>
      <trkpt lat="47.30315" lon="-1.4986">
        <ele>18</ele>
        <time>2021-03-24T11:50:52Z</time>
      </trkpt>
      <trkpt lat="47.30313" lon="-1.49856">
        <ele>18</ele>
        <time>2021-03-24T11:50:53Z</time>
      </trkpt>
      <trkpt lat="47.30312" lon="-1.49852">
        <ele>18</ele>
        <time>2021-03-24T11:50:54Z</time>
      </trkpt>
      <trkpt lat="47.3031" lon="-1.49848">
        <ele>18</ele>
        <time>2021-03-24T11:50:55Z</time>
      </trkpt>
      <trkpt lat="47.30308" lon="-1.49844">
        <ele>18</ele>
        <time>2021-03-24T11:50:56Z</time>
      </trkpt>
      <trkpt lat="47.30307" lon="-1.49841">
        <ele>18</ele>
        <time>2021-03-24T11:50:57Z</time>
      </trkpt>
      <trkpt lat="47.30306" lon="-1.49837">
        <ele>17</ele>
        <time>2021-03-24T11:50:58Z</time>
      </trkpt>
      <trkpt lat="47.30305" lon="-1.49833">
        <ele>17</ele>
        <time>2021-03-24T11:50:59Z</time>
      </trkpt>
      <trkpt lat="47.30304" lon="-1.49829">
        <ele>17</ele>
        <time>2021-03-24T11:51:00Z</time>
      </trkpt>
      <trkpt lat="47.30303" lon="-1.49825">
        <ele>17</ele>
        <time>2021-03-24T11:51:01Z</time>
      </trkpt>
      <trkpt lat="47.30302" lon="-1.49821">
        <ele>17</ele>
        <time>2021-03-24T11:51:02Z</time>
      </trkpt>
      <trkpt lat="47.30301" lon="-1.49816">
        <ele>17</ele>
        <time>2021-03-24T11:51:03Z</time>
      </trkpt>
      <trkpt lat="47.303" lon="-1.49812">
        <ele>17</ele>
        <time>2021-03-24T11:51:04Z</time>
      </trkpt>
      <trkpt lat="47.30299" lon="-1.49808">
        <ele>17</ele>
        <time>2021-03-24T11:51:05Z</time>
      </trkpt>
      <trkpt lat="47.30298" lon="-1.49803">
        <ele>17</ele>
        <time>2021-03-24T11:51:06Z</time>
      </trkpt>
      <trkpt lat="47.30296" lon="-1.49799">
        <ele>17</ele>
        <time>2021-03-24T11:51:07Z</time>
      </trkpt>
      <trkpt lat="47.30295" lon="-1.49794">
        <ele>16</ele>
        <time>2021-03-24T11:51:08Z</time>
      </trkpt>
      <trkpt lat="47.30293" lon="-1.4979">
        <ele>16</ele>
        <time>2021-03-24T11:51:09Z</time>
      </trkpt>
      <trkpt lat="47.30291" lon="-1.49786">
        <ele>16</ele>
        <time>2021-03-24T11:51:10Z</time>
      </trkpt>
      <trkpt lat="47.30289" lon="-1.49783">
        <ele>16</ele>
        <time>2021-03-24T11:51:11Z</time>
      </trkpt>
      <trkpt lat="47.30287" lon="-1.49779">
        <ele>16</ele>
        <time>2021-03-24T11:51:12Z</time>
      </trkpt>
      <trkpt lat="47.30285" lon="-1.49776">
        <ele>16</ele>
        <time>2021-03-24T11:51:13Z</time>
      </trkpt>
      <trkpt lat="47.30283" lon="-1.49773">
        <ele>16</ele>
        <time>2021-03-24T11:51:14Z</time>
      </trkpt>
      <trkpt lat="47.3028" lon="-1.4977">
        <ele>16</ele>
        <time>2021-03-24T11:51:15Z</time>
      </trkpt>
      <trkpt lat="47.30278" lon="-1.49766">
        <ele>16</ele>
        <time>2021-03-24T11:51:16Z</time>
      </trkpt>
      <trkpt lat="47.30276" lon="-1.49763">
        <ele>16</ele>
        <time>2021-03-24T11:51:17Z</time>
      </trkpt>
      <trkpt lat="47.30275" lon="-1.4976">
        <ele>15</ele>
        <time>2021-03-24T11:51:18Z</time>
      </trkpt>
      <trkpt lat="47.30274" lon="-1.49757">
        <ele>15</ele>
        <time>2021-03-24T11:51:19Z</time>
      </trkpt>
      <trkpt lat="47.30273" lon="-1.49754">
        <ele>15</ele>
        <time>2021-03-24T11:51:20Z</time>
      </trkpt>
      <trkpt lat="47.30272" lon="-1.4975">
        <ele>15</ele>
        <time>2021-03-24T11:51:21Z</time>
      </trkpt>
      <trkpt lat="47.30271" lon="-1.49747">
        <ele>15</ele>
        <time>2021-03-24T11:51:22Z</time>
      </trkpt>
      <trkpt lat="47.3027" lon="-1.49745">
        <ele>14</ele>
        <time>2021-03-24T11:51:23Z</time>
      </trkpt>
      <trkpt lat="47.30268" lon="-1.49742">
        <ele>14</ele>
        <time>2021-03-24T11:51:24Z</time>
      </trkpt>
      <trkpt lat="47.30267" lon="-1.4974">
        <ele>14</ele>
        <time>2021-03-24T11:51:25Z</time>
      </trkpt>
      <trkpt lat="47.30265" lon="-1.49738">
        <ele>14</ele>
        <time>2021-03-24T11:51:26Z</time>
      </trkpt>
      <trkpt lat="47.30263" lon="-1.49735">
        <ele>14</ele>
        <time>2021-03-24T11:51:27Z</time>
      </trkpt>
      <trkpt lat="47.30262" lon="-1.49732">
        <ele>13</ele>
        <time>2021-03-24T11:51:28Z</time>
      </trkpt>
      <trkpt lat="47.30261" lon="-1.49729">
        <ele>13</ele>
        <time>2021-03-24T11:51:29Z</time>
      </trkpt>
      <trkpt lat="47.3026" lon="-1.49725">
        <ele>13</ele>
        <time>2021-03-24T11:51:30Z</time>
      </trkpt>
      <trkpt lat="47.30259" lon="-1.49721">
        <ele>13</ele>
        <time>2021-03-24T11:51:31Z</time>
      </trkpt>
      <trkpt lat="47.30258" lon="-1.49717">
        <ele>13</ele>
        <time>2021-03-24T11:51:32Z</time>
      </trkpt>
      <trkpt lat="47.30256" lon="-1.49714">
        <ele>12</ele>
        <time>2021-03-24T11:51:33Z</time>
      </trkpt>
      <trkpt lat="47.30255" lon="-1.49711">
        <ele>12</ele>
        <time>2021-03-24T11:51:34Z</time>
      </trkpt>
      <trkpt lat="47.30253" lon="-1.49709">
        <ele>12</ele>
        <time>2021-03-24T11:51:35Z</time>
      </trkpt>
      <trkpt lat="47.30251" lon="-1.49706">
        <ele>12</ele>
        <time>2021-03-24T11:51:36Z</time>
      </trkpt>
      <trkpt lat="47.30249" lon="-1.49703">
        <ele>12</ele>
        <time>2021-03-24T11:51:37Z</time>
      </trkpt>
      <trkpt lat="47.30247" lon="-1.497">
        <ele>11</ele>
        <time>2021-03-24T11:51:38Z</time>
      </trkpt>
      <trkpt lat="47.30245" lon="-1.49698">
        <ele>11</ele>
        <time>2021-03-24T11:51:39Z</time>
      </trkpt>
      <trkpt lat="47.30243" lon="-1.49696">
        <ele>11</ele>
        <time>2021-03-24T11:51:40Z</time>
      </trkpt>
      <trkpt lat="47.30241" lon="-1.49696">
        <ele>11</ele>
        <time>2021-03-24T11:51:41Z</time>
      </trkpt>
      <trkpt lat="47.30238" lon="-1.49696">
        <ele>11</ele>
        <time>2021-03-24T11:51:42Z</time>
      </trkpt>
      <trkpt lat="47.30235" lon="-1.49696">
        <ele>10</ele>
        <time>2021-03-24T11:51:43Z</time>
      </trkpt>
      <trkpt lat="47.30232" lon="-1.49696">
        <ele>10</ele>
        <time>2021-03-24T11:51:44Z</time>
      </trkpt>
      <trkpt lat="47.3023" lon="-1.49695">
        <ele>10</ele>
        <time>2021-03-24T11:51:45Z</time>
      </trkpt>
      <trkpt lat="47.30227" lon="-1.49694">
        <ele>10</ele>
        <time>2021-03-24T11:51:46Z</time>
      </trkpt>
      <trkpt lat="47.30226" lon="-1.49691">
        <ele>10</ele>
        <time>2021-03-24T11:51:47Z</time>
      </trkpt>
      <trkpt lat="47.30224" lon="-1.49689">
        <ele>9</ele>
        <time>2021-03-24T11:51:48Z</time>
      </trkpt>
      <trkpt lat="47.30225" lon="-1.49685">
        <ele>9</ele>
        <time>2021-03-24T11:51:49Z</time>
      </trkpt>
      <trkpt lat="47.30225" lon="-1.49682">
        <ele>9</ele>
        <time>2021-03-24T11:51:50Z</time>
      </trkpt>
      <trkpt lat="47.30226" lon="-1.49678">
        <ele>9</ele>
        <time>2021-03-24T11:51:51Z</time>
      </trkpt>
      <trkpt lat="47.30227" lon="-1.49674">
        <ele>9</ele>
        <time>2021-03-24T11:51:52Z</time>
      </trkpt>
      <trkpt lat="47.30228" lon="-1.4967">
        <ele>9</ele>
        <time>2021-03-24T11:51:53Z</time>
      </trkpt>
      <trkpt lat="47.30228" lon="-1.49666">
        <ele>9</ele>
        <time>2021-03-24T11:51:54Z</time>
      </trkpt>
      <trkpt lat="47.30227" lon="-1.49663">
        <ele>9</ele>
        <time>2021-03-24T11:51:55Z</time>
      </trkpt>
      <trkpt lat="47.30225" lon="-1.4966">
        <ele>9</ele>
        <time>2021-03-24T11:51:56Z</time>
      </trkpt>
      <trkpt lat="47.30223" lon="-1.49658">
        <ele>9</ele>
        <time>2021-03-24T11:51:57Z</time>
      </trkpt>
      <trkpt lat="47.3022" lon="-1.49656">
        <ele>8</ele>
        <time>2021-03-24T11:51:58Z</time>
      </trkpt>
      <trkpt lat="47.30218" lon="-1.49654">
        <ele>8</ele>
        <time>2021-03-24T11:51:59Z</time>
      </trkpt>
      <trkpt lat="47.30215" lon="-1.49653">
        <ele>8</ele>
        <time>2021-03-24T11:52:00Z</time>
      </trkpt>
      <trkpt lat="47.30212" lon="-1.49651">
        <ele>8</ele>
        <time>2021-03-24T11:52:01Z</time>
      </trkpt>
      <trkpt lat="47.3021" lon="-1.49649">
        <ele>8</ele>
        <time>2021-03-24T11:52:02Z</time>
      </trkpt>
      <trkpt lat="47.30208" lon="-1.49646">
        <ele>7</ele>
        <time>2021-03-24T11:52:03Z</time>
      </trkpt>
      <trkpt lat="47.30206" lon="-1.49643">
        <ele>7</ele>
        <time>2021-03-24T11:52:04Z</time>
      </trkpt>
      <trkpt lat="47.30203" lon="-1.4964">
        <ele>7</ele>
        <time>2021-03-24T11:52:05Z</time>
      </trkpt>
      <trkpt lat="47.30201" lon="-1.49637">
        <ele>7</ele>
        <time>2021-03-24T11:52:06Z</time>
      </trkpt>
      <trkpt lat="47.30198" lon="-1.49635">
        <ele>7</ele>
        <time>2021-03-24T11:52:07Z</time>
      </trkpt>
      <trkpt lat="47.30195" lon="-1.49633">
        <ele>6</ele>
        <time>2021-03-24T11:52:08Z</time>
      </trkpt>
      <trkpt lat="47.30192" lon="-1.49633">
        <ele>6</ele>
        <time>2021-03-24T11:52:09Z</time>
      </trkpt>
      <trkpt lat="47.30189" lon="-1.49633">
        <ele>6</ele>
        <time>2021-03-24T11:52:10Z</time>
      </trkpt>
      <trkpt lat="47.30186" lon="-1.49635">
        <ele>6</ele>
        <time>2021-03-24T11:52:11Z</time>
      </trkpt>
      <trkpt lat="47.30183" lon="-1.49636">
        <ele>6</ele>
        <time>2021-03-24T11:52:12Z</time>
      </trkpt>
      <trkpt lat="47.3018" lon="-1.49638">
        <ele>5</ele>
        <time>2021-03-24T11:52:13Z</time>
      </trkpt>
      <trkpt lat="47.30177" lon="-1.49639">
        <ele>5</ele>
        <time>2021-03-24T11:52:14Z</time>
      </trkpt>
      <trkpt lat="47.30174" lon="-1.49639">
        <ele>5</ele>
        <time>2021-03-24T11:52:15Z</time>
      </trkpt>
      <trkpt lat="47.30171" lon="-1.49639">
        <ele>5</ele>
        <time>2021-03-24T11:52:16Z</time>
      </trkpt>
      <trkpt lat="47.30168" lon="-1.49637">
        <ele>5</ele>
        <time>2021-03-24T11:52:17Z</time>
      </trkpt>
      <trkpt lat="47.30166" lon="-1.49635">
        <ele>5</ele>
        <time>2021-03-24T11:52:18Z</time>
      </trkpt>
      <trkpt lat="47.30164" lon="-1.49631">
        <ele>5</ele>
        <time>2021-03-24T11:52:19Z</time>
      </trkpt>
      <trkpt lat="47.30162" lon="-1.49628">
        <ele>5</ele>
        <time>2021-03-24T11:52:20Z</time>
      </trkpt>
      <trkpt lat="47.30162" lon="-1.49623">
        <ele>5</ele>
        <time>2021-03-24T11:52:21Z</time>
      </trkpt>
      <trkpt lat="47.30161" lon="-1.49619">
        <ele>5</ele>
        <time>2021-03-24T11:52:22Z</time>
      </trkpt>
      <trkpt lat="47.30161" lon="-1.49614">
        <ele>4</ele>
        <time>2021-03-24T11:52:23Z</time>
      </trkpt>
      <trkpt lat="47.30161" lon="-1.49609">
        <ele>4</ele>
        <time>2021-03-24T11:52:24Z</time>
      </trkpt>
      <trkpt lat="47.3016" lon="-1.49605">
        <ele>4</ele>
        <time>2021-03-24T11:52:25Z</time>
      </trkpt>
      <trkpt lat="47.30159" lon="-1.496">
        <ele>4</ele>
        <time>2021-03-24T11:52:26Z</time>
      </trkpt>
      <trkpt lat="47.30157" lon="-1.49597">
        <ele>4</ele>
        <time>2021-03-24T11:52:27Z</time>
      </trkpt>
      <trkpt lat="47.30155" lon="-1.49594">
        <ele>3</ele>
        <time>2021-03-24T11:52:28Z</time>
      </trkpt>
      <trkpt lat="47.30153" lon="-1.49592">
        <ele>3</ele>
        <time>2021-03-24T11:52:29Z</time>
      </trkpt>
      <trkpt lat="47.3015" lon="-1.49589">
        <ele>3</ele>
        <time>2021-03-24T11:52:30Z</time>
      </trkpt>
      <trkpt lat="47.30148" lon="-1.49586">
        <ele>3</ele>
        <time>2021-03-24T11:52:31Z</time>
      </trkpt>
      <trkpt lat="47.30147" lon="-1.49583">
        <ele>3</ele>
        <time>2021-03-24T11:52:32Z</time>
      </trkpt>
      <trkpt lat="47.30147" lon="-1.4958">
        <ele>2</ele>
        <time>2021-03-24T11:52:33Z</time>
      </trkpt>
      <trkpt lat="47.30146" lon="-1.49576">
        <ele>2</ele>
        <time>2021-03-24T11:52:34Z</time>
      </trkpt>
      <trkpt lat="47.30147" lon="-1.49572">
        <ele>2</ele>
        <time>2021-03-24T11:52:35Z</time>
      </trkpt>
      <trkpt lat="47.30148" lon="-1.49568">
        <ele>2</ele>
        <time>2021-03-24T11:52:36Z</time>
      </trkpt>
      <trkpt lat="47.30149" lon="-1.49564">
        <ele>2</ele>
        <time>2021-03-24T11:52:37Z</time>
      </trkpt>
      <trkpt lat="47.3015" lon="-1.4956">
        <ele>2</ele>
        <time>2021-03-24T11:52:38Z</time>
      </trkpt>
      <trkpt lat="47.30151" lon="-1.49556">
        <ele>2</ele>
        <time>2021-03-24T11:52:39Z</time>
      </trkpt>
      <trkpt lat="47.30153" lon="-1.49552">
        <ele>2</ele>
        <time>2021-03-24T11:52:40Z</time>
      </trkpt>
      <trkpt lat="47.30155" lon="-1.49549">
        <ele>2</ele>
        <time>2021-03-24T11:52:41Z</time>
      </trkpt>
      <trkpt lat="47.30157" lon="-1.49545">
        <ele>2</ele>
        <time>2021-03-24T11:52:42Z</time>
      </trkpt>
      <trkpt lat="47.30159" lon="-1.49542">
        <ele>1</ele>
        <time>2021-03-24T11:52:43Z</time>
      </trkpt>
      <trkpt lat="47.30162" lon="-1.4954">
        <ele>1</ele>
        <time>2021-03-24T11:52:44Z</time>
      </trkpt>
      <trkpt lat="47.30165" lon="-1.49537">
        <ele>1</ele>
        <time>2021-03-24T11:52:45Z</time>
      </trkpt>
      <trkpt lat="47.30168" lon="-1.49535">
        <ele>1</ele>
        <time>2021-03-24T11:52:46Z</time>
      </trkpt>
      <trkpt lat="47.30171" lon="-1.49533">
        <ele>1</ele>
        <time>2021-03-24T11:52:47Z</time>
      </trkpt>
      <trkpt lat="47.30175" lon="-1.49531">
        <ele>1</ele>
        <time>2021-03-24T11:52:48Z</time>
      </trkpt>
      <trkpt lat="47.30178" lon="-1.49528">
        <ele>1</ele>
        <time>2021-03-24T11:52:49Z</time>
      </trkpt>
      <trkpt lat="47.30182" lon="-1.49526">
        <ele>1</ele>
        <time>2021-03-24T11:52:50Z</time>
      </trkpt>
      <trkpt lat="47.30185" lon="-1.49524">
        <ele>1</ele>
        <time>2021-03-24T11:52:51Z</time>
      </trkpt>
      <trkpt lat="47.30188" lon="-1.49522">
        <ele>1</ele>
        <time>2021-03-24T11:52:52Z</time>
      </trkpt>
      <trkpt lat="47.3019" lon="-1.49519">
        <ele>1</ele>
        <time>2021-03-24T11:52:53Z</time>
      </trkpt>
      <trkpt lat="47.30192" lon="-1.49516">
        <ele>1</ele>
        <time>2021-03-24T11:52:54Z</time>
      </trkpt>
      <trkpt lat="47.30194" lon="-1.49512">
        <ele>1</ele>
        <time>2021-03-24T11:52:55Z</time>
      </trkpt>
      <trkpt lat="47.30196" lon="-1.49508">
        <ele>1</ele>
        <time>2021-03-24T11:52:56Z</time>
      </trkpt>
      <trkpt lat="47.30198" lon="-1.49504">
        <ele>1</ele>
        <time>2021-03-24T11:52:57Z</time>
      </trkpt>
      <trkpt lat="47.302" lon="-1.495">
        <ele>1</ele>
        <time>2021-03-24T11:52:58Z</time>
      </trkpt>
      <trkpt lat="47.30202" lon="-1.49496">
        <ele>1</ele>
        <time>2021-03-24T11:52:59Z</time>
      </trkpt>
      <trkpt lat="47.30204" lon="-1.49492">
        <ele>1</ele>
        <time>2021-03-24T11:53:00Z</time>
      </trkpt>
      <trkpt lat="47.30206" lon="-1.49488">
        <ele>1</ele>
        <time>2021-03-24T11:53:01Z</time>
      </trkpt>
      <trkpt lat="47.30208" lon="-1.49485">
        <ele>2</ele>
        <time>2021-03-24T11:53:02Z</time>
      </trkpt>
      <trkpt lat="47.3021" lon="-1.49481">
        <ele>2</ele>
        <time>2021-03-24T11:53:03Z</time>
      </trkpt>
      <trkpt lat="47.30211" lon="-1.49477">
        <ele>2</ele>
        <time>2021-03-24T11:53:04Z</time>
      </trkpt>
      <trkpt lat="47.30211" lon="-1.49473">
        <ele>2</ele>
        <time>2021-03-24T11:53:05Z</time>
      </trkpt>
      <trkpt lat="47.30211" lon="-1.49469">
        <ele>2</ele>
        <time>2021-03-24T11:53:06Z</time>
      </trkpt>
      <trkpt lat="47.3021" lon="-1.49465">
        <ele>2</ele>
        <time>2021-03-24T11:53:07Z</time>
      </trkpt>
      <trkpt lat="47.30208" lon="-1.49462">
        <ele>2</ele>
        <time>2021-03-24T11:53:08Z</time>
      </trkpt>
      <trkpt lat="47.30205" lon="-1.49459">
        <ele>2</ele>
        <time>2021-03-24T11:53:09Z</time>
      </trkpt>
      <trkpt lat="47.30202" lon="-1.49456">
        <ele>2</ele>
        <time>2021-03-24T11:53:10Z</time>
      </trkpt>
      <trkpt lat="47.30198" lon="-1.49455">
        <ele>2</ele>
        <time>2021-03-24T11:53:11Z</time>
      </trkpt>
      <trkpt lat="47.30194" lon="-1.49453">
        <ele>2</ele>
        <time>2021-03-24T11:53:12Z</time>
      </trkpt>
      <trkpt lat="47.30191" lon="-1.49452">
        <ele>2</ele>
        <time>2021-03-24T11:53:13Z</time>
      </trkpt>
      <trkpt lat="47.30187" lon="-1.49451">
        <ele>2</ele>
        <time>2021-03-24T11:53:14Z</time>
      </trkpt>
      <trkpt lat="47.30183" lon="-1.49451">
        <ele>2</ele>
        <time>2021-03-24T11:53:15Z</time>
      </trkpt>
      <trkpt lat="47.3018" lon="-1.49451">
        <ele>2</ele>
        <time>2021-03-24T11:53:16Z</time>
      </trkpt>
      <trkpt lat="47.30176" lon="-1.4945">
        <ele>2</ele>
        <time>2021-03-24T11:53:17Z</time>
      </trkpt>
      <trkpt lat="47.30173" lon="-1.4945">
        <ele>2</ele>
        <time>2021-03-24T11:53:18Z</time>
      </trkpt>
      <trkpt lat="47.30169" lon="-1.49449">
        <ele>2</ele>
        <time>2021-03-24T11:53:19Z</time>
      </trkpt>
      <trkpt lat="47.30166" lon="-1.49449">
        <ele>2</ele>
        <time>2021-03-24T11:53:20Z</time>
      </trkpt>
      <trkpt lat="47.30162" lon="-1.49449">
        <ele>2</ele>
        <time>2021-03-24T11:53:21Z</time>
      </trkpt>
      <trkpt lat="47.30159" lon="-1.49449">
        <ele>2</ele>
        <time>2021-03-24T11:53:22Z</time>
      </trkpt>
      <trkpt lat="47.30156" lon="-1.49448">
        <ele>1</ele>
        <time>2021-03-24T11:53:23Z</time>
      </trkpt>
      <trkpt lat="47.30153" lon="-1.49448">
        <ele>1</ele>
        <time>2021-03-24T11:53:24Z</time>
      </trkpt>
      <trkpt lat="47.3015" lon="-1.49447">
        <ele>1</ele>
        <time>2021-03-24T11:53:25Z</time>
      </trkpt>
      <trkpt lat="47.30146" lon="-1.49447">
        <ele>1</ele>
        <time>2021-03-24T11:53:26Z</time>
      </trkpt>
      <trkpt lat="47.30143" lon="-1.49446">
        <ele>1</ele>
        <time>2021-03-24T11:53:27Z</time>
      </trkpt>
      <trkpt lat="47.3014" lon="-1.49446">
        <ele>1</ele>
        <time>2021-03-24T11:53:28Z</time>
      </trkpt>
      <trkpt lat="47.30137" lon="-1.49445">
        <ele>1</ele>
        <time>2021-03-24T11:53:29Z</time>
      </trkpt>
      <trkpt lat="47.30133" lon="-1.49444">
        <ele>1</ele>
        <time>2021-03-24T11:53:30Z</time>
      </trkpt>
      <trkpt lat="47.3013" lon="-1.49443">
        <ele>1</ele>
        <time>2021-03-24T11:53:31Z</time>
      </trkpt>
      <trkpt lat="47.30127" lon="-1.49442">
        <ele>1</ele>
        <time>2021-03-24T11:53:32Z</time>
      </trkpt>
      <trkpt lat="47.30124" lon="-1.49441">
        <ele>1</ele>
        <time>2021-03-24T11:53:33Z</time>
      </trkpt>
      <trkpt lat="47.3012" lon="-1.4944">
        <ele>1</ele>
        <time>2021-03-24T11:53:34Z</time>
      </trkpt>
      <trkpt lat="47.30117" lon="-1.49441">
        <ele>1</ele>
        <time>2021-03-24T11:53:35Z</time>
      </trkpt>
      <trkpt lat="47.30114" lon="-1.49441">
        <ele>1</ele>
        <time>2021-03-24T11:53:36Z</time>
      </trkpt>
      <trkpt lat="47.30112" lon="-1.49444">
        <ele>1</ele>
        <time>2021-03-24T11:53:37Z</time>
      </trkpt>
      <trkpt lat="47.30109" lon="-1.49446">
        <ele>1</ele>
        <time>2021-03-24T11:53:38Z</time>
      </trkpt>
      <trkpt lat="47.30107" lon="-1.4945">
        <ele>1</ele>
        <time>2021-03-24T11:53:39Z</time>
      </trkpt>
      <trkpt lat="47.30105" lon="-1.49453">
        <ele>1</ele>
        <time>2021-03-24T11:53:40Z</time>
      </trkpt>
      <trkpt lat="47.30103" lon="-1.49457">
        <ele>1</ele>
        <time>2021-03-24T11:53:41Z</time>
      </trkpt>
      <trkpt lat="47.30101" lon="-1.49461">
        <ele>2</ele>
        <time>2021-03-24T11:53:42Z</time>
      </trkpt>
      <trkpt lat="47.30099" lon="-1.49464">
        <ele>2</ele>
        <time>2021-03-24T11:53:43Z</time>
      </trkpt>
      <trkpt lat="47.30097" lon="-1.49468">
        <ele>2</ele>
        <time>2021-03-24T11:53:44Z</time>
      </trkpt>
      <trkpt lat="47.30094" lon="-1.49471">
        <ele>2</ele>
        <time>2021-03-24T11:53:45Z</time>
      </trkpt>
      <trkpt lat="47.30092" lon="-1.49474">
        <ele>2</ele>
        <time>2021-03-24T11:53:46Z</time>
      </trkpt>
      <trkpt lat="47.30089" lon="-1.49476">
        <ele>2</ele>
        <time>2021-03-24T11:53:47Z</time>
      </trkpt>
      <trkpt lat="47.30087" lon="-1.49478">
        <ele>2</ele>
        <time>2021-03-24T11:53:48Z</time>
      </trkpt>
      <trkpt lat="47.30084" lon="-1.49481">
        <ele>2</ele>
        <time>2021-03-24T11:53:49Z</time>
      </trkpt>
      <trkpt lat="47.30081" lon="-1.49483">
        <ele>2</ele>
        <time>2021-03-24T11:53:50Z</time>
      </trkpt>
      <trkpt lat="47.30079" lon="-1.49485">
        <ele>2</ele>
        <time>2021-03-24T11:53:51Z</time>
      </trkpt>
      <trkpt lat="47.30076" lon="-1.49487">
        <ele>2</ele>
        <time>2021-03-24T11:53:52Z</time>
      </trkpt>
      <trkpt lat="47.30073" lon="-1.49488">
        <ele>2</ele>
        <time>2021-03-24T11:53:53Z</time>
      </trkpt>
      <trkpt lat="47.3007" lon="-1.4949">
        <ele>2</ele>
        <time>2021-03-24T11:53:54Z</time>
      </trkpt>
      <trkpt lat="47.30068" lon="-1.49492">
        <ele>2</ele>
        <time>2021-03-24T11:53:55Z</time>
      </trkpt>
      <trkpt lat="47.30065" lon="-1.49494">
        <ele>2</ele>
        <time>2021-03-24T11:53:56Z</time>
      </trkpt>
      <trkpt lat="47.30062" lon="-1.49496">
        <ele>2</ele>
        <time>2021-03-24T11:53:57Z</time>
      </trkpt>
      <trkpt lat="47.3006" lon="-1.49498">
        <ele>2</ele>
        <time>2021-03-24T11:53:58Z</time>
      </trkpt>
      <trkpt lat="47.30057" lon="-1.495">
        <ele>2</ele>
        <time>2021-03-24T11:53:59Z</time>
      </trkpt>
      <trkpt lat="47.30054" lon="-1.49502">
        <ele>2</ele>
        <time>2021-03-24T11:54:00Z</time>
      </trkpt>
      <trkpt lat="47.30051" lon="-1.49504">
        <ele>2</ele>
        <time>2021-03-24T11:54:01Z</time>
      </trkpt>
      <trkpt lat="47.30048" lon="-1.49507">
        <ele>2</ele>
        <time>2021-03-24T11:54:02Z</time>
      </trkpt>
      <trkpt lat="47.30046" lon="-1.49509">
        <ele>2</ele>
        <time>2021-03-24T11:54:03Z</time>
      </trkpt>
      <trkpt lat="47.30043" lon="-1.49512">
        <ele>2</ele>
        <time>2021-03-24T11:54:04Z</time>
      </trkpt>
      <trkpt lat="47.30041" lon="-1.49515">
        <ele>2</ele>
        <time>2021-03-24T11:54:05Z</time>
      </trkpt>
      <trkpt lat="47.30039" lon="-1.49518">
        <ele>2</ele>
        <time>2021-03-24T11:54:06Z</time>
      </trkpt>
      <trkpt lat="47.30037" lon="-1.49522">
        <ele>3</ele>
        <time>2021-03-24T11:54:07Z</time>
      </trkpt>
      <trkpt lat="47.30036" lon="-1.49526">
        <ele>3</ele>
        <time>2021-03-24T11:54:08Z</time>
      </trkpt>
      <trkpt lat="47.30034" lon="-1.4953">
        <ele>3</ele>
        <time>2021-03-24T11:54:09Z</time>
      </trkpt>
      <trkpt lat="47.30033" lon="-1.49534">
        <ele>3</ele>
        <time>2021-03-24T11:54:10Z</time>
      </trkpt>
      <trkpt lat="47.30032" lon="-1.49538">
        <ele>3</ele>
        <time>2021-03-24T11:54:11Z</time>
      </trkpt>
      <trkpt lat="47.3003" lon="-1.49542">
        <ele>3</ele>
        <time>2021-03-24T11:54:12Z</time>
      </trkpt>
      <trkpt lat="47.30029" lon="-1.49546">
        <ele>3</ele>
        <time>2021-03-24T11:54:13Z</time>
      </trkpt>
      <trkpt lat="47.30028" lon="-1.4955">
        <ele>3</ele>
        <time>2021-03-24T11:54:14Z</time>
      </trkpt>
      <trkpt lat="47.30027" lon="-1.49555">
        <ele>3</ele>
        <time>2021-03-24T11:54:15Z</time>
      </trkpt>
      <trkpt lat="47.30026" lon="-1.4956">
        <ele>3</ele>
        <time>2021-03-24T11:54:16Z</time>
      </trkpt>
      <trkpt lat="47.30025" lon="-1.49565">
        <ele>3</ele>
        <time>2021-03-24T11:54:17Z</time>
      </trkpt>
      <trkpt lat="47.30025" lon="-1.49569">
        <ele>2</ele>
        <time>2021-03-24T11:54:18Z</time>
      </trkpt>
      <trkpt lat="47.30025" lon="-1.49574">
        <ele>2</ele>
        <time>2021-03-24T11:54:19Z</time>
      </trkpt>
      <trkpt lat="47.30025" lon="-1.49579">
        <ele>2</ele>
        <time>2021-03-24T11:54:20Z</time>
      </trkpt>
      <trkpt lat="47.30026" lon="-1.49584">
        <ele>2</ele>
        <time>2021-03-24T11:54:21Z</time>
      </trkpt>
      <trkpt lat="47.30026" lon="-1.49588">
        <ele>2</ele>
        <time>2021-03-24T11:54:22Z</time>
      </trkpt>
      <trkpt lat="47.30026" lon="-1.49592">
        <ele>1</ele>
        <time>2021-03-24T11:54:23Z</time>
      </trkpt>
      <trkpt lat="47.30025" lon="-1.49597">
        <ele>1</ele>
        <time>2021-03-24T11:54:24Z</time>
      </trkpt>
      <trkpt lat="47.30024" lon="-1.496">
        <ele>1</ele>
        <time>2021-03-24T11:54:25Z</time>
      </trkpt>
      <trkpt lat="47.30023" lon="-1.49604">
        <ele>1</ele>
        <time>2021-03-24T11:54:26Z</time>
      </trkpt>
      <trkpt lat="47.30021" lon="-1.49607">
        <ele>1</ele>
        <time>2021-03-24T11:54:27Z</time>
      </trkpt>
      <trkpt lat="47.3002" lon="-1.4961">
        <ele>1</ele>
        <time>2021-03-24T11:54:28Z</time>
      </trkpt>
      <trkpt lat="47.30017" lon="-1.49613">
        <ele>1</ele>
        <time>2021-03-24T11:54:29Z</time>
      </trkpt>
      <trkpt lat="47.30015" lon="-1.49616">
        <ele>1</ele>
        <time>2021-03-24T11:54:30Z</time>
      </trkpt>
      <trkpt lat="47.30012" lon="-1.49618">
        <ele>1</ele>
        <time>2021-03-24T11:54:31Z</time>
      </trkpt>
      <trkpt lat="47.30009" lon="-1.49621">
        <ele>1</ele>
        <time>2021-03-24T11:54:32Z</time>
      </trkpt>
      <trkpt lat="47.30005" lon="-1.49623">
        <ele>1</ele>
        <time>2021-03-24T11:54:33Z</time>
      </trkpt>
      <trkpt lat="47.30002" lon="-1.49625">
        <ele>1</ele>
        <time>2021-03-24T11:54:34Z</time>
      </trkpt>
      <trkpt lat="47.29998" lon="-1.49627">
        <ele>1</ele>
        <time>2021-03-24T11:54:35Z</time>
      </trkpt>
      <trkpt lat="47.29995" lon="-1.49628">
        <ele>1</ele>
        <time>2021-03-24T11:54:36Z</time>
      </trkpt>
      <trkpt lat="47.29992" lon="-1.49631">
        <ele>1</ele>
        <time>2021-03-24T11:54:37Z</time>
      </trkpt>
      <trkpt lat="47.29989" lon="-1.49634">
        <ele>1</ele>
        <time>2021-03-24T11:54:38Z</time>
      </trkpt>
      <trkpt lat="47.29987" lon="-1.49637">
        <ele>1</ele>
        <time>2021-03-24T11:54:39Z</time>
      </trkpt>
      <trkpt lat="47.29985" lon="-1.49641">
        <ele>1</ele>
        <time>2021-03-24T11:54:40Z</time>
      </trkpt>
      <trkpt lat="47.29983" lon="-1.49645">
        <ele>1</ele>
        <time>2021-03-24T11:54:41Z</time>
      </trkpt>
      <trkpt lat="47.29982" lon="-1.49649">
        <ele>1</ele>
        <time>2021-03-24T11:54:42Z</time>
      </trkpt>
      <trkpt lat="47.29982" lon="-1.49654">
        <ele>1</ele>
        <time>2021-03-24T11:54:43Z</time>
      </trkpt>
      <trkpt lat="47.29982" lon="-1.49658">
        <ele>1</ele>
        <time>2021-03-24T11:54:44Z</time>
      </trkpt>
      <trkpt lat="47.29982" lon="-1.49663">
        <ele>1</ele>
        <time>2021-03-24T11:54:45Z</time>
      </trkpt>
      <trkpt lat="47.29983" lon="-1.49667">
        <ele>1</ele>
        <time>2021-03-24T11:54:46Z</time>
      </trkpt>
      <trkpt lat="47.29984" lon="-1.49671">
        <ele>1</ele>
        <time>2021-03-24T11:54:47Z</time>
      </trkpt>
      <trkpt lat="47.29985" lon="-1.49675">
        <ele>1</ele>
        <time>2021-03-24T11:54:48Z</time>
      </trkpt>
      <trkpt lat="47.29986" lon="-1.49679">
        <ele>1</ele>
        <time>2021-03-24T11:54:49Z</time>
      </trkpt>
      <trkpt lat="47.29987" lon="-1.49683">
        <ele>1</ele>
        <time>2021-03-24T11:54:50Z</time>
      </trkpt>
      <trkpt lat="47.29988" lon="-1.49687">
        <ele>1</ele>
        <time>2021-03-24T11:54:51Z</time>
      </trkpt>
      <trkpt lat="47.29989" lon="-1.49691">
        <ele>1</ele>
        <time>2021-03-24T11:54:52Z</time>
      </trkpt>
      <trkpt lat="47.29991" lon="-1.49694">
        <ele>6</ele>
        <time>2021-03-24T11:54:53Z</time>
      </trkpt>
      <trkpt lat="47.29993" lon="-1.49698">
        <ele>6</ele>
        <time>2021-03-24T11:54:54Z</time>
      </trkpt>
      <trkpt lat="47.29994" lon="-1.49702">
        <ele>5.9</ele>
        <time>2021-03-24T11:54:55Z</time>
      </trkpt>
      <trkpt lat="47.29995" lon="-1.49706">
        <ele>5.9</ele>
        <time>2021-03-24T11:54:56Z</time>
      </trkpt>
      <trkpt lat="47.29996" lon="-1.49711">
        <ele>5.9</ele>
        <time>2021-03-24T11:54:57Z</time>
      </trkpt>
      <trkpt lat="47.29997" lon="-1.49715">
        <ele>5.9</ele>
        <time>2021-03-24T11:54:58Z</time>
      </trkpt>
      <trkpt lat="47.29996" lon="-1.4972">
        <ele>5.9</ele>
        <time>2021-03-24T11:54:59Z</time>
      </trkpt>
      <trkpt lat="47.29996" lon="-1.49724">
        <ele>5.9</ele>
        <time>2021-03-24T11:55:00Z</time>
      </trkpt>
      <trkpt lat="47.29995" lon="-1.49729">
        <ele>5.9</ele>
        <time>2021-03-24T11:55:01Z</time>
      </trkpt>
      <trkpt lat="47.29994" lon="-1.49733">
        <ele>5.9</ele>
        <time>2021-03-24T11:55:02Z</time>
      </trkpt>
      <trkpt lat="47.29993" lon="-1.49737">
        <ele>5.9</ele>
        <time>2021-03-24T11:55:03Z</time>
      </trkpt>
      <trkpt lat="47.29991" lon="-1.49741">
        <ele>5.9</ele>
        <time>2021-03-24T11:55:04Z</time>
      </trkpt>
      <trkpt lat="47.2999" lon="-1.49745">
        <ele>5.9</ele>
        <time>2021-03-24T11:55:05Z</time>
      </trkpt>
      <trkpt lat="47.29988" lon="-1.49749">
        <ele>6</ele>
        <time>2021-03-24T11:55:06Z</time>
      </trkpt>
      <trkpt lat="47.29986" lon="-1.49752">
        <ele>1</ele>
        <time>2021-03-24T11:55:07Z</time>
      </trkpt>
      <trkpt lat="47.29983" lon="-1.49756">
        <ele>1</ele>
        <time>2021-03-24T11:55:08Z</time>
      </trkpt>
      <trkpt lat="47.29981" lon="-1.49759">
        <ele>1</ele>
        <time>2021-03-24T11:55:09Z</time>
      </trkpt>
      <trkpt lat="47.29979" lon="-1.49762">
        <ele>1</ele>
        <time>2021-03-24T11:55:10Z</time>
      </trkpt>
      <trkpt lat="47.29976" lon="-1.49765">
        <ele>1</ele>
        <time>2021-03-24T11:55:11Z</time>
      </trkpt>
      <trkpt lat="47.29973" lon="-1.49768">
        <ele>1</ele>
        <time>2021-03-24T11:55:12Z</time>
      </trkpt>
      <trkpt lat="47.29971" lon="-1.49771">
        <ele>1</ele>
        <time>2021-03-24T11:55:13Z</time>
      </trkpt>
      <trkpt lat="47.29968" lon="-1.49774">
        <ele>1</ele>
        <time>2021-03-24T11:55:14Z</time>
      </trkpt>
      <trkpt lat="47.29965" lon="-1.49776">
        <ele>1</ele>
        <time>2021-03-24T11:55:15Z</time>
      </trkpt>
      <trkpt lat="47.29963" lon="-1.49779">
        <ele>1</ele>
        <time>2021-03-24T11:55:16Z</time>
      </trkpt>
      <trkpt lat="47.2996" lon="-1.49781">
        <ele>2</ele>
        <time>2021-03-24T11:55:17Z</time>
      </trkpt>
      <trkpt lat="47.29958" lon="-1.49783">
        <ele>2</ele>
        <time>2021-03-24T11:55:18Z</time>
      </trkpt>
      <trkpt lat="47.29955" lon="-1.49785">
        <ele>2</ele>
        <time>2021-03-24T11:55:19Z</time>
      </trkpt>
      <trkpt lat="47.29953" lon="-1.49787">
        <ele>2</ele>
        <time>2021-03-24T11:55:20Z</time>
      </trkpt>
      <trkpt lat="47.2995" lon="-1.49788">
        <ele>2</ele>
        <time>2021-03-24T11:55:21Z</time>
      </trkpt>
      <trkpt lat="47.29947" lon="-1.4979">
        <ele>2</ele>
        <time>2021-03-24T11:55:22Z</time>
      </trkpt>
      <trkpt lat="47.29945" lon="-1.49791">
        <ele>2</ele>
        <time>2021-03-24T11:55:23Z</time>
      </trkpt>
      <trkpt lat="47.29942" lon="-1.49792">
        <ele>2</ele>
        <time>2021-03-24T11:55:24Z</time>
      </trkpt>
      <trkpt lat="47.29939" lon="-1.49792">
        <ele>2</ele>
        <time>2021-03-24T11:55:25Z</time>
      </trkpt>
      <trkpt lat="47.29936" lon="-1.49793">
        <ele>2</ele>
        <time>2021-03-24T11:55:26Z</time>
      </trkpt>
      <trkpt lat="47.29933" lon="-1.49794">
        <ele>3</ele>
        <time>2021-03-24T11:55:27Z</time>
      </trkpt>
      <trkpt lat="47.2993" lon="-1.49795">
        <ele>3</ele>
        <time>2021-03-24T11:55:28Z</time>
      </trkpt>
      <trkpt lat="47.29928" lon="-1.49796">
        <ele>3</ele>
        <time>2021-03-24T11:55:29Z</time>
      </trkpt>
      <trkpt lat="47.29925" lon="-1.49797">
        <ele>3</ele>
        <time>2021-03-24T11:55:30Z</time>
      </trkpt>
      <trkpt lat="47.29922" lon="-1.49798">
        <ele>3</ele>
        <time>2021-03-24T11:55:31Z</time>
      </trkpt>
      <trkpt lat="47.2992" lon="-1.49799">
        <ele>4</ele>
        <time>2021-03-24T11:55:32Z</time>
      </trkpt>
      <trkpt lat="47.29917" lon="-1.49799">
        <ele>3</ele>
        <time>2021-03-24T11:55:33Z</time>
      </trkpt>
      <trkpt lat="47.29914" lon="-1.49799">
        <ele>3</ele>
        <time>2021-03-24T11:55:34Z</time>
      </trkpt>
      <trkpt lat="47.29911" lon="-1.49799">
        <ele>3</ele>
        <time>2021-03-24T11:55:35Z</time>
      </trkpt>
      <trkpt lat="47.29908" lon="-1.49798">
        <ele>3</ele>
        <time>2021-03-24T11:55:36Z</time>
      </trkpt>
      <trkpt lat="47.29905" lon="-1.49798">
        <ele>3</ele>
        <time>2021-03-24T11:55:37Z</time>
      </trkpt>
      <trkpt lat="47.29902" lon="-1.49797">
        <ele>3</ele>
        <time>2021-03-24T11:55:38Z</time>
      </trkpt>
      <trkpt lat="47.29898" lon="-1.49797">
        <ele>3</ele>
        <time>2021-03-24T11:55:39Z</time>
      </trkpt>
      <trkpt lat="47.29895" lon="-1.49796">
        <ele>3</ele>
        <time>2021-03-24T11:55:40Z</time>
      </trkpt>
      <trkpt lat="47.29891" lon="-1.49795">
        <ele>3</ele>
        <time>2021-03-24T11:55:41Z</time>
      </trkpt>
      <trkpt lat="47.29887" lon="-1.49794">
        <ele>3</ele>
        <time>2021-03-24T11:55:42Z</time>
      </trkpt>
      <trkpt lat="47.29883" lon="-1.49793">
        <ele>2</ele>
        <time>2021-03-24T11:55:43Z</time>
      </trkpt>
      <trkpt lat="47.29879" lon="-1.49792">
        <ele>2</ele>
        <time>2021-03-24T11:55:44Z</time>
      </trkpt>
      <trkpt lat="47.29876" lon="-1.4979">
        <ele>2</ele>
        <time>2021-03-24T11:55:45Z</time>
      </trkpt>
      <trkpt lat="47.29873" lon="-1.49788">
        <ele>2</ele>
        <time>2021-03-24T11:55:46Z</time>
      </trkpt>
      <trkpt lat="47.2987" lon="-1.49785">
        <ele>2</ele>
        <time>2021-03-24T11:55:47Z</time>
      </trkpt>
      <trkpt lat="47.29867" lon="-1.49782">
        <ele>2</ele>
        <time>2021-03-24T11:55:48Z</time>
      </trkpt>
      <trkpt lat="47.29865" lon="-1.49779">
        <ele>2</ele>
        <time>2021-03-24T11:55:49Z</time>
      </trkpt>
      <trkpt lat="47.29863" lon="-1.49776">
        <ele>2</ele>
        <time>2021-03-24T11:55:50Z</time>
      </trkpt>
      <trkpt lat="47.29861" lon="-1.49772">
        <ele>2</ele>
        <time>2021-03-24T11:55:51Z</time>
      </trkpt>
      <trkpt lat="47.2986" lon="-1.49769">
        <ele>2</ele>
        <time>2021-03-24T11:55:52Z</time>
      </trkpt>
      <trkpt lat="47.29858" lon="-1.49766">
        <ele>1</ele>
        <time>2021-03-24T11:55:53Z</time>
      </trkpt>
      <trkpt lat="47.29857" lon="-1.49763">
        <ele>1</ele>
        <time>2021-03-24T11:55:54Z</time>
      </trkpt>
      <trkpt lat="47.29856" lon="-1.49762">
        <ele>1</ele>
        <time>2021-03-24T11:55:55Z</time>
      </trkpt>
      <trkpt lat="47.29855" lon="-1.4976">
        <ele>1</ele>
        <time>2021-03-24T11:55:56Z</time>
      </trkpt>
      <trkpt lat="47.29854" lon="-1.49759">
        <ele>1</ele>
        <time>2021-03-24T11:55:57Z</time>
      </trkpt>
      <trkpt lat="47.29853" lon="-1.49758">
        <ele>1</ele>
        <time>2021-03-24T11:55:58Z</time>
      </trkpt>
      <trkpt lat="47.29836" lon="-1.49803">
        <ele>1</ele>
        <time>2021-03-24T11:56:09Z</time>
      </trkpt>
      <trkpt lat="47.29836" lon="-1.49805">
        <ele>1</ele>
        <time>2021-03-24T11:56:10Z</time>
      </trkpt>
      <trkpt lat="47.29836" lon="-1.49808">
        <ele>1</ele>
        <time>2021-03-24T11:56:11Z</time>
      </trkpt>
      <trkpt lat="47.29836" lon="-1.49812">
        <ele>2</ele>
        <time>2021-03-24T11:56:12Z</time>
      </trkpt>
      <trkpt lat="47.29835" lon="-1.49816">
        <ele>2</ele>
        <time>2021-03-24T11:56:13Z</time>
      </trkpt>
      <trkpt lat="47.29835" lon="-1.49821">
        <ele>2</ele>
        <time>2021-03-24T11:56:14Z</time>
      </trkpt>
      <trkpt lat="47.29834" lon="-1.49825">
        <ele>2</ele>
        <time>2021-03-24T11:56:15Z</time>
      </trkpt>
      <trkpt lat="47.29834" lon="-1.49829">
        <ele>2</ele>
        <time>2021-03-24T11:56:16Z</time>
      </trkpt>
      <trkpt lat="47.29833" lon="-1.49834">
        <ele>2</ele>
        <time>2021-03-24T11:56:17Z</time>
      </trkpt>
      <trkpt lat="47.29832" lon="-1.49838">
        <ele>2</ele>
        <time>2021-03-24T11:56:18Z</time>
      </trkpt>
      <trkpt lat="47.29831" lon="-1.49842">
        <ele>2</ele>
        <time>2021-03-24T11:56:19Z</time>
      </trkpt>
      <trkpt lat="47.2983" lon="-1.49846">
        <ele>2</ele>
        <time>2021-03-24T11:56:20Z</time>
      </trkpt>
      <trkpt lat="47.29829" lon="-1.4985">
        <ele>2</ele>
        <time>2021-03-24T11:56:21Z</time>
      </trkpt>
      <trkpt lat="47.29827" lon="-1.49853">
        <ele>2</ele>
        <time>2021-03-24T11:56:22Z</time>
      </trkpt>
      <trkpt lat="47.29825" lon="-1.49857">
        <ele>2</ele>
        <time>2021-03-24T11:56:23Z</time>
      </trkpt>
      <trkpt lat="47.29823" lon="-1.49861">
        <ele>2</ele>
        <time>2021-03-24T11:56:24Z</time>
      </trkpt>
      <trkpt lat="47.29821" lon="-1.49865">
        <ele>2</ele>
        <time>2021-03-24T11:56:25Z</time>
      </trkpt>
      <trkpt lat="47.29819" lon="-1.49867">
        <ele>2</ele>
        <time>2021-03-24T11:56:26Z</time>
      </trkpt>
      <trkpt lat="47.29817" lon="-1.4987">
        <ele>3</ele>
        <time>2021-03-24T11:56:27Z</time>
      </trkpt>
      <trkpt lat="47.29814" lon="-1.49873">
        <ele>3</ele>
        <time>2021-03-24T11:56:28Z</time>
      </trkpt>
      <trkpt lat="47.29811" lon="-1.49875">
        <ele>3</ele>
        <time>2021-03-24T11:56:29Z</time>
      </trkpt>
      <trkpt lat="47.29808" lon="-1.49876">
        <ele>3</ele>
        <time>2021-03-24T11:56:30Z</time>
      </trkpt>
      <trkpt lat="47.29804" lon="-1.49878">
        <ele>3</ele>
        <time>2021-03-24T11:56:31Z</time>
      </trkpt>
      <trkpt lat="47.29802" lon="-1.4988">
        <ele>3</ele>
        <time>2021-03-24T11:56:32Z</time>
      </trkpt>
      <trkpt lat="47.29799" lon="-1.49881">
        <ele>2</ele>
        <time>2021-03-24T11:56:33Z</time>
      </trkpt>
      <trkpt lat="47.29796" lon="-1.49883">
        <ele>2</ele>
        <time>2021-03-24T11:56:34Z</time>
      </trkpt>
      <trkpt lat="47.29793" lon="-1.49885">
        <ele>2</ele>
        <time>2021-03-24T11:56:35Z</time>
      </trkpt>
      <trkpt lat="47.2979" lon="-1.49887">
        <ele>2</ele>
        <time>2021-03-24T11:56:36Z</time>
      </trkpt>
      <trkpt lat="47.29787" lon="-1.49889">
        <ele>2</ele>
        <time>2021-03-24T11:56:37Z</time>
      </trkpt>
      <trkpt lat="47.29784" lon="-1.49891">
        <ele>2</ele>
        <time>2021-03-24T11:56:38Z</time>
      </trkpt>
      <trkpt lat="47.29782" lon="-1.49893">
        <ele>2</ele>
        <time>2021-03-24T11:56:39Z</time>
      </trkpt>
      <trkpt lat="47.29779" lon="-1.49897">
        <ele>2</ele>
        <time>2021-03-24T11:56:40Z</time>
      </trkpt>
      <trkpt lat="47.29777" lon="-1.499">
        <ele>2</ele>
        <time>2021-03-24T11:56:41Z</time>
      </trkpt>
      <trkpt lat="47.29775" lon="-1.49904">
        <ele>2</ele>
        <time>2021-03-24T11:56:42Z</time>
      </trkpt>
      <trkpt lat="47.29773" lon="-1.49908">
        <ele>2</ele>
        <time>2021-03-24T11:56:43Z</time>
      </trkpt>
      <trkpt lat="47.29771" lon="-1.49912">
        <ele>2</ele>
        <time>2021-03-24T11:56:44Z</time>
      </trkpt>
      <trkpt lat="47.29769" lon="-1.49916">
        <ele>2</ele>
        <time>2021-03-24T11:56:45Z</time>
      </trkpt>
      <trkpt lat="47.29767" lon="-1.4992">
        <ele>2</ele>
        <time>2021-03-24T11:56:46Z</time>
      </trkpt>
      <trkpt lat="47.29765" lon="-1.49924">
        <ele>2</ele>
        <time>2021-03-24T11:56:47Z</time>
      </trkpt>
      <trkpt lat="47.29763" lon="-1.49929">
        <ele>1</ele>
        <time>2021-03-24T11:56:48Z</time>
      </trkpt>
      <trkpt lat="47.29761" lon="-1.49933">
        <ele>1</ele>
        <time>2021-03-24T11:56:49Z</time>
      </trkpt>
      <trkpt lat="47.2976" lon="-1.49937">
        <ele>1</ele>
        <time>2021-03-24T11:56:50Z</time>
      </trkpt>
      <trkpt lat="47.29759" lon="-1.49941">
        <ele>1</ele>
        <time>2021-03-24T11:56:51Z</time>
      </trkpt>
      <trkpt lat="47.29759" lon="-1.49945">
        <ele>1</ele>
        <time>2021-03-24T11:56:52Z</time>
      </trkpt>
      <trkpt lat="47.29759" lon="-1.49949">
        <ele>1</ele>
        <time>2021-03-24T11:56:53Z</time>
      </trkpt>
      <trkpt lat="47.29759" lon="-1.49953">
        <ele>1</ele>
        <time>2021-03-24T11:56:54Z</time>
      </trkpt>
      <trkpt lat="47.2976" lon="-1.49957">
        <ele>1</ele>
        <time>2021-03-24T11:56:55Z</time>
      </trkpt>
      <trkpt lat="47.29759" lon="-1.49961">
        <ele>1</ele>
        <time>2021-03-24T11:56:56Z</time>
      </trkpt>
      <trkpt lat="47.29759" lon="-1.49965">
        <ele>1</ele>
        <time>2021-03-24T11:56:57Z</time>
      </trkpt>
      <trkpt lat="47.29759" lon="-1.49968">
        <ele>1</ele>
        <time>2021-03-24T11:56:58Z</time>
      </trkpt>
      <trkpt lat="47.29759" lon="-1.49971">
        <ele>1</ele>
        <time>2021-03-24T11:56:59Z</time>
      </trkpt>
      <trkpt lat="47.29758" lon="-1.49973">
        <ele>1</ele>
        <time>2021-03-24T11:57:00Z</time>
      </trkpt>
      <trkpt lat="47.29758" lon="-1.49976">
        <ele>1</ele>
        <time>2021-03-24T11:57:01Z</time>
      </trkpt>
      <trkpt lat="47.29758" lon="-1.49979">
        <ele>1</ele>
        <time>2021-03-24T11:57:02Z</time>
      </trkpt>
      <trkpt lat="47.29757" lon="-1.49981">
        <ele>1</ele>
        <time>2021-03-24T11:57:03Z</time>
      </trkpt>
      <trkpt lat="47.29758" lon="-1.49984">
        <ele>1</ele>
        <time>2021-03-24T11:57:04Z</time>
      </trkpt>
      <trkpt lat="47.29759" lon="-1.49987">
        <ele>1</ele>
        <time>2021-03-24T11:57:05Z</time>
      </trkpt>
      <trkpt lat="47.2976" lon="-1.4999">
        <ele>1</ele>
        <time>2021-03-24T11:57:06Z</time>
      </trkpt>
      <trkpt lat="47.29761" lon="-1.49992">
        <ele>1</ele>
        <time>2021-03-24T11:57:07Z</time>
      </trkpt>
      <trkpt lat="47.29762" lon="-1.49994">
        <ele>1</ele>
        <time>2021-03-24T11:57:08Z</time>
      </trkpt>
      <trkpt lat="47.29764" lon="-1.49995">
        <ele>1</ele>
        <time>2021-03-24T11:57:09Z</time>
      </trkpt>
      <trkpt lat="47.29765" lon="-1.49997">
        <ele>1</ele>
        <time>2021-03-24T11:57:10Z</time>
      </trkpt>
      <trkpt lat="47.29766" lon="-1.49999">
        <ele>1</ele>
        <time>2021-03-24T11:57:11Z</time>
      </trkpt>
      <trkpt lat="47.29766" lon="-1.50001">
        <ele>2</ele>
        <time>2021-03-24T11:57:12Z</time>
      </trkpt>
      <trkpt lat="47.29766" lon="-1.50003">
        <ele>2</ele>
        <time>2021-03-24T11:57:13Z</time>
      </trkpt>
      <trkpt lat="47.29765" lon="-1.50005">
        <ele>2</ele>
        <time>2021-03-24T11:57:14Z</time>
      </trkpt>
      <trkpt lat="47.29764" lon="-1.50007">
        <ele>2</ele>
        <time>2021-03-24T11:57:15Z</time>
      </trkpt>
      <trkpt lat="47.29762" lon="-1.50009">
        <ele>2</ele>
        <time>2021-03-24T11:57:16Z</time>
      </trkpt>
      <trkpt lat="47.2976" lon="-1.50011">
        <ele>3</ele>
        <time>2021-03-24T11:57:17Z</time>
      </trkpt>
      <trkpt lat="47.29757" lon="-1.50013">
        <ele>2</ele>
        <time>2021-03-24T11:57:18Z</time>
      </trkpt>
      <trkpt lat="47.29754" lon="-1.50014">
        <ele>2</ele>
        <time>2021-03-24T11:57:19Z</time>
      </trkpt>
      <trkpt lat="47.29751" lon="-1.50015">
        <ele>2</ele>
        <time>2021-03-24T11:57:20Z</time>
      </trkpt>
      <trkpt lat="47.29747" lon="-1.50016">
        <ele>2</ele>
        <time>2021-03-24T11:57:21Z</time>
      </trkpt>
      <trkpt lat="47.29743" lon="-1.50016">
        <ele>2</ele>
        <time>2021-03-24T11:57:22Z</time>
      </trkpt>
      <trkpt lat="47.29739" lon="-1.50015">
        <ele>2</ele>
        <time>2021-03-24T11:57:23Z</time>
      </trkpt>
      <trkpt lat="47.29735" lon="-1.50015">
        <ele>2</ele>
        <time>2021-03-24T11:57:24Z</time>
      </trkpt>
      <trkpt lat="47.29731" lon="-1.50015">
        <ele>2</ele>
        <time>2021-03-24T11:57:25Z</time>
      </trkpt>
      <trkpt lat="47.29728" lon="-1.50015">
        <ele>2</ele>
        <time>2021-03-24T11:57:26Z</time>
      </trkpt>
      <trkpt lat="47.29724" lon="-1.50015">
        <ele>2</ele>
        <time>2021-03-24T11:57:27Z</time>
      </trkpt>
      <trkpt lat="47.29721" lon="-1.50016">
        <ele>2</ele>
        <time>2021-03-24T11:57:28Z</time>
      </trkpt>
      <trkpt lat="47.29717" lon="-1.50016">
        <ele>2</ele>
        <time>2021-03-24T11:57:29Z</time>
      </trkpt>
      <trkpt lat="47.29714" lon="-1.50017">
        <ele>2</ele>
        <time>2021-03-24T11:57:30Z</time>
      </trkpt>
      <trkpt lat="47.29711" lon="-1.50018">
        <ele>2</ele>
        <time>2021-03-24T11:57:31Z</time>
      </trkpt>
      <trkpt lat="47.29708" lon="-1.50019">
        <ele>2</ele>
        <time>2021-03-24T11:57:32Z</time>
      </trkpt>
      <trkpt lat="47.29705" lon="-1.50019">
        <ele>1</ele>
        <time>2021-03-24T11:57:33Z</time>
      </trkpt>
      <trkpt lat="47.29702" lon="-1.50021">
        <ele>1</ele>
        <time>2021-03-24T11:57:34Z</time>
      </trkpt>
      <trkpt lat="47.297" lon="-1.50022">
        <ele>1</ele>
        <time>2021-03-24T11:57:35Z</time>
      </trkpt>
      <trkpt lat="47.29697" lon="-1.50024">
        <ele>1</ele>
        <time>2021-03-24T11:57:36Z</time>
      </trkpt>
      <trkpt lat="47.29695" lon="-1.50027">
        <ele>1</ele>
        <time>2021-03-24T11:57:37Z</time>
      </trkpt>
      <trkpt lat="47.29693" lon="-1.5003">
        <ele>1</ele>
        <time>2021-03-24T11:57:38Z</time>
      </trkpt>
      <trkpt lat="47.29692" lon="-1.50034">
        <ele>1</ele>
        <time>2021-03-24T11:57:39Z</time>
      </trkpt>
      <trkpt lat="47.29691" lon="-1.50038">
        <ele>1</ele>
        <time>2021-03-24T11:57:40Z</time>
      </trkpt>
      <trkpt lat="47.2969" lon="-1.50042">
        <ele>1</ele>
        <time>2021-03-24T11:57:41Z</time>
      </trkpt>
      <trkpt lat="47.2969" lon="-1.50047">
        <ele>2</ele>
        <time>2021-03-24T11:57:42Z</time>
      </trkpt>
      <trkpt lat="47.2969" lon="-1.50051">
        <ele>2</ele>
        <time>2021-03-24T11:57:43Z</time>
      </trkpt>
      <trkpt lat="47.29692" lon="-1.50056">
        <ele>2</ele>
        <time>2021-03-24T11:57:44Z</time>
      </trkpt>
      <trkpt lat="47.29693" lon="-1.5006">
        <ele>2</ele>
        <time>2021-03-24T11:57:45Z</time>
      </trkpt>
      <trkpt lat="47.29696" lon="-1.50064">
        <ele>2</ele>
        <time>2021-03-24T11:57:46Z</time>
      </trkpt>
      <trkpt lat="47.29698" lon="-1.50068">
        <ele>2</ele>
        <time>2021-03-24T11:57:47Z</time>
      </trkpt>
      <trkpt lat="47.29701" lon="-1.5007">
        <ele>2</ele>
        <time>2021-03-24T11:57:48Z</time>
      </trkpt>
      <trkpt lat="47.29704" lon="-1.50073">
        <ele>2</ele>
        <time>2021-03-24T11:57:49Z</time>
      </trkpt>
      <trkpt lat="47.29707" lon="-1.50075">
        <ele>2</ele>
        <time>2021-03-24T11:57:50Z</time>
      </trkpt>
      <trkpt lat="47.29709" lon="-1.50077">
        <ele>2</ele>
        <time>2021-03-24T11:57:51Z</time>
      </trkpt>
      <trkpt lat="47.29712" lon="-1.50078">
        <ele>2</ele>
        <time>2021-03-24T11:57:52Z</time>
      </trkpt>
      <trkpt lat="47.29714" lon="-1.50079">
        <ele>1</ele>
        <time>2021-03-24T11:57:53Z</time>
      </trkpt>
      <trkpt lat="47.29716" lon="-1.5008">
        <ele>1</ele>
        <time>2021-03-24T11:57:54Z</time>
      </trkpt>
      <trkpt lat="47.29719" lon="-1.50081">
        <ele>1</ele>
        <time>2021-03-24T11:57:55Z</time>
      </trkpt>
      <trkpt lat="47.29721" lon="-1.50082">
        <ele>1</ele>
        <time>2021-03-24T11:57:56Z</time>
      </trkpt>
      <trkpt lat="47.29723" lon="-1.50084">
        <ele>1</ele>
        <time>2021-03-24T11:57:57Z</time>
      </trkpt>
      <trkpt lat="47.29726" lon="-1.50085">
        <ele>1</ele>
        <time>2021-03-24T11:57:58Z</time>
      </trkpt>
      <trkpt lat="47.29728" lon="-1.50087">
        <ele>1</ele>
        <time>2021-03-24T11:57:59Z</time>
      </trkpt>
      <trkpt lat="47.2973" lon="-1.50089">
        <ele>1</ele>
        <time>2021-03-24T11:58:00Z</time>
      </trkpt>
      <trkpt lat="47.29733" lon="-1.50091">
        <ele>1</ele>
        <time>2021-03-24T11:58:01Z</time>
      </trkpt>
      <trkpt lat="47.29735" lon="-1.50094">
        <ele>1</ele>
        <time>2021-03-24T11:58:02Z</time>
      </trkpt>
      <trkpt lat="47.29737" lon="-1.50098">
        <ele>1</ele>
        <time>2021-03-24T11:58:03Z</time>
      </trkpt>
      <trkpt lat="47.29738" lon="-1.50102">
        <ele>1</ele>
        <time>2021-03-24T11:58:04Z</time>
      </trkpt>
      <trkpt lat="47.29739" lon="-1.50106">
        <ele>1</ele>
        <time>2021-03-24T11:58:05Z</time>
      </trkpt>
      <trkpt lat="47.29739" lon="-1.5011">
        <ele>1</ele>
        <time>2021-03-24T11:58:06Z</time>
      </trkpt>
      <trkpt lat="47.29739" lon="-1.50115">
        <ele>2</ele>
        <time>2021-03-24T11:58:07Z</time>
      </trkpt>
      <trkpt lat="47.29738" lon="-1.5012">
        <ele>2</ele>
        <time>2021-03-24T11:58:08Z</time>
      </trkpt>
      <trkpt lat="47.29737" lon="-1.50124">
        <ele>2</ele>
        <time>2021-03-24T11:58:09Z</time>
      </trkpt>
      <trkpt lat="47.29736" lon="-1.50128">
        <ele>2</ele>
        <time>2021-03-24T11:58:10Z</time>
      </trkpt>
      <trkpt lat="47.29735" lon="-1.50133">
        <ele>2</ele>
        <time>2021-03-24T11:58:11Z</time>
      </trkpt>
      <trkpt lat="47.29733" lon="-1.50137">
        <ele>2</ele>
        <time>2021-03-24T11:58:12Z</time>
      </trkpt>
      <trkpt lat="47.29732" lon="-1.50141">
        <ele>2</ele>
        <time>2021-03-24T11:58:13Z</time>
      </trkpt>
      <trkpt lat="47.2973" lon="-1.50145">
        <ele>2</ele>
        <time>2021-03-24T11:58:14Z</time>
      </trkpt>
      <trkpt lat="47.29729" lon="-1.50149">
        <ele>2</ele>
        <time>2021-03-24T11:58:15Z</time>
      </trkpt>
      <trkpt lat="47.29727" lon="-1.50153">
        <ele>2</ele>
        <time>2021-03-24T11:58:16Z</time>
      </trkpt>
      <trkpt lat="47.29725" lon="-1.50157">
        <ele>2</ele>
        <time>2021-03-24T11:58:17Z</time>
      </trkpt>
      <trkpt lat="47.29724" lon="-1.50162">
        <ele>2</ele>
        <time>2021-03-24T11:58:18Z</time>
      </trkpt>
      <trkpt lat="47.29723" lon="-1.50166">
        <ele>2</ele>
        <time>2021-03-24T11:58:19Z</time>
      </trkpt>
      <trkpt lat="47.29721" lon="-1.50171">
        <ele>2</ele>
        <time>2021-03-24T11:58:20Z</time>
      </trkpt>
      <trkpt lat="47.2972" lon="-1.50175">
        <ele>2</ele>
        <time>2021-03-24T11:58:21Z</time>
      </trkpt>
      <trkpt lat="47.29719" lon="-1.5018">
        <ele>2</ele>
        <time>2021-03-24T11:58:22Z</time>
      </trkpt>
      <trkpt lat="47.29717" lon="-1.50184">
        <ele>2</ele>
        <time>2021-03-24T11:58:23Z</time>
      </trkpt>
      <trkpt lat="47.29716" lon="-1.50188">
        <ele>2</ele>
        <time>2021-03-24T11:58:24Z</time>
      </trkpt>
      <trkpt lat="47.29714" lon="-1.50192">
        <ele>2</ele>
        <time>2021-03-24T11:58:25Z</time>
      </trkpt>
      <trkpt lat="47.29713" lon="-1.50195">
        <ele>2</ele>
        <time>2021-03-24T11:58:26Z</time>
      </trkpt>
      <trkpt lat="47.29711" lon="-1.50199">
        <ele>2</ele>
        <time>2021-03-24T11:58:27Z</time>
      </trkpt>
      <trkpt lat="47.2971" lon="-1.50203">
        <ele>2</ele>
        <time>2021-03-24T11:58:28Z</time>
      </trkpt>
      <trkpt lat="47.29709" lon="-1.50207">
        <ele>2</ele>
        <time>2021-03-24T11:58:29Z</time>
      </trkpt>
      <trkpt lat="47.29708" lon="-1.50211">
        <ele>2</ele>
        <time>2021-03-24T11:58:30Z</time>
      </trkpt>
      <trkpt lat="47.29707" lon="-1.50215">
        <ele>2</ele>
        <time>2021-03-24T11:58:31Z</time>
      </trkpt>
      <trkpt lat="47.29706" lon="-1.50219">
        <ele>2</ele>
        <time>2021-03-24T11:58:32Z</time>
      </trkpt>
      <trkpt lat="47.29705" lon="-1.50223">
        <ele>2</ele>
        <time>2021-03-24T11:58:33Z</time>
      </trkpt>
      <trkpt lat="47.29704" lon="-1.50228">
        <ele>2</ele>
        <time>2021-03-24T11:58:34Z</time>
      </trkpt>
      <trkpt lat="47.29704" lon="-1.50233">
        <ele>2</ele>
        <time>2021-03-24T11:58:35Z</time>
      </trkpt>
      <trkpt lat="47.29703" lon="-1.50238">
        <ele>2</ele>
        <time>2021-03-24T11:58:36Z</time>
      </trkpt>
      <trkpt lat="47.29703" lon="-1.50242">
        <ele>2</ele>
        <time>2021-03-24T11:58:37Z</time>
      </trkpt>
      <trkpt lat="47.29702" lon="-1.50247">
        <ele>2</ele>
        <time>2021-03-24T11:58:38Z</time>
      </trkpt>
      <trkpt lat="47.29702" lon="-1.50251">
        <ele>2</ele>
        <time>2021-03-24T11:58:39Z</time>
      </trkpt>
      <trkpt lat="47.29702" lon="-1.50255">
        <ele>2</ele>
        <time>2021-03-24T11:58:40Z</time>
      </trkpt>
      <trkpt lat="47.29701" lon="-1.5026">
        <ele>2</ele>
        <time>2021-03-24T11:58:41Z</time>
      </trkpt>
      <trkpt lat="47.29701" lon="-1.50264">
        <ele>3</ele>
        <time>2021-03-24T11:58:42Z</time>
      </trkpt>
      <trkpt lat="47.29701" lon="-1.50268">
        <ele>3</ele>
        <time>2021-03-24T11:58:43Z</time>
      </trkpt>
      <trkpt lat="47.29701" lon="-1.50272">
        <ele>3</ele>
        <time>2021-03-24T11:58:44Z</time>
      </trkpt>
      <trkpt lat="47.29701" lon="-1.50277">
        <ele>3</ele>
        <time>2021-03-24T11:58:45Z</time>
      </trkpt>
      <trkpt lat="47.297" lon="-1.50281">
        <ele>3</ele>
        <time>2021-03-24T11:58:46Z</time>
      </trkpt>
      <trkpt lat="47.297" lon="-1.50286">
        <ele>3</ele>
        <time>2021-03-24T11:58:47Z</time>
      </trkpt>
      <trkpt lat="47.297" lon="-1.5029">
        <ele>3</ele>
        <time>2021-03-24T11:58:48Z</time>
      </trkpt>
      <trkpt lat="47.297" lon="-1.50295">
        <ele>3</ele>
        <time>2021-03-24T11:58:49Z</time>
      </trkpt>
      <trkpt lat="47.29699" lon="-1.50299">
        <ele>3</ele>
        <time>2021-03-24T11:58:50Z</time>
      </trkpt>
      <trkpt lat="47.29699" lon="-1.50304">
        <ele>3</ele>
        <time>2021-03-24T11:58:51Z</time>
      </trkpt>
      <trkpt lat="47.29699" lon="-1.50309">
        <ele>3</ele>
        <time>2021-03-24T11:58:52Z</time>
      </trkpt>
      <trkpt lat="47.29698" lon="-1.50313">
        <ele>2</ele>
        <time>2021-03-24T11:58:53Z</time>
      </trkpt>
      <trkpt lat="47.29698" lon="-1.50318">
        <ele>2</ele>
        <time>2021-03-24T11:58:54Z</time>
      </trkpt>
      <trkpt lat="47.29698" lon="-1.50322">
        <ele>2</ele>
        <time>2021-03-24T11:58:55Z</time>
      </trkpt>
      <trkpt lat="47.29697" lon="-1.50326">
        <ele>2</ele>
        <time>2021-03-24T11:58:56Z</time>
      </trkpt>
      <trkpt lat="47.29696" lon="-1.5033">
        <ele>2</ele>
        <time>2021-03-24T11:58:57Z</time>
      </trkpt>
      <trkpt lat="47.29695" lon="-1.50334">
        <ele>2</ele>
        <time>2021-03-24T11:58:58Z</time>
      </trkpt>
      <trkpt lat="47.29694" lon="-1.50338">
        <ele>2</ele>
        <time>2021-03-24T11:58:59Z</time>
      </trkpt>
      <trkpt lat="47.29693" lon="-1.50341">
        <ele>2</ele>
        <time>2021-03-24T11:59:00Z</time>
      </trkpt>
      <trkpt lat="47.29691" lon="-1.50345">
        <ele>2</ele>
        <time>2021-03-24T11:59:01Z</time>
      </trkpt>
      <trkpt lat="47.2969" lon="-1.50348">
        <ele>2</ele>
        <time>2021-03-24T11:59:02Z</time>
      </trkpt>
      <trkpt lat="47.29688" lon="-1.50352">
        <ele>2</ele>
        <time>2021-03-24T11:59:03Z</time>
      </trkpt>
      <trkpt lat="47.29686" lon="-1.50354">
        <ele>2</ele>
        <time>2021-03-24T11:59:04Z</time>
      </trkpt>
      <trkpt lat="47.29684" lon="-1.50357">
        <ele>2</ele>
        <time>2021-03-24T11:59:05Z</time>
      </trkpt>
      <trkpt lat="47.29682" lon="-1.50359">
        <ele>2</ele>
        <time>2021-03-24T11:59:06Z</time>
      </trkpt>
      <trkpt lat="47.29679" lon="-1.50361">
        <ele>2</ele>
        <time>2021-03-24T11:59:07Z</time>
      </trkpt>
      <trkpt lat="47.29676" lon="-1.50363">
        <ele>2</ele>
        <time>2021-03-24T11:59:08Z</time>
      </trkpt>
      <trkpt lat="47.29673" lon="-1.50365">
        <ele>2</ele>
        <time>2021-03-24T11:59:09Z</time>
      </trkpt>
      <trkpt lat="47.2967" lon="-1.50368">
        <ele>2</ele>
        <time>2021-03-24T11:59:10Z</time>
      </trkpt>
      <trkpt lat="47.29668" lon="-1.5037">
        <ele>2</ele>
        <time>2021-03-24T11:59:11Z</time>
      </trkpt>
      <trkpt lat="47.29665" lon="-1.50372">
        <ele>2</ele>
        <time>2021-03-24T11:59:12Z</time>
      </trkpt>
      <trkpt lat="47.29663" lon="-1.50373">
        <ele>1</ele>
        <time>2021-03-24T11:59:13Z</time>
      </trkpt>
      <trkpt lat="47.2966" lon="-1.50373">
        <ele>1</ele>
        <time>2021-03-24T11:59:14Z</time>
      </trkpt>
      <trkpt lat="47.29657" lon="-1.50374">
        <ele>1</ele>
        <time>2021-03-24T11:59:15Z</time>
      </trkpt>
      <trkpt lat="47.29654" lon="-1.50373">
        <ele>1</ele>
        <time>2021-03-24T11:59:16Z</time>
      </trkpt>
      <trkpt lat="47.29651" lon="-1.50373">
        <ele>1</ele>
        <time>2021-03-24T11:59:17Z</time>
      </trkpt>
      <trkpt lat="47.29648" lon="-1.50372">
        <ele>1</ele>
        <time>2021-03-24T11:59:18Z</time>
      </trkpt>
      <trkpt lat="47.29644" lon="-1.50371">
        <ele>1</ele>
        <time>2021-03-24T11:59:19Z</time>
      </trkpt>
      <trkpt lat="47.29641" lon="-1.50369">
        <ele>1</ele>
        <time>2021-03-24T11:59:20Z</time>
      </trkpt>
      <trkpt lat="47.29638" lon="-1.50368">
        <ele>1</ele>
        <time>2021-03-24T11:59:21Z</time>
      </trkpt>
      <trkpt lat="47.29635" lon="-1.50366">
        <ele>2</ele>
        <time>2021-03-24T11:59:22Z</time>
      </trkpt>
      <trkpt lat="47.29632" lon="-1.50365">
        <ele>1</ele>
        <time>2021-03-24T11:59:23Z</time>
      </trkpt>
      <trkpt lat="47.29628" lon="-1.50364">
        <ele>1</ele>
        <time>2021-03-24T11:59:24Z</time>
      </trkpt>
      <trkpt lat="47.29625" lon="-1.50363">
        <ele>1</ele>
        <time>2021-03-24T11:59:25Z</time>
      </trkpt>
      <trkpt lat="47.29622" lon="-1.50363">
        <ele>1</ele>
        <time>2021-03-24T11:59:26Z</time>
      </trkpt>
      <trkpt lat="47.29619" lon="-1.50363">
        <ele>1</ele>
        <time>2021-03-24T11:59:27Z</time>
      </trkpt>
      <trkpt lat="47.29616" lon="-1.50363">
        <ele>1</ele>
        <time>2021-03-24T11:59:28Z</time>
      </trkpt>
      <trkpt lat="47.29613" lon="-1.50363">
        <ele>1</ele>
        <time>2021-03-24T11:59:29Z</time>
      </trkpt>
      <trkpt lat="47.2961" lon="-1.50363">
        <ele>1</ele>
        <time>2021-03-24T11:59:30Z</time>
      </trkpt>
      <trkpt lat="47.29607" lon="-1.50362">
        <ele>1</ele>
        <time>2021-03-24T11:59:31Z</time>
      </trkpt>
      <trkpt lat="47.29605" lon="-1.50361">
        <ele>1</ele>
        <time>2021-03-24T11:59:32Z</time>
      </trkpt>
      <trkpt lat="47.29603" lon="-1.5036">
        <ele>1</ele>
        <time>2021-03-24T11:59:33Z</time>
      </trkpt>
      <trkpt lat="47.29601" lon="-1.50359">
        <ele>1</ele>
        <time>2021-03-24T11:59:34Z</time>
      </trkpt>
      <trkpt lat="47.29599" lon="-1.50358">
        <ele>1</ele>
        <time>2021-03-24T11:59:35Z</time>
      </trkpt>
      <trkpt lat="47.29596" lon="-1.50358">
        <ele>1</ele>
        <time>2021-03-24T11:59:36Z</time>
      </trkpt>
      <trkpt lat="47.29594" lon="-1.50357">
        <ele>1</ele>
        <time>2021-03-24T11:59:37Z</time>
      </trkpt>
      <trkpt lat="47.29591" lon="-1.50357">
        <ele>1</ele>
        <time>2021-03-24T11:59:38Z</time>
      </trkpt>
      <trkpt lat="47.29589" lon="-1.50357">
        <ele>1</ele>
        <time>2021-03-24T11:59:39Z</time>
      </trkpt>
      <trkpt lat="47.29586" lon="-1.50357">
        <ele>1</ele>
        <time>2021-03-24T11:59:40Z</time>
      </trkpt>
      <trkpt lat="47.29583" lon="-1.50358">
        <ele>1</ele>
        <time>2021-03-24T11:59:41Z</time>
      </trkpt>
      <trkpt lat="47.29581" lon="-1.50359">
        <ele>1</ele>
        <time>2021-03-24T11:59:42Z</time>
      </trkpt>
      <trkpt lat="47.29578" lon="-1.5036">
        <ele>1</ele>
        <time>2021-03-24T11:59:43Z</time>
      </trkpt>
      <trkpt lat="47.29575" lon="-1.50361">
        <ele>1</ele>
        <time>2021-03-24T11:59:44Z</time>
      </trkpt>
      <trkpt lat="47.29572" lon="-1.50362">
        <ele>1</ele>
        <time>2021-03-24T11:59:45Z</time>
      </trkpt>
      <trkpt lat="47.29569" lon="-1.50363">
        <ele>1</ele>
        <time>2021-03-24T11:59:46Z</time>
      </trkpt>
      <trkpt lat="47.29566" lon="-1.50363">
        <ele>1</ele>
        <time>2021-03-24T11:59:47Z</time>
      </trkpt>
      <trkpt lat="47.29563" lon="-1.50364">
        <ele>1</ele>
        <time>2021-03-24T11:59:48Z</time>
      </trkpt>
      <trkpt lat="47.2956" lon="-1.50364">
        <ele>1</ele>
        <time>2021-03-24T11:59:49Z</time>
      </trkpt>
      <trkpt lat="47.29557" lon="-1.50366">
        <ele>1</ele>
        <time>2021-03-24T11:59:50Z</time>
      </trkpt>
      <trkpt lat="47.29554" lon="-1.50367">
        <ele>1</ele>
        <time>2021-03-24T11:59:51Z</time>
      </trkpt>
      <trkpt lat="47.29551" lon="-1.50368">
        <ele>2</ele>
        <time>2021-03-24T11:59:52Z</time>
      </trkpt>
      <trkpt lat="47.29548" lon="-1.5037">
        <ele>2</ele>
        <time>2021-03-24T11:59:53Z</time>
      </trkpt>
      <trkpt lat="47.29546" lon="-1.50371">
        <ele>2</ele>
        <time>2021-03-24T11:59:54Z</time>
      </trkpt>
      <trkpt lat="47.29543" lon="-1.50373">
        <ele>2</ele>
        <time>2021-03-24T11:59:55Z</time>
      </trkpt>
      <trkpt lat="47.2954" lon="-1.50374">
        <ele>2</ele>
        <time>2021-03-24T11:59:56Z</time>
      </trkpt>
      <trkpt lat="47.29537" lon="-1.50375">
        <ele>2</ele>
        <time>2021-03-24T11:59:57Z</time>
      </trkpt>
      <trkpt lat="47.29534" lon="-1.50375">
        <ele>2</ele>
        <time>2021-03-24T11:59:58Z</time>
      </trkpt>
      <trkpt lat="47.29531" lon="-1.50376">
        <ele>2</ele>
        <time>2021-03-24T11:59:59Z</time>
      </trkpt>
      <trkpt lat="47.29528" lon="-1.50376">
        <ele>2</ele>
        <time>2021-03-24T12:00:00Z</time>
      </trkpt>
      <trkpt lat="47.29524" lon="-1.50377">
        <ele>2</ele>
        <time>2021-03-24T12:00:01Z</time>
      </trkpt>
      <trkpt lat="47.29521" lon="-1.50377">
        <ele>2</ele>
        <time>2021-03-24T12:00:02Z</time>
      </trkpt>
      <trkpt lat="47.29517" lon="-1.50377">
        <ele>2</ele>
        <time>2021-03-24T12:00:03Z</time>
      </trkpt>
      <trkpt lat="47.29514" lon="-1.50378">
        <ele>2</ele>
        <time>2021-03-24T12:00:04Z</time>
      </trkpt>
      <trkpt lat="47.29511" lon="-1.50378">
        <ele>2</ele>
        <time>2021-03-24T12:00:05Z</time>
      </trkpt>
      <trkpt lat="47.29507" lon="-1.50379">
        <ele>2</ele>
        <time>2021-03-24T12:00:06Z</time>
      </trkpt>
      <trkpt lat="47.29504" lon="-1.50379">
        <ele>2</ele>
        <time>2021-03-24T12:00:07Z</time>
      </trkpt>
      <trkpt lat="47.29501" lon="-1.5038">
        <ele>2</ele>
        <time>2021-03-24T12:00:08Z</time>
      </trkpt>
      <trkpt lat="47.29498" lon="-1.5038">
        <ele>2</ele>
        <time>2021-03-24T12:00:09Z</time>
      </trkpt>
      <trkpt lat="47.29495" lon="-1.50381">
        <ele>2</ele>
        <time>2021-03-24T12:00:10Z</time>
      </trkpt>
      <trkpt lat="47.29492" lon="-1.50381">
        <ele>2</ele>
        <time>2021-03-24T12:00:11Z</time>
      </trkpt>
      <trkpt lat="47.29488" lon="-1.50382">
        <ele>3</ele>
        <time>2021-03-24T12:00:12Z</time>
      </trkpt>
      <trkpt lat="47.29485" lon="-1.50383">
        <ele>3</ele>
        <time>2021-03-24T12:00:13Z</time>
      </trkpt>
      <trkpt lat="47.29482" lon="-1.50384">
        <ele>3</ele>
        <time>2021-03-24T12:00:14Z</time>
      </trkpt>
      <trkpt lat="47.29479" lon="-1.50385">
        <ele>3</ele>
        <time>2021-03-24T12:00:15Z</time>
      </trkpt>
      <trkpt lat="47.29476" lon="-1.50386">
        <ele>3</ele>
        <time>2021-03-24T12:00:16Z</time>
      </trkpt>
      <trkpt lat="47.29473" lon="-1.50387">
        <ele>4</ele>
        <time>2021-03-24T12:00:17Z</time>
      </trkpt>
      <trkpt lat="47.2947" lon="-1.50388">
        <ele>4</ele>
        <time>2021-03-24T12:00:18Z</time>
      </trkpt>
      <trkpt lat="47.29467" lon="-1.50389">
        <ele>4</ele>
        <time>2021-03-24T12:00:19Z</time>
      </trkpt>
      <trkpt lat="47.29464" lon="-1.5039">
        <ele>4</ele>
        <time>2021-03-24T12:00:20Z</time>
      </trkpt>
      <trkpt lat="47.29461" lon="-1.50391">
        <ele>4</ele>
        <time>2021-03-24T12:00:21Z</time>
      </trkpt>
      <trkpt lat="47.29459" lon="-1.50391">
        <ele>4</ele>
        <time>2021-03-24T12:00:22Z</time>
      </trkpt>
      <trkpt lat="47.29456" lon="-1.50392">
        <ele>4</ele>
        <time>2021-03-24T12:00:23Z</time>
      </trkpt>
      <trkpt lat="47.29453" lon="-1.50393">
        <ele>4</ele>
        <time>2021-03-24T12:00:24Z</time>
      </trkpt>
      <trkpt lat="47.29451" lon="-1.50394">
        <ele>4</ele>
        <time>2021-03-24T12:00:25Z</time>
      </trkpt>
      <trkpt lat="47.29448" lon="-1.50395">
        <ele>4</ele>
        <time>2021-03-24T12:00:26Z</time>
      </trkpt>
      <trkpt lat="47.29445" lon="-1.50396">
        <ele>4</ele>
        <time>2021-03-24T12:00:27Z</time>
      </trkpt>
      <trkpt lat="47.29443" lon="-1.50397">
        <ele>4</ele>
        <time>2021-03-24T12:00:28Z</time>
      </trkpt>
      <trkpt lat="47.29441" lon="-1.50399">
        <ele>4</ele>
        <time>2021-03-24T12:00:29Z</time>
      </trkpt>
      <trkpt lat="47.29438" lon="-1.504">
        <ele>4</ele>
        <time>2021-03-24T12:00:30Z</time>
      </trkpt>
      <trkpt lat="47.29435" lon="-1.50402">
        <ele>4</ele>
        <time>2021-03-24T12:00:31Z</time>
      </trkpt>
      <trkpt lat="47.29433" lon="-1.50404">
        <ele>5</ele>
        <time>2021-03-24T12:00:32Z</time>
      </trkpt>
      <trkpt lat="47.2943" lon="-1.50407">
        <ele>5</ele>
        <time>2021-03-24T12:00:33Z</time>
      </trkpt>
      <trkpt lat="47.29429" lon="-1.5041">
        <ele>5</ele>
        <time>2021-03-24T12:00:34Z</time>
      </trkpt>
      <trkpt lat="47.29427" lon="-1.50413">
        <ele>5</ele>
        <time>2021-03-24T12:00:35Z</time>
      </trkpt>
      <trkpt lat="47.29426" lon="-1.50417">
        <ele>5</ele>
        <time>2021-03-24T12:00:36Z</time>
      </trkpt>
      <trkpt lat="47.29425" lon="-1.5042">
        <ele>5</ele>
        <time>2021-03-24T12:00:37Z</time>
      </trkpt>
      <trkpt lat="47.29426" lon="-1.50424">
        <ele>5</ele>
        <time>2021-03-24T12:00:38Z</time>
      </trkpt>
      <trkpt lat="47.29426" lon="-1.50428">
        <ele>5</ele>
        <time>2021-03-24T12:00:39Z</time>
      </trkpt>
      <trkpt lat="47.29427" lon="-1.50431">
        <ele>5</ele>
        <time>2021-03-24T12:00:40Z</time>
      </trkpt>
      <trkpt lat="47.29428" lon="-1.50435">
        <ele>5</ele>
        <time>2021-03-24T12:00:41Z</time>
      </trkpt>
      <trkpt lat="47.29429" lon="-1.50438">
        <ele>6</ele>
        <time>2021-03-24T12:00:42Z</time>
      </trkpt>
      <trkpt lat="47.2943" lon="-1.50441">
        <ele>5</ele>
        <time>2021-03-24T12:00:43Z</time>
      </trkpt>
      <trkpt lat="47.29432" lon="-1.50445">
        <ele>5</ele>
        <time>2021-03-24T12:00:44Z</time>
      </trkpt>
      <trkpt lat="47.29433" lon="-1.50448">
        <ele>5</ele>
        <time>2021-03-24T12:00:45Z</time>
      </trkpt>
      <trkpt lat="47.29435" lon="-1.50451">
        <ele>5</ele>
        <time>2021-03-24T12:00:46Z</time>
      </trkpt>
      <trkpt lat="47.29437" lon="-1.50454">
        <ele>5</ele>
        <time>2021-03-24T12:00:47Z</time>
      </trkpt>
      <trkpt lat="47.29438" lon="-1.50458">
        <ele>5</ele>
        <time>2021-03-24T12:00:48Z</time>
      </trkpt>
      <trkpt lat="47.2944" lon="-1.50461">
        <ele>5</ele>
        <time>2021-03-24T12:00:49Z</time>
      </trkpt>
      <trkpt lat="47.29441" lon="-1.50465">
        <ele>5</ele>
        <time>2021-03-24T12:00:50Z</time>
      </trkpt>
      <trkpt lat="47.29443" lon="-1.50468">
        <ele>5</ele>
        <time>2021-03-24T12:00:51Z</time>
      </trkpt>
      <trkpt lat="47.29444" lon="-1.50472">
        <ele>5</ele>
        <time>2021-03-24T12:00:52Z</time>
      </trkpt>
      <trkpt lat="47.29446" lon="-1.50476">
        <ele>5</ele>
        <time>2021-03-24T12:00:53Z</time>
      </trkpt>
      <trkpt lat="47.29448" lon="-1.5048">
        <ele>5</ele>
        <time>2021-03-24T12:00:54Z</time>
      </trkpt>
      <trkpt lat="47.29449" lon="-1.50483">
        <ele>5</ele>
        <time>2021-03-24T12:00:55Z</time>
      </trkpt>
      <trkpt lat="47.29451" lon="-1.50488">
        <ele>5</ele>
        <time>2021-03-24T12:00:56Z</time>
      </trkpt>
      <trkpt lat="47.29453" lon="-1.50492">
        <ele>5</ele>
        <time>2021-03-24T12:00:57Z</time>
      </trkpt>
      <trkpt lat="47.29454" lon="-1.50496">
        <ele>5</ele>
        <time>2021-03-24T12:00:58Z</time>
      </trkpt>
      <trkpt lat="47.29456" lon="-1.505">
        <ele>5</ele>
        <time>2021-03-24T12:00:59Z</time>
      </trkpt>
      <trkpt lat="47.29457" lon="-1.50505">
        <ele>5</ele>
        <time>2021-03-24T12:01:00Z</time>
      </trkpt>
      <trkpt lat="47.29458" lon="-1.5051">
        <ele>5</ele>
        <time>2021-03-24T12:01:01Z</time>
      </trkpt>
      <trkpt lat="47.29459" lon="-1.50515">
        <ele>6</ele>
        <time>2021-03-24T12:01:02Z</time>
      </trkpt>
      <trkpt lat="47.2946" lon="-1.5052">
        <ele>6</ele>
        <time>2021-03-24T12:01:03Z</time>
      </trkpt>
      <trkpt lat="47.2946" lon="-1.50525">
        <ele>6</ele>
        <time>2021-03-24T12:01:04Z</time>
      </trkpt>
      <trkpt lat="47.29461" lon="-1.50531">
        <ele>6</ele>
        <time>2021-03-24T12:01:05Z</time>
      </trkpt>
      <trkpt lat="47.2946" lon="-1.50536">
        <ele>6</ele>
        <time>2021-03-24T12:01:06Z</time>
      </trkpt>
      <trkpt lat="47.2946" lon="-1.50541">
        <ele>6</ele>
        <time>2021-03-24T12:01:07Z</time>
      </trkpt>
      <trkpt lat="47.29459" lon="-1.50546">
        <ele>5</ele>
        <time>2021-03-24T12:01:08Z</time>
      </trkpt>
      <trkpt lat="47.29458" lon="-1.50551">
        <ele>5</ele>
        <time>2021-03-24T12:01:09Z</time>
      </trkpt>
      <trkpt lat="47.29457" lon="-1.50556">
        <ele>5</ele>
        <time>2021-03-24T12:01:10Z</time>
      </trkpt>
      <trkpt lat="47.29457" lon="-1.50561">
        <ele>5</ele>
        <time>2021-03-24T12:01:11Z</time>
      </trkpt>
      <trkpt lat="47.29456" lon="-1.50566">
        <ele>5</ele>
        <time>2021-03-24T12:01:12Z</time>
      </trkpt>
      <trkpt lat="47.29455" lon="-1.50571">
        <ele>5</ele>
        <time>2021-03-24T12:01:13Z</time>
      </trkpt>
      <trkpt lat="47.29454" lon="-1.50576">
        <ele>5</ele>
        <time>2021-03-24T12:01:14Z</time>
      </trkpt>
      <trkpt lat="47.29454" lon="-1.50581">
        <ele>5</ele>
        <time>2021-03-24T12:01:15Z</time>
      </trkpt>
      <trkpt lat="47.29453" lon="-1.50586">
        <ele>5</ele>
        <time>2021-03-24T12:01:16Z</time>
      </trkpt>
      <trkpt lat="47.29452" lon="-1.50591">
        <ele>5</ele>
        <time>2021-03-24T12:01:17Z</time>
      </trkpt>
      <trkpt lat="47.29452" lon="-1.50596">
        <ele>5</ele>
        <time>2021-03-24T12:01:18Z</time>
      </trkpt>
      <trkpt lat="47.29451" lon="-1.50601">
        <ele>5</ele>
        <time>2021-03-24T12:01:19Z</time>
      </trkpt>
      <trkpt lat="47.29451" lon="-1.50606">
        <ele>5</ele>
        <time>2021-03-24T12:01:20Z</time>
      </trkpt>
      <trkpt lat="47.2945" lon="-1.50611">
        <ele>5</ele>
        <time>2021-03-24T12:01:21Z</time>
      </trkpt>
      <trkpt lat="47.29449" lon="-1.50615">
        <ele>6</ele>
        <time>2021-03-24T12:01:22Z</time>
      </trkpt>
      <trkpt lat="47.29449" lon="-1.5062">
        <ele>6</ele>
        <time>2021-03-24T12:01:23Z</time>
      </trkpt>
      <trkpt lat="47.29448" lon="-1.50625">
        <ele>6</ele>
        <time>2021-03-24T12:01:24Z</time>
      </trkpt>
      <trkpt lat="47.29447" lon="-1.5063">
        <ele>6</ele>
        <time>2021-03-24T12:01:25Z</time>
      </trkpt>
      <trkpt lat="47.29446" lon="-1.50634">
        <ele>6</ele>
        <time>2021-03-24T12:01:26Z</time>
      </trkpt>
      <trkpt lat="47.29445" lon="-1.50639">
        <ele>6</ele>
        <time>2021-03-24T12:01:27Z</time>
      </trkpt>
      <trkpt lat="47.29444" lon="-1.50643">
        <ele>6</ele>
        <time>2021-03-24T12:01:28Z</time>
      </trkpt>
      <trkpt lat="47.29443" lon="-1.50647">
        <ele>6</ele>
        <time>2021-03-24T12:01:29Z</time>
      </trkpt>
      <trkpt lat="47.29442" lon="-1.50652">
        <ele>6</ele>
        <time>2021-03-24T12:01:30Z</time>
      </trkpt>
      <trkpt lat="47.29441" lon="-1.50656">
        <ele>6</ele>
        <time>2021-03-24T12:01:31Z</time>
      </trkpt>
      <trkpt lat="47.2944" lon="-1.5066">
        <ele>6</ele>
        <time>2021-03-24T12:01:32Z</time>
      </trkpt>
      <trkpt lat="47.29439" lon="-1.50664">
        <ele>6</ele>
        <time>2021-03-24T12:01:33Z</time>
      </trkpt>
      <trkpt lat="47.29438" lon="-1.50668">
        <ele>6</ele>
        <time>2021-03-24T12:01:34Z</time>
      </trkpt>
      <trkpt lat="47.29436" lon="-1.50672">
        <ele>6</ele>
        <time>2021-03-24T12:01:35Z</time>
      </trkpt>
      <trkpt lat="47.29435" lon="-1.50676">
        <ele>6</ele>
        <time>2021-03-24T12:01:36Z</time>
      </trkpt>
      <trkpt lat="47.29434" lon="-1.5068">
        <ele>6</ele>
        <time>2021-03-24T12:01:37Z</time>
      </trkpt>
      <trkpt lat="47.29433" lon="-1.50684">
        <ele>5</ele>
        <time>2021-03-24T12:01:38Z</time>
      </trkpt>
      <trkpt lat="47.29432" lon="-1.50688">
        <ele>5</ele>
        <time>2021-03-24T12:01:39Z</time>
      </trkpt>
      <trkpt lat="47.29431" lon="-1.50693">
        <ele>5</ele>
        <time>2021-03-24T12:01:40Z</time>
      </trkpt>
      <trkpt lat="47.2943" lon="-1.50698">
        <ele>5</ele>
        <time>2021-03-24T12:01:41Z</time>
      </trkpt>
      <trkpt lat="47.29428" lon="-1.50703">
        <ele>5</ele>
        <time>2021-03-24T12:01:42Z</time>
      </trkpt>
      <trkpt lat="47.29427" lon="-1.50708">
        <ele>5</ele>
        <time>2021-03-24T12:01:43Z</time>
      </trkpt>
      <trkpt lat="47.29425" lon="-1.50713">
        <ele>5</ele>
        <time>2021-03-24T12:01:44Z</time>
      </trkpt>
      <trkpt lat="47.29424" lon="-1.50718">
        <ele>5</ele>
        <time>2021-03-24T12:01:45Z</time>
      </trkpt>
      <trkpt lat="47.29423" lon="-1.50723">
        <ele>5</ele>
        <time>2021-03-24T12:01:46Z</time>
      </trkpt>
      <trkpt lat="47.29421" lon="-1.50727">
        <ele>5</ele>
        <time>2021-03-24T12:01:47Z</time>
      </trkpt>
      <trkpt lat="47.2942" lon="-1.50731">
        <ele>4</ele>
        <time>2021-03-24T12:01:48Z</time>
      </trkpt>
      <trkpt lat="47.29418" lon="-1.50736">
        <ele>4</ele>
        <time>2021-03-24T12:01:49Z</time>
      </trkpt>
      <trkpt lat="47.29417" lon="-1.5074">
        <ele>4</ele>
        <time>2021-03-24T12:01:50Z</time>
      </trkpt>
      <trkpt lat="47.29415" lon="-1.50744">
        <ele>4</ele>
        <time>2021-03-24T12:01:51Z</time>
      </trkpt>
      <trkpt lat="47.29413" lon="-1.50747">
        <ele>4</ele>
        <time>2021-03-24T12:01:52Z</time>
      </trkpt>
      <trkpt lat="47.29411" lon="-1.5075">
        <ele>3</ele>
        <time>2021-03-24T12:01:53Z</time>
      </trkpt>
      <trkpt lat="47.29408" lon="-1.50752">
        <ele>3</ele>
        <time>2021-03-24T12:01:54Z</time>
      </trkpt>
      <trkpt lat="47.29405" lon="-1.50753">
        <ele>3</ele>
        <time>2021-03-24T12:01:55Z</time>
      </trkpt>
      <trkpt lat="47.29403" lon="-1.50752">
        <ele>3</ele>
        <time>2021-03-24T12:01:56Z</time>
      </trkpt>
      <trkpt lat="47.294" lon="-1.50752">
        <ele>3</ele>
        <time>2021-03-24T12:01:57Z</time>
      </trkpt>
      <trkpt lat="47.29398" lon="-1.5075">
        <ele>3</ele>
        <time>2021-03-24T12:01:58Z</time>
      </trkpt>
      <trkpt lat="47.29396" lon="-1.50748">
        <ele>3</ele>
        <time>2021-03-24T12:01:59Z</time>
      </trkpt>
      <trkpt lat="47.29394" lon="-1.50745">
        <ele>3</ele>
        <time>2021-03-24T12:02:00Z</time>
      </trkpt>
      <trkpt lat="47.29392" lon="-1.50742">
        <ele>3</ele>
        <time>2021-03-24T12:02:01Z</time>
      </trkpt>
      <trkpt lat="47.2939" lon="-1.50739">
        <ele>3</ele>
        <time>2021-03-24T12:02:02Z</time>
      </trkpt>
      <trkpt lat="47.29388" lon="-1.50737">
        <ele>3</ele>
        <time>2021-03-24T12:02:03Z</time>
      </trkpt>
      <trkpt lat="47.29386" lon="-1.50734">
        <ele>3</ele>
        <time>2021-03-24T12:02:04Z</time>
      </trkpt>
      <trkpt lat="47.29384" lon="-1.50732">
        <ele>3</ele>
        <time>2021-03-24T12:02:05Z</time>
      </trkpt>
      <trkpt lat="47.29382" lon="-1.5073">
        <ele>3</ele>
        <time>2021-03-24T12:02:06Z</time>
      </trkpt>
      <trkpt lat="47.2938" lon="-1.50728">
        <ele>4</ele>
        <time>2021-03-24T12:02:07Z</time>
      </trkpt>
      <trkpt lat="47.29378" lon="-1.50726">
        <ele>4</ele>
        <time>2021-03-24T12:02:08Z</time>
      </trkpt>
      <trkpt lat="47.29376" lon="-1.50724">
        <ele>4</ele>
        <time>2021-03-24T12:02:09Z</time>
      </trkpt>
      <trkpt lat="47.29374" lon="-1.50722">
        <ele>4</ele>
        <time>2021-03-24T12:02:10Z</time>
      </trkpt>
      <trkpt lat="47.29372" lon="-1.50719">
        <ele>4</ele>
        <time>2021-03-24T12:02:11Z</time>
      </trkpt>
      <trkpt lat="47.29369" lon="-1.50717">
        <ele>4</ele>
        <time>2021-03-24T12:02:12Z</time>
      </trkpt>
      <trkpt lat="47.29367" lon="-1.50715">
        <ele>4</ele>
        <time>2021-03-24T12:02:13Z</time>
      </trkpt>
      <trkpt lat="47.29365" lon="-1.50714">
        <ele>4</ele>
        <time>2021-03-24T12:02:14Z</time>
      </trkpt>
      <trkpt lat="47.29362" lon="-1.50712">
        <ele>4</ele>
        <time>2021-03-24T12:02:15Z</time>
      </trkpt>
      <trkpt lat="47.29359" lon="-1.5071">
        <ele>4</ele>
        <time>2021-03-24T12:02:16Z</time>
      </trkpt>
      <trkpt lat="47.29356" lon="-1.50708">
        <ele>4</ele>
        <time>2021-03-24T12:02:17Z</time>
      </trkpt>
      <trkpt lat="47.29353" lon="-1.50707">
        <ele>4</ele>
        <time>2021-03-24T12:02:18Z</time>
      </trkpt>
      <trkpt lat="47.2935" lon="-1.50706">
        <ele>4</ele>
        <time>2021-03-24T12:02:19Z</time>
      </trkpt>
      <trkpt lat="47.29347" lon="-1.50704">
        <ele>4</ele>
        <time>2021-03-24T12:02:20Z</time>
      </trkpt>
      <trkpt lat="47.29344" lon="-1.50703">
        <ele>4</ele>
        <time>2021-03-24T12:02:21Z</time>
      </trkpt>
      <trkpt lat="47.29341" lon="-1.50702">
        <ele>5</ele>
        <time>2021-03-24T12:02:22Z</time>
      </trkpt>
      <trkpt lat="47.29338" lon="-1.50701">
        <ele>5</ele>
        <time>2021-03-24T12:02:23Z</time>
      </trkpt>
      <trkpt lat="47.29335" lon="-1.507">
        <ele>5</ele>
        <time>2021-03-24T12:02:24Z</time>
      </trkpt>
      <trkpt lat="47.29332" lon="-1.50699">
        <ele>5</ele>
        <time>2021-03-24T12:02:25Z</time>
      </trkpt>
      <trkpt lat="47.29329" lon="-1.50697">
        <ele>5</ele>
        <time>2021-03-24T12:02:26Z</time>
      </trkpt>
      <trkpt lat="47.29325" lon="-1.50695">
        <ele>5</ele>
        <time>2021-03-24T12:02:27Z</time>
      </trkpt>
      <trkpt lat="47.29323" lon="-1.50694">
        <ele>5</ele>
        <time>2021-03-24T12:02:28Z</time>
      </trkpt>
      <trkpt lat="47.2932" lon="-1.50692">
        <ele>5</ele>
        <time>2021-03-24T12:02:29Z</time>
      </trkpt>
      <trkpt lat="47.29317" lon="-1.5069">
        <ele>5</ele>
        <time>2021-03-24T12:02:30Z</time>
      </trkpt>
      <trkpt lat="47.29314" lon="-1.50688">
        <ele>5</ele>
        <time>2021-03-24T12:02:31Z</time>
      </trkpt>
      <trkpt lat="47.29311" lon="-1.50687">
        <ele>5</ele>
        <time>2021-03-24T12:02:32Z</time>
      </trkpt>
      <trkpt lat="47.29308" lon="-1.50685">
        <ele>5</ele>
        <time>2021-03-24T12:02:33Z</time>
      </trkpt>
      <trkpt lat="47.29305" lon="-1.50683">
        <ele>5</ele>
        <time>2021-03-24T12:02:34Z</time>
      </trkpt>
      <trkpt lat="47.29303" lon="-1.5068">
        <ele>5</ele>
        <time>2021-03-24T12:02:35Z</time>
      </trkpt>
      <trkpt lat="47.293" lon="-1.50678">
        <ele>5</ele>
        <time>2021-03-24T12:02:36Z</time>
      </trkpt>
      <trkpt lat="47.29297" lon="-1.50676">
        <ele>5</ele>
        <time>2021-03-24T12:02:37Z</time>
      </trkpt>
      <trkpt lat="47.29294" lon="-1.50674">
        <ele>5</ele>
        <time>2021-03-24T12:02:38Z</time>
      </trkpt>
      <trkpt lat="47.29291" lon="-1.50672">
        <ele>5</ele>
        <time>2021-03-24T12:02:39Z</time>
      </trkpt>
      <trkpt lat="47.29288" lon="-1.5067">
        <ele>5</ele>
        <time>2021-03-24T12:02:40Z</time>
      </trkpt>
      <trkpt lat="47.29286" lon="-1.50668">
        <ele>5</ele>
        <time>2021-03-24T12:02:41Z</time>
      </trkpt>
      <trkpt lat="47.29283" lon="-1.50666">
        <ele>6</ele>
        <time>2021-03-24T12:02:42Z</time>
      </trkpt>
      <trkpt lat="47.2928" lon="-1.50665">
        <ele>6</ele>
        <time>2021-03-24T12:02:43Z</time>
      </trkpt>
      <trkpt lat="47.29278" lon="-1.50663">
        <ele>6</ele>
        <time>2021-03-24T12:02:44Z</time>
      </trkpt>
      <trkpt lat="47.29275" lon="-1.50661">
        <ele>6</ele>
        <time>2021-03-24T12:02:45Z</time>
      </trkpt>
      <trkpt lat="47.29272" lon="-1.5066">
        <ele>6</ele>
        <time>2021-03-24T12:02:46Z</time>
      </trkpt>
      <trkpt lat="47.29269" lon="-1.50659">
        <ele>6</ele>
        <time>2021-03-24T12:02:47Z</time>
      </trkpt>
      <trkpt lat="47.29266" lon="-1.50657">
        <ele>6</ele>
        <time>2021-03-24T12:02:48Z</time>
      </trkpt>
      <trkpt lat="47.29263" lon="-1.50656">
        <ele>6</ele>
        <time>2021-03-24T12:02:49Z</time>
      </trkpt>
      <trkpt lat="47.2926" lon="-1.50656">
        <ele>6</ele>
        <time>2021-03-24T12:02:50Z</time>
      </trkpt>
      <trkpt lat="47.29256" lon="-1.50655">
        <ele>6</ele>
        <time>2021-03-24T12:02:51Z</time>
      </trkpt>
      <trkpt lat="47.29253" lon="-1.50654">
        <ele>7</ele>
        <time>2021-03-24T12:02:52Z</time>
      </trkpt>
      <trkpt lat="47.2925" lon="-1.50654">
        <ele>7</ele>
        <time>2021-03-24T12:02:53Z</time>
      </trkpt>
      <trkpt lat="47.29247" lon="-1.50654">
        <ele>7</ele>
        <time>2021-03-24T12:02:54Z</time>
      </trkpt>
      <trkpt lat="47.29244" lon="-1.50654">
        <ele>7</ele>
        <time>2021-03-24T12:02:55Z</time>
      </trkpt>
      <trkpt lat="47.29242" lon="-1.50654">
        <ele>7</ele>
        <time>2021-03-24T12:02:56Z</time>
      </trkpt>
      <trkpt lat="47.29239" lon="-1.50655">
        <ele>7</ele>
        <time>2021-03-24T12:02:57Z</time>
      </trkpt>
      <trkpt lat="47.29236" lon="-1.50655">
        <ele>7</ele>
        <time>2021-03-24T12:02:58Z</time>
      </trkpt>
      <trkpt lat="47.29233" lon="-1.50655">
        <ele>7</ele>
        <time>2021-03-24T12:02:59Z</time>
      </trkpt>
      <trkpt lat="47.2923" lon="-1.50655">
        <ele>7</ele>
        <time>2021-03-24T12:03:00Z</time>
      </trkpt>
      <trkpt lat="47.29227" lon="-1.50656">
        <ele>7</ele>
        <time>2021-03-24T12:03:01Z</time>
      </trkpt>
      <trkpt lat="47.29224" lon="-1.50656">
        <ele>7</ele>
        <time>2021-03-24T12:03:02Z</time>
      </trkpt>
      <trkpt lat="47.29221" lon="-1.50656">
        <ele>7</ele>
        <time>2021-03-24T12:03:03Z</time>
      </trkpt>
      <trkpt lat="47.29218" lon="-1.50656">
        <ele>7</ele>
        <time>2021-03-24T12:03:04Z</time>
      </trkpt>
      <trkpt lat="47.29215" lon="-1.50657">
        <ele>7</ele>
        <time>2021-03-24T12:03:05Z</time>
      </trkpt>
      <trkpt lat="47.29212" lon="-1.50657">
        <ele>7</ele>
        <time>2021-03-24T12:03:06Z</time>
      </trkpt>
      <trkpt lat="47.29209" lon="-1.50657">
        <ele>7</ele>
        <time>2021-03-24T12:03:07Z</time>
      </trkpt>
      <trkpt lat="47.29206" lon="-1.50657">
        <ele>7</ele>
        <time>2021-03-24T12:03:08Z</time>
      </trkpt>
      <trkpt lat="47.29203" lon="-1.50658">
        <ele>7</ele>
        <time>2021-03-24T12:03:09Z</time>
      </trkpt>
      <trkpt lat="47.292" lon="-1.50658">
        <ele>7</ele>
        <time>2021-03-24T12:03:10Z</time>
      </trkpt>
      <trkpt lat="47.29197" lon="-1.50658">
        <ele>7</ele>
        <time>2021-03-24T12:03:11Z</time>
      </trkpt>
      <trkpt lat="47.29194" lon="-1.50658">
        <ele>7</ele>
        <time>2021-03-24T12:03:12Z</time>
      </trkpt>
      <trkpt lat="47.29191" lon="-1.50659">
        <ele>7</ele>
        <time>2021-03-24T12:03:13Z</time>
      </trkpt>
      <trkpt lat="47.29188" lon="-1.50659">
        <ele>7</ele>
        <time>2021-03-24T12:03:14Z</time>
      </trkpt>
      <trkpt lat="47.29185" lon="-1.50659">
        <ele>7</ele>
        <time>2021-03-24T12:03:15Z</time>
      </trkpt>
      <trkpt lat="47.29182" lon="-1.5066">
        <ele>7</ele>
        <time>2021-03-24T12:03:16Z</time>
      </trkpt>
      <trkpt lat="47.29179" lon="-1.50661">
        <ele>7</ele>
        <time>2021-03-24T12:03:17Z</time>
      </trkpt>
      <trkpt lat="47.29176" lon="-1.50661">
        <ele>7</ele>
        <time>2021-03-24T12:03:18Z</time>
      </trkpt>
      <trkpt lat="47.29173" lon="-1.50662">
        <ele>7</ele>
        <time>2021-03-24T12:03:19Z</time>
      </trkpt>
      <trkpt lat="47.2917" lon="-1.50662">
        <ele>7</ele>
        <time>2021-03-24T12:03:20Z</time>
      </trkpt>
      <trkpt lat="47.29166" lon="-1.50663">
        <ele>7</ele>
        <time>2021-03-24T12:03:21Z</time>
      </trkpt>
      <trkpt lat="47.29163" lon="-1.50664">
        <ele>7</ele>
        <time>2021-03-24T12:03:22Z</time>
      </trkpt>
      <trkpt lat="47.2916" lon="-1.50664">
        <ele>7</ele>
        <time>2021-03-24T12:03:23Z</time>
      </trkpt>
      <trkpt lat="47.29157" lon="-1.50665">
        <ele>7</ele>
        <time>2021-03-24T12:03:24Z</time>
      </trkpt>
      <trkpt lat="47.29154" lon="-1.50665">
        <ele>7</ele>
        <time>2021-03-24T12:03:25Z</time>
      </trkpt>
      <trkpt lat="47.29151" lon="-1.50666">
        <ele>7</ele>
        <time>2021-03-24T12:03:26Z</time>
      </trkpt>
      <trkpt lat="47.29148" lon="-1.50667">
        <ele>8</ele>
        <time>2021-03-24T12:03:27Z</time>
      </trkpt>
      <trkpt lat="47.29145" lon="-1.50667">
        <ele>8</ele>
        <time>2021-03-24T12:03:28Z</time>
      </trkpt>
      <trkpt lat="47.29142" lon="-1.50668">
        <ele>8</ele>
        <time>2021-03-24T12:03:29Z</time>
      </trkpt>
      <trkpt lat="47.29139" lon="-1.50668">
        <ele>8</ele>
        <time>2021-03-24T12:03:30Z</time>
      </trkpt>
      <trkpt lat="47.29136" lon="-1.50669">
        <ele>8</ele>
        <time>2021-03-24T12:03:31Z</time>
      </trkpt>
      <trkpt lat="47.29133" lon="-1.50669">
        <ele>8</ele>
        <time>2021-03-24T12:03:32Z</time>
      </trkpt>
      <trkpt lat="47.2913" lon="-1.5067">
        <ele>8</ele>
        <time>2021-03-24T12:03:33Z</time>
      </trkpt>
      <trkpt lat="47.29127" lon="-1.5067">
        <ele>8</ele>
        <time>2021-03-24T12:03:34Z</time>
      </trkpt>
      <trkpt lat="47.29124" lon="-1.50671">
        <ele>8</ele>
        <time>2021-03-24T12:03:35Z</time>
      </trkpt>
      <trkpt lat="47.29121" lon="-1.50672">
        <ele>8</ele>
        <time>2021-03-24T12:03:36Z</time>
      </trkpt>
      <trkpt lat="47.29118" lon="-1.50673">
        <ele>8</ele>
        <time>2021-03-24T12:03:37Z</time>
      </trkpt>
      <trkpt lat="47.29116" lon="-1.50675">
        <ele>7</ele>
        <time>2021-03-24T12:03:38Z</time>
      </trkpt>
      <trkpt lat="47.29114" lon="-1.50677">
        <ele>7</ele>
        <time>2021-03-24T12:03:39Z</time>
      </trkpt>
      <trkpt lat="47.29112" lon="-1.50681">
        <ele>7</ele>
        <time>2021-03-24T12:03:40Z</time>
      </trkpt>
      <trkpt lat="47.2911" lon="-1.50684">
        <ele>7</ele>
        <time>2021-03-24T12:03:41Z</time>
      </trkpt>
      <trkpt lat="47.29108" lon="-1.50688">
        <ele>7</ele>
        <time>2021-03-24T12:03:42Z</time>
      </trkpt>
      <trkpt lat="47.29107" lon="-1.50693">
        <ele>7</ele>
        <time>2021-03-24T12:03:43Z</time>
      </trkpt>
      <trkpt lat="47.29105" lon="-1.50697">
        <ele>7</ele>
        <time>2021-03-24T12:03:44Z</time>
      </trkpt>
      <trkpt lat="47.29104" lon="-1.50701">
        <ele>7</ele>
        <time>2021-03-24T12:03:45Z</time>
      </trkpt>
      <trkpt lat="47.29103" lon="-1.50705">
        <ele>7</ele>
        <time>2021-03-24T12:03:46Z</time>
      </trkpt>
      <trkpt lat="47.29102" lon="-1.50709">
        <ele>7</ele>
        <time>2021-03-24T12:03:47Z</time>
      </trkpt>
      <trkpt lat="47.291" lon="-1.50713">
        <ele>7</ele>
        <time>2021-03-24T12:03:48Z</time>
      </trkpt>
      <trkpt lat="47.29099" lon="-1.50717">
        <ele>7</ele>
        <time>2021-03-24T12:03:49Z</time>
      </trkpt>
      <trkpt lat="47.29097" lon="-1.50721">
        <ele>7</ele>
        <time>2021-03-24T12:03:50Z</time>
      </trkpt>
      <trkpt lat="47.29095" lon="-1.50725">
        <ele>7</ele>
        <time>2021-03-24T12:03:51Z</time>
      </trkpt>
      <trkpt lat="47.29094" lon="-1.50728">
        <ele>7</ele>
        <time>2021-03-24T12:03:52Z</time>
      </trkpt>
      <trkpt lat="47.29092" lon="-1.50732">
        <ele>6</ele>
        <time>2021-03-24T12:03:53Z</time>
      </trkpt>
      <trkpt lat="47.2909" lon="-1.50735">
        <ele>6</ele>
        <time>2021-03-24T12:03:54Z</time>
      </trkpt>
      <trkpt lat="47.29088" lon="-1.50739">
        <ele>6</ele>
        <time>2021-03-24T12:03:55Z</time>
      </trkpt>
      <trkpt lat="47.29086" lon="-1.50742">
        <ele>6</ele>
        <time>2021-03-24T12:03:56Z</time>
      </trkpt>
      <trkpt lat="47.29084" lon="-1.50746">
        <ele>6</ele>
        <time>2021-03-24T12:03:57Z</time>
      </trkpt>
      <trkpt lat="47.29083" lon="-1.50749">
        <ele>6</ele>
        <time>2021-03-24T12:03:58Z</time>
      </trkpt>
      <trkpt lat="47.29081" lon="-1.50753">
        <ele>6</ele>
        <time>2021-03-24T12:03:59Z</time>
      </trkpt>
      <trkpt lat="47.29079" lon="-1.50756">
        <ele>6</ele>
        <time>2021-03-24T12:04:00Z</time>
      </trkpt>
      <trkpt lat="47.29078" lon="-1.5076">
        <ele>6</ele>
        <time>2021-03-24T12:04:01Z</time>
      </trkpt>
      <trkpt lat="47.29076" lon="-1.50764">
        <ele>6</ele>
        <time>2021-03-24T12:04:02Z</time>
      </trkpt>
      <trkpt lat="47.29074" lon="-1.50767">
        <ele>5</ele>
        <time>2021-03-24T12:04:03Z</time>
      </trkpt>
      <trkpt lat="47.29072" lon="-1.50771">
        <ele>5</ele>
        <time>2021-03-24T12:04:04Z</time>
      </trkpt>
      <trkpt lat="47.2907" lon="-1.50775">
        <ele>5</ele>
        <time>2021-03-24T12:04:05Z</time>
      </trkpt>
      <trkpt lat="47.29069" lon="-1.50778">
        <ele>5</ele>
        <time>2021-03-24T12:04:06Z</time>
      </trkpt>
      <trkpt lat="47.29067" lon="-1.50782">
        <ele>5</ele>
        <time>2021-03-24T12:04:07Z</time>
      </trkpt>
      <trkpt lat="47.29065" lon="-1.50786">
        <ele>4</ele>
        <time>2021-03-24T12:04:08Z</time>
      </trkpt>
      <trkpt lat="47.29063" lon="-1.50789">
        <ele>4</ele>
        <time>2021-03-24T12:04:09Z</time>
      </trkpt>
      <trkpt lat="47.29061" lon="-1.50793">
        <ele>4</ele>
        <time>2021-03-24T12:04:10Z</time>
      </trkpt>
      <trkpt lat="47.29059" lon="-1.50796">
        <ele>4</ele>
        <time>2021-03-24T12:04:11Z</time>
      </trkpt>
      <trkpt lat="47.29057" lon="-1.508">
        <ele>4</ele>
        <time>2021-03-24T12:04:12Z</time>
      </trkpt>
      <trkpt lat="47.29056" lon="-1.50803">
        <ele>4</ele>
        <time>2021-03-24T12:04:13Z</time>
      </trkpt>
      <trkpt lat="47.29054" lon="-1.50807">
        <ele>4</ele>
        <time>2021-03-24T12:04:14Z</time>
      </trkpt>
      <trkpt lat="47.29052" lon="-1.5081">
        <ele>4</ele>
        <time>2021-03-24T12:04:15Z</time>
      </trkpt>
      <trkpt lat="47.29051" lon="-1.50814">
        <ele>4</ele>
        <time>2021-03-24T12:04:16Z</time>
      </trkpt>
      <trkpt lat="47.29049" lon="-1.50818">
        <ele>4</ele>
        <time>2021-03-24T12:04:17Z</time>
      </trkpt>
      <trkpt lat="47.29048" lon="-1.50822">
        <ele>3</ele>
        <time>2021-03-24T12:04:18Z</time>
      </trkpt>
      <trkpt lat="47.29046" lon="-1.50825">
        <ele>3</ele>
        <time>2021-03-24T12:04:19Z</time>
      </trkpt>
      <trkpt lat="47.29045" lon="-1.50829">
        <ele>3</ele>
        <time>2021-03-24T12:04:20Z</time>
      </trkpt>
      <trkpt lat="47.29044" lon="-1.50833">
        <ele>3</ele>
        <time>2021-03-24T12:04:21Z</time>
      </trkpt>
      <trkpt lat="47.29043" lon="-1.50837">
        <ele>3</ele>
        <time>2021-03-24T12:04:22Z</time>
      </trkpt>
      <trkpt lat="47.29042" lon="-1.50841">
        <ele>3</ele>
        <time>2021-03-24T12:04:23Z</time>
      </trkpt>
      <trkpt lat="47.29041" lon="-1.50845">
        <ele>3</ele>
        <time>2021-03-24T12:04:24Z</time>
      </trkpt>
      <trkpt lat="47.2904" lon="-1.50849">
        <ele>3</ele>
        <time>2021-03-24T12:04:25Z</time>
      </trkpt>
      <trkpt lat="47.29039" lon="-1.50854">
        <ele>3</ele>
        <time>2021-03-24T12:04:26Z</time>
      </trkpt>
      <trkpt lat="47.29038" lon="-1.50858">
        <ele>3</ele>
        <time>2021-03-24T12:04:27Z</time>
      </trkpt>
      <trkpt lat="47.29037" lon="-1.50863">
        <ele>3</ele>
        <time>2021-03-24T12:04:28Z</time>
      </trkpt>
      <trkpt lat="47.29036" lon="-1.50867">
        <ele>3</ele>
        <time>2021-03-24T12:04:29Z</time>
      </trkpt>
      <trkpt lat="47.29035" lon="-1.50871">
        <ele>3</ele>
        <time>2021-03-24T12:04:30Z</time>
      </trkpt>
      <trkpt lat="47.29034" lon="-1.50875">
        <ele>3</ele>
        <time>2021-03-24T12:04:31Z</time>
      </trkpt>
      <trkpt lat="47.29033" lon="-1.50879">
        <ele>4</ele>
        <time>2021-03-24T12:04:32Z</time>
      </trkpt>
      <trkpt lat="47.29032" lon="-1.50883">
        <ele>4</ele>
        <time>2021-03-24T12:04:33Z</time>
      </trkpt>
      <trkpt lat="47.2903" lon="-1.50888">
        <ele>4</ele>
        <time>2021-03-24T12:04:34Z</time>
      </trkpt>
      <trkpt lat="47.29029" lon="-1.50892">
        <ele>4</ele>
        <time>2021-03-24T12:04:35Z</time>
      </trkpt>
      <trkpt lat="47.29028" lon="-1.50896">
        <ele>4</ele>
        <time>2021-03-24T12:04:36Z</time>
      </trkpt>
      <trkpt lat="47.29027" lon="-1.509">
        <ele>4</ele>
        <time>2021-03-24T12:04:37Z</time>
      </trkpt>
      <trkpt lat="47.29026" lon="-1.50903">
        <ele>4</ele>
        <time>2021-03-24T12:04:38Z</time>
      </trkpt>
      <trkpt lat="47.29025" lon="-1.50907">
        <ele>4</ele>
        <time>2021-03-24T12:04:39Z</time>
      </trkpt>
      <trkpt lat="47.29024" lon="-1.50911">
        <ele>4</ele>
        <time>2021-03-24T12:04:40Z</time>
      </trkpt>
      <trkpt lat="47.29023" lon="-1.50915">
        <ele>4</ele>
        <time>2021-03-24T12:04:41Z</time>
      </trkpt>
      <trkpt lat="47.29022" lon="-1.50919">
        <ele>5</ele>
        <time>2021-03-24T12:04:42Z</time>
      </trkpt>
      <trkpt lat="47.29021" lon="-1.50922">
        <ele>5</ele>
        <time>2021-03-24T12:04:43Z</time>
      </trkpt>
      <trkpt lat="47.2902" lon="-1.50926">
        <ele>5</ele>
        <time>2021-03-24T12:04:44Z</time>
      </trkpt>
      <trkpt lat="47.29019" lon="-1.5093">
        <ele>5</ele>
        <time>2021-03-24T12:04:45Z</time>
      </trkpt>
      <trkpt lat="47.29018" lon="-1.50934">
        <ele>5</ele>
        <time>2021-03-24T12:04:46Z</time>
      </trkpt>
      <trkpt lat="47.29017" lon="-1.50938">
        <ele>5</ele>
        <time>2021-03-24T12:04:47Z</time>
      </trkpt>
      <trkpt lat="47.29015" lon="-1.50942">
        <ele>5</ele>
        <time>2021-03-24T12:04:48Z</time>
      </trkpt>
      <trkpt lat="47.29014" lon="-1.50946">
        <ele>5</ele>
        <time>2021-03-24T12:04:49Z</time>
      </trkpt>
      <trkpt lat="47.29013" lon="-1.5095">
        <ele>5</ele>
        <time>2021-03-24T12:04:50Z</time>
      </trkpt>
      <trkpt lat="47.29012" lon="-1.50954">
        <ele>5</ele>
        <time>2021-03-24T12:04:51Z</time>
      </trkpt>
      <trkpt lat="47.29011" lon="-1.50958">
        <ele>5</ele>
        <time>2021-03-24T12:04:52Z</time>
      </trkpt>
      <trkpt lat="47.29009" lon="-1.50962">
        <ele>5</ele>
        <time>2021-03-24T12:04:53Z</time>
      </trkpt>
      <trkpt lat="47.29008" lon="-1.50966">
        <ele>5</ele>
        <time>2021-03-24T12:04:54Z</time>
      </trkpt>
      <trkpt lat="47.29007" lon="-1.5097">
        <ele>5</ele>
        <time>2021-03-24T12:04:55Z</time>
      </trkpt>
      <trkpt lat="47.29006" lon="-1.50974">
        <ele>5</ele>
        <time>2021-03-24T12:04:56Z</time>
      </trkpt>
      <trkpt lat="47.29005" lon="-1.50977">
        <ele>5</ele>
        <time>2021-03-24T12:04:57Z</time>
      </trkpt>
      <trkpt lat="47.29004" lon="-1.50981">
        <ele>5</ele>
        <time>2021-03-24T12:04:58Z</time>
      </trkpt>
      <trkpt lat="47.29003" lon="-1.50985">
        <ele>5</ele>
        <time>2021-03-24T12:04:59Z</time>
      </trkpt>
      <trkpt lat="47.29002" lon="-1.50988">
        <ele>5</ele>
        <time>2021-03-24T12:05:00Z</time>
      </trkpt>
      <trkpt lat="47.29" lon="-1.50991">
        <ele>5</ele>
        <time>2021-03-24T12:05:01Z</time>
      </trkpt>
      <trkpt lat="47.28999" lon="-1.50994">
        <ele>5</ele>
        <time>2021-03-24T12:05:02Z</time>
      </trkpt>
      <trkpt lat="47.28997" lon="-1.50997">
        <ele>5</ele>
        <time>2021-03-24T12:05:03Z</time>
      </trkpt>
      <trkpt lat="47.28995" lon="-1.51">
        <ele>5</ele>
        <time>2021-03-24T12:05:04Z</time>
      </trkpt>
      <trkpt lat="47.28993" lon="-1.51002">
        <ele>5</ele>
        <time>2021-03-24T12:05:05Z</time>
      </trkpt>
      <trkpt lat="47.2899" lon="-1.51005">
        <ele>5</ele>
        <time>2021-03-24T12:05:06Z</time>
      </trkpt>
      <trkpt lat="47.28988" lon="-1.51007">
        <ele>5</ele>
        <time>2021-03-24T12:05:07Z</time>
      </trkpt>
      <trkpt lat="47.28985" lon="-1.51009">
        <ele>5</ele>
        <time>2021-03-24T12:05:08Z</time>
      </trkpt>
      <trkpt lat="47.28982" lon="-1.51011">
        <ele>5</ele>
        <time>2021-03-24T12:05:09Z</time>
      </trkpt>
      <trkpt lat="47.2898" lon="-1.51013">
        <ele>5</ele>
        <time>2021-03-24T12:05:10Z</time>
      </trkpt>
      <trkpt lat="47.28977" lon="-1.51014">
        <ele>5</ele>
        <time>2021-03-24T12:05:11Z</time>
      </trkpt>
      <trkpt lat="47.28974" lon="-1.51016">
        <ele>6</ele>
        <time>2021-03-24T12:05:12Z</time>
      </trkpt>
      <trkpt lat="47.28971" lon="-1.51017">
        <ele>6</ele>
        <time>2021-03-24T12:05:13Z</time>
      </trkpt>
      <trkpt lat="47.28968" lon="-1.51019">
        <ele>6</ele>
        <time>2021-03-24T12:05:14Z</time>
      </trkpt>
      <trkpt lat="47.28965" lon="-1.5102">
        <ele>6</ele>
        <time>2021-03-24T12:05:15Z</time>
      </trkpt>
      <trkpt lat="47.28962" lon="-1.5102">
        <ele>6</ele>
        <time>2021-03-24T12:05:16Z</time>
      </trkpt>
      <trkpt lat="47.28958" lon="-1.51021">
        <ele>6</ele>
        <time>2021-03-24T12:05:17Z</time>
      </trkpt>
      <trkpt lat="47.28955" lon="-1.51021">
        <ele>6</ele>
        <time>2021-03-24T12:05:18Z</time>
      </trkpt>
      <trkpt lat="47.28952" lon="-1.51022">
        <ele>6</ele>
        <time>2021-03-24T12:05:19Z</time>
      </trkpt>
      <trkpt lat="47.28949" lon="-1.51023">
        <ele>6</ele>
        <time>2021-03-24T12:05:20Z</time>
      </trkpt>
      <trkpt lat="47.28946" lon="-1.51023">
        <ele>6</ele>
        <time>2021-03-24T12:05:21Z</time>
      </trkpt>
      <trkpt lat="47.28943" lon="-1.51025">
        <ele>7</ele>
        <time>2021-03-24T12:05:22Z</time>
      </trkpt>
      <trkpt lat="47.2894" lon="-1.51026">
        <ele>7</ele>
        <time>2021-03-24T12:05:23Z</time>
      </trkpt>
      <trkpt lat="47.28938" lon="-1.51029">
        <ele>7</ele>
        <time>2021-03-24T12:05:24Z</time>
      </trkpt>
      <trkpt lat="47.28935" lon="-1.51032">
        <ele>7</ele>
        <time>2021-03-24T12:05:25Z</time>
      </trkpt>
      <trkpt lat="47.28933" lon="-1.51036">
        <ele>7</ele>
        <time>2021-03-24T12:05:26Z</time>
      </trkpt>
      <trkpt lat="47.28931" lon="-1.51039">
        <ele>7</ele>
        <time>2021-03-24T12:05:27Z</time>
      </trkpt>
      <trkpt lat="47.2893" lon="-1.51043">
        <ele>7</ele>
        <time>2021-03-24T12:05:28Z</time>
      </trkpt>
      <trkpt lat="47.28929" lon="-1.51047">
        <ele>7</ele>
        <time>2021-03-24T12:05:29Z</time>
      </trkpt>
      <trkpt lat="47.28928" lon="-1.51051">
        <ele>7</ele>
        <time>2021-03-24T12:05:30Z</time>
      </trkpt>
      <trkpt lat="47.28928" lon="-1.51056">
        <ele>7</ele>
        <time>2021-03-24T12:05:31Z</time>
      </trkpt>
      <trkpt lat="47.28928" lon="-1.5106">
        <ele>7</ele>
        <time>2021-03-24T12:05:32Z</time>
      </trkpt>
      <trkpt lat="47.28927" lon="-1.51065">
        <ele>7</ele>
        <time>2021-03-24T12:05:33Z</time>
      </trkpt>
      <trkpt lat="47.28927" lon="-1.51069">
        <ele>7</ele>
        <time>2021-03-24T12:05:34Z</time>
      </trkpt>
      <trkpt lat="47.28927" lon="-1.51074">
        <ele>7</ele>
        <time>2021-03-24T12:05:35Z</time>
      </trkpt>
      <trkpt lat="47.28927" lon="-1.51079">
        <ele>7</ele>
        <time>2021-03-24T12:05:36Z</time>
      </trkpt>
      <trkpt lat="47.28927" lon="-1.51083">
        <ele>8</ele>
        <time>2021-03-24T12:05:37Z</time>
      </trkpt>
      <trkpt lat="47.28927" lon="-1.51087">
        <ele>8</ele>
        <time>2021-03-24T12:05:38Z</time>
      </trkpt>
      <trkpt lat="47.28927" lon="-1.51092">
        <ele>8</ele>
        <time>2021-03-24T12:05:39Z</time>
      </trkpt>
      <trkpt lat="47.28927" lon="-1.51096">
        <ele>8</ele>
        <time>2021-03-24T12:05:40Z</time>
      </trkpt>
      <trkpt lat="47.28927" lon="-1.51101">
        <ele>8</ele>
        <time>2021-03-24T12:05:41Z</time>
      </trkpt>
      <trkpt lat="47.28926" lon="-1.51105">
        <ele>8</ele>
        <time>2021-03-24T12:05:42Z</time>
      </trkpt>
      <trkpt lat="47.28926" lon="-1.5111">
        <ele>8</ele>
        <time>2021-03-24T12:05:43Z</time>
      </trkpt>
      <trkpt lat="47.28926" lon="-1.51114">
        <ele>8</ele>
        <time>2021-03-24T12:05:44Z</time>
      </trkpt>
      <trkpt lat="47.28926" lon="-1.51119">
        <ele>8</ele>
        <time>2021-03-24T12:05:45Z</time>
      </trkpt>
      <trkpt lat="47.28926" lon="-1.51123">
        <ele>8</ele>
        <time>2021-03-24T12:05:46Z</time>
      </trkpt>
      <trkpt lat="47.28926" lon="-1.51128">
        <ele>9</ele>
        <time>2021-03-24T12:05:47Z</time>
      </trkpt>
      <trkpt lat="47.28926" lon="-1.51132">
        <ele>9</ele>
        <time>2021-03-24T12:05:48Z</time>
      </trkpt>
      <trkpt lat="47.28926" lon="-1.51136">
        <ele>9</ele>
        <time>2021-03-24T12:05:49Z</time>
      </trkpt>
      <trkpt lat="47.28926" lon="-1.51141">
        <ele>9</ele>
        <time>2021-03-24T12:05:50Z</time>
      </trkpt>
      <trkpt lat="47.28926" lon="-1.51145">
        <ele>9</ele>
        <time>2021-03-24T12:05:51Z</time>
      </trkpt>
      <trkpt lat="47.28926" lon="-1.51149">
        <ele>9</ele>
        <time>2021-03-24T12:05:52Z</time>
      </trkpt>
      <trkpt lat="47.28926" lon="-1.51153">
        <ele>9</ele>
        <time>2021-03-24T12:05:53Z</time>
      </trkpt>
      <trkpt lat="47.28926" lon="-1.51158">
        <ele>9</ele>
        <time>2021-03-24T12:05:54Z</time>
      </trkpt>
      <trkpt lat="47.28926" lon="-1.51162">
        <ele>9</ele>
        <time>2021-03-24T12:05:55Z</time>
      </trkpt>
      <trkpt lat="47.28926" lon="-1.51167">
        <ele>9</ele>
        <time>2021-03-24T12:05:56Z</time>
      </trkpt>
      <trkpt lat="47.28926" lon="-1.51171">
        <ele>9</ele>
        <time>2021-03-24T12:05:57Z</time>
      </trkpt>
      <trkpt lat="47.28926" lon="-1.51176">
        <ele>9</ele>
        <time>2021-03-24T12:05:58Z</time>
      </trkpt>
      <trkpt lat="47.28926" lon="-1.5118">
        <ele>9</ele>
        <time>2021-03-24T12:05:59Z</time>
      </trkpt>
      <trkpt lat="47.28926" lon="-1.51185">
        <ele>9</ele>
        <time>2021-03-24T12:06:00Z</time>
      </trkpt>
      <trkpt lat="47.28926" lon="-1.51189">
        <ele>9</ele>
        <time>2021-03-24T12:06:01Z</time>
      </trkpt>
      <trkpt lat="47.28926" lon="-1.51194">
        <ele>10</ele>
        <time>2021-03-24T12:06:02Z</time>
      </trkpt>
      <trkpt lat="47.28925" lon="-1.51198">
        <ele>10</ele>
        <time>2021-03-24T12:06:03Z</time>
      </trkpt>
      <trkpt lat="47.28925" lon="-1.51202">
        <ele>10</ele>
        <time>2021-03-24T12:06:04Z</time>
      </trkpt>
      <trkpt lat="47.28925" lon="-1.51207">
        <ele>10</ele>
        <time>2021-03-24T12:06:05Z</time>
      </trkpt>
      <trkpt lat="47.28925" lon="-1.51211">
        <ele>10</ele>
        <time>2021-03-24T12:06:06Z</time>
      </trkpt>
      <trkpt lat="47.28925" lon="-1.51216">
        <ele>10</ele>
        <time>2021-03-24T12:06:07Z</time>
      </trkpt>
      <trkpt lat="47.28925" lon="-1.5122">
        <ele>10</ele>
        <time>2021-03-24T12:06:08Z</time>
      </trkpt>
      <trkpt lat="47.28925" lon="-1.51224">
        <ele>10</ele>
        <time>2021-03-24T12:06:09Z</time>
      </trkpt>
      <trkpt lat="47.28925" lon="-1.51229">
        <ele>10</ele>
        <time>2021-03-24T12:06:10Z</time>
      </trkpt>
      <trkpt lat="47.28925" lon="-1.51233">
        <ele>10</ele>
        <time>2021-03-24T12:06:11Z</time>
      </trkpt>
      <trkpt lat="47.28925" lon="-1.51237">
        <ele>11</ele>
        <time>2021-03-24T12:06:12Z</time>
      </trkpt>
      <trkpt lat="47.28925" lon="-1.51242">
        <ele>11</ele>
        <time>2021-03-24T12:06:13Z</time>
      </trkpt>
      <trkpt lat="47.28925" lon="-1.51246">
        <ele>11</ele>
        <time>2021-03-24T12:06:14Z</time>
      </trkpt>
      <trkpt lat="47.28925" lon="-1.51251">
        <ele>11</ele>
        <time>2021-03-24T12:06:15Z</time>
      </trkpt>
      <trkpt lat="47.28925" lon="-1.51255">
        <ele>11</ele>
        <time>2021-03-24T12:06:16Z</time>
      </trkpt>
      <trkpt lat="47.28924" lon="-1.51259">
        <ele>11</ele>
        <time>2021-03-24T12:06:17Z</time>
      </trkpt>
      <trkpt lat="47.28924" lon="-1.51264">
        <ele>11</ele>
        <time>2021-03-24T12:06:18Z</time>
      </trkpt>
      <trkpt lat="47.28924" lon="-1.51268">
        <ele>11</ele>
        <time>2021-03-24T12:06:19Z</time>
      </trkpt>
      <trkpt lat="47.28924" lon="-1.51273">
        <ele>11</ele>
        <time>2021-03-24T12:06:20Z</time>
      </trkpt>
      <trkpt lat="47.28924" lon="-1.51277">
        <ele>11</ele>
        <time>2021-03-24T12:06:21Z</time>
      </trkpt>
      <trkpt lat="47.28924" lon="-1.51282">
        <ele>12</ele>
        <time>2021-03-24T12:06:22Z</time>
      </trkpt>
      <trkpt lat="47.28923" lon="-1.51286">
        <ele>12</ele>
        <time>2021-03-24T12:06:23Z</time>
      </trkpt>
      <trkpt lat="47.28923" lon="-1.51291">
        <ele>12</ele>
        <time>2021-03-24T12:06:24Z</time>
      </trkpt>
      <trkpt lat="47.28923" lon="-1.51295">
        <ele>12</ele>
        <time>2021-03-24T12:06:25Z</time>
      </trkpt>
      <trkpt lat="47.28923" lon="-1.51299">
        <ele>12</ele>
        <time>2021-03-24T12:06:26Z</time>
      </trkpt>
      <trkpt lat="47.28923" lon="-1.51304">
        <ele>12</ele>
        <time>2021-03-24T12:06:27Z</time>
      </trkpt>
      <trkpt lat="47.28923" lon="-1.51308">
        <ele>12</ele>
        <time>2021-03-24T12:06:28Z</time>
      </trkpt>
      <trkpt lat="47.28923" lon="-1.51313">
        <ele>12</ele>
        <time>2021-03-24T12:06:29Z</time>
      </trkpt>
      <trkpt lat="47.28923" lon="-1.51317">
        <ele>12</ele>
        <time>2021-03-24T12:06:30Z</time>
      </trkpt>
      <trkpt lat="47.28924" lon="-1.51322">
        <ele>12</ele>
        <time>2021-03-24T12:06:31Z</time>
      </trkpt>
      <trkpt lat="47.28924" lon="-1.51326">
        <ele>13</ele>
        <time>2021-03-24T12:06:32Z</time>
      </trkpt>
      <trkpt lat="47.28924" lon="-1.5133">
        <ele>13</ele>
        <time>2021-03-24T12:06:33Z</time>
      </trkpt>
      <trkpt lat="47.28924" lon="-1.51334">
        <ele>13</ele>
        <time>2021-03-24T12:06:34Z</time>
      </trkpt>
      <trkpt lat="47.28924" lon="-1.51338">
        <ele>13</ele>
        <time>2021-03-24T12:06:35Z</time>
      </trkpt>
      <trkpt lat="47.28924" lon="-1.51342">
        <ele>13</ele>
        <time>2021-03-24T12:06:36Z</time>
      </trkpt>
      <trkpt lat="47.28924" lon="-1.51346">
        <ele>13</ele>
        <time>2021-03-24T12:06:37Z</time>
      </trkpt>
      <trkpt lat="47.28924" lon="-1.5135">
        <ele>13</ele>
        <time>2021-03-24T12:06:38Z</time>
      </trkpt>
      <trkpt lat="47.28924" lon="-1.51355">
        <ele>13</ele>
        <time>2021-03-24T12:06:39Z</time>
      </trkpt>
      <trkpt lat="47.28925" lon="-1.51359">
        <ele>13</ele>
        <time>2021-03-24T12:06:40Z</time>
      </trkpt>
      <trkpt lat="47.28925" lon="-1.51363">
        <ele>13</ele>
        <time>2021-03-24T12:06:41Z</time>
      </trkpt>
      <trkpt lat="47.28925" lon="-1.51367">
        <ele>14</ele>
        <time>2021-03-24T12:06:42Z</time>
      </trkpt>
      <trkpt lat="47.28926" lon="-1.51371">
        <ele>14</ele>
        <time>2021-03-24T12:06:43Z</time>
      </trkpt>
      <trkpt lat="47.28926" lon="-1.51375">
        <ele>14</ele>
        <time>2021-03-24T12:06:44Z</time>
      </trkpt>
      <trkpt lat="47.28926" lon="-1.51379">
        <ele>14</ele>
        <time>2021-03-24T12:06:45Z</time>
      </trkpt>
      <trkpt lat="47.28926" lon="-1.51383">
        <ele>14</ele>
        <time>2021-03-24T12:06:46Z</time>
      </trkpt>
      <trkpt lat="47.28926" lon="-1.51387">
        <ele>14</ele>
        <time>2021-03-24T12:06:47Z</time>
      </trkpt>
      <trkpt lat="47.28926" lon="-1.51392">
        <ele>14</ele>
        <time>2021-03-24T12:06:48Z</time>
      </trkpt>
      <trkpt lat="47.28926" lon="-1.51396">
        <ele>14</ele>
        <time>2021-03-24T12:06:49Z</time>
      </trkpt>
      <trkpt lat="47.28926" lon="-1.514">
        <ele>14</ele>
        <time>2021-03-24T12:06:50Z</time>
      </trkpt>
      <trkpt lat="47.28926" lon="-1.51404">
        <ele>14</ele>
        <time>2021-03-24T12:06:51Z</time>
      </trkpt>
      <trkpt lat="47.28927" lon="-1.51408">
        <ele>14</ele>
        <time>2021-03-24T12:06:52Z</time>
      </trkpt>
      <trkpt lat="47.28927" lon="-1.51412">
        <ele>14</ele>
        <time>2021-03-24T12:06:53Z</time>
      </trkpt>
      <trkpt lat="47.28927" lon="-1.51416">
        <ele>14</ele>
        <time>2021-03-24T12:06:54Z</time>
      </trkpt>
      <trkpt lat="47.28928" lon="-1.5142">
        <ele>14</ele>
        <time>2021-03-24T12:06:55Z</time>
      </trkpt>
      <trkpt lat="47.28928" lon="-1.51424">
        <ele>14</ele>
        <time>2021-03-24T12:06:56Z</time>
      </trkpt>
      <trkpt lat="47.28929" lon="-1.51428">
        <ele>15</ele>
        <time>2021-03-24T12:06:57Z</time>
      </trkpt>
      <trkpt lat="47.28929" lon="-1.51432">
        <ele>15</ele>
        <time>2021-03-24T12:06:58Z</time>
      </trkpt>
      <trkpt lat="47.28929" lon="-1.51437">
        <ele>15</ele>
        <time>2021-03-24T12:06:59Z</time>
      </trkpt>
      <trkpt lat="47.2893" lon="-1.51441">
        <ele>15</ele>
        <time>2021-03-24T12:07:00Z</time>
      </trkpt>
      <trkpt lat="47.2893" lon="-1.51445">
        <ele>15</ele>
        <time>2021-03-24T12:07:01Z</time>
      </trkpt>
      <trkpt lat="47.2893" lon="-1.5145">
        <ele>15</ele>
        <time>2021-03-24T12:07:02Z</time>
      </trkpt>
      <trkpt lat="47.2893" lon="-1.51454">
        <ele>15</ele>
        <time>2021-03-24T12:07:03Z</time>
      </trkpt>
      <trkpt lat="47.28931" lon="-1.51458">
        <ele>15</ele>
        <time>2021-03-24T12:07:04Z</time>
      </trkpt>
      <trkpt lat="47.28931" lon="-1.51463">
        <ele>15</ele>
        <time>2021-03-24T12:07:05Z</time>
      </trkpt>
      <trkpt lat="47.28931" lon="-1.51467">
        <ele>15</ele>
        <time>2021-03-24T12:07:06Z</time>
      </trkpt>
      <trkpt lat="47.28931" lon="-1.51471">
        <ele>16</ele>
        <time>2021-03-24T12:07:07Z</time>
      </trkpt>
      <trkpt lat="47.28931" lon="-1.51475">
        <ele>16</ele>
        <time>2021-03-24T12:07:08Z</time>
      </trkpt>
      <trkpt lat="47.28931" lon="-1.51479">
        <ele>16</ele>
        <time>2021-03-24T12:07:09Z</time>
      </trkpt>
      <trkpt lat="47.28932" lon="-1.51483">
        <ele>16</ele>
        <time>2021-03-24T12:07:10Z</time>
      </trkpt>
      <trkpt lat="47.28932" lon="-1.51487">
        <ele>16</ele>
        <time>2021-03-24T12:07:11Z</time>
      </trkpt>
      <trkpt lat="47.28932" lon="-1.51491">
        <ele>16</ele>
        <time>2021-03-24T12:07:12Z</time>
      </trkpt>
      <trkpt lat="47.28933" lon="-1.51495">
        <ele>16</ele>
        <time>2021-03-24T12:07:13Z</time>
      </trkpt>
      <trkpt lat="47.28933" lon="-1.51499">
        <ele>16</ele>
        <time>2021-03-24T12:07:14Z</time>
      </trkpt>
      <trkpt lat="47.28933" lon="-1.51503">
        <ele>16</ele>
        <time>2021-03-24T12:07:15Z</time>
      </trkpt>
      <trkpt lat="47.28933" lon="-1.51507">
        <ele>16</ele>
        <time>2021-03-24T12:07:16Z</time>
      </trkpt>
      <trkpt lat="47.28933" lon="-1.51511">
        <ele>17</ele>
        <time>2021-03-24T12:07:17Z</time>
      </trkpt>
      <trkpt lat="47.28933" lon="-1.51515">
        <ele>17</ele>
        <time>2021-03-24T12:07:18Z</time>
      </trkpt>
      <trkpt lat="47.28933" lon="-1.51519">
        <ele>17</ele>
        <time>2021-03-24T12:07:19Z</time>
      </trkpt>
      <trkpt lat="47.28933" lon="-1.51523">
        <ele>17</ele>
        <time>2021-03-24T12:07:20Z</time>
      </trkpt>
      <trkpt lat="47.28933" lon="-1.51527">
        <ele>17</ele>
        <time>2021-03-24T12:07:21Z</time>
      </trkpt>
      <trkpt lat="47.28933" lon="-1.51532">
        <ele>17</ele>
        <time>2021-03-24T12:07:22Z</time>
      </trkpt>
      <trkpt lat="47.28933" lon="-1.51536">
        <ele>17</ele>
        <time>2021-03-24T12:07:23Z</time>
      </trkpt>
      <trkpt lat="47.28933" lon="-1.5154">
        <ele>17</ele>
        <time>2021-03-24T12:07:24Z</time>
      </trkpt>
      <trkpt lat="47.28933" lon="-1.51544">
        <ele>17</ele>
        <time>2021-03-24T12:07:25Z</time>
      </trkpt>
      <trkpt lat="47.28933" lon="-1.51548">
        <ele>17</ele>
        <time>2021-03-24T12:07:26Z</time>
      </trkpt>
      <trkpt lat="47.28933" lon="-1.51553">
        <ele>18</ele>
        <time>2021-03-24T12:07:27Z</time>
      </trkpt>
      <trkpt lat="47.28933" lon="-1.51557">
        <ele>17</ele>
        <time>2021-03-24T12:07:28Z</time>
      </trkpt>
      <trkpt lat="47.28933" lon="-1.51561">
        <ele>17</ele>
        <time>2021-03-24T12:07:29Z</time>
      </trkpt>
      <trkpt lat="47.28933" lon="-1.51565">
        <ele>17</ele>
        <time>2021-03-24T12:07:30Z</time>
      </trkpt>
      <trkpt lat="47.28933" lon="-1.51569">
        <ele>17</ele>
        <time>2021-03-24T12:07:31Z</time>
      </trkpt>
      <trkpt lat="47.28933" lon="-1.51571">
        <ele>17</ele>
        <time>2021-03-24T12:07:32Z</time>
      </trkpt>
      <trkpt lat="47.28932" lon="-1.51574">
        <ele>17</ele>
        <time>2021-03-24T12:07:33Z</time>
      </trkpt>
      <trkpt lat="47.28932" lon="-1.51575">
        <ele>17</ele>
        <time>2021-03-24T12:07:34Z</time>
      </trkpt>
      <trkpt lat="47.28932" lon="-1.51576">
        <ele>17</ele>
        <time>2021-03-24T12:07:35Z</time>
      </trkpt>
      <trkpt lat="47.28932" lon="-1.51577">
        <ele>17</ele>
        <time>2021-03-24T12:07:36Z</time>
      </trkpt>
      <trkpt lat="47.28932" lon="-1.51577">
        <ele>17</ele>
        <time>2021-03-24T12:07:37Z</time>
      </trkpt>
      <trkpt lat="47.28932" lon="-1.51578">
        <ele>17</ele>
        <time>2021-03-24T12:07:38Z</time>
      </trkpt>
      <trkpt lat="47.28932" lon="-1.51578">
        <ele>17</ele>
        <time>2021-03-24T12:07:39Z</time>
      </trkpt>
      <trkpt lat="47.28932" lon="-1.51579">
        <ele>17</ele>
        <time>2021-03-24T12:07:40Z</time>
      </trkpt>
      <trkpt lat="47.28932" lon="-1.51578">
        <ele>17</ele>
        <time>2021-03-24T12:07:41Z</time>
      </trkpt>
      <trkpt lat="47.28933" lon="-1.51578">
        <ele>17</ele>
        <time>2021-03-24T12:07:42Z</time>
      </trkpt>
      <trkpt lat="47.28934" lon="-1.51578">
        <ele>17</ele>
        <time>2021-03-24T12:07:43Z</time>
      </trkpt>
      <trkpt lat="47.28935" lon="-1.51577">
        <ele>17</ele>
        <time>2021-03-24T12:07:44Z</time>
      </trkpt>
      <trkpt lat="47.28938" lon="-1.51576">
        <ele>17</ele>
        <time>2021-03-24T12:07:45Z</time>
      </trkpt>
      <trkpt lat="47.2894" lon="-1.51576">
        <ele>17</ele>
        <time>2021-03-24T12:07:46Z</time>
      </trkpt>
      <trkpt lat="47.28944" lon="-1.51575">
        <ele>18</ele>
        <time>2021-03-24T12:07:47Z</time>
      </trkpt>
      <trkpt lat="47.28947" lon="-1.51574">
        <ele>18</ele>
        <time>2021-03-24T12:07:48Z</time>
      </trkpt>
      <trkpt lat="47.2895" lon="-1.51573">
        <ele>18</ele>
        <time>2021-03-24T12:07:49Z</time>
      </trkpt>
      <trkpt lat="47.28953" lon="-1.51572">
        <ele>18</ele>
        <time>2021-03-24T12:07:50Z</time>
      </trkpt>
      <trkpt lat="47.28956" lon="-1.51571">
        <ele>18</ele>
        <time>2021-03-24T12:07:51Z</time>
      </trkpt>
      <trkpt lat="47.28958" lon="-1.51571">
        <ele>18</ele>
        <time>2021-03-24T12:07:52Z</time>
      </trkpt>
      <trkpt lat="47.28961" lon="-1.5157">
        <ele>18</ele>
        <time>2021-03-24T12:07:53Z</time>
      </trkpt>
      <trkpt lat="47.28964" lon="-1.5157">
        <ele>18</ele>
        <time>2021-03-24T12:07:54Z</time>
      </trkpt>
      <trkpt lat="47.28967" lon="-1.51569">
        <ele>18</ele>
        <time>2021-03-24T12:07:55Z</time>
      </trkpt>
      <trkpt lat="47.28969" lon="-1.51569">
        <ele>18</ele>
        <time>2021-03-24T12:07:56Z</time>
      </trkpt>
      <trkpt lat="47.28972" lon="-1.51569">
        <ele>18</ele>
        <time>2021-03-24T12:07:57Z</time>
      </trkpt>
      <trkpt lat="47.28975" lon="-1.51569">
        <ele>18</ele>
        <time>2021-03-24T12:07:58Z</time>
      </trkpt>
      <trkpt lat="47.28978" lon="-1.51569">
        <ele>18</ele>
        <time>2021-03-24T12:07:59Z</time>
      </trkpt>
      <trkpt lat="47.28981" lon="-1.51568">
        <ele>18</ele>
        <time>2021-03-24T12:08:00Z</time>
      </trkpt>
      <trkpt lat="47.28984" lon="-1.51568">
        <ele>18</ele>
        <time>2021-03-24T12:08:01Z</time>
      </trkpt>
      <trkpt lat="47.28987" lon="-1.51568">
        <ele>18</ele>
        <time>2021-03-24T12:08:02Z</time>
      </trkpt>
      <trkpt lat="47.2899" lon="-1.51568">
        <ele>18</ele>
        <time>2021-03-24T12:08:03Z</time>
      </trkpt>
      <trkpt lat="47.28993" lon="-1.51567">
        <ele>18</ele>
        <time>2021-03-24T12:08:04Z</time>
      </trkpt>
      <trkpt lat="47.28996" lon="-1.51567">
        <ele>18</ele>
        <time>2021-03-24T12:08:05Z</time>
      </trkpt>
      <trkpt lat="47.28999" lon="-1.51567">
        <ele>18</ele>
        <time>2021-03-24T12:08:06Z</time>
      </trkpt>
      <trkpt lat="47.29002" lon="-1.51567">
        <ele>18</ele>
        <time>2021-03-24T12:08:07Z</time>
      </trkpt>
      <trkpt lat="47.29006" lon="-1.51567">
        <ele>17</ele>
        <time>2021-03-24T12:08:08Z</time>
      </trkpt>
      <trkpt lat="47.29009" lon="-1.51567">
        <ele>17</ele>
        <time>2021-03-24T12:08:09Z</time>
      </trkpt>
      <trkpt lat="47.29012" lon="-1.51567">
        <ele>17</ele>
        <time>2021-03-24T12:08:10Z</time>
      </trkpt>
      <trkpt lat="47.29015" lon="-1.51568">
        <ele>17</ele>
        <time>2021-03-24T12:08:11Z</time>
      </trkpt>
      <trkpt lat="47.29018" lon="-1.51568">
        <ele>17</ele>
        <time>2021-03-24T12:08:12Z</time>
      </trkpt>
      <trkpt lat="47.29021" lon="-1.51568">
        <ele>17</ele>
        <time>2021-03-24T12:08:13Z</time>
      </trkpt>
      <trkpt lat="47.29024" lon="-1.51569">
        <ele>17</ele>
        <time>2021-03-24T12:08:14Z</time>
      </trkpt>
      <trkpt lat="47.29027" lon="-1.5157">
        <ele>17</ele>
        <time>2021-03-24T12:08:15Z</time>
      </trkpt>
      <trkpt lat="47.2903" lon="-1.51571">
        <ele>17</ele>
        <time>2021-03-24T12:08:16Z</time>
      </trkpt>
      <trkpt lat="47.29033" lon="-1.51572">
        <ele>17</ele>
        <time>2021-03-24T12:08:17Z</time>
      </trkpt>
      <trkpt lat="47.29035" lon="-1.51574">
        <ele>16</ele>
        <time>2021-03-24T12:08:18Z</time>
      </trkpt>
      <trkpt lat="47.29038" lon="-1.51575">
        <ele>16</ele>
        <time>2021-03-24T12:08:19Z</time>
      </trkpt>
      <trkpt lat="47.29041" lon="-1.51576">
        <ele>16</ele>
        <time>2021-03-24T12:08:20Z</time>
      </trkpt>
      <trkpt lat="47.29044" lon="-1.51578">
        <ele>16</ele>
        <time>2021-03-24T12:08:21Z</time>
      </trkpt>
      <trkpt lat="47.29047" lon="-1.51579">
        <ele>16</ele>
        <time>2021-03-24T12:08:22Z</time>
      </trkpt>
      <trkpt lat="47.2905" lon="-1.5158">
        <ele>16</ele>
        <time>2021-03-24T12:08:23Z</time>
      </trkpt>
      <trkpt lat="47.29053" lon="-1.5158">
        <ele>16</ele>
        <time>2021-03-24T12:08:24Z</time>
      </trkpt>
      <trkpt lat="47.29056" lon="-1.51581">
        <ele>16</ele>
        <time>2021-03-24T12:08:25Z</time>
      </trkpt>
      <trkpt lat="47.29059" lon="-1.51582">
        <ele>16</ele>
        <time>2021-03-24T12:08:26Z</time>
      </trkpt>
      <trkpt lat="47.29062" lon="-1.51583">
        <ele>16</ele>
        <time>2021-03-24T12:08:27Z</time>
      </trkpt>
      <trkpt lat="47.29065" lon="-1.51583">
        <ele>15</ele>
        <time>2021-03-24T12:08:28Z</time>
      </trkpt>
      <trkpt lat="47.29068" lon="-1.51584">
        <ele>15</ele>
        <time>2021-03-24T12:08:29Z</time>
      </trkpt>
      <trkpt lat="47.29071" lon="-1.51584">
        <ele>15</ele>
        <time>2021-03-24T12:08:30Z</time>
      </trkpt>
      <trkpt lat="47.29074" lon="-1.51585">
        <ele>15</ele>
        <time>2021-03-24T12:08:31Z</time>
      </trkpt>
      <trkpt lat="47.29077" lon="-1.51586">
        <ele>15</ele>
        <time>2021-03-24T12:08:32Z</time>
      </trkpt>
      <trkpt lat="47.29079" lon="-1.51587">
        <ele>14</ele>
        <time>2021-03-24T12:08:33Z</time>
      </trkpt>
      <trkpt lat="47.29081" lon="-1.51589">
        <ele>14</ele>
        <time>2021-03-24T12:08:34Z</time>
      </trkpt>
      <trkpt lat="47.29083" lon="-1.51592">
        <ele>14</ele>
        <time>2021-03-24T12:08:35Z</time>
      </trkpt>
      <trkpt lat="47.29085" lon="-1.51594">
        <ele>14</ele>
        <time>2021-03-24T12:08:36Z</time>
      </trkpt>
      <trkpt lat="47.29087" lon="-1.51598">
        <ele>14</ele>
        <time>2021-03-24T12:08:37Z</time>
      </trkpt>
      <trkpt lat="47.29088" lon="-1.51602">
        <ele>13</ele>
        <time>2021-03-24T12:08:38Z</time>
      </trkpt>
      <trkpt lat="47.29089" lon="-1.51606">
        <ele>13</ele>
        <time>2021-03-24T12:08:39Z</time>
      </trkpt>
      <trkpt lat="47.29091" lon="-1.5161">
        <ele>13</ele>
        <time>2021-03-24T12:08:40Z</time>
      </trkpt>
      <trkpt lat="47.29092" lon="-1.51615">
        <ele>13</ele>
        <time>2021-03-24T12:08:41Z</time>
      </trkpt>
      <trkpt lat="47.29093" lon="-1.5162">
        <ele>13</ele>
        <time>2021-03-24T12:08:42Z</time>
      </trkpt>
      <trkpt lat="47.29094" lon="-1.51624">
        <ele>12</ele>
        <time>2021-03-24T12:08:43Z</time>
      </trkpt>
      <trkpt lat="47.29095" lon="-1.51629">
        <ele>12</ele>
        <time>2021-03-24T12:08:44Z</time>
      </trkpt>
      <trkpt lat="47.29096" lon="-1.51633">
        <ele>12</ele>
        <time>2021-03-24T12:08:45Z</time>
      </trkpt>
      <trkpt lat="47.29097" lon="-1.51637">
        <ele>12</ele>
        <time>2021-03-24T12:08:46Z</time>
      </trkpt>
      <trkpt lat="47.29098" lon="-1.51641">
        <ele>12</ele>
        <time>2021-03-24T12:08:47Z</time>
      </trkpt>
      <trkpt lat="47.291" lon="-1.51645">
        <ele>11</ele>
        <time>2021-03-24T12:08:48Z</time>
      </trkpt>
      <trkpt lat="47.29101" lon="-1.51649">
        <ele>11</ele>
        <time>2021-03-24T12:08:49Z</time>
      </trkpt>
      <trkpt lat="47.29102" lon="-1.51653">
        <ele>11</ele>
        <time>2021-03-24T12:08:50Z</time>
      </trkpt>
      <trkpt lat="47.29104" lon="-1.51658">
        <ele>11</ele>
        <time>2021-03-24T12:08:51Z</time>
      </trkpt>
      <trkpt lat="47.29106" lon="-1.51662">
        <ele>11</ele>
        <time>2021-03-24T12:08:52Z</time>
      </trkpt>
      <trkpt lat="47.29108" lon="-1.51665">
        <ele>11</ele>
        <time>2021-03-24T12:08:53Z</time>
      </trkpt>
      <trkpt lat="47.29109" lon="-1.51669">
        <ele>11</ele>
        <time>2021-03-24T12:08:54Z</time>
      </trkpt>
      <trkpt lat="47.29111" lon="-1.51673">
        <ele>11</ele>
        <time>2021-03-24T12:08:55Z</time>
      </trkpt>
      <trkpt lat="47.29113" lon="-1.51677">
        <ele>11</ele>
        <time>2021-03-24T12:08:56Z</time>
      </trkpt>
      <trkpt lat="47.29115" lon="-1.51681">
        <ele>11</ele>
        <time>2021-03-24T12:08:57Z</time>
      </trkpt>
      <trkpt lat="47.29116" lon="-1.51685">
        <ele>10</ele>
        <time>2021-03-24T12:08:58Z</time>
      </trkpt>
      <trkpt lat="47.29118" lon="-1.51689">
        <ele>10</ele>
        <time>2021-03-24T12:08:59Z</time>
      </trkpt>
      <trkpt lat="47.2912" lon="-1.51693">
        <ele>10</ele>
        <time>2021-03-24T12:09:00Z</time>
      </trkpt>
      <trkpt lat="47.29121" lon="-1.51696">
        <ele>10</ele>
        <time>2021-03-24T12:09:01Z</time>
      </trkpt>
      <trkpt lat="47.29123" lon="-1.517">
        <ele>10</ele>
        <time>2021-03-24T12:09:02Z</time>
      </trkpt>
      <trkpt lat="47.29125" lon="-1.51703">
        <ele>10</ele>
        <time>2021-03-24T12:09:03Z</time>
      </trkpt>
      <trkpt lat="47.29127" lon="-1.51706">
        <ele>10</ele>
        <time>2021-03-24T12:09:04Z</time>
      </trkpt>
      <trkpt lat="47.29129" lon="-1.51707">
        <ele>10</ele>
        <time>2021-03-24T12:09:05Z</time>
      </trkpt>
      <trkpt lat="47.29132" lon="-1.51709">
        <ele>10</ele>
        <time>2021-03-24T12:09:06Z</time>
      </trkpt>
      <trkpt lat="47.29134" lon="-1.51709">
        <ele>10</ele>
        <time>2021-03-24T12:09:07Z</time>
      </trkpt>
      <trkpt lat="47.29137" lon="-1.51709">
        <ele>10</ele>
        <time>2021-03-24T12:09:08Z</time>
      </trkpt>
      <trkpt lat="47.2914" lon="-1.51708">
        <ele>10</ele>
        <time>2021-03-24T12:09:09Z</time>
      </trkpt>
      <trkpt lat="47.29143" lon="-1.51707">
        <ele>10</ele>
        <time>2021-03-24T12:09:10Z</time>
      </trkpt>
      <trkpt lat="47.29145" lon="-1.51706">
        <ele>10</ele>
        <time>2021-03-24T12:09:11Z</time>
      </trkpt>
      <trkpt lat="47.29148" lon="-1.51704">
        <ele>10</ele>
        <time>2021-03-24T12:09:12Z</time>
      </trkpt>
      <trkpt lat="47.29151" lon="-1.51702">
        <ele>9</ele>
        <time>2021-03-24T12:09:13Z</time>
      </trkpt>
      <trkpt lat="47.29153" lon="-1.51701">
        <ele>9</ele>
        <time>2021-03-24T12:09:14Z</time>
      </trkpt>
      <trkpt lat="47.29156" lon="-1.517">
        <ele>9</ele>
        <time>2021-03-24T12:09:15Z</time>
      </trkpt>
      <trkpt lat="47.29159" lon="-1.51699">
        <ele>9</ele>
        <time>2021-03-24T12:09:16Z</time>
      </trkpt>
      <trkpt lat="47.29162" lon="-1.51699">
        <ele>9</ele>
        <time>2021-03-24T12:09:17Z</time>
      </trkpt>
      <trkpt lat="47.29164" lon="-1.51699">
        <ele>9</ele>
        <time>2021-03-24T12:09:18Z</time>
      </trkpt>
      <trkpt lat="47.29167" lon="-1.51701">
        <ele>9</ele>
        <time>2021-03-24T12:09:19Z</time>
      </trkpt>
      <trkpt lat="47.29169" lon="-1.51703">
        <ele>9</ele>
        <time>2021-03-24T12:09:20Z</time>
      </trkpt>
      <trkpt lat="47.29171" lon="-1.51706">
        <ele>9</ele>
        <time>2021-03-24T12:09:21Z</time>
      </trkpt>
      <trkpt lat="47.29173" lon="-1.51709">
        <ele>9</ele>
        <time>2021-03-24T12:09:22Z</time>
      </trkpt>
      <trkpt lat="47.29174" lon="-1.51713">
        <ele>8</ele>
        <time>2021-03-24T12:09:23Z</time>
      </trkpt>
      <trkpt lat="47.29176" lon="-1.51717">
        <ele>8</ele>
        <time>2021-03-24T12:09:24Z</time>
      </trkpt>
      <trkpt lat="47.29177" lon="-1.51722">
        <ele>8</ele>
        <time>2021-03-24T12:09:25Z</time>
      </trkpt>
      <trkpt lat="47.29178" lon="-1.51726">
        <ele>8</ele>
        <time>2021-03-24T12:09:26Z</time>
      </trkpt>
      <trkpt lat="47.29179" lon="-1.5173">
        <ele>8</ele>
        <time>2021-03-24T12:09:27Z</time>
      </trkpt>
      <trkpt lat="47.29179" lon="-1.51735">
        <ele>8</ele>
        <time>2021-03-24T12:09:28Z</time>
      </trkpt>
      <trkpt lat="47.2918" lon="-1.51739">
        <ele>8</ele>
        <time>2021-03-24T12:09:29Z</time>
      </trkpt>
      <trkpt lat="47.29181" lon="-1.51743">
        <ele>8</ele>
        <time>2021-03-24T12:09:30Z</time>
      </trkpt>
      <trkpt lat="47.29182" lon="-1.51748">
        <ele>8</ele>
        <time>2021-03-24T12:09:31Z</time>
      </trkpt>
      <trkpt lat="47.29182" lon="-1.51752">
        <ele>8</ele>
        <time>2021-03-24T12:09:32Z</time>
      </trkpt>
      <trkpt lat="47.29183" lon="-1.51756">
        <ele>7</ele>
        <time>2021-03-24T12:09:33Z</time>
      </trkpt>
      <trkpt lat="47.29184" lon="-1.51761">
        <ele>7</ele>
        <time>2021-03-24T12:09:34Z</time>
      </trkpt>
      <trkpt lat="47.29184" lon="-1.51766">
        <ele>7</ele>
        <time>2021-03-24T12:09:35Z</time>
      </trkpt>
      <trkpt lat="47.29185" lon="-1.5177">
        <ele>7</ele>
        <time>2021-03-24T12:09:36Z</time>
      </trkpt>
      <trkpt lat="47.29186" lon="-1.51775">
        <ele>7</ele>
        <time>2021-03-24T12:09:37Z</time>
      </trkpt>
      <trkpt lat="47.29186" lon="-1.51779">
        <ele>7</ele>
        <time>2021-03-24T12:09:38Z</time>
      </trkpt>
      <trkpt lat="47.29187" lon="-1.51783">
        <ele>7</ele>
        <time>2021-03-24T12:09:39Z</time>
      </trkpt>
      <trkpt lat="47.29187" lon="-1.51787">
        <ele>7</ele>
        <time>2021-03-24T12:09:40Z</time>
      </trkpt>
      <trkpt lat="47.29188" lon="-1.51791">
        <ele>7</ele>
        <time>2021-03-24T12:09:41Z</time>
      </trkpt>
      <trkpt lat="47.29188" lon="-1.51795">
        <ele>7</ele>
        <time>2021-03-24T12:09:42Z</time>
      </trkpt>
      <trkpt lat="47.29189" lon="-1.51799">
        <ele>6</ele>
        <time>2021-03-24T12:09:43Z</time>
      </trkpt>
      <trkpt lat="47.29189" lon="-1.51803">
        <ele>6</ele>
        <time>2021-03-24T12:09:44Z</time>
      </trkpt>
      <trkpt lat="47.2919" lon="-1.51807">
        <ele>6</ele>
        <time>2021-03-24T12:09:45Z</time>
      </trkpt>
      <trkpt lat="47.29191" lon="-1.5181">
        <ele>6</ele>
        <time>2021-03-24T12:09:46Z</time>
      </trkpt>
      <trkpt lat="47.29192" lon="-1.51814">
        <ele>6</ele>
        <time>2021-03-24T12:09:47Z</time>
      </trkpt>
      <trkpt lat="47.29193" lon="-1.51818">
        <ele>6</ele>
        <time>2021-03-24T12:09:48Z</time>
      </trkpt>
      <trkpt lat="47.29194" lon="-1.51822">
        <ele>6</ele>
        <time>2021-03-24T12:09:49Z</time>
      </trkpt>
      <trkpt lat="47.29195" lon="-1.51826">
        <ele>6</ele>
        <time>2021-03-24T12:09:50Z</time>
      </trkpt>
      <trkpt lat="47.29196" lon="-1.51831">
        <ele>6</ele>
        <time>2021-03-24T12:09:51Z</time>
      </trkpt>
      <trkpt lat="47.29196" lon="-1.51835">
        <ele>6</ele>
        <time>2021-03-24T12:09:52Z</time>
      </trkpt>
      <trkpt lat="47.29197" lon="-1.51839">
        <ele>6</ele>
        <time>2021-03-24T12:09:53Z</time>
      </trkpt>
      <trkpt lat="47.29198" lon="-1.51843">
        <ele>6</ele>
        <time>2021-03-24T12:09:54Z</time>
      </trkpt>
      <trkpt lat="47.29199" lon="-1.51847">
        <ele>6</ele>
        <time>2021-03-24T12:09:55Z</time>
      </trkpt>
      <trkpt lat="47.292" lon="-1.51851">
        <ele>6</ele>
        <time>2021-03-24T12:09:56Z</time>
      </trkpt>
      <trkpt lat="47.29201" lon="-1.51855">
        <ele>6</ele>
        <time>2021-03-24T12:09:57Z</time>
      </trkpt>
      <trkpt lat="47.29202" lon="-1.51859">
        <ele>5</ele>
        <time>2021-03-24T12:09:58Z</time>
      </trkpt>
      <trkpt lat="47.29202" lon="-1.51863">
        <ele>5</ele>
        <time>2021-03-24T12:09:59Z</time>
      </trkpt>
      <trkpt lat="47.29203" lon="-1.51867">
        <ele>5</ele>
        <time>2021-03-24T12:10:00Z</time>
      </trkpt>
      <trkpt lat="47.29204" lon="-1.51871">
        <ele>5</ele>
        <time>2021-03-24T12:10:01Z</time>
      </trkpt>
      <trkpt lat="47.29204" lon="-1.51875">
        <ele>5</ele>
        <time>2021-03-24T12:10:02Z</time>
      </trkpt>
      <trkpt lat="47.29205" lon="-1.51879">
        <ele>5</ele>
        <time>2021-03-24T12:10:03Z</time>
      </trkpt>
      <trkpt lat="47.29205" lon="-1.51884">
        <ele>5</ele>
        <time>2021-03-24T12:10:04Z</time>
      </trkpt>
      <trkpt lat="47.29206" lon="-1.51888">
        <ele>5</ele>
        <time>2021-03-24T12:10:05Z</time>
      </trkpt>
      <trkpt lat="47.29206" lon="-1.51892">
        <ele>5</ele>
        <time>2021-03-24T12:10:06Z</time>
      </trkpt>
      <trkpt lat="47.29207" lon="-1.51897">
        <ele>5</ele>
        <time>2021-03-24T12:10:07Z</time>
      </trkpt>
      <trkpt lat="47.29207" lon="-1.51901">
        <ele>5</ele>
        <time>2021-03-24T12:10:08Z</time>
      </trkpt>
      <trkpt lat="47.29208" lon="-1.51906">
        <ele>5</ele>
        <time>2021-03-24T12:10:09Z</time>
      </trkpt>
      <trkpt lat="47.29208" lon="-1.5191">
        <ele>5</ele>
        <time>2021-03-24T12:10:10Z</time>
      </trkpt>
      <trkpt lat="47.29209" lon="-1.51914">
        <ele>5</ele>
        <time>2021-03-24T12:10:11Z</time>
      </trkpt>
      <trkpt lat="47.2921" lon="-1.51919">
        <ele>5</ele>
        <time>2021-03-24T12:10:12Z</time>
      </trkpt>
      <trkpt lat="47.29211" lon="-1.51923">
        <ele>4</ele>
        <time>2021-03-24T12:10:13Z</time>
      </trkpt>
      <trkpt lat="47.29212" lon="-1.51928">
        <ele>4</ele>
        <time>2021-03-24T12:10:14Z</time>
      </trkpt>
      <trkpt lat="47.29213" lon="-1.51932">
        <ele>4</ele>
        <time>2021-03-24T12:10:15Z</time>
      </trkpt>
      <trkpt lat="47.29214" lon="-1.51936">
        <ele>4</ele>
        <time>2021-03-24T12:10:16Z</time>
      </trkpt>
      <trkpt lat="47.29215" lon="-1.5194">
        <ele>4</ele>
        <time>2021-03-24T12:10:17Z</time>
      </trkpt>
      <trkpt lat="47.29215" lon="-1.51944">
        <ele>4</ele>
        <time>2021-03-24T12:10:18Z</time>
      </trkpt>
      <trkpt lat="47.29216" lon="-1.51949">
        <ele>4</ele>
        <time>2021-03-24T12:10:19Z</time>
      </trkpt>
      <trkpt lat="47.29217" lon="-1.51953">
        <ele>4</ele>
        <time>2021-03-24T12:10:20Z</time>
      </trkpt>
      <trkpt lat="47.29218" lon="-1.51957">
        <ele>4</ele>
        <time>2021-03-24T12:10:21Z</time>
      </trkpt>
      <trkpt lat="47.29219" lon="-1.51962">
        <ele>4</ele>
        <time>2021-03-24T12:10:22Z</time>
      </trkpt>
      <trkpt lat="47.29219" lon="-1.51966">
        <ele>4</ele>
        <time>2021-03-24T12:10:23Z</time>
      </trkpt>
      <trkpt lat="47.2922" lon="-1.51971">
        <ele>4</ele>
        <time>2021-03-24T12:10:24Z</time>
      </trkpt>
      <trkpt lat="47.29221" lon="-1.51975">
        <ele>4</ele>
        <time>2021-03-24T12:10:25Z</time>
      </trkpt>
      <trkpt lat="47.29221" lon="-1.5198">
        <ele>4</ele>
        <time>2021-03-24T12:10:26Z</time>
      </trkpt>
      <trkpt lat="47.29222" lon="-1.51984">
        <ele>4</ele>
        <time>2021-03-24T12:10:27Z</time>
      </trkpt>
      <trkpt lat="47.29222" lon="-1.51989">
        <ele>3</ele>
        <time>2021-03-24T12:10:28Z</time>
      </trkpt>
      <trkpt lat="47.29223" lon="-1.51993">
        <ele>3</ele>
        <time>2021-03-24T12:10:29Z</time>
      </trkpt>
      <trkpt lat="47.29223" lon="-1.51998">
        <ele>3</ele>
        <time>2021-03-24T12:10:30Z</time>
      </trkpt>
      <trkpt lat="47.29224" lon="-1.52001">
        <ele>3</ele>
        <time>2021-03-24T12:10:31Z</time>
      </trkpt>
      <trkpt lat="47.29225" lon="-1.52005">
        <ele>3</ele>
        <time>2021-03-24T12:10:32Z</time>
      </trkpt>
      <trkpt lat="47.29227" lon="-1.52008">
        <ele>3</ele>
        <time>2021-03-24T12:10:33Z</time>
      </trkpt>
      <trkpt lat="47.29229" lon="-1.52011">
        <ele>3</ele>
        <time>2021-03-24T12:10:34Z</time>
      </trkpt>
      <trkpt lat="47.29231" lon="-1.52013">
        <ele>3</ele>
        <time>2021-03-24T12:10:35Z</time>
      </trkpt>
      <trkpt lat="47.29234" lon="-1.52014">
        <ele>3</ele>
        <time>2021-03-24T12:10:36Z</time>
      </trkpt>
      <trkpt lat="47.29236" lon="-1.52014">
        <ele>3</ele>
        <time>2021-03-24T12:10:37Z</time>
      </trkpt>
      <trkpt lat="47.29239" lon="-1.52014">
        <ele>2</ele>
        <time>2021-03-24T12:10:38Z</time>
      </trkpt>
      <trkpt lat="47.29241" lon="-1.52014">
        <ele>2</ele>
        <time>2021-03-24T12:10:39Z</time>
      </trkpt>
      <trkpt lat="47.29244" lon="-1.52013">
        <ele>2</ele>
        <time>2021-03-24T12:10:40Z</time>
      </trkpt>
      <trkpt lat="47.29246" lon="-1.52012">
        <ele>2</ele>
        <time>2021-03-24T12:10:41Z</time>
      </trkpt>
      <trkpt lat="47.29249" lon="-1.52011">
        <ele>2</ele>
        <time>2021-03-24T12:10:42Z</time>
      </trkpt>
      <trkpt lat="47.29252" lon="-1.5201">
        <ele>2</ele>
        <time>2021-03-24T12:10:43Z</time>
      </trkpt>
      <trkpt lat="47.29254" lon="-1.52009">
        <ele>2</ele>
        <time>2021-03-24T12:10:44Z</time>
      </trkpt>
      <trkpt lat="47.29257" lon="-1.52008">
        <ele>2</ele>
        <time>2021-03-24T12:10:45Z</time>
      </trkpt>
      <trkpt lat="47.2926" lon="-1.52008">
        <ele>2</ele>
        <time>2021-03-24T12:10:46Z</time>
      </trkpt>
      <trkpt lat="47.29262" lon="-1.52008">
        <ele>2</ele>
        <time>2021-03-24T12:10:47Z</time>
      </trkpt>
      <trkpt lat="47.29265" lon="-1.52008">
        <ele>2</ele>
        <time>2021-03-24T12:10:48Z</time>
      </trkpt>
      <trkpt lat="47.29268" lon="-1.52008">
        <ele>2</ele>
        <time>2021-03-24T12:10:49Z</time>
      </trkpt>
      <trkpt lat="47.29271" lon="-1.52008">
        <ele>2</ele>
        <time>2021-03-24T12:10:50Z</time>
      </trkpt>
      <trkpt lat="47.29274" lon="-1.52008">
        <ele>2</ele>
        <time>2021-03-24T12:10:51Z</time>
      </trkpt>
      <trkpt lat="47.29276" lon="-1.52008">
        <ele>2</ele>
        <time>2021-03-24T12:10:52Z</time>
      </trkpt>
      <trkpt lat="47.29279" lon="-1.52008">
        <ele>2</ele>
        <time>2021-03-24T12:10:53Z</time>
      </trkpt>
      <trkpt lat="47.29281" lon="-1.52008">
        <ele>2</ele>
        <time>2021-03-24T12:10:54Z</time>
      </trkpt>
      <trkpt lat="47.29283" lon="-1.52008">
        <ele>2</ele>
        <time>2021-03-24T12:10:55Z</time>
      </trkpt>
      <trkpt lat="47.29285" lon="-1.52008">
        <ele>2</ele>
        <time>2021-03-24T12:10:56Z</time>
      </trkpt>
      <trkpt lat="47.29286" lon="-1.52008">
        <ele>2</ele>
        <time>2021-03-24T12:10:57Z</time>
      </trkpt>
      <trkpt lat="47.29287" lon="-1.52008">
        <ele>2</ele>
        <time>2021-03-24T12:10:58Z</time>
      </trkpt>
      <trkpt lat="47.29286" lon="-1.52007">
        <ele>2</ele>
        <time>2021-03-24T12:10:59Z</time>
      </trkpt>
      <trkpt lat="47.29286" lon="-1.52006">
        <ele>2</ele>
        <time>2021-03-24T12:11:00Z</time>
      </trkpt>
      <trkpt lat="47.29284" lon="-1.52006">
        <ele>2</ele>
        <time>2021-03-24T12:11:01Z</time>
      </trkpt>
      <trkpt lat="47.29282" lon="-1.52005">
        <ele>2</ele>
        <time>2021-03-24T12:11:02Z</time>
      </trkpt>
      <trkpt lat="47.2928" lon="-1.52005">
        <ele>2</ele>
        <time>2021-03-24T12:11:03Z</time>
      </trkpt>
      <trkpt lat="47.29277" lon="-1.52005">
        <ele>2</ele>
        <time>2021-03-24T12:11:04Z</time>
      </trkpt>
      <trkpt lat="47.29274" lon="-1.52005">
        <ele>2</ele>
        <time>2021-03-24T12:11:05Z</time>
      </trkpt>
      <trkpt lat="47.29271" lon="-1.52005">
        <ele>2</ele>
        <time>2021-03-24T12:11:06Z</time>
      </trkpt>
      <trkpt lat="47.29267" lon="-1.52006">
        <ele>2</ele>
        <time>2021-03-24T12:11:07Z</time>
      </trkpt>
      <trkpt lat="47.29264" lon="-1.52006">
        <ele>2</ele>
        <time>2021-03-24T12:11:08Z</time>
      </trkpt>
      <trkpt lat="47.2926" lon="-1.52006">
        <ele>2</ele>
        <time>2021-03-24T12:11:09Z</time>
      </trkpt>
      <trkpt lat="47.29257" lon="-1.52006">
        <ele>2</ele>
        <time>2021-03-24T12:11:10Z</time>
      </trkpt>
      <trkpt lat="47.29254" lon="-1.52007">
        <ele>2</ele>
        <time>2021-03-24T12:11:11Z</time>
      </trkpt>
      <trkpt lat="47.2925" lon="-1.52007">
        <ele>2</ele>
        <time>2021-03-24T12:11:12Z</time>
      </trkpt>
      <trkpt lat="47.29247" lon="-1.52008">
        <ele>2</ele>
        <time>2021-03-24T12:11:13Z</time>
      </trkpt>
      <trkpt lat="47.29244" lon="-1.52008">
        <ele>2</ele>
        <time>2021-03-24T12:11:14Z</time>
      </trkpt>
      <trkpt lat="47.29241" lon="-1.52009">
        <ele>2</ele>
        <time>2021-03-24T12:11:15Z</time>
      </trkpt>
      <trkpt lat="47.29238" lon="-1.52009">
        <ele>2</ele>
        <time>2021-03-24T12:11:16Z</time>
      </trkpt>
      <trkpt lat="47.29236" lon="-1.52011">
        <ele>2</ele>
        <time>2021-03-24T12:11:17Z</time>
      </trkpt>
      <trkpt lat="47.29233" lon="-1.52013">
        <ele>2</ele>
        <time>2021-03-24T12:11:18Z</time>
      </trkpt>
      <trkpt lat="47.29232" lon="-1.52016">
        <ele>2</ele>
        <time>2021-03-24T12:11:19Z</time>
      </trkpt>
      <trkpt lat="47.29231" lon="-1.5202">
        <ele>2</ele>
        <time>2021-03-24T12:11:20Z</time>
      </trkpt>
      <trkpt lat="47.29232" lon="-1.52023">
        <ele>2</ele>
        <time>2021-03-24T12:11:21Z</time>
      </trkpt>
      <trkpt lat="47.29233" lon="-1.52027">
        <ele>3</ele>
        <time>2021-03-24T12:11:22Z</time>
      </trkpt>
      <trkpt lat="47.29235" lon="-1.5203">
        <ele>3</ele>
        <time>2021-03-24T12:11:23Z</time>
      </trkpt>
      <trkpt lat="47.29237" lon="-1.52034">
        <ele>3</ele>
        <time>2021-03-24T12:11:24Z</time>
      </trkpt>
      <trkpt lat="47.29239" lon="-1.52037">
        <ele>3</ele>
        <time>2021-03-24T12:11:25Z</time>
      </trkpt>
      <trkpt lat="47.29242" lon="-1.5204">
        <ele>3</ele>
        <time>2021-03-24T12:11:26Z</time>
      </trkpt>
      <trkpt lat="47.29244" lon="-1.52044">
        <ele>3</ele>
        <time>2021-03-24T12:11:27Z</time>
      </trkpt>
      <trkpt lat="47.29247" lon="-1.52047">
        <ele>3</ele>
        <time>2021-03-24T12:11:28Z</time>
      </trkpt>
      <trkpt lat="47.29249" lon="-1.5205">
        <ele>3</ele>
        <time>2021-03-24T12:11:29Z</time>
      </trkpt>
      <trkpt lat="47.29252" lon="-1.52052">
        <ele>3</ele>
        <time>2021-03-24T12:11:30Z</time>
      </trkpt>
      <trkpt lat="47.29255" lon="-1.52055">
        <ele>3</ele>
        <time>2021-03-24T12:11:31Z</time>
      </trkpt>
      <trkpt lat="47.29257" lon="-1.52058">
        <ele>4</ele>
        <time>2021-03-24T12:11:32Z</time>
      </trkpt>
      <trkpt lat="47.2926" lon="-1.52061">
        <ele>4</ele>
        <time>2021-03-24T12:11:33Z</time>
      </trkpt>
      <trkpt lat="47.29262" lon="-1.52064">
        <ele>4</ele>
        <time>2021-03-24T12:11:34Z</time>
      </trkpt>
      <trkpt lat="47.29265" lon="-1.52067">
        <ele>4</ele>
        <time>2021-03-24T12:11:35Z</time>
      </trkpt>
      <trkpt lat="47.29267" lon="-1.52069">
        <ele>4</ele>
        <time>2021-03-24T12:11:36Z</time>
      </trkpt>
      <trkpt lat="47.2927" lon="-1.52072">
        <ele>4</ele>
        <time>2021-03-24T12:11:37Z</time>
      </trkpt>
      <trkpt lat="47.29272" lon="-1.52075">
        <ele>4</ele>
        <time>2021-03-24T12:11:38Z</time>
      </trkpt>
      <trkpt lat="47.29274" lon="-1.52077">
        <ele>4</ele>
        <time>2021-03-24T12:11:39Z</time>
      </trkpt>
      <trkpt lat="47.29277" lon="-1.5208">
        <ele>4</ele>
        <time>2021-03-24T12:11:40Z</time>
      </trkpt>
      <trkpt lat="47.29279" lon="-1.52083">
        <ele>4</ele>
        <time>2021-03-24T12:11:41Z</time>
      </trkpt>
      <trkpt lat="47.29281" lon="-1.52086">
        <ele>4</ele>
        <time>2021-03-24T12:11:42Z</time>
      </trkpt>
      <trkpt lat="47.29284" lon="-1.52088">
        <ele>4</ele>
        <time>2021-03-24T12:11:43Z</time>
      </trkpt>
      <trkpt lat="47.29286" lon="-1.52091">
        <ele>4</ele>
        <time>2021-03-24T12:11:44Z</time>
      </trkpt>
      <trkpt lat="47.29289" lon="-1.52094">
        <ele>4</ele>
        <time>2021-03-24T12:11:45Z</time>
      </trkpt>
      <trkpt lat="47.29291" lon="-1.52096">
        <ele>4</ele>
        <time>2021-03-24T12:11:46Z</time>
      </trkpt>
      <trkpt lat="47.29294" lon="-1.52099">
        <ele>4</ele>
        <time>2021-03-24T12:11:47Z</time>
      </trkpt>
      <trkpt lat="47.29296" lon="-1.52101">
        <ele>4</ele>
        <time>2021-03-24T12:11:48Z</time>
      </trkpt>
      <trkpt lat="47.29299" lon="-1.52103">
        <ele>4</ele>
        <time>2021-03-24T12:11:49Z</time>
      </trkpt>
      <trkpt lat="47.29302" lon="-1.52105">
        <ele>4</ele>
        <time>2021-03-24T12:11:50Z</time>
      </trkpt>
      <trkpt lat="47.29304" lon="-1.52108">
        <ele>4</ele>
        <time>2021-03-24T12:11:51Z</time>
      </trkpt>
      <trkpt lat="47.29307" lon="-1.52111">
        <ele>5</ele>
        <time>2021-03-24T12:11:52Z</time>
      </trkpt>
      <trkpt lat="47.29309" lon="-1.52114">
        <ele>5</ele>
        <time>2021-03-24T12:11:53Z</time>
      </trkpt>
      <trkpt lat="47.29311" lon="-1.52116">
        <ele>5</ele>
        <time>2021-03-24T12:11:54Z</time>
      </trkpt>
      <trkpt lat="47.29313" lon="-1.5212">
        <ele>5</ele>
        <time>2021-03-24T12:11:55Z</time>
      </trkpt>
      <trkpt lat="47.29315" lon="-1.52123">
        <ele>5</ele>
        <time>2021-03-24T12:11:56Z</time>
      </trkpt>
      <trkpt lat="47.29317" lon="-1.52126">
        <ele>5</ele>
        <time>2021-03-24T12:11:57Z</time>
      </trkpt>
      <trkpt lat="47.29319" lon="-1.5213">
        <ele>4</ele>
        <time>2021-03-24T12:11:58Z</time>
      </trkpt>
      <trkpt lat="47.29321" lon="-1.52133">
        <ele>4</ele>
        <time>2021-03-24T12:11:59Z</time>
      </trkpt>
      <trkpt lat="47.29322" lon="-1.52137">
        <ele>4</ele>
        <time>2021-03-24T12:12:00Z</time>
      </trkpt>
      <trkpt lat="47.29324" lon="-1.52141">
        <ele>4</ele>
        <time>2021-03-24T12:12:01Z</time>
      </trkpt>
      <trkpt lat="47.29325" lon="-1.52144">
        <ele>4</ele>
        <time>2021-03-24T12:12:02Z</time>
      </trkpt>
      <trkpt lat="47.29327" lon="-1.52148">
        <ele>4</ele>
        <time>2021-03-24T12:12:03Z</time>
      </trkpt>
      <trkpt lat="47.29328" lon="-1.52152">
        <ele>4</ele>
        <time>2021-03-24T12:12:04Z</time>
      </trkpt>
      <trkpt lat="47.29329" lon="-1.52157">
        <ele>4</ele>
        <time>2021-03-24T12:12:05Z</time>
      </trkpt>
      <trkpt lat="47.2933" lon="-1.52161">
        <ele>4</ele>
        <time>2021-03-24T12:12:06Z</time>
      </trkpt>
      <trkpt lat="47.29331" lon="-1.52165">
        <ele>4</ele>
        <time>2021-03-24T12:12:07Z</time>
      </trkpt>
      <trkpt lat="47.29332" lon="-1.5217">
        <ele>4</ele>
        <time>2021-03-24T12:12:08Z</time>
      </trkpt>
      <trkpt lat="47.29333" lon="-1.52174">
        <ele>4</ele>
        <time>2021-03-24T12:12:09Z</time>
      </trkpt>
      <trkpt lat="47.29334" lon="-1.52179">
        <ele>4</ele>
        <time>2021-03-24T12:12:10Z</time>
      </trkpt>
      <trkpt lat="47.29335" lon="-1.52183">
        <ele>4</ele>
        <time>2021-03-24T12:12:11Z</time>
      </trkpt>
      <trkpt lat="47.29336" lon="-1.52188">
        <ele>4</ele>
        <time>2021-03-24T12:12:12Z</time>
      </trkpt>
      <trkpt lat="47.29337" lon="-1.52193">
        <ele>3</ele>
        <time>2021-03-24T12:12:13Z</time>
      </trkpt>
      <trkpt lat="47.29338" lon="-1.52197">
        <ele>3</ele>
        <time>2021-03-24T12:12:14Z</time>
      </trkpt>
      <trkpt lat="47.29339" lon="-1.52201">
        <ele>3</ele>
        <time>2021-03-24T12:12:15Z</time>
      </trkpt>
      <trkpt lat="47.2934" lon="-1.52206">
        <ele>3</ele>
        <time>2021-03-24T12:12:16Z</time>
      </trkpt>
      <trkpt lat="47.2934" lon="-1.5221">
        <ele>3</ele>
        <time>2021-03-24T12:12:17Z</time>
      </trkpt>
      <trkpt lat="47.29341" lon="-1.52214">
        <ele>3</ele>
        <time>2021-03-24T12:12:18Z</time>
      </trkpt>
      <trkpt lat="47.29342" lon="-1.52219">
        <ele>3</ele>
        <time>2021-03-24T12:12:19Z</time>
      </trkpt>
      <trkpt lat="47.29343" lon="-1.52223">
        <ele>3</ele>
        <time>2021-03-24T12:12:20Z</time>
      </trkpt>
      <trkpt lat="47.29344" lon="-1.52227">
        <ele>3</ele>
        <time>2021-03-24T12:12:21Z</time>
      </trkpt>
      <trkpt lat="47.29346" lon="-1.52231">
        <ele>3</ele>
        <time>2021-03-24T12:12:22Z</time>
      </trkpt>
      <trkpt lat="47.29347" lon="-1.52235">
        <ele>3</ele>
        <time>2021-03-24T12:12:23Z</time>
      </trkpt>
      <trkpt lat="47.29348" lon="-1.52239">
        <ele>3</ele>
        <time>2021-03-24T12:12:24Z</time>
      </trkpt>
      <trkpt lat="47.29349" lon="-1.52243">
        <ele>3</ele>
        <time>2021-03-24T12:12:25Z</time>
      </trkpt>
      <trkpt lat="47.29351" lon="-1.52247">
        <ele>3</ele>
        <time>2021-03-24T12:12:26Z</time>
      </trkpt>
      <trkpt lat="47.29352" lon="-1.52251">
        <ele>3</ele>
        <time>2021-03-24T12:12:27Z</time>
      </trkpt>
      <trkpt lat="47.29354" lon="-1.52255">
        <ele>2</ele>
        <time>2021-03-24T12:12:28Z</time>
      </trkpt>
      <trkpt lat="47.29355" lon="-1.52259">
        <ele>2</ele>
        <time>2021-03-24T12:12:29Z</time>
      </trkpt>
      <trkpt lat="47.29356" lon="-1.52263">
        <ele>2</ele>
        <time>2021-03-24T12:12:30Z</time>
      </trkpt>
      <trkpt lat="47.29357" lon="-1.52267">
        <ele>2</ele>
        <time>2021-03-24T12:12:31Z</time>
      </trkpt>
      <trkpt lat="47.29358" lon="-1.52271">
        <ele>2</ele>
        <time>2021-03-24T12:12:32Z</time>
      </trkpt>
      <trkpt lat="47.29359" lon="-1.52275">
        <ele>2</ele>
        <time>2021-03-24T12:12:33Z</time>
      </trkpt>
      <trkpt lat="47.2936" lon="-1.52279">
        <ele>2</ele>
        <time>2021-03-24T12:12:34Z</time>
      </trkpt>
      <trkpt lat="47.29361" lon="-1.52283">
        <ele>2</ele>
        <time>2021-03-24T12:12:35Z</time>
      </trkpt>
      <trkpt lat="47.29362" lon="-1.52287">
        <ele>2</ele>
        <time>2021-03-24T12:12:36Z</time>
      </trkpt>
      <trkpt lat="47.29362" lon="-1.52291">
        <ele>2</ele>
        <time>2021-03-24T12:12:37Z</time>
      </trkpt>
      <trkpt lat="47.29362" lon="-1.52296">
        <ele>2</ele>
        <time>2021-03-24T12:12:38Z</time>
      </trkpt>
      <trkpt lat="47.29362" lon="-1.523">
        <ele>2</ele>
        <time>2021-03-24T12:12:39Z</time>
      </trkpt>
      <trkpt lat="47.29363" lon="-1.52305">
        <ele>2</ele>
        <time>2021-03-24T12:12:40Z</time>
      </trkpt>
      <trkpt lat="47.29363" lon="-1.52309">
        <ele>2</ele>
        <time>2021-03-24T12:12:41Z</time>
      </trkpt>
      <trkpt lat="47.29363" lon="-1.52313">
        <ele>2</ele>
        <time>2021-03-24T12:12:42Z</time>
      </trkpt>
      <trkpt lat="47.29363" lon="-1.52317">
        <ele>2</ele>
        <time>2021-03-24T12:12:43Z</time>
      </trkpt>
      <trkpt lat="47.29363" lon="-1.52321">
        <ele>2</ele>
        <time>2021-03-24T12:12:44Z</time>
      </trkpt>
      <trkpt lat="47.29362" lon="-1.52325">
        <ele>2</ele>
        <time>2021-03-24T12:12:45Z</time>
      </trkpt>
      <trkpt lat="47.29362" lon="-1.52329">
        <ele>2</ele>
        <time>2021-03-24T12:12:46Z</time>
      </trkpt>
      <trkpt lat="47.29362" lon="-1.52333">
        <ele>2</ele>
        <time>2021-03-24T12:12:47Z</time>
      </trkpt>
      <trkpt lat="47.29361" lon="-1.52337">
        <ele>2</ele>
        <time>2021-03-24T12:12:48Z</time>
      </trkpt>
      <trkpt lat="47.29361" lon="-1.52341">
        <ele>2</ele>
        <time>2021-03-24T12:12:49Z</time>
      </trkpt>
      <trkpt lat="47.2936" lon="-1.52344">
        <ele>2</ele>
        <time>2021-03-24T12:12:50Z</time>
      </trkpt>
      <trkpt lat="47.29361" lon="-1.52346">
        <ele>2</ele>
        <time>2021-03-24T12:12:51Z</time>
      </trkpt>
      <trkpt lat="47.29361" lon="-1.52349">
        <ele>2</ele>
        <time>2021-03-24T12:12:52Z</time>
      </trkpt>
      <trkpt lat="47.29362" lon="-1.5235">
        <ele>1</ele>
        <time>2021-03-24T12:12:53Z</time>
      </trkpt>
      <trkpt lat="47.29363" lon="-1.52351">
        <ele>1</ele>
        <time>2021-03-24T12:12:54Z</time>
      </trkpt>
      <trkpt lat="47.29365" lon="-1.52351">
        <ele>1</ele>
        <time>2021-03-24T12:12:55Z</time>
      </trkpt>
      <trkpt lat="47.29367" lon="-1.52351">
        <ele>1</ele>
        <time>2021-03-24T12:12:56Z</time>
      </trkpt>
      <trkpt lat="47.29369" lon="-1.52351">
        <ele>1</ele>
        <time>2021-03-24T12:12:57Z</time>
      </trkpt>
      <trkpt lat="47.29371" lon="-1.52351">
        <ele>1</ele>
        <time>2021-03-24T12:12:58Z</time>
      </trkpt>
      <trkpt lat="47.29374" lon="-1.52351">
        <ele>1</ele>
        <time>2021-03-24T12:12:59Z</time>
      </trkpt>
      <trkpt lat="47.29376" lon="-1.52351">
        <ele>1</ele>
        <time>2021-03-24T12:13:00Z</time>
      </trkpt>
      <trkpt lat="47.29379" lon="-1.52351">
        <ele>1</ele>
        <time>2021-03-24T12:13:01Z</time>
      </trkpt>
      <trkpt lat="47.29382" lon="-1.52351">
        <ele>1</ele>
        <time>2021-03-24T12:13:02Z</time>
      </trkpt>
      <trkpt lat="47.29384" lon="-1.52351">
        <ele>1</ele>
        <time>2021-03-24T12:13:03Z</time>
      </trkpt>
      <trkpt lat="47.29386" lon="-1.52351">
        <ele>1</ele>
        <time>2021-03-24T12:13:04Z</time>
      </trkpt>
      <trkpt lat="47.29387" lon="-1.52351">
        <ele>1</ele>
        <time>2021-03-24T12:13:05Z</time>
      </trkpt>
      <trkpt lat="47.29389" lon="-1.52352">
        <ele>1</ele>
        <time>2021-03-24T12:13:06Z</time>
      </trkpt>
      <trkpt lat="47.2939" lon="-1.52352">
        <ele>1</ele>
        <time>2021-03-24T12:13:07Z</time>
      </trkpt>
      <trkpt lat="47.29391" lon="-1.52353">
        <ele>1</ele>
        <time>2021-03-24T12:13:08Z</time>
      </trkpt>
      <trkpt lat="47.29392" lon="-1.52353">
        <ele>1</ele>
        <time>2021-03-24T12:13:09Z</time>
      </trkpt>
      <trkpt lat="47.29392" lon="-1.52354">
        <ele>1</ele>
        <time>2021-03-24T12:13:10Z</time>
      </trkpt>
      <trkpt lat="47.29392" lon="-1.52354">
        <ele>1</ele>
        <time>2021-03-24T12:13:11Z</time>
      </trkpt>
      <trkpt lat="47.29393" lon="-1.52354">
        <ele>1</ele>
        <time>2021-03-24T12:13:12Z</time>
      </trkpt>
      <trkpt lat="47.29393" lon="-1.52354">
        <ele>5.9</ele>
        <time>2021-03-24T12:13:13Z</time>
      </trkpt>
      <trkpt lat="47.29393" lon="-1.52354">
        <ele>5.9</ele>
        <time>2021-03-24T12:13:14Z</time>
      </trkpt>
      <trkpt lat="47.29393" lon="-1.52354">
        <ele>5.8</ele>
        <time>2021-03-24T12:13:15Z</time>
      </trkpt>
      <trkpt lat="47.29393" lon="-1.52355">
        <ele>5.8</ele>
        <time>2021-03-24T12:13:16Z</time>
      </trkpt>
      <trkpt lat="47.29394" lon="-1.52355">
        <ele>5.8</ele>
        <time>2021-03-24T12:13:17Z</time>
      </trkpt>
      <trkpt lat="47.29394" lon="-1.52356">
        <ele>5.8</ele>
        <time>2021-03-24T12:13:18Z</time>
      </trkpt>
      <trkpt lat="47.29394" lon="-1.52356">
        <ele>5.8</ele>
        <time>2021-03-24T12:13:19Z</time>
      </trkpt>
      <trkpt lat="47.29395" lon="-1.52358">
        <ele>5.8</ele>
        <time>2021-03-24T12:13:20Z</time>
      </trkpt>
      <trkpt lat="47.29396" lon="-1.52359">
        <ele>5.8</ele>
        <time>2021-03-24T12:13:21Z</time>
      </trkpt>
      <trkpt lat="47.29396" lon="-1.5236">
        <ele>5.7</ele>
        <time>2021-03-24T12:13:22Z</time>
      </trkpt>
      <trkpt lat="47.29397" lon="-1.52362">
        <ele>5.7</ele>
        <time>2021-03-24T12:13:23Z</time>
      </trkpt>
      <trkpt lat="47.29398" lon="-1.52363">
        <ele>5.7</ele>
        <time>2021-03-24T12:13:24Z</time>
      </trkpt>
      <trkpt lat="47.29399" lon="-1.52365">
        <ele>5.6</ele>
        <time>2021-03-24T12:13:25Z</time>
      </trkpt>
      <trkpt lat="47.294" lon="-1.52367">
        <ele>5.6</ele>
        <time>2021-03-24T12:13:26Z</time>
      </trkpt>
      <trkpt lat="47.294" lon="-1.52368">
        <ele>5.6</ele>
        <time>2021-03-24T12:13:27Z</time>
      </trkpt>
      <trkpt lat="47.29401" lon="-1.52369">
        <ele>5.6</ele>
        <time>2021-03-24T12:13:28Z</time>
      </trkpt>
      <trkpt lat="47.29401" lon="-1.5237">
        <ele>5.5</ele>
        <time>2021-03-24T12:13:29Z</time>
      </trkpt>
      <trkpt lat="47.29401" lon="-1.52371">
        <ele>5.6</ele>
        <time>2021-03-24T12:13:56Z</time>
      </trkpt>
      <trkpt lat="47.29401" lon="-1.52371">
        <ele>5.5</ele>
        <time>2021-03-24T12:13:57Z</time>
      </trkpt>
      <trkpt lat="47.29401" lon="-1.52372">
        <ele>5.5</ele>
        <time>2021-03-24T12:13:58Z</time>
      </trkpt>
      <trkpt lat="47.29402" lon="-1.52372">
        <ele>5.5</ele>
        <time>2021-03-24T12:13:59Z</time>
      </trkpt>
      <trkpt lat="47.29402" lon="-1.52373">
        <ele>5.5</ele>
        <time>2021-03-24T12:14:00Z</time>
      </trkpt>
      <trkpt lat="47.29402" lon="-1.52374">
        <ele>5.5</ele>
        <time>2021-03-24T12:14:01Z</time>
      </trkpt>
      <trkpt lat="47.29403" lon="-1.52375">
        <ele>1</ele>
        <time>2021-03-24T12:14:02Z</time>
      </trkpt>
      <trkpt lat="47.29403" lon="-1.52376">
        <ele>5.5</ele>
        <time>2021-03-24T12:14:03Z</time>
      </trkpt>
      <trkpt lat="47.29403" lon="-1.52377">
        <ele>5.5</ele>
        <time>2021-03-24T12:14:04Z</time>
      </trkpt>
      <trkpt lat="47.29404" lon="-1.52379">
        <ele>5.4</ele>
        <time>2021-03-24T12:14:05Z</time>
      </trkpt>
      <trkpt lat="47.29405" lon="-1.52381">
        <ele>5.4</ele>
        <time>2021-03-24T12:14:06Z</time>
      </trkpt>
      <trkpt lat="47.29406" lon="-1.52383">
        <ele>5.4</ele>
        <time>2021-03-24T12:14:07Z</time>
      </trkpt>
      <trkpt lat="47.29407" lon="-1.52385">
        <ele>5.4</ele>
        <time>2021-03-24T12:14:08Z</time>
      </trkpt>
      <trkpt lat="47.29408" lon="-1.52388">
        <ele>5.3</ele>
        <time>2021-03-24T12:14:09Z</time>
      </trkpt>
      <trkpt lat="47.29409" lon="-1.52391">
        <ele>5.3</ele>
        <time>2021-03-24T12:14:10Z</time>
      </trkpt>
      <trkpt lat="47.29409" lon="-1.52394">
        <ele>5.3</ele>
        <time>2021-03-24T12:14:11Z</time>
      </trkpt>
      <trkpt lat="47.2941" lon="-1.52397">
        <ele>5.3</ele>
        <time>2021-03-24T12:14:12Z</time>
      </trkpt>
      <trkpt lat="47.29411" lon="-1.524">
        <ele>5.3</ele>
        <time>2021-03-24T12:14:13Z</time>
      </trkpt>
      <trkpt lat="47.29412" lon="-1.52403">
        <ele>5.3</ele>
        <time>2021-03-24T12:14:14Z</time>
      </trkpt>
      <trkpt lat="47.29413" lon="-1.52407">
        <ele>5.2</ele>
        <time>2021-03-24T12:14:15Z</time>
      </trkpt>
      <trkpt lat="47.29414" lon="-1.52411">
        <ele>5.2</ele>
        <time>2021-03-24T12:14:16Z</time>
      </trkpt>
      <trkpt lat="47.29415" lon="-1.52416">
        <ele>5.1</ele>
        <time>2021-03-24T12:14:17Z</time>
      </trkpt>
      <trkpt lat="47.29416" lon="-1.5242">
        <ele>5.1</ele>
        <time>2021-03-24T12:14:18Z</time>
      </trkpt>
      <trkpt lat="47.29417" lon="-1.52424">
        <ele>5.3</ele>
        <time>2021-03-24T12:14:19Z</time>
      </trkpt>
      <trkpt lat="47.29418" lon="-1.52428">
        <ele>5.4</ele>
        <time>2021-03-24T12:14:20Z</time>
      </trkpt>
      <trkpt lat="47.29418" lon="-1.52433">
        <ele>5.5</ele>
        <time>2021-03-24T12:14:21Z</time>
      </trkpt>
      <trkpt lat="47.29419" lon="-1.52437">
        <ele>1</ele>
        <time>2021-03-24T12:14:22Z</time>
      </trkpt>
      <trkpt lat="47.29418" lon="-1.52441">
        <ele>1</ele>
        <time>2021-03-24T12:14:23Z</time>
      </trkpt>
      <trkpt lat="47.29418" lon="-1.52445">
        <ele>1</ele>
        <time>2021-03-24T12:14:24Z</time>
      </trkpt>
      <trkpt lat="47.29418" lon="-1.5245">
        <ele>1</ele>
        <time>2021-03-24T12:14:25Z</time>
      </trkpt>
      <trkpt lat="47.29417" lon="-1.52455">
        <ele>1</ele>
        <time>2021-03-24T12:14:26Z</time>
      </trkpt>
      <trkpt lat="47.29416" lon="-1.52459">
        <ele>1</ele>
        <time>2021-03-24T12:14:27Z</time>
      </trkpt>
      <trkpt lat="47.29416" lon="-1.52464">
        <ele>1</ele>
        <time>2021-03-24T12:14:28Z</time>
      </trkpt>
      <trkpt lat="47.29415" lon="-1.52468">
        <ele>1</ele>
        <time>2021-03-24T12:14:29Z</time>
      </trkpt>
      <trkpt lat="47.29414" lon="-1.52473">
        <ele>1</ele>
        <time>2021-03-24T12:14:30Z</time>
      </trkpt>
      <trkpt lat="47.29414" lon="-1.52476">
        <ele>1</ele>
        <time>2021-03-24T12:14:31Z</time>
      </trkpt>
      <trkpt lat="47.29413" lon="-1.5248">
        <ele>1</ele>
        <time>2021-03-24T12:14:32Z</time>
      </trkpt>
      <trkpt lat="47.29413" lon="-1.52483">
        <ele>1</ele>
        <time>2021-03-24T12:14:33Z</time>
      </trkpt>
      <trkpt lat="47.29414" lon="-1.52486">
        <ele>1</ele>
        <time>2021-03-24T12:14:34Z</time>
      </trkpt>
      <trkpt lat="47.29415" lon="-1.52489">
        <ele>1</ele>
        <time>2021-03-24T12:14:35Z</time>
      </trkpt>
      <trkpt lat="47.29417" lon="-1.52492">
        <ele>1</ele>
        <time>2021-03-24T12:14:36Z</time>
      </trkpt>
      <trkpt lat="47.29419" lon="-1.52494">
        <ele>1</ele>
        <time>2021-03-24T12:14:37Z</time>
      </trkpt>
      <trkpt lat="47.29421" lon="-1.52496">
        <ele>1</ele>
        <time>2021-03-24T12:14:38Z</time>
      </trkpt>
      <trkpt lat="47.29424" lon="-1.52499">
        <ele>1</ele>
        <time>2021-03-24T12:14:39Z</time>
      </trkpt>
      <trkpt lat="47.29426" lon="-1.52501">
        <ele>1</ele>
        <time>2021-03-24T12:14:40Z</time>
      </trkpt>
      <trkpt lat="47.29429" lon="-1.52503">
        <ele>1</ele>
        <time>2021-03-24T12:14:41Z</time>
      </trkpt>
      <trkpt lat="47.29432" lon="-1.52505">
        <ele>2</ele>
        <time>2021-03-24T12:14:42Z</time>
      </trkpt>
      <trkpt lat="47.29434" lon="-1.52508">
        <ele>1</ele>
        <time>2021-03-24T12:14:43Z</time>
      </trkpt>
      <trkpt lat="47.29437" lon="-1.5251">
        <ele>1</ele>
        <time>2021-03-24T12:14:44Z</time>
      </trkpt>
      <trkpt lat="47.2944" lon="-1.52512">
        <ele>1</ele>
        <time>2021-03-24T12:14:45Z</time>
      </trkpt>
      <trkpt lat="47.29442" lon="-1.52515">
        <ele>1</ele>
        <time>2021-03-24T12:14:46Z</time>
      </trkpt>
      <trkpt lat="47.29444" lon="-1.52517">
        <ele>1</ele>
        <time>2021-03-24T12:14:47Z</time>
      </trkpt>
      <trkpt lat="47.29447" lon="-1.5252">
        <ele>1</ele>
        <time>2021-03-24T12:14:48Z</time>
      </trkpt>
      <trkpt lat="47.29449" lon="-1.52522">
        <ele>1</ele>
        <time>2021-03-24T12:14:49Z</time>
      </trkpt>
      <trkpt lat="47.29452" lon="-1.52524">
        <ele>1</ele>
        <time>2021-03-24T12:14:50Z</time>
      </trkpt>
      <trkpt lat="47.29454" lon="-1.52527">
        <ele>1</ele>
        <time>2021-03-24T12:14:51Z</time>
      </trkpt>
      <trkpt lat="47.29457" lon="-1.52529">
        <ele>1</ele>
        <time>2021-03-24T12:14:52Z</time>
      </trkpt>
      <trkpt lat="47.29459" lon="-1.52532">
        <ele>1</ele>
        <time>2021-03-24T12:14:53Z</time>
      </trkpt>
      <trkpt lat="47.29462" lon="-1.52534">
        <ele>1</ele>
        <time>2021-03-24T12:14:54Z</time>
      </trkpt>
      <trkpt lat="47.29464" lon="-1.52537">
        <ele>1</ele>
        <time>2021-03-24T12:14:55Z</time>
      </trkpt>
      <trkpt lat="47.29467" lon="-1.52539">
        <ele>1</ele>
        <time>2021-03-24T12:14:56Z</time>
      </trkpt>
      <trkpt lat="47.29469" lon="-1.52541">
        <ele>1</ele>
        <time>2021-03-24T12:14:57Z</time>
      </trkpt>
      <trkpt lat="47.29472" lon="-1.52544">
        <ele>1</ele>
        <time>2021-03-24T12:14:58Z</time>
      </trkpt>
      <trkpt lat="47.29474" lon="-1.52546">
        <ele>1</ele>
        <time>2021-03-24T12:14:59Z</time>
      </trkpt>
      <trkpt lat="47.29477" lon="-1.52548">
        <ele>1</ele>
        <time>2021-03-24T12:15:00Z</time>
      </trkpt>
      <trkpt lat="47.29479" lon="-1.52551">
        <ele>1</ele>
        <time>2021-03-24T12:15:01Z</time>
      </trkpt>
      <trkpt lat="47.29481" lon="-1.52553">
        <ele>1</ele>
        <time>2021-03-24T12:15:02Z</time>
      </trkpt>
      <trkpt lat="47.29484" lon="-1.52555">
        <ele>1</ele>
        <time>2021-03-24T12:15:03Z</time>
      </trkpt>
      <trkpt lat="47.29486" lon="-1.52557">
        <ele>1</ele>
        <time>2021-03-24T12:15:04Z</time>
      </trkpt>
      <trkpt lat="47.29488" lon="-1.5256">
        <ele>1</ele>
        <time>2021-03-24T12:15:05Z</time>
      </trkpt>
      <trkpt lat="47.2949" lon="-1.52562">
        <ele>1</ele>
        <time>2021-03-24T12:15:06Z</time>
      </trkpt>
      <trkpt lat="47.29492" lon="-1.52564">
        <ele>1</ele>
        <time>2021-03-24T12:15:07Z</time>
      </trkpt>
      <trkpt lat="47.29495" lon="-1.52566">
        <ele>1</ele>
        <time>2021-03-24T12:15:08Z</time>
      </trkpt>
      <trkpt lat="47.29496" lon="-1.52568">
        <ele>1</ele>
        <time>2021-03-24T12:15:09Z</time>
      </trkpt>
      <trkpt lat="47.29498" lon="-1.5257">
        <ele>1</ele>
        <time>2021-03-24T12:15:10Z</time>
      </trkpt>
      <trkpt lat="47.295" lon="-1.52572">
        <ele>1</ele>
        <time>2021-03-24T12:15:11Z</time>
      </trkpt>
      <trkpt lat="47.29501" lon="-1.52574">
        <ele>2</ele>
        <time>2021-03-24T12:15:12Z</time>
      </trkpt>
      <trkpt lat="47.29503" lon="-1.52577">
        <ele>2</ele>
        <time>2021-03-24T12:15:13Z</time>
      </trkpt>
      <trkpt lat="47.29504" lon="-1.52579">
        <ele>2</ele>
        <time>2021-03-24T12:15:14Z</time>
      </trkpt>
      <trkpt lat="47.29505" lon="-1.52583">
        <ele>2</ele>
        <time>2021-03-24T12:15:15Z</time>
      </trkpt>
      <trkpt lat="47.29506" lon="-1.52587">
        <ele>2</ele>
        <time>2021-03-24T12:15:16Z</time>
      </trkpt>
      <trkpt lat="47.29507" lon="-1.52591">
        <ele>2</ele>
        <time>2021-03-24T12:15:17Z</time>
      </trkpt>
      <trkpt lat="47.29508" lon="-1.52595">
        <ele>2</ele>
        <time>2021-03-24T12:15:18Z</time>
      </trkpt>
      <trkpt lat="47.29509" lon="-1.52599">
        <ele>2</ele>
        <time>2021-03-24T12:15:19Z</time>
      </trkpt>
      <trkpt lat="47.2951" lon="-1.52604">
        <ele>2</ele>
        <time>2021-03-24T12:15:20Z</time>
      </trkpt>
      <trkpt lat="47.29511" lon="-1.52608">
        <ele>2</ele>
        <time>2021-03-24T12:15:21Z</time>
      </trkpt>
      <trkpt lat="47.29512" lon="-1.52612">
        <ele>2</ele>
        <time>2021-03-24T12:15:22Z</time>
      </trkpt>
      <trkpt lat="47.29512" lon="-1.52617">
        <ele>2</ele>
        <time>2021-03-24T12:15:23Z</time>
      </trkpt>
      <trkpt lat="47.29513" lon="-1.52621">
        <ele>2</ele>
        <time>2021-03-24T12:15:24Z</time>
      </trkpt>
      <trkpt lat="47.29514" lon="-1.52626">
        <ele>2</ele>
        <time>2021-03-24T12:15:25Z</time>
      </trkpt>
      <trkpt lat="47.29514" lon="-1.52631">
        <ele>2</ele>
        <time>2021-03-24T12:15:26Z</time>
      </trkpt>
      <trkpt lat="47.29515" lon="-1.52636">
        <ele>2</ele>
        <time>2021-03-24T12:15:27Z</time>
      </trkpt>
      <trkpt lat="47.29516" lon="-1.52642">
        <ele>1</ele>
        <time>2021-03-24T12:15:28Z</time>
      </trkpt>
      <trkpt lat="47.29517" lon="-1.52647">
        <ele>1</ele>
        <time>2021-03-24T12:15:29Z</time>
      </trkpt>
      <trkpt lat="47.29518" lon="-1.52652">
        <ele>1</ele>
        <time>2021-03-24T12:15:30Z</time>
      </trkpt>
      <trkpt lat="47.29519" lon="-1.52657">
        <ele>1</ele>
        <time>2021-03-24T12:15:31Z</time>
      </trkpt>
      <trkpt lat="47.29519" lon="-1.52663">
        <ele>1</ele>
        <time>2021-03-24T12:15:32Z</time>
      </trkpt>
      <trkpt lat="47.2952" lon="-1.52668">
        <ele>1</ele>
        <time>2021-03-24T12:15:33Z</time>
      </trkpt>
      <trkpt lat="47.29521" lon="-1.52673">
        <ele>1</ele>
        <time>2021-03-24T12:15:34Z</time>
      </trkpt>
      <trkpt lat="47.29522" lon="-1.52677">
        <ele>1</ele>
        <time>2021-03-24T12:15:35Z</time>
      </trkpt>
      <trkpt lat="47.29523" lon="-1.52681">
        <ele>1</ele>
        <time>2021-03-24T12:15:36Z</time>
      </trkpt>
      <trkpt lat="47.29524" lon="-1.52685">
        <ele>1</ele>
        <time>2021-03-24T12:15:37Z</time>
      </trkpt>
      <trkpt lat="47.29526" lon="-1.52688">
        <ele>1</ele>
        <time>2021-03-24T12:15:38Z</time>
      </trkpt>
      <trkpt lat="47.29527" lon="-1.52692">
        <ele>1</ele>
        <time>2021-03-24T12:15:39Z</time>
      </trkpt>
      <trkpt lat="47.29528" lon="-1.52695">
        <ele>1</ele>
        <time>2021-03-24T12:15:40Z</time>
      </trkpt>
      <trkpt lat="47.2953" lon="-1.52698">
        <ele>1</ele>
        <time>2021-03-24T12:15:41Z</time>
      </trkpt>
      <trkpt lat="47.29531" lon="-1.52702">
        <ele>1</ele>
        <time>2021-03-24T12:15:42Z</time>
      </trkpt>
      <trkpt lat="47.29533" lon="-1.52705">
        <ele>1</ele>
        <time>2021-03-24T12:15:43Z</time>
      </trkpt>
      <trkpt lat="47.29534" lon="-1.52708">
        <ele>1</ele>
        <time>2021-03-24T12:15:44Z</time>
      </trkpt>
      <trkpt lat="47.29536" lon="-1.52712">
        <ele>1</ele>
        <time>2021-03-24T12:15:45Z</time>
      </trkpt>
      <trkpt lat="47.29537" lon="-1.52715">
        <ele>1</ele>
        <time>2021-03-24T12:15:46Z</time>
      </trkpt>
      <trkpt lat="47.29538" lon="-1.52718">
        <ele>2</ele>
        <time>2021-03-24T12:15:47Z</time>
      </trkpt>
      <trkpt lat="47.2954" lon="-1.52722">
        <ele>2</ele>
        <time>2021-03-24T12:15:48Z</time>
      </trkpt>
      <trkpt lat="47.29541" lon="-1.52725">
        <ele>2</ele>
        <time>2021-03-24T12:15:49Z</time>
      </trkpt>
      <trkpt lat="47.29542" lon="-1.52728">
        <ele>2</ele>
        <time>2021-03-24T12:15:50Z</time>
      </trkpt>
      <trkpt lat="47.29544" lon="-1.52731">
        <ele>2</ele>
        <time>2021-03-24T12:15:51Z</time>
      </trkpt>
      <trkpt lat="47.29545" lon="-1.52734">
        <ele>2</ele>
        <time>2021-03-24T12:15:52Z</time>
      </trkpt>
      <trkpt lat="47.29547" lon="-1.52737">
        <ele>2</ele>
        <time>2021-03-24T12:15:53Z</time>
      </trkpt>
      <trkpt lat="47.29549" lon="-1.5274">
        <ele>2</ele>
        <time>2021-03-24T12:15:54Z</time>
      </trkpt>
      <trkpt lat="47.2955" lon="-1.52743">
        <ele>2</ele>
        <time>2021-03-24T12:15:55Z</time>
      </trkpt>
      <trkpt lat="47.29552" lon="-1.52747">
        <ele>2</ele>
        <time>2021-03-24T12:15:56Z</time>
      </trkpt>
      <trkpt lat="47.29553" lon="-1.5275">
        <ele>2</ele>
        <time>2021-03-24T12:15:57Z</time>
      </trkpt>
      <trkpt lat="47.29555" lon="-1.52753">
        <ele>2</ele>
        <time>2021-03-24T12:15:58Z</time>
      </trkpt>
      <trkpt lat="47.29556" lon="-1.52757">
        <ele>2</ele>
        <time>2021-03-24T12:15:59Z</time>
      </trkpt>
      <trkpt lat="47.29558" lon="-1.5276">
        <ele>2</ele>
        <time>2021-03-24T12:16:00Z</time>
      </trkpt>
      <trkpt lat="47.29559" lon="-1.52763">
        <ele>2</ele>
        <time>2021-03-24T12:16:01Z</time>
      </trkpt>
      <trkpt lat="47.29561" lon="-1.52766">
        <ele>2</ele>
        <time>2021-03-24T12:16:02Z</time>
      </trkpt>
      <trkpt lat="47.29562" lon="-1.52769">
        <ele>2</ele>
        <time>2021-03-24T12:16:03Z</time>
      </trkpt>
      <trkpt lat="47.29564" lon="-1.52773">
        <ele>2</ele>
        <time>2021-03-24T12:16:04Z</time>
      </trkpt>
      <trkpt lat="47.29564" lon="-1.52777">
        <ele>2</ele>
        <time>2021-03-24T12:16:05Z</time>
      </trkpt>
      <trkpt lat="47.29565" lon="-1.5278">
        <ele>2</ele>
        <time>2021-03-24T12:16:06Z</time>
      </trkpt>
      <trkpt lat="47.29566" lon="-1.52785">
        <ele>3</ele>
        <time>2021-03-24T12:16:07Z</time>
      </trkpt>
      <trkpt lat="47.29566" lon="-1.5279">
        <ele>3</ele>
        <time>2021-03-24T12:16:08Z</time>
      </trkpt>
      <trkpt lat="47.29567" lon="-1.52795">
        <ele>3</ele>
        <time>2021-03-24T12:16:09Z</time>
      </trkpt>
      <trkpt lat="47.29567" lon="-1.528">
        <ele>3</ele>
        <time>2021-03-24T12:16:10Z</time>
      </trkpt>
      <trkpt lat="47.29567" lon="-1.52806">
        <ele>3</ele>
        <time>2021-03-24T12:16:11Z</time>
      </trkpt>
      <trkpt lat="47.29568" lon="-1.52811">
        <ele>3</ele>
        <time>2021-03-24T12:16:12Z</time>
      </trkpt>
      <trkpt lat="47.29568" lon="-1.52815">
        <ele>3</ele>
        <time>2021-03-24T12:16:13Z</time>
      </trkpt>
      <trkpt lat="47.29569" lon="-1.5282">
        <ele>3</ele>
        <time>2021-03-24T12:16:14Z</time>
      </trkpt>
      <trkpt lat="47.29569" lon="-1.52825">
        <ele>3</ele>
        <time>2021-03-24T12:16:15Z</time>
      </trkpt>
      <trkpt lat="47.2957" lon="-1.52829">
        <ele>3</ele>
        <time>2021-03-24T12:16:16Z</time>
      </trkpt>
      <trkpt lat="47.29571" lon="-1.52833">
        <ele>4</ele>
        <time>2021-03-24T12:16:17Z</time>
      </trkpt>
      <trkpt lat="47.29571" lon="-1.52837">
        <ele>4</ele>
        <time>2021-03-24T12:16:18Z</time>
      </trkpt>
      <trkpt lat="47.29572" lon="-1.52841">
        <ele>4</ele>
        <time>2021-03-24T12:16:19Z</time>
      </trkpt>
      <trkpt lat="47.29573" lon="-1.52845">
        <ele>4</ele>
        <time>2021-03-24T12:16:20Z</time>
      </trkpt>
      <trkpt lat="47.29573" lon="-1.52848">
        <ele>4</ele>
        <time>2021-03-24T12:16:21Z</time>
      </trkpt>
      <trkpt lat="47.29574" lon="-1.52852">
        <ele>4</ele>
        <time>2021-03-24T12:16:22Z</time>
      </trkpt>
      <trkpt lat="47.29574" lon="-1.52855">
        <ele>4</ele>
        <time>2021-03-24T12:16:23Z</time>
      </trkpt>
      <trkpt lat="47.29575" lon="-1.52858">
        <ele>4</ele>
        <time>2021-03-24T12:16:24Z</time>
      </trkpt>
      <trkpt lat="47.29575" lon="-1.52862">
        <ele>4</ele>
        <time>2021-03-24T12:16:25Z</time>
      </trkpt>
      <trkpt lat="47.29575" lon="-1.52866">
        <ele>4</ele>
        <time>2021-03-24T12:16:26Z</time>
      </trkpt>
      <trkpt lat="47.29576" lon="-1.5287">
        <ele>4</ele>
        <time>2021-03-24T12:16:27Z</time>
      </trkpt>
      <trkpt lat="47.29576" lon="-1.52874">
        <ele>4</ele>
        <time>2021-03-24T12:16:28Z</time>
      </trkpt>
      <trkpt lat="47.29577" lon="-1.52879">
        <ele>4</ele>
        <time>2021-03-24T12:16:29Z</time>
      </trkpt>
      <trkpt lat="47.29577" lon="-1.52883">
        <ele>4</ele>
        <time>2021-03-24T12:16:30Z</time>
      </trkpt>
      <trkpt lat="47.29577" lon="-1.52888">
        <ele>4</ele>
        <time>2021-03-24T12:16:31Z</time>
      </trkpt>
      <trkpt lat="47.29577" lon="-1.52892">
        <ele>4</ele>
        <time>2021-03-24T12:16:32Z</time>
      </trkpt>
      <trkpt lat="47.29577" lon="-1.52897">
        <ele>4</ele>
        <time>2021-03-24T12:16:33Z</time>
      </trkpt>
      <trkpt lat="47.29577" lon="-1.52901">
        <ele>4</ele>
        <time>2021-03-24T12:16:34Z</time>
      </trkpt>
      <trkpt lat="47.29578" lon="-1.52905">
        <ele>4</ele>
        <time>2021-03-24T12:16:35Z</time>
      </trkpt>
      <trkpt lat="47.29578" lon="-1.5291">
        <ele>4</ele>
        <time>2021-03-24T12:16:36Z</time>
      </trkpt>
      <trkpt lat="47.29578" lon="-1.52914">
        <ele>4</ele>
        <time>2021-03-24T12:16:37Z</time>
      </trkpt>
      <trkpt lat="47.29579" lon="-1.52919">
        <ele>4</ele>
        <time>2021-03-24T12:16:38Z</time>
      </trkpt>
      <trkpt lat="47.2958" lon="-1.52923">
        <ele>4</ele>
        <time>2021-03-24T12:16:39Z</time>
      </trkpt>
      <trkpt lat="47.29581" lon="-1.52927">
        <ele>4</ele>
        <time>2021-03-24T12:16:40Z</time>
      </trkpt>
      <trkpt lat="47.29582" lon="-1.5293">
        <ele>4</ele>
        <time>2021-03-24T12:16:41Z</time>
      </trkpt>
      <trkpt lat="47.29583" lon="-1.52934">
        <ele>4</ele>
        <time>2021-03-24T12:16:42Z</time>
      </trkpt>
      <trkpt lat="47.29584" lon="-1.52937">
        <ele>3</ele>
        <time>2021-03-24T12:16:43Z</time>
      </trkpt>
      <trkpt lat="47.29585" lon="-1.52941">
        <ele>3</ele>
        <time>2021-03-24T12:16:44Z</time>
      </trkpt>
      <trkpt lat="47.29587" lon="-1.52944">
        <ele>3</ele>
        <time>2021-03-24T12:16:45Z</time>
      </trkpt>
      <trkpt lat="47.29588" lon="-1.52948">
        <ele>3</ele>
        <time>2021-03-24T12:16:46Z</time>
      </trkpt>
      <trkpt lat="47.2959" lon="-1.52952">
        <ele>3</ele>
        <time>2021-03-24T12:16:47Z</time>
      </trkpt>
      <trkpt lat="47.29591" lon="-1.52955">
        <ele>3</ele>
        <time>2021-03-24T12:16:48Z</time>
      </trkpt>
      <trkpt lat="47.29593" lon="-1.52958">
        <ele>3</ele>
        <time>2021-03-24T12:16:49Z</time>
      </trkpt>
      <trkpt lat="47.29594" lon="-1.52962">
        <ele>3</ele>
        <time>2021-03-24T12:16:50Z</time>
      </trkpt>
      <trkpt lat="47.29596" lon="-1.52965">
        <ele>3</ele>
        <time>2021-03-24T12:16:51Z</time>
      </trkpt>
      <trkpt lat="47.29597" lon="-1.52968">
        <ele>3</ele>
        <time>2021-03-24T12:16:52Z</time>
      </trkpt>
      <trkpt lat="47.29599" lon="-1.52971">
        <ele>2</ele>
        <time>2021-03-24T12:16:53Z</time>
      </trkpt>
      <trkpt lat="47.296" lon="-1.52975">
        <ele>2</ele>
        <time>2021-03-24T12:16:54Z</time>
      </trkpt>
      <trkpt lat="47.29602" lon="-1.52978">
        <ele>2</ele>
        <time>2021-03-24T12:16:55Z</time>
      </trkpt>
      <trkpt lat="47.29604" lon="-1.52981">
        <ele>2</ele>
        <time>2021-03-24T12:16:56Z</time>
      </trkpt>
      <trkpt lat="47.29606" lon="-1.52984">
        <ele>2</ele>
        <time>2021-03-24T12:16:57Z</time>
      </trkpt>
      <trkpt lat="47.29608" lon="-1.52987">
        <ele>2</ele>
        <time>2021-03-24T12:16:58Z</time>
      </trkpt>
      <trkpt lat="47.2961" lon="-1.52989">
        <ele>2</ele>
        <time>2021-03-24T12:16:59Z</time>
      </trkpt>
      <trkpt lat="47.29613" lon="-1.52992">
        <ele>2</ele>
        <time>2021-03-24T12:17:00Z</time>
      </trkpt>
      <trkpt lat="47.29614" lon="-1.52995">
        <ele>2</ele>
        <time>2021-03-24T12:17:01Z</time>
      </trkpt>
      <trkpt lat="47.29616" lon="-1.52998">
        <ele>2</ele>
        <time>2021-03-24T12:17:02Z</time>
      </trkpt>
      <trkpt lat="47.29618" lon="-1.53001">
        <ele>2</ele>
        <time>2021-03-24T12:17:03Z</time>
      </trkpt>
      <trkpt lat="47.2962" lon="-1.53004">
        <ele>2</ele>
        <time>2021-03-24T12:17:04Z</time>
      </trkpt>
      <trkpt lat="47.29622" lon="-1.53007">
        <ele>2</ele>
        <time>2021-03-24T12:17:05Z</time>
      </trkpt>
      <trkpt lat="47.29624" lon="-1.5301">
        <ele>2</ele>
        <time>2021-03-24T12:17:06Z</time>
      </trkpt>
      <trkpt lat="47.29625" lon="-1.53014">
        <ele>2</ele>
        <time>2021-03-24T12:17:07Z</time>
      </trkpt>
      <trkpt lat="47.29627" lon="-1.53017">
        <ele>1</ele>
        <time>2021-03-24T12:17:08Z</time>
      </trkpt>
      <trkpt lat="47.29629" lon="-1.5302">
        <ele>1</ele>
        <time>2021-03-24T12:17:09Z</time>
      </trkpt>
      <trkpt lat="47.2963" lon="-1.53023">
        <ele>1</ele>
        <time>2021-03-24T12:17:10Z</time>
      </trkpt>
      <trkpt lat="47.29632" lon="-1.53026">
        <ele>1</ele>
        <time>2021-03-24T12:17:11Z</time>
      </trkpt>
      <trkpt lat="47.29634" lon="-1.5303">
        <ele>1</ele>
        <time>2021-03-24T12:17:12Z</time>
      </trkpt>
      <trkpt lat="47.29635" lon="-1.53033">
        <ele>1</ele>
        <time>2021-03-24T12:17:13Z</time>
      </trkpt>
      <trkpt lat="47.29637" lon="-1.53036">
        <ele>1</ele>
        <time>2021-03-24T12:17:14Z</time>
      </trkpt>
      <trkpt lat="47.29638" lon="-1.53039">
        <ele>1</ele>
        <time>2021-03-24T12:17:15Z</time>
      </trkpt>
      <trkpt lat="47.2964" lon="-1.53042">
        <ele>1</ele>
        <time>2021-03-24T12:17:16Z</time>
      </trkpt>
      <trkpt lat="47.29641" lon="-1.53044">
        <ele>1</ele>
        <time>2021-03-24T12:17:17Z</time>
      </trkpt>
      <trkpt lat="47.29643" lon="-1.53047">
        <ele>1</ele>
        <time>2021-03-24T12:17:18Z</time>
      </trkpt>
      <trkpt lat="47.29645" lon="-1.53049">
        <ele>1</ele>
        <time>2021-03-24T12:17:19Z</time>
      </trkpt>
      <trkpt lat="47.29647" lon="-1.53051">
        <ele>1</ele>
        <time>2021-03-24T12:17:20Z</time>
      </trkpt>
      <trkpt lat="47.29649" lon="-1.53053">
        <ele>1</ele>
        <time>2021-03-24T12:17:21Z</time>
      </trkpt>
      <trkpt lat="47.29652" lon="-1.53055">
        <ele>1</ele>
        <time>2021-03-24T12:17:22Z</time>
      </trkpt>
      <trkpt lat="47.29654" lon="-1.53057">
        <ele>1</ele>
        <time>2021-03-24T12:17:23Z</time>
      </trkpt>
      <trkpt lat="47.29656" lon="-1.53059">
        <ele>1</ele>
        <time>2021-03-24T12:17:24Z</time>
      </trkpt>
      <trkpt lat="47.29659" lon="-1.53061">
        <ele>1</ele>
        <time>2021-03-24T12:17:25Z</time>
      </trkpt>
      <trkpt lat="47.29661" lon="-1.53062">
        <ele>1</ele>
        <time>2021-03-24T12:17:26Z</time>
      </trkpt>
      <trkpt lat="47.29664" lon="-1.53064">
        <ele>1</ele>
        <time>2021-03-24T12:17:27Z</time>
      </trkpt>
      <trkpt lat="47.29666" lon="-1.53066">
        <ele>1</ele>
        <time>2021-03-24T12:17:28Z</time>
      </trkpt>
      <trkpt lat="47.29669" lon="-1.53068">
        <ele>1</ele>
        <time>2021-03-24T12:17:29Z</time>
      </trkpt>
      <trkpt lat="47.29672" lon="-1.53069">
        <ele>1</ele>
        <time>2021-03-24T12:17:30Z</time>
      </trkpt>
      <trkpt lat="47.29674" lon="-1.53071">
        <ele>1</ele>
        <time>2021-03-24T12:17:31Z</time>
      </trkpt>
      <trkpt lat="47.29677" lon="-1.53073">
        <ele>1</ele>
        <time>2021-03-24T12:17:32Z</time>
      </trkpt>
      <trkpt lat="47.2968" lon="-1.53074">
        <ele>1</ele>
        <time>2021-03-24T12:17:33Z</time>
      </trkpt>
      <trkpt lat="47.29682" lon="-1.53076">
        <ele>1</ele>
        <time>2021-03-24T12:17:34Z</time>
      </trkpt>
      <trkpt lat="47.29685" lon="-1.53077">
        <ele>1</ele>
        <time>2021-03-24T12:17:35Z</time>
      </trkpt>
      <trkpt lat="47.29687" lon="-1.53078">
        <ele>1</ele>
        <time>2021-03-24T12:17:36Z</time>
      </trkpt>
      <trkpt lat="47.2969" lon="-1.53079">
        <ele>1</ele>
        <time>2021-03-24T12:17:37Z</time>
      </trkpt>
      <trkpt lat="47.29693" lon="-1.5308">
        <ele>1</ele>
        <time>2021-03-24T12:17:38Z</time>
      </trkpt>
      <trkpt lat="47.29695" lon="-1.53082">
        <ele>1</ele>
        <time>2021-03-24T12:17:39Z</time>
      </trkpt>
      <trkpt lat="47.29698" lon="-1.53083">
        <ele>1</ele>
        <time>2021-03-24T12:17:40Z</time>
      </trkpt>
      <trkpt lat="47.297" lon="-1.53084">
        <ele>1</ele>
        <time>2021-03-24T12:17:41Z</time>
      </trkpt>
      <trkpt lat="47.29703" lon="-1.53086">
        <ele>1</ele>
        <time>2021-03-24T12:17:42Z</time>
      </trkpt>
      <trkpt lat="47.29705" lon="-1.53087">
        <ele>1</ele>
        <time>2021-03-24T12:17:43Z</time>
      </trkpt>
      <trkpt lat="47.29708" lon="-1.53087">
        <ele>1</ele>
        <time>2021-03-24T12:17:44Z</time>
      </trkpt>
      <trkpt lat="47.29711" lon="-1.53087">
        <ele>1</ele>
        <time>2021-03-24T12:17:45Z</time>
      </trkpt>
      <trkpt lat="47.29714" lon="-1.53088">
        <ele>1</ele>
        <time>2021-03-24T12:17:46Z</time>
      </trkpt>
      <trkpt lat="47.29716" lon="-1.53088">
        <ele>1</ele>
        <time>2021-03-24T12:17:47Z</time>
      </trkpt>
      <trkpt lat="47.29719" lon="-1.53088">
        <ele>1</ele>
        <time>2021-03-24T12:17:48Z</time>
      </trkpt>
      <trkpt lat="47.29721" lon="-1.53087">
        <ele>1</ele>
        <time>2021-03-24T12:17:49Z</time>
      </trkpt>
      <trkpt lat="47.29723" lon="-1.53087">
        <ele>1</ele>
        <time>2021-03-24T12:17:50Z</time>
      </trkpt>
      <trkpt lat="47.29726" lon="-1.53087">
        <ele>1</ele>
        <time>2021-03-24T12:17:51Z</time>
      </trkpt>
      <trkpt lat="47.29728" lon="-1.53087">
        <ele>1</ele>
        <time>2021-03-24T12:17:52Z</time>
      </trkpt>
      <trkpt lat="47.2973" lon="-1.53086">
        <ele>1</ele>
        <time>2021-03-24T12:17:53Z</time>
      </trkpt>
      <trkpt lat="47.29732" lon="-1.53086">
        <ele>1</ele>
        <time>2021-03-24T12:17:54Z</time>
      </trkpt>
      <trkpt lat="47.29735" lon="-1.53085">
        <ele>1</ele>
        <time>2021-03-24T12:17:55Z</time>
      </trkpt>
      <trkpt lat="47.29737" lon="-1.53085">
        <ele>1</ele>
        <time>2021-03-24T12:17:56Z</time>
      </trkpt>
      <trkpt lat="47.29739" lon="-1.53084">
        <ele>1</ele>
        <time>2021-03-24T12:17:57Z</time>
      </trkpt>
      <trkpt lat="47.29741" lon="-1.53083">
        <ele>1</ele>
        <time>2021-03-24T12:17:58Z</time>
      </trkpt>
      <trkpt lat="47.29743" lon="-1.53082">
        <ele>1</ele>
        <time>2021-03-24T12:17:59Z</time>
      </trkpt>
      <trkpt lat="47.29746" lon="-1.53081">
        <ele>1</ele>
        <time>2021-03-24T12:18:00Z</time>
      </trkpt>
      <trkpt lat="47.29748" lon="-1.53079">
        <ele>1</ele>
        <time>2021-03-24T12:18:01Z</time>
      </trkpt>
      <trkpt lat="47.2975" lon="-1.53077">
        <ele>1</ele>
        <time>2021-03-24T12:18:02Z</time>
      </trkpt>
      <trkpt lat="47.29752" lon="-1.53076">
        <ele>1</ele>
        <time>2021-03-24T12:18:03Z</time>
      </trkpt>
      <trkpt lat="47.29754" lon="-1.53074">
        <ele>1</ele>
        <time>2021-03-24T12:18:04Z</time>
      </trkpt>
      <trkpt lat="47.29757" lon="-1.53073">
        <ele>1</ele>
        <time>2021-03-24T12:18:05Z</time>
      </trkpt>
      <trkpt lat="47.29759" lon="-1.53072">
        <ele>1</ele>
        <time>2021-03-24T12:18:06Z</time>
      </trkpt>
      <trkpt lat="47.29761" lon="-1.53071">
        <ele>1</ele>
        <time>2021-03-24T12:18:07Z</time>
      </trkpt>
      <trkpt lat="47.29764" lon="-1.53071">
        <ele>7.2</ele>
        <time>2021-03-24T12:18:08Z</time>
      </trkpt>
      <trkpt lat="47.29767" lon="-1.53071">
        <ele>7.1</ele>
        <time>2021-03-24T12:18:09Z</time>
      </trkpt>
      <trkpt lat="47.2977" lon="-1.53071">
        <ele>7.1</ele>
        <time>2021-03-24T12:18:10Z</time>
      </trkpt>
      <trkpt lat="47.29773" lon="-1.5307">
        <ele>7</ele>
        <time>2021-03-24T12:18:11Z</time>
      </trkpt>
      <trkpt lat="47.29775" lon="-1.5307">
        <ele>7</ele>
        <time>2021-03-24T12:18:12Z</time>
      </trkpt>
      <trkpt lat="47.29778" lon="-1.53069">
        <ele>7</ele>
        <time>2021-03-24T12:18:13Z</time>
      </trkpt>
      <trkpt lat="47.29781" lon="-1.53069">
        <ele>7</ele>
        <time>2021-03-24T12:18:14Z</time>
      </trkpt>
      <trkpt lat="47.29783" lon="-1.53068">
        <ele>6.9</ele>
        <time>2021-03-24T12:18:15Z</time>
      </trkpt>
      <trkpt lat="47.29786" lon="-1.53068">
        <ele>6.8</ele>
        <time>2021-03-24T12:18:16Z</time>
      </trkpt>
      <trkpt lat="47.29788" lon="-1.53067">
        <ele>6.8</ele>
        <time>2021-03-24T12:18:17Z</time>
      </trkpt>
      <trkpt lat="47.29791" lon="-1.53066">
        <ele>6.8</ele>
        <time>2021-03-24T12:18:18Z</time>
      </trkpt>
      <trkpt lat="47.29793" lon="-1.53065">
        <ele>6.8</ele>
        <time>2021-03-24T12:18:19Z</time>
      </trkpt>
      <trkpt lat="47.29795" lon="-1.53064">
        <ele>6.8</ele>
        <time>2021-03-24T12:18:20Z</time>
      </trkpt>
      <trkpt lat="47.29797" lon="-1.53063">
        <ele>6.9</ele>
        <time>2021-03-24T12:18:21Z</time>
      </trkpt>
      <trkpt lat="47.29799" lon="-1.53062">
        <ele>1</ele>
        <time>2021-03-24T12:18:22Z</time>
      </trkpt>
      <trkpt lat="47.29802" lon="-1.5306">
        <ele>1</ele>
        <time>2021-03-24T12:18:23Z</time>
      </trkpt>
      <trkpt lat="47.29804" lon="-1.53059">
        <ele>1</ele>
        <time>2021-03-24T12:18:24Z</time>
      </trkpt>
      <trkpt lat="47.29806" lon="-1.53057">
        <ele>1</ele>
        <time>2021-03-24T12:18:25Z</time>
      </trkpt>
      <trkpt lat="47.29809" lon="-1.53056">
        <ele>1</ele>
        <time>2021-03-24T12:18:26Z</time>
      </trkpt>
      <trkpt lat="47.29811" lon="-1.53054">
        <ele>1</ele>
        <time>2021-03-24T12:18:27Z</time>
      </trkpt>
      <trkpt lat="47.29813" lon="-1.53052">
        <ele>1</ele>
        <time>2021-03-24T12:18:28Z</time>
      </trkpt>
      <trkpt lat="47.29816" lon="-1.5305">
        <ele>1</ele>
        <time>2021-03-24T12:18:29Z</time>
      </trkpt>
      <trkpt lat="47.29818" lon="-1.53048">
        <ele>1</ele>
        <time>2021-03-24T12:18:30Z</time>
      </trkpt>
      <trkpt lat="47.29821" lon="-1.53046">
        <ele>1</ele>
        <time>2021-03-24T12:18:31Z</time>
      </trkpt>
      <trkpt lat="47.29823" lon="-1.53043">
        <ele>2</ele>
        <time>2021-03-24T12:18:32Z</time>
      </trkpt>
      <trkpt lat="47.29826" lon="-1.53041">
        <ele>2</ele>
        <time>2021-03-24T12:18:33Z</time>
      </trkpt>
      <trkpt lat="47.29828" lon="-1.53038">
        <ele>2</ele>
        <time>2021-03-24T12:18:34Z</time>
      </trkpt>
      <trkpt lat="47.29831" lon="-1.53036">
        <ele>2</ele>
        <time>2021-03-24T12:18:35Z</time>
      </trkpt>
      <trkpt lat="47.29833" lon="-1.53033">
        <ele>2</ele>
        <time>2021-03-24T12:18:36Z</time>
      </trkpt>
      <trkpt lat="47.29836" lon="-1.5303">
        <ele>2</ele>
        <time>2021-03-24T12:18:37Z</time>
      </trkpt>
      <trkpt lat="47.29838" lon="-1.53028">
        <ele>1</ele>
        <time>2021-03-24T12:18:38Z</time>
      </trkpt>
      <trkpt lat="47.2984" lon="-1.53025">
        <ele>1</ele>
        <time>2021-03-24T12:18:39Z</time>
      </trkpt>
      <trkpt lat="47.29842" lon="-1.53022">
        <ele>1</ele>
        <time>2021-03-24T12:18:40Z</time>
      </trkpt>
      <trkpt lat="47.29843" lon="-1.5302">
        <ele>1</ele>
        <time>2021-03-24T12:18:41Z</time>
      </trkpt>
      <trkpt lat="47.29845" lon="-1.53017">
        <ele>1</ele>
        <time>2021-03-24T12:18:42Z</time>
      </trkpt>
      <trkpt lat="47.29847" lon="-1.53015">
        <ele>1</ele>
        <time>2021-03-24T12:18:43Z</time>
      </trkpt>
      <trkpt lat="47.29849" lon="-1.53012">
        <ele>1</ele>
        <time>2021-03-24T12:18:44Z</time>
      </trkpt>
      <trkpt lat="47.29851" lon="-1.5301">
        <ele>1</ele>
        <time>2021-03-24T12:18:45Z</time>
      </trkpt>
      <trkpt lat="47.29853" lon="-1.53008">
        <ele>1</ele>
        <time>2021-03-24T12:18:46Z</time>
      </trkpt>
      <trkpt lat="47.29856" lon="-1.53007">
        <ele>1</ele>
        <time>2021-03-24T12:18:47Z</time>
      </trkpt>
      <trkpt lat="47.29858" lon="-1.53005">
        <ele>1</ele>
        <time>2021-03-24T12:18:48Z</time>
      </trkpt>
      <trkpt lat="47.2986" lon="-1.53004">
        <ele>1</ele>
        <time>2021-03-24T12:18:49Z</time>
      </trkpt>
      <trkpt lat="47.29863" lon="-1.53003">
        <ele>1</ele>
        <time>2021-03-24T12:18:50Z</time>
      </trkpt>
      <trkpt lat="47.29865" lon="-1.53002">
        <ele>1</ele>
        <time>2021-03-24T12:18:51Z</time>
      </trkpt>
      <trkpt lat="47.29867" lon="-1.53001">
        <ele>1</ele>
        <time>2021-03-24T12:18:52Z</time>
      </trkpt>
      <trkpt lat="47.2987" lon="-1.52999">
        <ele>1</ele>
        <time>2021-03-24T12:18:53Z</time>
      </trkpt>
      <trkpt lat="47.29872" lon="-1.52997">
        <ele>1</ele>
        <time>2021-03-24T12:18:54Z</time>
      </trkpt>
      <trkpt lat="47.29875" lon="-1.52996">
        <ele>1</ele>
        <time>2021-03-24T12:18:55Z</time>
      </trkpt>
      <trkpt lat="47.29877" lon="-1.52994">
        <ele>1</ele>
        <time>2021-03-24T12:18:56Z</time>
      </trkpt>
      <trkpt lat="47.29879" lon="-1.52993">
        <ele>1</ele>
        <time>2021-03-24T12:18:57Z</time>
      </trkpt>
      <trkpt lat="47.29882" lon="-1.52992">
        <ele>1</ele>
        <time>2021-03-24T12:18:58Z</time>
      </trkpt>
      <trkpt lat="47.29884" lon="-1.52991">
        <ele>1</ele>
        <time>2021-03-24T12:18:59Z</time>
      </trkpt>
      <trkpt lat="47.29886" lon="-1.5299">
        <ele>1</ele>
        <time>2021-03-24T12:19:00Z</time>
      </trkpt>
      <trkpt lat="47.29888" lon="-1.52989">
        <ele>1</ele>
        <time>2021-03-24T12:19:01Z</time>
      </trkpt>
      <trkpt lat="47.29891" lon="-1.52989">
        <ele>1</ele>
        <time>2021-03-24T12:19:02Z</time>
      </trkpt>
      <trkpt lat="47.29893" lon="-1.52988">
        <ele>1</ele>
        <time>2021-03-24T12:19:03Z</time>
      </trkpt>
      <trkpt lat="47.29896" lon="-1.52988">
        <ele>1</ele>
        <time>2021-03-24T12:19:04Z</time>
      </trkpt>
      <trkpt lat="47.29898" lon="-1.52987">
        <ele>1</ele>
        <time>2021-03-24T12:19:05Z</time>
      </trkpt>
      <trkpt lat="47.29901" lon="-1.52986">
        <ele>1</ele>
        <time>2021-03-24T12:19:06Z</time>
      </trkpt>
      <trkpt lat="47.29903" lon="-1.52985">
        <ele>1</ele>
        <time>2021-03-24T12:19:07Z</time>
      </trkpt>
      <trkpt lat="47.29906" lon="-1.52983">
        <ele>1</ele>
        <time>2021-03-24T12:19:08Z</time>
      </trkpt>
      <trkpt lat="47.29908" lon="-1.52981">
        <ele>1</ele>
        <time>2021-03-24T12:19:09Z</time>
      </trkpt>
      <trkpt lat="47.2991" lon="-1.52979">
        <ele>1</ele>
        <time>2021-03-24T12:19:10Z</time>
      </trkpt>
      <trkpt lat="47.29912" lon="-1.52977">
        <ele>1</ele>
        <time>2021-03-24T12:19:11Z</time>
      </trkpt>
      <trkpt lat="47.29914" lon="-1.52974">
        <ele>1</ele>
        <time>2021-03-24T12:19:12Z</time>
      </trkpt>
      <trkpt lat="47.29916" lon="-1.52972">
        <ele>1</ele>
        <time>2021-03-24T12:19:13Z</time>
      </trkpt>
      <trkpt lat="47.29918" lon="-1.5297">
        <ele>1</ele>
        <time>2021-03-24T12:19:14Z</time>
      </trkpt>
      <trkpt lat="47.2992" lon="-1.52968">
        <ele>1</ele>
        <time>2021-03-24T12:19:15Z</time>
      </trkpt>
      <trkpt lat="47.29922" lon="-1.52966">
        <ele>1</ele>
        <time>2021-03-24T12:19:16Z</time>
      </trkpt>
      <trkpt lat="47.29924" lon="-1.52964">
        <ele>1</ele>
        <time>2021-03-24T12:19:17Z</time>
      </trkpt>
      <trkpt lat="47.29927" lon="-1.52962">
        <ele>1</ele>
        <time>2021-03-24T12:19:18Z</time>
      </trkpt>
      <trkpt lat="47.29929" lon="-1.5296">
        <ele>1</ele>
        <time>2021-03-24T12:19:19Z</time>
      </trkpt>
      <trkpt lat="47.29932" lon="-1.52957">
        <ele>1</ele>
        <time>2021-03-24T12:19:20Z</time>
      </trkpt>
      <trkpt lat="47.29934" lon="-1.52954">
        <ele>1</ele>
        <time>2021-03-24T12:19:21Z</time>
      </trkpt>
      <trkpt lat="47.29936" lon="-1.52952">
        <ele>1</ele>
        <time>2021-03-24T12:19:22Z</time>
      </trkpt>
      <trkpt lat="47.29938" lon="-1.52949">
        <ele>1</ele>
        <time>2021-03-24T12:19:23Z</time>
      </trkpt>
      <trkpt lat="47.2994" lon="-1.52946">
        <ele>1</ele>
        <time>2021-03-24T12:19:24Z</time>
      </trkpt>
      <trkpt lat="47.29942" lon="-1.52943">
        <ele>1</ele>
        <time>2021-03-24T12:19:25Z</time>
      </trkpt>
      <trkpt lat="47.29944" lon="-1.52941">
        <ele>1</ele>
        <time>2021-03-24T12:19:26Z</time>
      </trkpt>
      <trkpt lat="47.29945" lon="-1.52939">
        <ele>1</ele>
        <time>2021-03-24T12:19:27Z</time>
      </trkpt>
      <trkpt lat="47.29946" lon="-1.52937">
        <ele>1</ele>
        <time>2021-03-24T12:19:28Z</time>
      </trkpt>
      <trkpt lat="47.29948" lon="-1.52935">
        <ele>1</ele>
        <time>2021-03-24T12:19:29Z</time>
      </trkpt>
      <trkpt lat="47.29949" lon="-1.52933">
        <ele>1</ele>
        <time>2021-03-24T12:19:30Z</time>
      </trkpt>
      <trkpt lat="47.29951" lon="-1.52932">
        <ele>1</ele>
        <time>2021-03-24T12:19:31Z</time>
      </trkpt>
      <trkpt lat="47.29952" lon="-1.52931">
        <ele>1</ele>
        <time>2021-03-24T12:19:32Z</time>
      </trkpt>
      <trkpt lat="47.29954" lon="-1.52929">
        <ele>1</ele>
        <time>2021-03-24T12:19:33Z</time>
      </trkpt>
      <trkpt lat="47.29956" lon="-1.52928">
        <ele>1</ele>
        <time>2021-03-24T12:19:34Z</time>
      </trkpt>
      <trkpt lat="47.29959" lon="-1.52926">
        <ele>1</ele>
        <time>2021-03-24T12:19:35Z</time>
      </trkpt>
      <trkpt lat="47.29962" lon="-1.52924">
        <ele>1</ele>
        <time>2021-03-24T12:19:36Z</time>
      </trkpt>
      <trkpt lat="47.29966" lon="-1.52922">
        <ele>1</ele>
        <time>2021-03-24T12:19:37Z</time>
      </trkpt>
      <trkpt lat="47.29969" lon="-1.52921">
        <ele>1</ele>
        <time>2021-03-24T12:19:38Z</time>
      </trkpt>
      <trkpt lat="47.29973" lon="-1.52919">
        <ele>1</ele>
        <time>2021-03-24T12:19:39Z</time>
      </trkpt>
      <trkpt lat="47.29976" lon="-1.52918">
        <ele>1</ele>
        <time>2021-03-24T12:19:40Z</time>
      </trkpt>
      <trkpt lat="47.29979" lon="-1.52917">
        <ele>1</ele>
        <time>2021-03-24T12:19:41Z</time>
      </trkpt>
      <trkpt lat="47.29982" lon="-1.52915">
        <ele>2</ele>
        <time>2021-03-24T12:19:42Z</time>
      </trkpt>
      <trkpt lat="47.29984" lon="-1.52914">
        <ele>2</ele>
        <time>2021-03-24T12:19:43Z</time>
      </trkpt>
      <trkpt lat="47.29987" lon="-1.52912">
        <ele>2</ele>
        <time>2021-03-24T12:19:44Z</time>
      </trkpt>
      <trkpt lat="47.29989" lon="-1.52911">
        <ele>2</ele>
        <time>2021-03-24T12:19:45Z</time>
      </trkpt>
      <trkpt lat="47.29992" lon="-1.5291">
        <ele>2</ele>
        <time>2021-03-24T12:19:46Z</time>
      </trkpt>
      <trkpt lat="47.29994" lon="-1.52909">
        <ele>2</ele>
        <time>2021-03-24T12:19:47Z</time>
      </trkpt>
      <trkpt lat="47.29996" lon="-1.52908">
        <ele>2</ele>
        <time>2021-03-24T12:19:48Z</time>
      </trkpt>
      <trkpt lat="47.29999" lon="-1.52907">
        <ele>2</ele>
        <time>2021-03-24T12:19:49Z</time>
      </trkpt>
      <trkpt lat="47.30001" lon="-1.52906">
        <ele>2</ele>
        <time>2021-03-24T12:19:50Z</time>
      </trkpt>
      <trkpt lat="47.30004" lon="-1.52906">
        <ele>2</ele>
        <time>2021-03-24T12:19:51Z</time>
      </trkpt>
      <trkpt lat="47.30006" lon="-1.52905">
        <ele>2</ele>
        <time>2021-03-24T12:19:52Z</time>
      </trkpt>
      <trkpt lat="47.30009" lon="-1.52904">
        <ele>2</ele>
        <time>2021-03-24T12:19:53Z</time>
      </trkpt>
      <trkpt lat="47.30011" lon="-1.52903">
        <ele>2</ele>
        <time>2021-03-24T12:19:54Z</time>
      </trkpt>
      <trkpt lat="47.30014" lon="-1.52902">
        <ele>2</ele>
        <time>2021-03-24T12:19:55Z</time>
      </trkpt>
      <trkpt lat="47.30017" lon="-1.52901">
        <ele>2</ele>
        <time>2021-03-24T12:19:56Z</time>
      </trkpt>
      <trkpt lat="47.3002" lon="-1.52898">
        <ele>2</ele>
        <time>2021-03-24T12:19:57Z</time>
      </trkpt>
      <trkpt lat="47.30023" lon="-1.52896">
        <ele>2</ele>
        <time>2021-03-24T12:19:58Z</time>
      </trkpt>
      <trkpt lat="47.30025" lon="-1.52894">
        <ele>2</ele>
        <time>2021-03-24T12:19:59Z</time>
      </trkpt>
      <trkpt lat="47.30028" lon="-1.52891">
        <ele>2</ele>
        <time>2021-03-24T12:20:00Z</time>
      </trkpt>
      <trkpt lat="47.30031" lon="-1.52889">
        <ele>2</ele>
        <time>2021-03-24T12:20:01Z</time>
      </trkpt>
      <trkpt lat="47.30034" lon="-1.52886">
        <ele>3</ele>
        <time>2021-03-24T12:20:02Z</time>
      </trkpt>
      <trkpt lat="47.30037" lon="-1.52883">
        <ele>2</ele>
        <time>2021-03-24T12:20:03Z</time>
      </trkpt>
      <trkpt lat="47.30039" lon="-1.52881">
        <ele>2</ele>
        <time>2021-03-24T12:20:04Z</time>
      </trkpt>
      <trkpt lat="47.30042" lon="-1.52878">
        <ele>2</ele>
        <time>2021-03-24T12:20:05Z</time>
      </trkpt>
      <trkpt lat="47.30045" lon="-1.52875">
        <ele>2</ele>
        <time>2021-03-24T12:20:06Z</time>
      </trkpt>
      <trkpt lat="47.30048" lon="-1.52873">
        <ele>2</ele>
        <time>2021-03-24T12:20:07Z</time>
      </trkpt>
      <trkpt lat="47.3005" lon="-1.5287">
        <ele>2</ele>
        <time>2021-03-24T12:20:08Z</time>
      </trkpt>
      <trkpt lat="47.30053" lon="-1.52867">
        <ele>2</ele>
        <time>2021-03-24T12:20:09Z</time>
      </trkpt>
      <trkpt lat="47.30056" lon="-1.52865">
        <ele>2</ele>
        <time>2021-03-24T12:20:10Z</time>
      </trkpt>
      <trkpt lat="47.30058" lon="-1.52862">
        <ele>2</ele>
        <time>2021-03-24T12:20:11Z</time>
      </trkpt>
      <trkpt lat="47.30061" lon="-1.52859">
        <ele>3</ele>
        <time>2021-03-24T12:20:12Z</time>
      </trkpt>
      <trkpt lat="47.30063" lon="-1.52857">
        <ele>3</ele>
        <time>2021-03-24T12:20:13Z</time>
      </trkpt>
      <trkpt lat="47.30066" lon="-1.52854">
        <ele>3</ele>
        <time>2021-03-24T12:20:14Z</time>
      </trkpt>
      <trkpt lat="47.30069" lon="-1.52852">
        <ele>3</ele>
        <time>2021-03-24T12:20:15Z</time>
      </trkpt>
      <trkpt lat="47.30071" lon="-1.52849">
        <ele>3</ele>
        <time>2021-03-24T12:20:16Z</time>
      </trkpt>
      <trkpt lat="47.30073" lon="-1.52846">
        <ele>3</ele>
        <time>2021-03-24T12:20:17Z</time>
      </trkpt>
      <trkpt lat="47.30076" lon="-1.52844">
        <ele>3</ele>
        <time>2021-03-24T12:20:18Z</time>
      </trkpt>
      <trkpt lat="47.30078" lon="-1.52841">
        <ele>3</ele>
        <time>2021-03-24T12:20:19Z</time>
      </trkpt>
      <trkpt lat="47.3008" lon="-1.52837">
        <ele>3</ele>
        <time>2021-03-24T12:20:20Z</time>
      </trkpt>
      <trkpt lat="47.30082" lon="-1.52834">
        <ele>3</ele>
        <time>2021-03-24T12:20:21Z</time>
      </trkpt>
      <trkpt lat="47.30084" lon="-1.52831">
        <ele>4</ele>
        <time>2021-03-24T12:20:22Z</time>
      </trkpt>
      <trkpt lat="47.30086" lon="-1.52827">
        <ele>4</ele>
        <time>2021-03-24T12:20:23Z</time>
      </trkpt>
      <trkpt lat="47.30088" lon="-1.52824">
        <ele>4</ele>
        <time>2021-03-24T12:20:24Z</time>
      </trkpt>
      <trkpt lat="47.30089" lon="-1.52821">
        <ele>4</ele>
        <time>2021-03-24T12:20:25Z</time>
      </trkpt>
      <trkpt lat="47.30091" lon="-1.52817">
        <ele>4</ele>
        <time>2021-03-24T12:20:26Z</time>
      </trkpt>
      <trkpt lat="47.30092" lon="-1.52814">
        <ele>4</ele>
        <time>2021-03-24T12:20:27Z</time>
      </trkpt>
      <trkpt lat="47.30093" lon="-1.52811">
        <ele>4</ele>
        <time>2021-03-24T12:20:28Z</time>
      </trkpt>
      <trkpt lat="47.30094" lon="-1.52808">
        <ele>4</ele>
        <time>2021-03-24T12:20:29Z</time>
      </trkpt>
      <trkpt lat="47.30096" lon="-1.52805">
        <ele>4</ele>
        <time>2021-03-24T12:20:30Z</time>
      </trkpt>
      <trkpt lat="47.30098" lon="-1.52802">
        <ele>4</ele>
        <time>2021-03-24T12:20:31Z</time>
      </trkpt>
      <trkpt lat="47.301" lon="-1.52798">
        <ele>4</ele>
        <time>2021-03-24T12:20:32Z</time>
      </trkpt>
      <trkpt lat="47.30102" lon="-1.52795">
        <ele>4</ele>
        <time>2021-03-24T12:20:33Z</time>
      </trkpt>
      <trkpt lat="47.30104" lon="-1.52791">
        <ele>4</ele>
        <time>2021-03-24T12:20:34Z</time>
      </trkpt>
      <trkpt lat="47.30107" lon="-1.52788">
        <ele>4</ele>
        <time>2021-03-24T12:20:35Z</time>
      </trkpt>
      <trkpt lat="47.30109" lon="-1.52784">
        <ele>4</ele>
        <time>2021-03-24T12:20:36Z</time>
      </trkpt>
      <trkpt lat="47.30111" lon="-1.52781">
        <ele>4</ele>
        <time>2021-03-24T12:20:37Z</time>
      </trkpt>
      <trkpt lat="47.30113" lon="-1.52777">
        <ele>4</ele>
        <time>2021-03-24T12:20:38Z</time>
      </trkpt>
      <trkpt lat="47.30115" lon="-1.52774">
        <ele>4</ele>
        <time>2021-03-24T12:20:39Z</time>
      </trkpt>
      <trkpt lat="47.30116" lon="-1.5277">
        <ele>4</ele>
        <time>2021-03-24T12:20:40Z</time>
      </trkpt>
      <trkpt lat="47.30117" lon="-1.52767">
        <ele>4</ele>
        <time>2021-03-24T12:20:41Z</time>
      </trkpt>
      <trkpt lat="47.30117" lon="-1.52763">
        <ele>4</ele>
        <time>2021-03-24T12:20:42Z</time>
      </trkpt>
      <trkpt lat="47.30117" lon="-1.5276">
        <ele>4</ele>
        <time>2021-03-24T12:20:43Z</time>
      </trkpt>
      <trkpt lat="47.30116" lon="-1.52757">
        <ele>4</ele>
        <time>2021-03-24T12:20:44Z</time>
      </trkpt>
      <trkpt lat="47.30114" lon="-1.52755">
        <ele>4</ele>
        <time>2021-03-24T12:20:45Z</time>
      </trkpt>
      <trkpt lat="47.30113" lon="-1.52753">
        <ele>4</ele>
        <time>2021-03-24T12:20:46Z</time>
      </trkpt>
      <trkpt lat="47.30111" lon="-1.5275">
        <ele>5</ele>
        <time>2021-03-24T12:20:47Z</time>
      </trkpt>
      <trkpt lat="47.3011" lon="-1.52748">
        <ele>5</ele>
        <time>2021-03-24T12:20:48Z</time>
      </trkpt>
      <trkpt lat="47.30108" lon="-1.52746">
        <ele>5</ele>
        <time>2021-03-24T12:20:49Z</time>
      </trkpt>
      <trkpt lat="47.30106" lon="-1.52745">
        <ele>5</ele>
        <time>2021-03-24T12:20:50Z</time>
      </trkpt>
      <trkpt lat="47.30105" lon="-1.52743">
        <ele>5</ele>
        <time>2021-03-24T12:20:51Z</time>
      </trkpt>
      <trkpt lat="47.30103" lon="-1.52741">
        <ele>6</ele>
        <time>2021-03-24T12:20:52Z</time>
      </trkpt>
      <trkpt lat="47.30102" lon="-1.52739">
        <ele>6</ele>
        <time>2021-03-24T12:20:53Z</time>
      </trkpt>
      <trkpt lat="47.301" lon="-1.52737">
        <ele>6</ele>
        <time>2021-03-24T12:20:54Z</time>
      </trkpt>
      <trkpt lat="47.30099" lon="-1.52735">
        <ele>6</ele>
        <time>2021-03-24T12:20:55Z</time>
      </trkpt>
      <trkpt lat="47.30097" lon="-1.52733">
        <ele>6</ele>
        <time>2021-03-24T12:20:56Z</time>
      </trkpt>
      <trkpt lat="47.30096" lon="-1.52732">
        <ele>7</ele>
        <time>2021-03-24T12:20:57Z</time>
      </trkpt>
      <trkpt lat="47.30094" lon="-1.52731">
        <ele>7</ele>
        <time>2021-03-24T12:20:58Z</time>
      </trkpt>
      <trkpt lat="47.30092" lon="-1.5273">
        <ele>7</ele>
        <time>2021-03-24T12:20:59Z</time>
      </trkpt>
      <trkpt lat="47.30089" lon="-1.52729">
        <ele>7</ele>
        <time>2021-03-24T12:21:00Z</time>
      </trkpt>
      <trkpt lat="47.30087" lon="-1.52727">
        <ele>7</ele>
        <time>2021-03-24T12:21:01Z</time>
      </trkpt>
      <trkpt lat="47.30085" lon="-1.52726">
        <ele>8</ele>
        <time>2021-03-24T12:21:02Z</time>
      </trkpt>
      <trkpt lat="47.30083" lon="-1.52724">
        <ele>8</ele>
        <time>2021-03-24T12:21:03Z</time>
      </trkpt>
      <trkpt lat="47.3008" lon="-1.52723">
        <ele>8</ele>
        <time>2021-03-24T12:21:04Z</time>
      </trkpt>
      <trkpt lat="47.30078" lon="-1.52721">
        <ele>8</ele>
        <time>2021-03-24T12:21:05Z</time>
      </trkpt>
      <trkpt lat="47.30076" lon="-1.52719">
        <ele>8</ele>
        <time>2021-03-24T12:21:06Z</time>
      </trkpt>
      <trkpt lat="47.30074" lon="-1.52716">
        <ele>9</ele>
        <time>2021-03-24T12:21:07Z</time>
      </trkpt>
      <trkpt lat="47.30073" lon="-1.52713">
        <ele>9</ele>
        <time>2021-03-24T12:21:08Z</time>
      </trkpt>
      <trkpt lat="47.30072" lon="-1.5271">
        <ele>9</ele>
        <time>2021-03-24T12:21:09Z</time>
      </trkpt>
      <trkpt lat="47.3007" lon="-1.52707">
        <ele>9</ele>
        <time>2021-03-24T12:21:10Z</time>
      </trkpt>
      <trkpt lat="47.3007" lon="-1.52703">
        <ele>9</ele>
        <time>2021-03-24T12:21:11Z</time>
      </trkpt>
      <trkpt lat="47.30069" lon="-1.52699">
        <ele>9</ele>
        <time>2021-03-24T12:21:12Z</time>
      </trkpt>
      <trkpt lat="47.30069" lon="-1.52695">
        <ele>9</ele>
        <time>2021-03-24T12:21:13Z</time>
      </trkpt>
      <trkpt lat="47.30068" lon="-1.5269">
        <ele>9</ele>
        <time>2021-03-24T12:21:14Z</time>
      </trkpt>
      <trkpt lat="47.30067" lon="-1.52686">
        <ele>9</ele>
        <time>2021-03-24T12:21:15Z</time>
      </trkpt>
      <trkpt lat="47.30066" lon="-1.52683">
        <ele>9</ele>
        <time>2021-03-24T12:21:16Z</time>
      </trkpt>
      <trkpt lat="47.30065" lon="-1.5268">
        <ele>10</ele>
        <time>2021-03-24T12:21:17Z</time>
      </trkpt>
      <trkpt lat="47.30063" lon="-1.52676">
        <ele>10</ele>
        <time>2021-03-24T12:21:18Z</time>
      </trkpt>
      <trkpt lat="47.30062" lon="-1.52674">
        <ele>10</ele>
        <time>2021-03-24T12:21:19Z</time>
      </trkpt>
      <trkpt lat="47.3006" lon="-1.52671">
        <ele>10</ele>
        <time>2021-03-24T12:21:20Z</time>
      </trkpt>
      <trkpt lat="47.30059" lon="-1.52668">
        <ele>10</ele>
        <time>2021-03-24T12:21:21Z</time>
      </trkpt>
      <trkpt lat="47.30057" lon="-1.52666">
        <ele>10</ele>
        <time>2021-03-24T12:21:22Z</time>
      </trkpt>
      <trkpt lat="47.30056" lon="-1.52662">
        <ele>10</ele>
        <time>2021-03-24T12:21:23Z</time>
      </trkpt>
      <trkpt lat="47.30055" lon="-1.52658">
        <ele>10</ele>
        <time>2021-03-24T12:21:24Z</time>
      </trkpt>
      <trkpt lat="47.30055" lon="-1.52653">
        <ele>10</ele>
        <time>2021-03-24T12:21:25Z</time>
      </trkpt>
      <trkpt lat="47.30055" lon="-1.52649">
        <ele>10</ele>
        <time>2021-03-24T12:21:26Z</time>
      </trkpt>
      <trkpt lat="47.30056" lon="-1.52644">
        <ele>11</ele>
        <time>2021-03-24T12:21:27Z</time>
      </trkpt>
      <trkpt lat="47.30057" lon="-1.52639">
        <ele>10</ele>
        <time>2021-03-24T12:21:28Z</time>
      </trkpt>
      <trkpt lat="47.30058" lon="-1.52634">
        <ele>10</ele>
        <time>2021-03-24T12:21:29Z</time>
      </trkpt>
      <trkpt lat="47.30059" lon="-1.5263">
        <ele>10</ele>
        <time>2021-03-24T12:21:30Z</time>
      </trkpt>
      <trkpt lat="47.3006" lon="-1.52625">
        <ele>10</ele>
        <time>2021-03-24T12:21:31Z</time>
      </trkpt>
      <trkpt lat="47.30062" lon="-1.52621">
        <ele>10</ele>
        <time>2021-03-24T12:21:32Z</time>
      </trkpt>
      <trkpt lat="47.30063" lon="-1.52617">
        <ele>10</ele>
        <time>2021-03-24T12:21:33Z</time>
      </trkpt>
      <trkpt lat="47.30064" lon="-1.52613">
        <ele>10</ele>
        <time>2021-03-24T12:21:34Z</time>
      </trkpt>
      <trkpt lat="47.30064" lon="-1.52609">
        <ele>10</ele>
        <time>2021-03-24T12:21:35Z</time>
      </trkpt>
      <trkpt lat="47.30065" lon="-1.52606">
        <ele>10</ele>
        <time>2021-03-24T12:21:36Z</time>
      </trkpt>
      <trkpt lat="47.30066" lon="-1.52602">
        <ele>10</ele>
        <time>2021-03-24T12:21:37Z</time>
      </trkpt>
      <trkpt lat="47.30067" lon="-1.52598">
        <ele>10</ele>
        <time>2021-03-24T12:21:38Z</time>
      </trkpt>
      <trkpt lat="47.30068" lon="-1.52595">
        <ele>10</ele>
        <time>2021-03-24T12:21:39Z</time>
      </trkpt>
      <trkpt lat="47.30069" lon="-1.52591">
        <ele>10</ele>
        <time>2021-03-24T12:21:40Z</time>
      </trkpt>
      <trkpt lat="47.3007" lon="-1.52588">
        <ele>10</ele>
        <time>2021-03-24T12:21:41Z</time>
      </trkpt>
      <trkpt lat="47.30071" lon="-1.52584">
        <ele>10</ele>
        <time>2021-03-24T12:21:42Z</time>
      </trkpt>
      <trkpt lat="47.30073" lon="-1.52581">
        <ele>9</ele>
        <time>2021-03-24T12:21:43Z</time>
      </trkpt>
      <trkpt lat="47.30074" lon="-1.52577">
        <ele>9</ele>
        <time>2021-03-24T12:21:44Z</time>
      </trkpt>
      <trkpt lat="47.30076" lon="-1.52573">
        <ele>9</ele>
        <time>2021-03-24T12:21:45Z</time>
      </trkpt>
      <trkpt lat="47.30077" lon="-1.5257">
        <ele>9</ele>
        <time>2021-03-24T12:21:46Z</time>
      </trkpt>
      <trkpt lat="47.30078" lon="-1.52566">
        <ele>9</ele>
        <time>2021-03-24T12:21:47Z</time>
      </trkpt>
      <trkpt lat="47.3008" lon="-1.52563">
        <ele>9</ele>
        <time>2021-03-24T12:21:48Z</time>
      </trkpt>
      <trkpt lat="47.30081" lon="-1.52559">
        <ele>9</ele>
        <time>2021-03-24T12:21:49Z</time>
      </trkpt>
      <trkpt lat="47.30083" lon="-1.52555">
        <ele>9</ele>
        <time>2021-03-24T12:21:50Z</time>
      </trkpt>
      <trkpt lat="47.30084" lon="-1.52552">
        <ele>9</ele>
        <time>2021-03-24T12:21:51Z</time>
      </trkpt>
      <trkpt lat="47.30086" lon="-1.52549">
        <ele>9</ele>
        <time>2021-03-24T12:21:52Z</time>
      </trkpt>
      <trkpt lat="47.30088" lon="-1.52547">
        <ele>8</ele>
        <time>2021-03-24T12:21:53Z</time>
      </trkpt>
      <trkpt lat="47.3009" lon="-1.52545">
        <ele>8</ele>
        <time>2021-03-24T12:21:54Z</time>
      </trkpt>
      <trkpt lat="47.30093" lon="-1.52544">
        <ele>8</ele>
        <time>2021-03-24T12:21:55Z</time>
      </trkpt>
      <trkpt lat="47.30096" lon="-1.52544">
        <ele>8</ele>
        <time>2021-03-24T12:21:56Z</time>
      </trkpt>
      <trkpt lat="47.30099" lon="-1.52544">
        <ele>8</ele>
        <time>2021-03-24T12:21:57Z</time>
      </trkpt>
      <trkpt lat="47.30102" lon="-1.52545">
        <ele>8</ele>
        <time>2021-03-24T12:21:58Z</time>
      </trkpt>
      <trkpt lat="47.30105" lon="-1.52545">
        <ele>8</ele>
        <time>2021-03-24T12:21:59Z</time>
      </trkpt>
      <trkpt lat="47.30108" lon="-1.52546">
        <ele>8</ele>
        <time>2021-03-24T12:22:00Z</time>
      </trkpt>
      <trkpt lat="47.30111" lon="-1.52547">
        <ele>8</ele>
        <time>2021-03-24T12:22:01Z</time>
      </trkpt>
      <trkpt lat="47.30113" lon="-1.52548">
        <ele>8</ele>
        <time>2021-03-24T12:22:02Z</time>
      </trkpt>
      <trkpt lat="47.30116" lon="-1.52548">
        <ele>7</ele>
        <time>2021-03-24T12:22:03Z</time>
      </trkpt>
      <trkpt lat="47.30119" lon="-1.52549">
        <ele>7</ele>
        <time>2021-03-24T12:22:04Z</time>
      </trkpt>
      <trkpt lat="47.30122" lon="-1.52549">
        <ele>7</ele>
        <time>2021-03-24T12:22:05Z</time>
      </trkpt>
      <trkpt lat="47.30125" lon="-1.52549">
        <ele>7</ele>
        <time>2021-03-24T12:22:06Z</time>
      </trkpt>
      <trkpt lat="47.30128" lon="-1.5255">
        <ele>7</ele>
        <time>2021-03-24T12:22:07Z</time>
      </trkpt>
      <trkpt lat="47.30131" lon="-1.5255">
        <ele>6</ele>
        <time>2021-03-24T12:22:08Z</time>
      </trkpt>
      <trkpt lat="47.30134" lon="-1.5255">
        <ele>6</ele>
        <time>2021-03-24T12:22:09Z</time>
      </trkpt>
      <trkpt lat="47.30137" lon="-1.52551">
        <ele>6</ele>
        <time>2021-03-24T12:22:10Z</time>
      </trkpt>
      <trkpt lat="47.3014" lon="-1.52551">
        <ele>6</ele>
        <time>2021-03-24T12:22:11Z</time>
      </trkpt>
      <trkpt lat="47.30143" lon="-1.52551">
        <ele>6</ele>
        <time>2021-03-24T12:22:12Z</time>
      </trkpt>
      <trkpt lat="47.30146" lon="-1.52551">
        <ele>5</ele>
        <time>2021-03-24T12:22:13Z</time>
      </trkpt>
      <trkpt lat="47.30149" lon="-1.52552">
        <ele>5</ele>
        <time>2021-03-24T12:22:14Z</time>
      </trkpt>
      <trkpt lat="47.30151" lon="-1.52552">
        <ele>5</ele>
        <time>2021-03-24T12:22:15Z</time>
      </trkpt>
      <trkpt lat="47.30154" lon="-1.52552">
        <ele>5</ele>
        <time>2021-03-24T12:22:16Z</time>
      </trkpt>
      <trkpt lat="47.30156" lon="-1.52552">
        <ele>5</ele>
        <time>2021-03-24T12:22:17Z</time>
      </trkpt>
      <trkpt lat="47.30159" lon="-1.52552">
        <ele>4</ele>
        <time>2021-03-24T12:22:18Z</time>
      </trkpt>
      <trkpt lat="47.30161" lon="-1.52553">
        <ele>4</ele>
        <time>2021-03-24T12:22:19Z</time>
      </trkpt>
      <trkpt lat="47.30163" lon="-1.52554">
        <ele>4</ele>
        <time>2021-03-24T12:22:20Z</time>
      </trkpt>
      <trkpt lat="47.30166" lon="-1.52555">
        <ele>4</ele>
        <time>2021-03-24T12:22:21Z</time>
      </trkpt>
      <trkpt lat="47.30168" lon="-1.52557">
        <ele>4</ele>
        <time>2021-03-24T12:22:22Z</time>
      </trkpt>
      <trkpt lat="47.30171" lon="-1.52558">
        <ele>3</ele>
        <time>2021-03-24T12:22:23Z</time>
      </trkpt>
      <trkpt lat="47.30174" lon="-1.5256">
        <ele>3</ele>
        <time>2021-03-24T12:22:24Z</time>
      </trkpt>
      <trkpt lat="47.30176" lon="-1.52561">
        <ele>3</ele>
        <time>2021-03-24T12:22:25Z</time>
      </trkpt>
      <trkpt lat="47.30179" lon="-1.52562">
        <ele>3</ele>
        <time>2021-03-24T12:22:26Z</time>
      </trkpt>
      <trkpt lat="47.30181" lon="-1.52563">
        <ele>3</ele>
        <time>2021-03-24T12:22:27Z</time>
      </trkpt>
      <trkpt lat="47.30184" lon="-1.52563">
        <ele>3</ele>
        <time>2021-03-24T12:22:28Z</time>
      </trkpt>
      <trkpt lat="47.30186" lon="-1.52564">
        <ele>3</ele>
        <time>2021-03-24T12:22:29Z</time>
      </trkpt>
      <trkpt lat="47.30188" lon="-1.52564">
        <ele>3</ele>
        <time>2021-03-24T12:22:30Z</time>
      </trkpt>
      <trkpt lat="47.3019" lon="-1.52564">
        <ele>3</ele>
        <time>2021-03-24T12:22:31Z</time>
      </trkpt>
      <trkpt lat="47.30193" lon="-1.52564">
        <ele>3</ele>
        <time>2021-03-24T12:22:32Z</time>
      </trkpt>
      <trkpt lat="47.30195" lon="-1.52564">
        <ele>2</ele>
        <time>2021-03-24T12:22:33Z</time>
      </trkpt>
      <trkpt lat="47.30198" lon="-1.52563">
        <ele>2</ele>
        <time>2021-03-24T12:22:34Z</time>
      </trkpt>
      <trkpt lat="47.302" lon="-1.52563">
        <ele>2</ele>
        <time>2021-03-24T12:22:35Z</time>
      </trkpt>
      <trkpt lat="47.30203" lon="-1.52562">
        <ele>2</ele>
        <time>2021-03-24T12:22:36Z</time>
      </trkpt>
      <trkpt lat="47.30205" lon="-1.52561">
        <ele>2</ele>
        <time>2021-03-24T12:22:37Z</time>
      </trkpt>
      <trkpt lat="47.30207" lon="-1.52559">
        <ele>2</ele>
        <time>2021-03-24T12:22:38Z</time>
      </trkpt>
      <trkpt lat="47.30209" lon="-1.52557">
        <ele>2</ele>
        <time>2021-03-24T12:22:39Z</time>
      </trkpt>
      <trkpt lat="47.30211" lon="-1.52555">
        <ele>2</ele>
        <time>2021-03-24T12:22:40Z</time>
      </trkpt>
      <trkpt lat="47.30213" lon="-1.52552">
        <ele>2</ele>
        <time>2021-03-24T12:22:41Z</time>
      </trkpt>
      <trkpt lat="47.30214" lon="-1.52549">
        <ele>2</ele>
        <time>2021-03-24T12:22:42Z</time>
      </trkpt>
      <trkpt lat="47.30215" lon="-1.52545">
        <ele>2</ele>
        <time>2021-03-24T12:22:43Z</time>
      </trkpt>
      <trkpt lat="47.30216" lon="-1.52541">
        <ele>2</ele>
        <time>2021-03-24T12:22:44Z</time>
      </trkpt>
      <trkpt lat="47.30217" lon="-1.52537">
        <ele>2</ele>
        <time>2021-03-24T12:22:45Z</time>
      </trkpt>
      <trkpt lat="47.30217" lon="-1.52533">
        <ele>2</ele>
        <time>2021-03-24T12:22:46Z</time>
      </trkpt>
      <trkpt lat="47.30218" lon="-1.52528">
        <ele>3</ele>
        <time>2021-03-24T12:22:47Z</time>
      </trkpt>
      <trkpt lat="47.30219" lon="-1.52524">
        <ele>3</ele>
        <time>2021-03-24T12:22:48Z</time>
      </trkpt>
      <trkpt lat="47.3022" lon="-1.5252">
        <ele>3</ele>
        <time>2021-03-24T12:22:49Z</time>
      </trkpt>
      <trkpt lat="47.3022" lon="-1.52515">
        <ele>3</ele>
        <time>2021-03-24T12:22:50Z</time>
      </trkpt>
      <trkpt lat="47.30221" lon="-1.52511">
        <ele>3</ele>
        <time>2021-03-24T12:22:51Z</time>
      </trkpt>
      <trkpt lat="47.30221" lon="-1.52507">
        <ele>3</ele>
        <time>2021-03-24T12:22:52Z</time>
      </trkpt>
      <trkpt lat="47.30222" lon="-1.52502">
        <ele>3</ele>
        <time>2021-03-24T12:22:53Z</time>
      </trkpt>
      <trkpt lat="47.30223" lon="-1.52498">
        <ele>3</ele>
        <time>2021-03-24T12:22:54Z</time>
      </trkpt>
      <trkpt lat="47.30224" lon="-1.52494">
        <ele>3</ele>
        <time>2021-03-24T12:22:55Z</time>
      </trkpt>
      <trkpt lat="47.30224" lon="-1.5249">
        <ele>3</ele>
        <time>2021-03-24T12:22:56Z</time>
      </trkpt>
      <trkpt lat="47.30224" lon="-1.52487">
        <ele>3</ele>
        <time>2021-03-24T12:22:57Z</time>
      </trkpt>
      <trkpt lat="47.30224" lon="-1.52483">
        <ele>3</ele>
        <time>2021-03-24T12:22:58Z</time>
      </trkpt>
      <trkpt lat="47.30223" lon="-1.52479">
        <ele>3</ele>
        <time>2021-03-24T12:22:59Z</time>
      </trkpt>
      <trkpt lat="47.30223" lon="-1.52475">
        <ele>3</ele>
        <time>2021-03-24T12:23:00Z</time>
      </trkpt>
      <trkpt lat="47.30222" lon="-1.52471">
        <ele>3</ele>
        <time>2021-03-24T12:23:01Z</time>
      </trkpt>
      <trkpt lat="47.30222" lon="-1.52468">
        <ele>3</ele>
        <time>2021-03-24T12:23:02Z</time>
      </trkpt>
      <trkpt lat="47.30221" lon="-1.52464">
        <ele>3</ele>
        <time>2021-03-24T12:23:03Z</time>
      </trkpt>
      <trkpt lat="47.3022" lon="-1.5246">
        <ele>3</ele>
        <time>2021-03-24T12:23:04Z</time>
      </trkpt>
      <trkpt lat="47.30219" lon="-1.52456">
        <ele>3</ele>
        <time>2021-03-24T12:23:05Z</time>
      </trkpt>
      <trkpt lat="47.30218" lon="-1.52452">
        <ele>3</ele>
        <time>2021-03-24T12:23:06Z</time>
      </trkpt>
      <trkpt lat="47.30217" lon="-1.52448">
        <ele>3</ele>
        <time>2021-03-24T12:23:07Z</time>
      </trkpt>
      <trkpt lat="47.30216" lon="-1.52444">
        <ele>3</ele>
        <time>2021-03-24T12:23:08Z</time>
      </trkpt>
      <trkpt lat="47.30215" lon="-1.52441">
        <ele>3</ele>
        <time>2021-03-24T12:23:09Z</time>
      </trkpt>
      <trkpt lat="47.30214" lon="-1.52437">
        <ele>3</ele>
        <time>2021-03-24T12:23:10Z</time>
      </trkpt>
      <trkpt lat="47.30213" lon="-1.52434">
        <ele>3</ele>
        <time>2021-03-24T12:23:11Z</time>
      </trkpt>
      <trkpt lat="47.30212" lon="-1.5243">
        <ele>3</ele>
        <time>2021-03-24T12:23:12Z</time>
      </trkpt>
      <trkpt lat="47.30211" lon="-1.52426">
        <ele>3</ele>
        <time>2021-03-24T12:23:13Z</time>
      </trkpt>
      <trkpt lat="47.3021" lon="-1.52422">
        <ele>3</ele>
        <time>2021-03-24T12:23:14Z</time>
      </trkpt>
      <trkpt lat="47.30209" lon="-1.52418">
        <ele>3</ele>
        <time>2021-03-24T12:23:15Z</time>
      </trkpt>
      <trkpt lat="47.30208" lon="-1.52414">
        <ele>3</ele>
        <time>2021-03-24T12:23:16Z</time>
      </trkpt>
      <trkpt lat="47.30208" lon="-1.5241">
        <ele>3</ele>
        <time>2021-03-24T12:23:17Z</time>
      </trkpt>
      <trkpt lat="47.30207" lon="-1.52406">
        <ele>3</ele>
        <time>2021-03-24T12:23:18Z</time>
      </trkpt>
      <trkpt lat="47.30207" lon="-1.52403">
        <ele>3</ele>
        <time>2021-03-24T12:23:19Z</time>
      </trkpt>
      <trkpt lat="47.30206" lon="-1.52399">
        <ele>3</ele>
        <time>2021-03-24T12:23:20Z</time>
      </trkpt>
      <trkpt lat="47.30207" lon="-1.52395">
        <ele>3</ele>
        <time>2021-03-24T12:23:21Z</time>
      </trkpt>
      <trkpt lat="47.30207" lon="-1.52391">
        <ele>3</ele>
        <time>2021-03-24T12:23:22Z</time>
      </trkpt>
      <trkpt lat="47.30208" lon="-1.52387">
        <ele>3</ele>
        <time>2021-03-24T12:23:23Z</time>
      </trkpt>
      <trkpt lat="47.30209" lon="-1.52384">
        <ele>3</ele>
        <time>2021-03-24T12:23:24Z</time>
      </trkpt>
      <trkpt lat="47.3021" lon="-1.52381">
        <ele>3</ele>
        <time>2021-03-24T12:23:25Z</time>
      </trkpt>
      <trkpt lat="47.30212" lon="-1.52378">
        <ele>3</ele>
        <time>2021-03-24T12:23:26Z</time>
      </trkpt>
      <trkpt lat="47.30214" lon="-1.52375">
        <ele>3</ele>
        <time>2021-03-24T12:23:27Z</time>
      </trkpt>
      <trkpt lat="47.30216" lon="-1.52373">
        <ele>3</ele>
        <time>2021-03-24T12:23:28Z</time>
      </trkpt>
      <trkpt lat="47.30218" lon="-1.5237">
        <ele>3</ele>
        <time>2021-03-24T12:23:29Z</time>
      </trkpt>
      <trkpt lat="47.30221" lon="-1.52368">
        <ele>3</ele>
        <time>2021-03-24T12:23:30Z</time>
      </trkpt>
      <trkpt lat="47.30223" lon="-1.52366">
        <ele>3</ele>
        <time>2021-03-24T12:23:31Z</time>
      </trkpt>
      <trkpt lat="47.30225" lon="-1.52364">
        <ele>3</ele>
        <time>2021-03-24T12:23:32Z</time>
      </trkpt>
      <trkpt lat="47.30228" lon="-1.52363">
        <ele>3</ele>
        <time>2021-03-24T12:23:33Z</time>
      </trkpt>
      <trkpt lat="47.3023" lon="-1.52361">
        <ele>3</ele>
        <time>2021-03-24T12:23:34Z</time>
      </trkpt>
      <trkpt lat="47.30233" lon="-1.52359">
        <ele>3</ele>
        <time>2021-03-24T12:23:35Z</time>
      </trkpt>
      <trkpt lat="47.30235" lon="-1.52358">
        <ele>3</ele>
        <time>2021-03-24T12:23:36Z</time>
      </trkpt>
      <trkpt lat="47.30238" lon="-1.52355">
        <ele>3</ele>
        <time>2021-03-24T12:23:37Z</time>
      </trkpt>
      <trkpt lat="47.3024" lon="-1.52352">
        <ele>3</ele>
        <time>2021-03-24T12:23:38Z</time>
      </trkpt>
      <trkpt lat="47.30241" lon="-1.52349">
        <ele>3</ele>
        <time>2021-03-24T12:23:39Z</time>
      </trkpt>
      <trkpt lat="47.30243" lon="-1.52345">
        <ele>3</ele>
        <time>2021-03-24T12:23:40Z</time>
      </trkpt>
      <trkpt lat="47.30244" lon="-1.52341">
        <ele>3</ele>
        <time>2021-03-24T12:23:41Z</time>
      </trkpt>
      <trkpt lat="47.30244" lon="-1.52338">
        <ele>3</ele>
        <time>2021-03-24T12:23:42Z</time>
      </trkpt>
      <trkpt lat="47.30244" lon="-1.52334">
        <ele>3</ele>
        <time>2021-03-24T12:23:43Z</time>
      </trkpt>
      <trkpt lat="47.30244" lon="-1.5233">
        <ele>3</ele>
        <time>2021-03-24T12:23:44Z</time>
      </trkpt>
      <trkpt lat="47.30243" lon="-1.52327">
        <ele>3</ele>
        <time>2021-03-24T12:23:45Z</time>
      </trkpt>
      <trkpt lat="47.30241" lon="-1.52323">
        <ele>3</ele>
        <time>2021-03-24T12:23:46Z</time>
      </trkpt>
      <trkpt lat="47.30239" lon="-1.5232">
        <ele>3</ele>
        <time>2021-03-24T12:23:47Z</time>
      </trkpt>
      <trkpt lat="47.30236" lon="-1.52317">
        <ele>3</ele>
        <time>2021-03-24T12:23:48Z</time>
      </trkpt>
      <trkpt lat="47.30234" lon="-1.52315">
        <ele>3</ele>
        <time>2021-03-24T12:23:49Z</time>
      </trkpt>
      <trkpt lat="47.30231" lon="-1.52312">
        <ele>3</ele>
        <time>2021-03-24T12:23:50Z</time>
      </trkpt>
      <trkpt lat="47.30228" lon="-1.5231">
        <ele>3</ele>
        <time>2021-03-24T12:23:51Z</time>
      </trkpt>
      <trkpt lat="47.30226" lon="-1.52307">
        <ele>3</ele>
        <time>2021-03-24T12:23:52Z</time>
      </trkpt>
      <trkpt lat="47.30223" lon="-1.52305">
        <ele>3</ele>
        <time>2021-03-24T12:23:53Z</time>
      </trkpt>
      <trkpt lat="47.30221" lon="-1.52303">
        <ele>3</ele>
        <time>2021-03-24T12:23:54Z</time>
      </trkpt>
      <trkpt lat="47.30218" lon="-1.52301">
        <ele>3</ele>
        <time>2021-03-24T12:23:55Z</time>
      </trkpt>
      <trkpt lat="47.30216" lon="-1.52298">
        <ele>3</ele>
        <time>2021-03-24T12:23:56Z</time>
      </trkpt>
      <trkpt lat="47.30214" lon="-1.52296">
        <ele>3</ele>
        <time>2021-03-24T12:23:57Z</time>
      </trkpt>
      <trkpt lat="47.30211" lon="-1.52294">
        <ele>3</ele>
        <time>2021-03-24T12:23:58Z</time>
      </trkpt>
      <trkpt lat="47.30209" lon="-1.52291">
        <ele>3</ele>
        <time>2021-03-24T12:23:59Z</time>
      </trkpt>
      <trkpt lat="47.30207" lon="-1.52289">
        <ele>3</ele>
        <time>2021-03-24T12:24:00Z</time>
      </trkpt>
      <trkpt lat="47.30206" lon="-1.52285">
        <ele>3</ele>
        <time>2021-03-24T12:24:01Z</time>
      </trkpt>
      <trkpt lat="47.30204" lon="-1.52282">
        <ele>3</ele>
        <time>2021-03-24T12:24:02Z</time>
      </trkpt>
      <trkpt lat="47.30203" lon="-1.52278">
        <ele>3</ele>
        <time>2021-03-24T12:24:03Z</time>
      </trkpt>
      <trkpt lat="47.30202" lon="-1.52275">
        <ele>3</ele>
        <time>2021-03-24T12:24:04Z</time>
      </trkpt>
      <trkpt lat="47.30201" lon="-1.52271">
        <ele>3</ele>
        <time>2021-03-24T12:24:05Z</time>
      </trkpt>
      <trkpt lat="47.302" lon="-1.52267">
        <ele>3</ele>
        <time>2021-03-24T12:24:06Z</time>
      </trkpt>
      <trkpt lat="47.30199" lon="-1.52264">
        <ele>4</ele>
        <time>2021-03-24T12:24:07Z</time>
      </trkpt>
      <trkpt lat="47.30198" lon="-1.5226">
        <ele>4</ele>
        <time>2021-03-24T12:24:08Z</time>
      </trkpt>
      <trkpt lat="47.30197" lon="-1.52256">
        <ele>4</ele>
        <time>2021-03-24T12:24:09Z</time>
      </trkpt>
      <trkpt lat="47.30196" lon="-1.52252">
        <ele>4</ele>
        <time>2021-03-24T12:24:10Z</time>
      </trkpt>
      <trkpt lat="47.30194" lon="-1.52248">
        <ele>4</ele>
        <time>2021-03-24T12:24:11Z</time>
      </trkpt>
      <trkpt lat="47.30193" lon="-1.52244">
        <ele>4</ele>
        <time>2021-03-24T12:24:12Z</time>
      </trkpt>
      <trkpt lat="47.30192" lon="-1.52239">
        <ele>4</ele>
        <time>2021-03-24T12:24:13Z</time>
      </trkpt>
      <trkpt lat="47.30191" lon="-1.52235">
        <ele>4</ele>
        <time>2021-03-24T12:24:14Z</time>
      </trkpt>
      <trkpt lat="47.3019" lon="-1.52231">
        <ele>4</ele>
        <time>2021-03-24T12:24:15Z</time>
      </trkpt>
      <trkpt lat="47.30189" lon="-1.52227">
        <ele>4</ele>
        <time>2021-03-24T12:24:16Z</time>
      </trkpt>
      <trkpt lat="47.30188" lon="-1.52223">
        <ele>4</ele>
        <time>2021-03-24T12:24:17Z</time>
      </trkpt>
      <trkpt lat="47.30187" lon="-1.52219">
        <ele>4</ele>
        <time>2021-03-24T12:24:18Z</time>
      </trkpt>
      <trkpt lat="47.30186" lon="-1.52215">
        <ele>4</ele>
        <time>2021-03-24T12:24:19Z</time>
      </trkpt>
      <trkpt lat="47.30185" lon="-1.52211">
        <ele>4</ele>
        <time>2021-03-24T12:24:20Z</time>
      </trkpt>
      <trkpt lat="47.30183" lon="-1.52207">
        <ele>4</ele>
        <time>2021-03-24T12:24:21Z</time>
      </trkpt>
      <trkpt lat="47.30182" lon="-1.52203">
        <ele>5</ele>
        <time>2021-03-24T12:24:22Z</time>
      </trkpt>
      <trkpt lat="47.30181" lon="-1.52198">
        <ele>5</ele>
        <time>2021-03-24T12:24:23Z</time>
      </trkpt>
      <trkpt lat="47.3018" lon="-1.52194">
        <ele>5</ele>
        <time>2021-03-24T12:24:24Z</time>
      </trkpt>
      <trkpt lat="47.30179" lon="-1.5219">
        <ele>5</ele>
        <time>2021-03-24T12:24:25Z</time>
      </trkpt>
      <trkpt lat="47.30178" lon="-1.52186">
        <ele>5</ele>
        <time>2021-03-24T12:24:26Z</time>
      </trkpt>
      <trkpt lat="47.30177" lon="-1.52182">
        <ele>5</ele>
        <time>2021-03-24T12:24:27Z</time>
      </trkpt>
      <trkpt lat="47.30176" lon="-1.52178">
        <ele>5</ele>
        <time>2021-03-24T12:24:28Z</time>
      </trkpt>
      <trkpt lat="47.30175" lon="-1.52174">
        <ele>5</ele>
        <time>2021-03-24T12:24:29Z</time>
      </trkpt>
      <trkpt lat="47.30174" lon="-1.5217">
        <ele>5</ele>
        <time>2021-03-24T12:24:30Z</time>
      </trkpt>
      <trkpt lat="47.30173" lon="-1.52166">
        <ele>5</ele>
        <time>2021-03-24T12:24:31Z</time>
      </trkpt>
      <trkpt lat="47.30172" lon="-1.52162">
        <ele>6</ele>
        <time>2021-03-24T12:24:32Z</time>
      </trkpt>
      <trkpt lat="47.30171" lon="-1.52158">
        <ele>6</ele>
        <time>2021-03-24T12:24:33Z</time>
      </trkpt>
      <trkpt lat="47.3017" lon="-1.52154">
        <ele>6</ele>
        <time>2021-03-24T12:24:34Z</time>
      </trkpt>
      <trkpt lat="47.30169" lon="-1.52151">
        <ele>6</ele>
        <time>2021-03-24T12:24:35Z</time>
      </trkpt>
      <trkpt lat="47.30167" lon="-1.52147">
        <ele>6</ele>
        <time>2021-03-24T12:24:36Z</time>
      </trkpt>
      <trkpt lat="47.30166" lon="-1.52143">
        <ele>6</ele>
        <time>2021-03-24T12:24:37Z</time>
      </trkpt>
      <trkpt lat="47.30165" lon="-1.5214">
        <ele>6</ele>
        <time>2021-03-24T12:24:38Z</time>
      </trkpt>
      <trkpt lat="47.30164" lon="-1.52136">
        <ele>6</ele>
        <time>2021-03-24T12:24:39Z</time>
      </trkpt>
      <trkpt lat="47.30163" lon="-1.52132">
        <ele>6</ele>
        <time>2021-03-24T12:24:40Z</time>
      </trkpt>
      <trkpt lat="47.30162" lon="-1.52128">
        <ele>6</ele>
        <time>2021-03-24T12:24:41Z</time>
      </trkpt>
      <trkpt lat="47.30161" lon="-1.52124">
        <ele>6</ele>
        <time>2021-03-24T12:24:42Z</time>
      </trkpt>
      <trkpt lat="47.30161" lon="-1.5212">
        <ele>6</ele>
        <time>2021-03-24T12:24:43Z</time>
      </trkpt>
      <trkpt lat="47.3016" lon="-1.52116">
        <ele>6</ele>
        <time>2021-03-24T12:24:44Z</time>
      </trkpt>
      <trkpt lat="47.30159" lon="-1.52112">
        <ele>6</ele>
        <time>2021-03-24T12:24:45Z</time>
      </trkpt>
      <trkpt lat="47.30158" lon="-1.52108">
        <ele>6</ele>
        <time>2021-03-24T12:24:46Z</time>
      </trkpt>
      <trkpt lat="47.30157" lon="-1.52104">
        <ele>7</ele>
        <time>2021-03-24T12:24:47Z</time>
      </trkpt>
      <trkpt lat="47.30157" lon="-1.521">
        <ele>7</ele>
        <time>2021-03-24T12:24:48Z</time>
      </trkpt>
      <trkpt lat="47.30156" lon="-1.52096">
        <ele>7</ele>
        <time>2021-03-24T12:24:49Z</time>
      </trkpt>
      <trkpt lat="47.30155" lon="-1.52092">
        <ele>7</ele>
        <time>2021-03-24T12:24:50Z</time>
      </trkpt>
      <trkpt lat="47.30154" lon="-1.52088">
        <ele>7</ele>
        <time>2021-03-24T12:24:51Z</time>
      </trkpt>
      <trkpt lat="47.30153" lon="-1.52084">
        <ele>7</ele>
        <time>2021-03-24T12:24:52Z</time>
      </trkpt>
      <trkpt lat="47.30152" lon="-1.5208">
        <ele>7</ele>
        <time>2021-03-24T12:24:53Z</time>
      </trkpt>
      <trkpt lat="47.30151" lon="-1.52076">
        <ele>7</ele>
        <time>2021-03-24T12:24:54Z</time>
      </trkpt>
      <trkpt lat="47.3015" lon="-1.52072">
        <ele>7</ele>
        <time>2021-03-24T12:24:55Z</time>
      </trkpt>
      <trkpt lat="47.30149" lon="-1.52068">
        <ele>7</ele>
        <time>2021-03-24T12:24:56Z</time>
      </trkpt>
      <trkpt lat="47.30149" lon="-1.52064">
        <ele>8</ele>
        <time>2021-03-24T12:24:57Z</time>
      </trkpt>
      <trkpt lat="47.30148" lon="-1.5206">
        <ele>8</ele>
        <time>2021-03-24T12:24:58Z</time>
      </trkpt>
      <trkpt lat="47.30147" lon="-1.52056">
        <ele>8</ele>
        <time>2021-03-24T12:24:59Z</time>
      </trkpt>
      <trkpt lat="47.30146" lon="-1.52052">
        <ele>8</ele>
        <time>2021-03-24T12:25:00Z</time>
      </trkpt>
      <trkpt lat="47.30145" lon="-1.52048">
        <ele>8</ele>
        <time>2021-03-24T12:25:01Z</time>
      </trkpt>
      <trkpt lat="47.30144" lon="-1.52044">
        <ele>8</ele>
        <time>2021-03-24T12:25:02Z</time>
      </trkpt>
      <trkpt lat="47.30143" lon="-1.5204">
        <ele>8</ele>
        <time>2021-03-24T12:25:03Z</time>
      </trkpt>
      <trkpt lat="47.30143" lon="-1.52036">
        <ele>8</ele>
        <time>2021-03-24T12:25:04Z</time>
      </trkpt>
      <trkpt lat="47.30142" lon="-1.52033">
        <ele>8</ele>
        <time>2021-03-24T12:25:05Z</time>
      </trkpt>
      <trkpt lat="47.30141" lon="-1.52029">
        <ele>8</ele>
        <time>2021-03-24T12:25:06Z</time>
      </trkpt>
      <trkpt lat="47.3014" lon="-1.52025">
        <ele>8</ele>
        <time>2021-03-24T12:25:07Z</time>
      </trkpt>
      <trkpt lat="47.30139" lon="-1.52022">
        <ele>8</ele>
        <time>2021-03-24T12:25:08Z</time>
      </trkpt>
      <trkpt lat="47.30138" lon="-1.52018">
        <ele>8</ele>
        <time>2021-03-24T12:25:09Z</time>
      </trkpt>
      <trkpt lat="47.30137" lon="-1.52014">
        <ele>8</ele>
        <time>2021-03-24T12:25:10Z</time>
      </trkpt>
      <trkpt lat="47.30137" lon="-1.5201">
        <ele>8</ele>
        <time>2021-03-24T12:25:11Z</time>
      </trkpt>
      <trkpt lat="47.30136" lon="-1.52006">
        <ele>8</ele>
        <time>2021-03-24T12:25:12Z</time>
      </trkpt>
      <trkpt lat="47.30136" lon="-1.52002">
        <ele>8</ele>
        <time>2021-03-24T12:25:13Z</time>
      </trkpt>
      <trkpt lat="47.30135" lon="-1.51998">
        <ele>8</ele>
        <time>2021-03-24T12:25:14Z</time>
      </trkpt>
      <trkpt lat="47.30134" lon="-1.51995">
        <ele>8</ele>
        <time>2021-03-24T12:25:15Z</time>
      </trkpt>
      <trkpt lat="47.30133" lon="-1.51991">
        <ele>8</ele>
        <time>2021-03-24T12:25:16Z</time>
      </trkpt>
      <trkpt lat="47.30132" lon="-1.51988">
        <ele>8</ele>
        <time>2021-03-24T12:25:17Z</time>
      </trkpt>
      <trkpt lat="47.30131" lon="-1.51984">
        <ele>8</ele>
        <time>2021-03-24T12:25:18Z</time>
      </trkpt>
      <trkpt lat="47.3013" lon="-1.5198">
        <ele>8</ele>
        <time>2021-03-24T12:25:19Z</time>
      </trkpt>
      <trkpt lat="47.30129" lon="-1.51977">
        <ele>8</ele>
        <time>2021-03-24T12:25:20Z</time>
      </trkpt>
      <trkpt lat="47.30128" lon="-1.51974">
        <ele>8</ele>
        <time>2021-03-24T12:25:21Z</time>
      </trkpt>
      <trkpt lat="47.30127" lon="-1.5197">
        <ele>8</ele>
        <time>2021-03-24T12:25:22Z</time>
      </trkpt>
      <trkpt lat="47.30127" lon="-1.51966">
        <ele>8</ele>
        <time>2021-03-24T12:25:23Z</time>
      </trkpt>
      <trkpt lat="47.30127" lon="-1.51963">
        <ele>8</ele>
        <time>2021-03-24T12:25:24Z</time>
      </trkpt>
      <trkpt lat="47.30128" lon="-1.51959">
        <ele>8</ele>
        <time>2021-03-24T12:25:25Z</time>
      </trkpt>
      <trkpt lat="47.30129" lon="-1.51955">
        <ele>8</ele>
        <time>2021-03-24T12:25:26Z</time>
      </trkpt>
      <trkpt lat="47.3013" lon="-1.51952">
        <ele>9</ele>
        <time>2021-03-24T12:25:27Z</time>
      </trkpt>
      <trkpt lat="47.30132" lon="-1.51948">
        <ele>9</ele>
        <time>2021-03-24T12:25:28Z</time>
      </trkpt>
      <trkpt lat="47.30133" lon="-1.51945">
        <ele>9</ele>
        <time>2021-03-24T12:25:29Z</time>
      </trkpt>
      <trkpt lat="47.30135" lon="-1.51941">
        <ele>9</ele>
        <time>2021-03-24T12:25:30Z</time>
      </trkpt>
      <trkpt lat="47.30135" lon="-1.51937">
        <ele>9</ele>
        <time>2021-03-24T12:25:31Z</time>
      </trkpt>
      <trkpt lat="47.30136" lon="-1.51933">
        <ele>9</ele>
        <time>2021-03-24T12:25:32Z</time>
      </trkpt>
      <trkpt lat="47.30136" lon="-1.5193">
        <ele>9</ele>
        <time>2021-03-24T12:25:33Z</time>
      </trkpt>
      <trkpt lat="47.30136" lon="-1.51926">
        <ele>9</ele>
        <time>2021-03-24T12:25:34Z</time>
      </trkpt>
      <trkpt lat="47.30135" lon="-1.51922">
        <ele>9</ele>
        <time>2021-03-24T12:25:35Z</time>
      </trkpt>
      <trkpt lat="47.30135" lon="-1.51918">
        <ele>9</ele>
        <time>2021-03-24T12:25:36Z</time>
      </trkpt>
      <trkpt lat="47.30134" lon="-1.51914">
        <ele>9</ele>
        <time>2021-03-24T12:25:37Z</time>
      </trkpt>
      <trkpt lat="47.30133" lon="-1.5191">
        <ele>9</ele>
        <time>2021-03-24T12:25:38Z</time>
      </trkpt>
      <trkpt lat="47.30132" lon="-1.51906">
        <ele>9</ele>
        <time>2021-03-24T12:25:39Z</time>
      </trkpt>
      <trkpt lat="47.30132" lon="-1.51902">
        <ele>9</ele>
        <time>2021-03-24T12:25:40Z</time>
      </trkpt>
      <trkpt lat="47.30131" lon="-1.51898">
        <ele>9</ele>
        <time>2021-03-24T12:25:41Z</time>
      </trkpt>
      <trkpt lat="47.30131" lon="-1.51895">
        <ele>9</ele>
        <time>2021-03-24T12:25:42Z</time>
      </trkpt>
      <trkpt lat="47.3013" lon="-1.51891">
        <ele>9</ele>
        <time>2021-03-24T12:25:43Z</time>
      </trkpt>
      <trkpt lat="47.30129" lon="-1.51888">
        <ele>9</ele>
        <time>2021-03-24T12:25:44Z</time>
      </trkpt>
      <trkpt lat="47.30128" lon="-1.51884">
        <ele>9</ele>
        <time>2021-03-24T12:25:45Z</time>
      </trkpt>
      <trkpt lat="47.30127" lon="-1.5188">
        <ele>9</ele>
        <time>2021-03-24T12:25:46Z</time>
      </trkpt>
      <trkpt lat="47.30126" lon="-1.51876">
        <ele>10</ele>
        <time>2021-03-24T12:25:47Z</time>
      </trkpt>
      <trkpt lat="47.30125" lon="-1.51872">
        <ele>10</ele>
        <time>2021-03-24T12:25:48Z</time>
      </trkpt>
      <trkpt lat="47.30125" lon="-1.51868">
        <ele>10</ele>
        <time>2021-03-24T12:25:49Z</time>
      </trkpt>
      <trkpt lat="47.30124" lon="-1.51864">
        <ele>10</ele>
        <time>2021-03-24T12:25:50Z</time>
      </trkpt>
      <trkpt lat="47.30123" lon="-1.5186">
        <ele>10</ele>
        <time>2021-03-24T12:25:51Z</time>
      </trkpt>
      <trkpt lat="47.30123" lon="-1.51857">
        <ele>10</ele>
        <time>2021-03-24T12:25:52Z</time>
      </trkpt>
      <trkpt lat="47.30122" lon="-1.51853">
        <ele>10</ele>
        <time>2021-03-24T12:25:53Z</time>
      </trkpt>
      <trkpt lat="47.30121" lon="-1.51849">
        <ele>10</ele>
        <time>2021-03-24T12:25:54Z</time>
      </trkpt>
      <trkpt lat="47.3012" lon="-1.51845">
        <ele>10</ele>
        <time>2021-03-24T12:25:55Z</time>
      </trkpt>
      <trkpt lat="47.30119" lon="-1.51841">
        <ele>10</ele>
        <time>2021-03-24T12:25:56Z</time>
      </trkpt>
      <trkpt lat="47.30118" lon="-1.51837">
        <ele>11</ele>
        <time>2021-03-24T12:25:57Z</time>
      </trkpt>
      <trkpt lat="47.30117" lon="-1.51833">
        <ele>11</ele>
        <time>2021-03-24T12:25:58Z</time>
      </trkpt>
      <trkpt lat="47.30116" lon="-1.51829">
        <ele>11</ele>
        <time>2021-03-24T12:25:59Z</time>
      </trkpt>
      <trkpt lat="47.30115" lon="-1.51826">
        <ele>11</ele>
        <time>2021-03-24T12:26:00Z</time>
      </trkpt>
      <trkpt lat="47.30114" lon="-1.51822">
        <ele>11</ele>
        <time>2021-03-24T12:26:01Z</time>
      </trkpt>
      <trkpt lat="47.30113" lon="-1.51818">
        <ele>11</ele>
        <time>2021-03-24T12:26:02Z</time>
      </trkpt>
      <trkpt lat="47.30112" lon="-1.51815">
        <ele>11</ele>
        <time>2021-03-24T12:26:03Z</time>
      </trkpt>
      <trkpt lat="47.30111" lon="-1.51811">
        <ele>11</ele>
        <time>2021-03-24T12:26:04Z</time>
      </trkpt>
      <trkpt lat="47.3011" lon="-1.51807">
        <ele>11</ele>
        <time>2021-03-24T12:26:05Z</time>
      </trkpt>
      <trkpt lat="47.30109" lon="-1.51803">
        <ele>11</ele>
        <time>2021-03-24T12:26:06Z</time>
      </trkpt>
      <trkpt lat="47.30108" lon="-1.51799">
        <ele>12</ele>
        <time>2021-03-24T12:26:07Z</time>
      </trkpt>
      <trkpt lat="47.30107" lon="-1.51795">
        <ele>12</ele>
        <time>2021-03-24T12:26:08Z</time>
      </trkpt>
      <trkpt lat="47.30106" lon="-1.51791">
        <ele>12</ele>
        <time>2021-03-24T12:26:09Z</time>
      </trkpt>
      <trkpt lat="47.30105" lon="-1.51787">
        <ele>12</ele>
        <time>2021-03-24T12:26:10Z</time>
      </trkpt>
      <trkpt lat="47.30104" lon="-1.51784">
        <ele>12</ele>
        <time>2021-03-24T12:26:11Z</time>
      </trkpt>
      <trkpt lat="47.30103" lon="-1.5178">
        <ele>13</ele>
        <time>2021-03-24T12:26:12Z</time>
      </trkpt>
      <trkpt lat="47.30102" lon="-1.51776">
        <ele>13</ele>
        <time>2021-03-24T12:26:13Z</time>
      </trkpt>
      <trkpt lat="47.30101" lon="-1.51773">
        <ele>13</ele>
        <time>2021-03-24T12:26:14Z</time>
      </trkpt>
      <trkpt lat="47.30099" lon="-1.51769">
        <ele>13</ele>
        <time>2021-03-24T12:26:15Z</time>
      </trkpt>
      <trkpt lat="47.30098" lon="-1.51765">
        <ele>13</ele>
        <time>2021-03-24T12:26:16Z</time>
      </trkpt>
      <trkpt lat="47.30097" lon="-1.51761">
        <ele>14</ele>
        <time>2021-03-24T12:26:17Z</time>
      </trkpt>
      <trkpt lat="47.30096" lon="-1.51757">
        <ele>14</ele>
        <time>2021-03-24T12:26:18Z</time>
      </trkpt>
      <trkpt lat="47.30094" lon="-1.51754">
        <ele>14</ele>
        <time>2021-03-24T12:26:19Z</time>
      </trkpt>
      <trkpt lat="47.30093" lon="-1.5175">
        <ele>14</ele>
        <time>2021-03-24T12:26:20Z</time>
      </trkpt>
      <trkpt lat="47.30092" lon="-1.51747">
        <ele>14</ele>
        <time>2021-03-24T12:26:21Z</time>
      </trkpt>
      <trkpt lat="47.3009" lon="-1.51744">
        <ele>14</ele>
        <time>2021-03-24T12:26:22Z</time>
      </trkpt>
      <trkpt lat="47.30088" lon="-1.51742">
        <ele>14</ele>
        <time>2021-03-24T12:26:23Z</time>
      </trkpt>
      <trkpt lat="47.30086" lon="-1.5174">
        <ele>14</ele>
        <time>2021-03-24T12:26:24Z</time>
      </trkpt>
      <trkpt lat="47.30084" lon="-1.51739">
        <ele>14</ele>
        <time>2021-03-24T12:26:25Z</time>
      </trkpt>
      <trkpt lat="47.30081" lon="-1.51738">
        <ele>14</ele>
        <time>2021-03-24T12:26:26Z</time>
      </trkpt>
      <trkpt lat="47.30079" lon="-1.51737">
        <ele>14</ele>
        <time>2021-03-24T12:26:27Z</time>
      </trkpt>
      <trkpt lat="47.30076" lon="-1.51736">
        <ele>14</ele>
        <time>2021-03-24T12:26:28Z</time>
      </trkpt>
      <trkpt lat="47.30073" lon="-1.51736">
        <ele>14</ele>
        <time>2021-03-24T12:26:29Z</time>
      </trkpt>
      <trkpt lat="47.30071" lon="-1.51735">
        <ele>14</ele>
        <time>2021-03-24T12:26:30Z</time>
      </trkpt>
      <trkpt lat="47.30069" lon="-1.51733">
        <ele>14</ele>
        <time>2021-03-24T12:26:31Z</time>
      </trkpt>
      <trkpt lat="47.30067" lon="-1.5173">
        <ele>15</ele>
        <time>2021-03-24T12:26:32Z</time>
      </trkpt>
      <trkpt lat="47.30066" lon="-1.51727">
        <ele>15</ele>
        <time>2021-03-24T12:26:33Z</time>
      </trkpt>
      <trkpt lat="47.30065" lon="-1.51724">
        <ele>15</ele>
        <time>2021-03-24T12:26:34Z</time>
      </trkpt>
      <trkpt lat="47.30064" lon="-1.51721">
        <ele>15</ele>
        <time>2021-03-24T12:26:35Z</time>
      </trkpt>
      <trkpt lat="47.30062" lon="-1.51717">
        <ele>15</ele>
        <time>2021-03-24T12:26:36Z</time>
      </trkpt>
      <trkpt lat="47.30061" lon="-1.51713">
        <ele>16</ele>
        <time>2021-03-24T12:26:37Z</time>
      </trkpt>
      <trkpt lat="47.3006" lon="-1.5171">
        <ele>16</ele>
        <time>2021-03-24T12:26:38Z</time>
      </trkpt>
      <trkpt lat="47.3006" lon="-1.51706">
        <ele>16</ele>
        <time>2021-03-24T12:26:39Z</time>
      </trkpt>
      <trkpt lat="47.30059" lon="-1.51702">
        <ele>16</ele>
        <time>2021-03-24T12:26:40Z</time>
      </trkpt>
      <trkpt lat="47.30059" lon="-1.51698">
        <ele>16</ele>
        <time>2021-03-24T12:26:41Z</time>
      </trkpt>
      <trkpt lat="47.30058" lon="-1.51695">
        <ele>16</ele>
        <time>2021-03-24T12:26:42Z</time>
      </trkpt>
      <trkpt lat="47.30058" lon="-1.51691">
        <ele>16</ele>
        <time>2021-03-24T12:26:43Z</time>
      </trkpt>
      <trkpt lat="47.30057" lon="-1.51688">
        <ele>16</ele>
        <time>2021-03-24T12:26:44Z</time>
      </trkpt>
      <trkpt lat="47.30056" lon="-1.51685">
        <ele>16</ele>
        <time>2021-03-24T12:26:45Z</time>
      </trkpt>
      <trkpt lat="47.30055" lon="-1.51682">
        <ele>16</ele>
        <time>2021-03-24T12:26:46Z</time>
      </trkpt>
      <trkpt lat="47.30055" lon="-1.51679">
        <ele>17</ele>
        <time>2021-03-24T12:26:47Z</time>
      </trkpt>
      <trkpt lat="47.30054" lon="-1.51676">
        <ele>17</ele>
        <time>2021-03-24T12:26:48Z</time>
      </trkpt>
      <trkpt lat="47.30054" lon="-1.51672">
        <ele>17</ele>
        <time>2021-03-24T12:26:49Z</time>
      </trkpt>
      <trkpt lat="47.30054" lon="-1.51669">
        <ele>17</ele>
        <time>2021-03-24T12:26:50Z</time>
      </trkpt>
      <trkpt lat="47.30054" lon="-1.51665">
        <ele>17</ele>
        <time>2021-03-24T12:26:51Z</time>
      </trkpt>
      <trkpt lat="47.30054" lon="-1.51661">
        <ele>17</ele>
        <time>2021-03-24T12:26:52Z</time>
      </trkpt>
      <trkpt lat="47.30055" lon="-1.51656">
        <ele>17</ele>
        <time>2021-03-24T12:26:53Z</time>
      </trkpt>
      <trkpt lat="47.30055" lon="-1.51651">
        <ele>17</ele>
        <time>2021-03-24T12:26:54Z</time>
      </trkpt>
      <trkpt lat="47.30055" lon="-1.51646">
        <ele>17</ele>
        <time>2021-03-24T12:26:55Z</time>
      </trkpt>
      <trkpt lat="47.30056" lon="-1.51641">
        <ele>17</ele>
        <time>2021-03-24T12:26:56Z</time>
      </trkpt>
      <trkpt lat="47.30055" lon="-1.51637">
        <ele>18</ele>
        <time>2021-03-24T12:26:57Z</time>
      </trkpt>
      <trkpt lat="47.30055" lon="-1.51632">
        <ele>18</ele>
        <time>2021-03-24T12:26:58Z</time>
      </trkpt>
      <trkpt lat="47.30054" lon="-1.51627">
        <ele>18</ele>
        <time>2021-03-24T12:26:59Z</time>
      </trkpt>
      <trkpt lat="47.30052" lon="-1.51623">
        <ele>18</ele>
        <time>2021-03-24T12:27:00Z</time>
      </trkpt>
      <trkpt lat="47.30051" lon="-1.51618">
        <ele>18</ele>
        <time>2021-03-24T12:27:01Z</time>
      </trkpt>
      <trkpt lat="47.3005" lon="-1.51614">
        <ele>18</ele>
        <time>2021-03-24T12:27:02Z</time>
      </trkpt>
      <trkpt lat="47.30048" lon="-1.51609">
        <ele>18</ele>
        <time>2021-03-24T12:27:03Z</time>
      </trkpt>
      <trkpt lat="47.30047" lon="-1.51605">
        <ele>18</ele>
        <time>2021-03-24T12:27:04Z</time>
      </trkpt>
      <trkpt lat="47.30046" lon="-1.51601">
        <ele>18</ele>
        <time>2021-03-24T12:27:05Z</time>
      </trkpt>
      <trkpt lat="47.30045" lon="-1.51597">
        <ele>18</ele>
        <time>2021-03-24T12:27:06Z</time>
      </trkpt>
      <trkpt lat="47.30044" lon="-1.51593">
        <ele>18</ele>
        <time>2021-03-24T12:27:07Z</time>
      </trkpt>
      <trkpt lat="47.30043" lon="-1.51588">
        <ele>18</ele>
        <time>2021-03-24T12:27:08Z</time>
      </trkpt>
      <trkpt lat="47.30042" lon="-1.51584">
        <ele>18</ele>
        <time>2021-03-24T12:27:09Z</time>
      </trkpt>
      <trkpt lat="47.30041" lon="-1.5158">
        <ele>18</ele>
        <time>2021-03-24T12:27:10Z</time>
      </trkpt>
      <trkpt lat="47.3004" lon="-1.51577">
        <ele>18</ele>
        <time>2021-03-24T12:27:11Z</time>
      </trkpt>
      <trkpt lat="47.30039" lon="-1.51573">
        <ele>18</ele>
        <time>2021-03-24T12:27:12Z</time>
      </trkpt>
      <trkpt lat="47.30038" lon="-1.51569">
        <ele>18</ele>
        <time>2021-03-24T12:27:13Z</time>
      </trkpt>
      <trkpt lat="47.30037" lon="-1.51565">
        <ele>18</ele>
        <time>2021-03-24T12:27:14Z</time>
      </trkpt>
      <trkpt lat="47.30036" lon="-1.51562">
        <ele>18</ele>
        <time>2021-03-24T12:27:15Z</time>
      </trkpt>
      <trkpt lat="47.30035" lon="-1.51558">
        <ele>18</ele>
        <time>2021-03-24T12:27:16Z</time>
      </trkpt>
      <trkpt lat="47.30035" lon="-1.51555">
        <ele>19</ele>
        <time>2021-03-24T12:27:17Z</time>
      </trkpt>
      <trkpt lat="47.30034" lon="-1.51552">
        <ele>19</ele>
        <time>2021-03-24T12:27:18Z</time>
      </trkpt>
      <trkpt lat="47.30033" lon="-1.51548">
        <ele>19</ele>
        <time>2021-03-24T12:27:19Z</time>
      </trkpt>
      <trkpt lat="47.30032" lon="-1.51545">
        <ele>19</ele>
        <time>2021-03-24T12:27:20Z</time>
      </trkpt>
      <trkpt lat="47.30032" lon="-1.51541">
        <ele>19</ele>
        <time>2021-03-24T12:27:21Z</time>
      </trkpt>
      <trkpt lat="47.30031" lon="-1.51538">
        <ele>19</ele>
        <time>2021-03-24T12:27:22Z</time>
      </trkpt>
      <trkpt lat="47.3003" lon="-1.51535">
        <ele>19</ele>
        <time>2021-03-24T12:27:23Z</time>
      </trkpt>
      <trkpt lat="47.3003" lon="-1.51531">
        <ele>19</ele>
        <time>2021-03-24T12:27:24Z</time>
      </trkpt>
      <trkpt lat="47.30029" lon="-1.51527">
        <ele>19</ele>
        <time>2021-03-24T12:27:25Z</time>
      </trkpt>
      <trkpt lat="47.30028" lon="-1.51523">
        <ele>19</ele>
        <time>2021-03-24T12:27:26Z</time>
      </trkpt>
      <trkpt lat="47.30027" lon="-1.51519">
        <ele>19</ele>
        <time>2021-03-24T12:27:27Z</time>
      </trkpt>
      <trkpt lat="47.30026" lon="-1.51515">
        <ele>19</ele>
        <time>2021-03-24T12:27:28Z</time>
      </trkpt>
      <trkpt lat="47.30026" lon="-1.51511">
        <ele>19</ele>
        <time>2021-03-24T12:27:29Z</time>
      </trkpt>
      <trkpt lat="47.30025" lon="-1.51507">
        <ele>19</ele>
        <time>2021-03-24T12:27:30Z</time>
      </trkpt>
      <trkpt lat="47.30024" lon="-1.51503">
        <ele>19</ele>
        <time>2021-03-24T12:27:31Z</time>
      </trkpt>
      <trkpt lat="47.30024" lon="-1.51498">
        <ele>19</ele>
        <time>2021-03-24T12:27:32Z</time>
      </trkpt>
      <trkpt lat="47.30023" lon="-1.51494">
        <ele>19</ele>
        <time>2021-03-24T12:27:33Z</time>
      </trkpt>
      <trkpt lat="47.30022" lon="-1.5149">
        <ele>19</ele>
        <time>2021-03-24T12:27:34Z</time>
      </trkpt>
      <trkpt lat="47.30022" lon="-1.51485">
        <ele>19</ele>
        <time>2021-03-24T12:27:35Z</time>
      </trkpt>
      <trkpt lat="47.30021" lon="-1.51481">
        <ele>19</ele>
        <time>2021-03-24T12:27:36Z</time>
      </trkpt>
      <trkpt lat="47.3002" lon="-1.51477">
        <ele>20</ele>
        <time>2021-03-24T12:27:37Z</time>
      </trkpt>
      <trkpt lat="47.3002" lon="-1.51472">
        <ele>20</ele>
        <time>2021-03-24T12:27:38Z</time>
      </trkpt>
      <trkpt lat="47.30019" lon="-1.51468">
        <ele>20</ele>
        <time>2021-03-24T12:27:39Z</time>
      </trkpt>
      <trkpt lat="47.30018" lon="-1.51464">
        <ele>20</ele>
        <time>2021-03-24T12:27:40Z</time>
      </trkpt>
      <trkpt lat="47.30017" lon="-1.5146">
        <ele>20</ele>
        <time>2021-03-24T12:27:41Z</time>
      </trkpt>
      <trkpt lat="47.30016" lon="-1.51456">
        <ele>20</ele>
        <time>2021-03-24T12:27:42Z</time>
      </trkpt>
      <trkpt lat="47.30015" lon="-1.51452">
        <ele>20</ele>
        <time>2021-03-24T12:27:43Z</time>
      </trkpt>
      <trkpt lat="47.30015" lon="-1.51448">
        <ele>20</ele>
        <time>2021-03-24T12:27:44Z</time>
      </trkpt>
      <trkpt lat="47.30014" lon="-1.51444">
        <ele>20</ele>
        <time>2021-03-24T12:27:45Z</time>
      </trkpt>
      <trkpt lat="47.30013" lon="-1.5144">
        <ele>20</ele>
        <time>2021-03-24T12:27:46Z</time>
      </trkpt>
      <trkpt lat="47.30013" lon="-1.51436">
        <ele>20</ele>
        <time>2021-03-24T12:27:47Z</time>
      </trkpt>
      <trkpt lat="47.30012" lon="-1.51432">
        <ele>20</ele>
        <time>2021-03-24T12:27:48Z</time>
      </trkpt>
      <trkpt lat="47.30012" lon="-1.51428">
        <ele>20</ele>
        <time>2021-03-24T12:27:49Z</time>
      </trkpt>
      <trkpt lat="47.30011" lon="-1.51424">
        <ele>20</ele>
        <time>2021-03-24T12:27:50Z</time>
      </trkpt>
      <trkpt lat="47.30011" lon="-1.5142">
        <ele>20</ele>
        <time>2021-03-24T12:27:51Z</time>
      </trkpt>
      <trkpt lat="47.3001" lon="-1.51416">
        <ele>21</ele>
        <time>2021-03-24T12:27:52Z</time>
      </trkpt>
      <trkpt lat="47.30009" lon="-1.51412">
        <ele>21</ele>
        <time>2021-03-24T12:27:53Z</time>
      </trkpt>
      <trkpt lat="47.30009" lon="-1.51408">
        <ele>21</ele>
        <time>2021-03-24T12:27:54Z</time>
      </trkpt>
      <trkpt lat="47.30008" lon="-1.51404">
        <ele>21</ele>
        <time>2021-03-24T12:27:55Z</time>
      </trkpt>
      <trkpt lat="47.30007" lon="-1.514">
        <ele>21</ele>
        <time>2021-03-24T12:27:56Z</time>
      </trkpt>
      <trkpt lat="47.30007" lon="-1.51396">
        <ele>21</ele>
        <time>2021-03-24T12:27:57Z</time>
      </trkpt>
      <trkpt lat="47.30007" lon="-1.51392">
        <ele>21</ele>
        <time>2021-03-24T12:27:58Z</time>
      </trkpt>
      <trkpt lat="47.30007" lon="-1.51388">
        <ele>21</ele>
        <time>2021-03-24T12:27:59Z</time>
      </trkpt>
      <trkpt lat="47.30007" lon="-1.51384">
        <ele>21</ele>
        <time>2021-03-24T12:28:00Z</time>
      </trkpt>
      <trkpt lat="47.30008" lon="-1.5138">
        <ele>21</ele>
        <time>2021-03-24T12:28:01Z</time>
      </trkpt>
      <trkpt lat="47.30008" lon="-1.51376">
        <ele>21</ele>
        <time>2021-03-24T12:28:02Z</time>
      </trkpt>
      <trkpt lat="47.30009" lon="-1.51372">
        <ele>21</ele>
        <time>2021-03-24T12:28:03Z</time>
      </trkpt>
      <trkpt lat="47.30009" lon="-1.51368">
        <ele>21</ele>
        <time>2021-03-24T12:28:04Z</time>
      </trkpt>
      <trkpt lat="47.30009" lon="-1.51364">
        <ele>21</ele>
        <time>2021-03-24T12:28:05Z</time>
      </trkpt>
      <trkpt lat="47.30009" lon="-1.51361">
        <ele>21</ele>
        <time>2021-03-24T12:28:06Z</time>
      </trkpt>
      <trkpt lat="47.30009" lon="-1.51357">
        <ele>21</ele>
        <time>2021-03-24T12:28:07Z</time>
      </trkpt>
      <trkpt lat="47.30009" lon="-1.51353">
        <ele>21</ele>
        <time>2021-03-24T12:28:08Z</time>
      </trkpt>
      <trkpt lat="47.30009" lon="-1.51349">
        <ele>21</ele>
        <time>2021-03-24T12:28:09Z</time>
      </trkpt>
      <trkpt lat="47.30008" lon="-1.51346">
        <ele>21</ele>
        <time>2021-03-24T12:28:10Z</time>
      </trkpt>
      <trkpt lat="47.30008" lon="-1.51342">
        <ele>21</ele>
        <time>2021-03-24T12:28:11Z</time>
      </trkpt>
      <trkpt lat="47.30008" lon="-1.51338">
        <ele>21</ele>
        <time>2021-03-24T12:28:12Z</time>
      </trkpt>
      <trkpt lat="47.30007" lon="-1.51335">
        <ele>21</ele>
        <time>2021-03-24T12:28:13Z</time>
      </trkpt>
      <trkpt lat="47.30007" lon="-1.51331">
        <ele>21</ele>
        <time>2021-03-24T12:28:14Z</time>
      </trkpt>
      <trkpt lat="47.30007" lon="-1.51328">
        <ele>21</ele>
        <time>2021-03-24T12:28:15Z</time>
      </trkpt>
      <trkpt lat="47.30007" lon="-1.51324">
        <ele>21</ele>
        <time>2021-03-24T12:28:16Z</time>
      </trkpt>
      <trkpt lat="47.30007" lon="-1.5132">
        <ele>21</ele>
        <time>2021-03-24T12:28:17Z</time>
      </trkpt>
      <trkpt lat="47.30008" lon="-1.51317">
        <ele>21</ele>
        <time>2021-03-24T12:28:18Z</time>
      </trkpt>
      <trkpt lat="47.30008" lon="-1.51313">
        <ele>21</ele>
        <time>2021-03-24T12:28:19Z</time>
      </trkpt>
      <trkpt lat="47.30009" lon="-1.51309">
        <ele>21</ele>
        <time>2021-03-24T12:28:20Z</time>
      </trkpt>
      <trkpt lat="47.3001" lon="-1.51307">
        <ele>21</ele>
        <time>2021-03-24T12:28:21Z</time>
      </trkpt>
      <trkpt lat="47.30011" lon="-1.51304">
        <ele>21</ele>
        <time>2021-03-24T12:28:22Z</time>
      </trkpt>
      <trkpt lat="47.30013" lon="-1.51302">
        <ele>21</ele>
        <time>2021-03-24T12:28:23Z</time>
      </trkpt>
      <trkpt lat="47.30015" lon="-1.51301">
        <ele>21</ele>
        <time>2021-03-24T12:28:24Z</time>
      </trkpt>
      <trkpt lat="47.30017" lon="-1.513">
        <ele>21</ele>
        <time>2021-03-24T12:28:25Z</time>
      </trkpt>
      <trkpt lat="47.30019" lon="-1.513">
        <ele>21</ele>
        <time>2021-03-24T12:28:26Z</time>
      </trkpt>
      <trkpt lat="47.30021" lon="-1.51299">
        <ele>21</ele>
        <time>2021-03-24T12:28:27Z</time>
      </trkpt>
      <trkpt lat="47.30023" lon="-1.51299">
        <ele>21</ele>
        <time>2021-03-24T12:28:28Z</time>
      </trkpt>
      <trkpt lat="47.30025" lon="-1.51298">
        <ele>21</ele>
        <time>2021-03-24T12:28:29Z</time>
      </trkpt>
      <trkpt lat="47.30027" lon="-1.51297">
        <ele>21</ele>
        <time>2021-03-24T12:28:30Z</time>
      </trkpt>
      <trkpt lat="47.30029" lon="-1.51297">
        <ele>21</ele>
        <time>2021-03-24T12:28:31Z</time>
      </trkpt>
      <trkpt lat="47.30031" lon="-1.51296">
        <ele>21</ele>
        <time>2021-03-24T12:28:32Z</time>
      </trkpt>
      <trkpt lat="47.30033" lon="-1.51296">
        <ele>21</ele>
        <time>2021-03-24T12:28:33Z</time>
      </trkpt>
      <trkpt lat="47.30036" lon="-1.51295">
        <ele>21</ele>
        <time>2021-03-24T12:28:34Z</time>
      </trkpt>
      <trkpt lat="47.30038" lon="-1.51294">
        <ele>21</ele>
        <time>2021-03-24T12:28:35Z</time>
      </trkpt>
      <trkpt lat="47.3004" lon="-1.51294">
        <ele>21</ele>
        <time>2021-03-24T12:28:36Z</time>
      </trkpt>
      <trkpt lat="47.30043" lon="-1.51293">
        <ele>21</ele>
        <time>2021-03-24T12:28:37Z</time>
      </trkpt>
      <trkpt lat="47.30046" lon="-1.51292">
        <ele>20</ele>
        <time>2021-03-24T12:28:38Z</time>
      </trkpt>
      <trkpt lat="47.30049" lon="-1.51291">
        <ele>20</ele>
        <time>2021-03-24T12:28:39Z</time>
      </trkpt>
      <trkpt lat="47.30052" lon="-1.5129">
        <ele>20</ele>
        <time>2021-03-24T12:28:40Z</time>
      </trkpt>
      <trkpt lat="47.30054" lon="-1.5129">
        <ele>20</ele>
        <time>2021-03-24T12:28:41Z</time>
      </trkpt>
      <trkpt lat="47.30057" lon="-1.51289">
        <ele>20</ele>
        <time>2021-03-24T12:28:42Z</time>
      </trkpt>
      <trkpt lat="47.3006" lon="-1.51289">
        <ele>20</ele>
        <time>2021-03-24T12:28:43Z</time>
      </trkpt>
      <trkpt lat="47.30063" lon="-1.51288">
        <ele>20</ele>
        <time>2021-03-24T12:28:44Z</time>
      </trkpt>
      <trkpt lat="47.30066" lon="-1.51288">
        <ele>20</ele>
        <time>2021-03-24T12:28:45Z</time>
      </trkpt>
      <trkpt lat="47.30069" lon="-1.51287">
        <ele>20</ele>
        <time>2021-03-24T12:28:46Z</time>
      </trkpt>
      <trkpt lat="47.30071" lon="-1.51285">
        <ele>20</ele>
        <time>2021-03-24T12:28:47Z</time>
      </trkpt>
      <trkpt lat="47.30073" lon="-1.51283">
        <ele>20</ele>
        <time>2021-03-24T12:28:48Z</time>
      </trkpt>
      <trkpt lat="47.30074" lon="-1.51281">
        <ele>20</ele>
        <time>2021-03-24T12:28:49Z</time>
      </trkpt>
      <trkpt lat="47.30075" lon="-1.51278">
        <ele>20</ele>
        <time>2021-03-24T12:28:50Z</time>
      </trkpt>
      <trkpt lat="47.30075" lon="-1.51274">
        <ele>20</ele>
        <time>2021-03-24T12:28:51Z</time>
      </trkpt>
      <trkpt lat="47.30075" lon="-1.51271">
        <ele>20</ele>
        <time>2021-03-24T12:28:52Z</time>
      </trkpt>
      <trkpt lat="47.30075" lon="-1.51267">
        <ele>20</ele>
        <time>2021-03-24T12:28:53Z</time>
      </trkpt>
      <trkpt lat="47.30074" lon="-1.51263">
        <ele>20</ele>
        <time>2021-03-24T12:28:54Z</time>
      </trkpt>
      <trkpt lat="47.30074" lon="-1.51259">
        <ele>20</ele>
        <time>2021-03-24T12:28:55Z</time>
      </trkpt>
      <trkpt lat="47.30073" lon="-1.51255">
        <ele>20</ele>
        <time>2021-03-24T12:28:56Z</time>
      </trkpt>
      <trkpt lat="47.30073" lon="-1.51251">
        <ele>20</ele>
        <time>2021-03-24T12:28:57Z</time>
      </trkpt>
      <trkpt lat="47.30072" lon="-1.51247">
        <ele>20</ele>
        <time>2021-03-24T12:28:58Z</time>
      </trkpt>
      <trkpt lat="47.30072" lon="-1.51243">
        <ele>20</ele>
        <time>2021-03-24T12:28:59Z</time>
      </trkpt>
      <trkpt lat="47.30071" lon="-1.51239">
        <ele>20</ele>
        <time>2021-03-24T12:29:00Z</time>
      </trkpt>
      <trkpt lat="47.30071" lon="-1.51235">
        <ele>20</ele>
        <time>2021-03-24T12:29:01Z</time>
      </trkpt>
      <trkpt lat="47.30071" lon="-1.51231">
        <ele>20</ele>
        <time>2021-03-24T12:29:02Z</time>
      </trkpt>
      <trkpt lat="47.30072" lon="-1.51228">
        <ele>20</ele>
        <time>2021-03-24T12:29:03Z</time>
      </trkpt>
      <trkpt lat="47.30073" lon="-1.51224">
        <ele>20</ele>
        <time>2021-03-24T12:29:04Z</time>
      </trkpt>
      <trkpt lat="47.30074" lon="-1.51222">
        <ele>20</ele>
        <time>2021-03-24T12:29:05Z</time>
      </trkpt>
      <trkpt lat="47.30076" lon="-1.5122">
        <ele>20</ele>
        <time>2021-03-24T12:29:06Z</time>
      </trkpt>
      <trkpt lat="47.30079" lon="-1.51219">
        <ele>20</ele>
        <time>2021-03-24T12:29:07Z</time>
      </trkpt>
      <trkpt lat="47.30081" lon="-1.51219">
        <ele>20</ele>
        <time>2021-03-24T12:29:08Z</time>
      </trkpt>
      <trkpt lat="47.30084" lon="-1.51218">
        <ele>20</ele>
        <time>2021-03-24T12:29:09Z</time>
      </trkpt>
      <trkpt lat="47.30087" lon="-1.51218">
        <ele>20</ele>
        <time>2021-03-24T12:29:10Z</time>
      </trkpt>
      <trkpt lat="47.3009" lon="-1.51218">
        <ele>20</ele>
        <time>2021-03-24T12:29:11Z</time>
      </trkpt>
      <trkpt lat="47.30093" lon="-1.51218">
        <ele>20</ele>
        <time>2021-03-24T12:29:12Z</time>
      </trkpt>
      <trkpt lat="47.30096" lon="-1.51218">
        <ele>20</ele>
        <time>2021-03-24T12:29:13Z</time>
      </trkpt>
      <trkpt lat="47.30098" lon="-1.51218">
        <ele>20</ele>
        <time>2021-03-24T12:29:14Z</time>
      </trkpt>
      <trkpt lat="47.30101" lon="-1.51218">
        <ele>20</ele>
        <time>2021-03-24T12:29:15Z</time>
      </trkpt>
      <trkpt lat="47.30104" lon="-1.51218">
        <ele>20</ele>
        <time>2021-03-24T12:29:16Z</time>
      </trkpt>
      <trkpt lat="47.30107" lon="-1.51218">
        <ele>20</ele>
        <time>2021-03-24T12:29:17Z</time>
      </trkpt>
      <trkpt lat="47.30109" lon="-1.51217">
        <ele>19</ele>
        <time>2021-03-24T12:29:18Z</time>
      </trkpt>
      <trkpt lat="47.30112" lon="-1.51217">
        <ele>19</ele>
        <time>2021-03-24T12:29:19Z</time>
      </trkpt>
      <trkpt lat="47.30115" lon="-1.51216">
        <ele>19</ele>
        <time>2021-03-24T12:29:20Z</time>
      </trkpt>
      <trkpt lat="47.30118" lon="-1.51216">
        <ele>19</ele>
        <time>2021-03-24T12:29:21Z</time>
      </trkpt>
      <trkpt lat="47.30121" lon="-1.51216">
        <ele>19</ele>
        <time>2021-03-24T12:29:22Z</time>
      </trkpt>
      <trkpt lat="47.30123" lon="-1.51215">
        <ele>19</ele>
        <time>2021-03-24T12:29:23Z</time>
      </trkpt>
      <trkpt lat="47.30126" lon="-1.51215">
        <ele>19</ele>
        <time>2021-03-24T12:29:24Z</time>
      </trkpt>
      <trkpt lat="47.30129" lon="-1.51214">
        <ele>19</ele>
        <time>2021-03-24T12:29:25Z</time>
      </trkpt>
      <trkpt lat="47.30132" lon="-1.51213">
        <ele>19</ele>
        <time>2021-03-24T12:29:26Z</time>
      </trkpt>
      <trkpt lat="47.30135" lon="-1.51213">
        <ele>19</ele>
        <time>2021-03-24T12:29:27Z</time>
      </trkpt>
      <trkpt lat="47.30138" lon="-1.51212">
        <ele>18</ele>
        <time>2021-03-24T12:29:28Z</time>
      </trkpt>
      <trkpt lat="47.30141" lon="-1.51212">
        <ele>18</ele>
        <time>2021-03-24T12:29:29Z</time>
      </trkpt>
      <trkpt lat="47.30144" lon="-1.51212">
        <ele>18</ele>
        <time>2021-03-24T12:29:30Z</time>
      </trkpt>
      <trkpt lat="47.30147" lon="-1.51212">
        <ele>18</ele>
        <time>2021-03-24T12:29:31Z</time>
      </trkpt>
      <trkpt lat="47.3015" lon="-1.51212">
        <ele>18</ele>
        <time>2021-03-24T12:29:32Z</time>
      </trkpt>
      <trkpt lat="47.30153" lon="-1.51212">
        <ele>18</ele>
        <time>2021-03-24T12:29:33Z</time>
      </trkpt>
      <trkpt lat="47.30156" lon="-1.51212">
        <ele>18</ele>
        <time>2021-03-24T12:29:34Z</time>
      </trkpt>
      <trkpt lat="47.30159" lon="-1.51212">
        <ele>18</ele>
        <time>2021-03-24T12:29:35Z</time>
      </trkpt>
      <trkpt lat="47.30162" lon="-1.51212">
        <ele>18</ele>
        <time>2021-03-24T12:29:36Z</time>
      </trkpt>
      <trkpt lat="47.30165" lon="-1.51212">
        <ele>18</ele>
        <time>2021-03-24T12:29:37Z</time>
      </trkpt>
      <trkpt lat="47.30168" lon="-1.51211">
        <ele>17</ele>
        <time>2021-03-24T12:29:38Z</time>
      </trkpt>
      <trkpt lat="47.30171" lon="-1.51211">
        <ele>17</ele>
        <time>2021-03-24T12:29:39Z</time>
      </trkpt>
      <trkpt lat="47.30174" lon="-1.51211">
        <ele>17</ele>
        <time>2021-03-24T12:29:40Z</time>
      </trkpt>
      <trkpt lat="47.30176" lon="-1.51211">
        <ele>17</ele>
        <time>2021-03-24T12:29:41Z</time>
      </trkpt>
      <trkpt lat="47.30179" lon="-1.51211">
        <ele>17</ele>
        <time>2021-03-24T12:29:42Z</time>
      </trkpt>
      <trkpt lat="47.30182" lon="-1.51211">
        <ele>17</ele>
        <time>2021-03-24T12:29:43Z</time>
      </trkpt>
      <trkpt lat="47.30185" lon="-1.51212">
        <ele>17</ele>
        <time>2021-03-24T12:29:44Z</time>
      </trkpt>
      <trkpt lat="47.30188" lon="-1.51212">
        <ele>17</ele>
        <time>2021-03-24T12:29:45Z</time>
      </trkpt>
      <trkpt lat="47.30191" lon="-1.51212">
        <ele>17</ele>
        <time>2021-03-24T12:29:46Z</time>
      </trkpt>
      <trkpt lat="47.30193" lon="-1.51211">
        <ele>17</ele>
        <time>2021-03-24T12:29:47Z</time>
      </trkpt>
      <trkpt lat="47.30196" lon="-1.51211">
        <ele>17</ele>
        <time>2021-03-24T12:29:48Z</time>
      </trkpt>
      <trkpt lat="47.30199" lon="-1.51211">
        <ele>17</ele>
        <time>2021-03-24T12:29:49Z</time>
      </trkpt>
      <trkpt lat="47.30202" lon="-1.5121">
        <ele>17</ele>
        <time>2021-03-24T12:29:50Z</time>
      </trkpt>
      <trkpt lat="47.30205" lon="-1.51209">
        <ele>17</ele>
        <time>2021-03-24T12:29:51Z</time>
      </trkpt>
      <trkpt lat="47.30208" lon="-1.51209">
        <ele>17</ele>
        <time>2021-03-24T12:29:52Z</time>
      </trkpt>
      <trkpt lat="47.30211" lon="-1.51208">
        <ele>16</ele>
        <time>2021-03-24T12:29:53Z</time>
      </trkpt>
      <trkpt lat="47.30214" lon="-1.51208">
        <ele>16</ele>
        <time>2021-03-24T12:29:54Z</time>
      </trkpt>
      <trkpt lat="47.30217" lon="-1.51207">
        <ele>16</ele>
        <time>2021-03-24T12:29:55Z</time>
      </trkpt>
      <trkpt lat="47.3022" lon="-1.51207">
        <ele>16</ele>
        <time>2021-03-24T12:29:56Z</time>
      </trkpt>
      <trkpt lat="47.30223" lon="-1.51207">
        <ele>16</ele>
        <time>2021-03-24T12:29:57Z</time>
      </trkpt>
      <trkpt lat="47.30225" lon="-1.51206">
        <ele>16</ele>
        <time>2021-03-24T12:29:58Z</time>
      </trkpt>
      <trkpt lat="47.30228" lon="-1.51206">
        <ele>16</ele>
        <time>2021-03-24T12:29:59Z</time>
      </trkpt>
      <trkpt lat="47.3023" lon="-1.51206">
        <ele>16</ele>
        <time>2021-03-24T12:30:00Z</time>
      </trkpt>
      <trkpt lat="47.30233" lon="-1.51206">
        <ele>16</ele>
        <time>2021-03-24T12:30:01Z</time>
      </trkpt>
      <trkpt lat="47.30236" lon="-1.51205">
        <ele>16</ele>
        <time>2021-03-24T12:30:02Z</time>
      </trkpt>
      <trkpt lat="47.30238" lon="-1.51205">
        <ele>15</ele>
        <time>2021-03-24T12:30:03Z</time>
      </trkpt>
      <trkpt lat="47.30241" lon="-1.51205">
        <ele>15</ele>
        <time>2021-03-24T12:30:04Z</time>
      </trkpt>
      <trkpt lat="47.30244" lon="-1.51205">
        <ele>15</ele>
        <time>2021-03-24T12:30:05Z</time>
      </trkpt>
      <trkpt lat="47.30246" lon="-1.51205">
        <ele>15</ele>
        <time>2021-03-24T12:30:06Z</time>
      </trkpt>
      <trkpt lat="47.30249" lon="-1.51204">
        <ele>15</ele>
        <time>2021-03-24T12:30:07Z</time>
      </trkpt>
      <trkpt lat="47.30252" lon="-1.51204">
        <ele>15</ele>
        <time>2021-03-24T12:30:08Z</time>
      </trkpt>
      <trkpt lat="47.30255" lon="-1.51204">
        <ele>15</ele>
        <time>2021-03-24T12:30:09Z</time>
      </trkpt>
      <trkpt lat="47.30258" lon="-1.51204">
        <ele>15</ele>
        <time>2021-03-24T12:30:10Z</time>
      </trkpt>
      <trkpt lat="47.3026" lon="-1.51204">
        <ele>15</ele>
        <time>2021-03-24T12:30:11Z</time>
      </trkpt>
      <trkpt lat="47.30263" lon="-1.51204">
        <ele>15</ele>
        <time>2021-03-24T12:30:12Z</time>
      </trkpt>
      <trkpt lat="47.30266" lon="-1.51203">
        <ele>15</ele>
        <time>2021-03-24T12:30:13Z</time>
      </trkpt>
      <trkpt lat="47.30268" lon="-1.51203">
        <ele>15</ele>
        <time>2021-03-24T12:30:14Z</time>
      </trkpt>
      <trkpt lat="47.30271" lon="-1.51203">
        <ele>15</ele>
        <time>2021-03-24T12:30:15Z</time>
      </trkpt>
      <trkpt lat="47.30274" lon="-1.51203">
        <ele>15</ele>
        <time>2021-03-24T12:30:16Z</time>
      </trkpt>
      <trkpt lat="47.30276" lon="-1.51202">
        <ele>15</ele>
        <time>2021-03-24T12:30:17Z</time>
      </trkpt>
      <trkpt lat="47.30279" lon="-1.51202">
        <ele>14</ele>
        <time>2021-03-24T12:30:18Z</time>
      </trkpt>
      <trkpt lat="47.30281" lon="-1.51201">
        <ele>14</ele>
        <time>2021-03-24T12:30:19Z</time>
      </trkpt>
      <trkpt lat="47.30284" lon="-1.51201">
        <ele>14</ele>
        <time>2021-03-24T12:30:20Z</time>
      </trkpt>
      <trkpt lat="47.30287" lon="-1.512">
        <ele>14</ele>
        <time>2021-03-24T12:30:21Z</time>
      </trkpt>
      <trkpt lat="47.3029" lon="-1.512">
        <ele>14</ele>
        <time>2021-03-24T12:30:22Z</time>
      </trkpt>
      <trkpt lat="47.30293" lon="-1.51199">
        <ele>14</ele>
        <time>2021-03-24T12:30:23Z</time>
      </trkpt>
      <trkpt lat="47.30296" lon="-1.51199">
        <ele>14</ele>
        <time>2021-03-24T12:30:24Z</time>
      </trkpt>
      <trkpt lat="47.30299" lon="-1.51199">
        <ele>14</ele>
        <time>2021-03-24T12:30:25Z</time>
      </trkpt>
      <trkpt lat="47.30302" lon="-1.51198">
        <ele>14</ele>
        <time>2021-03-24T12:30:26Z</time>
      </trkpt>
      <trkpt lat="47.30305" lon="-1.51198">
        <ele>14</ele>
        <time>2021-03-24T12:30:27Z</time>
      </trkpt>
      <trkpt lat="47.30308" lon="-1.51198">
        <ele>14</ele>
        <time>2021-03-24T12:30:28Z</time>
      </trkpt>
      <trkpt lat="47.3031" lon="-1.51197">
        <ele>14</ele>
        <time>2021-03-24T12:30:29Z</time>
      </trkpt>
      <trkpt lat="47.30313" lon="-1.51196">
        <ele>14</ele>
        <time>2021-03-24T12:30:30Z</time>
      </trkpt>
      <trkpt lat="47.30315" lon="-1.51194">
        <ele>14</ele>
        <time>2021-03-24T12:30:31Z</time>
      </trkpt>
      <trkpt lat="47.30317" lon="-1.51191">
        <ele>14</ele>
        <time>2021-03-24T12:30:32Z</time>
      </trkpt>
      <trkpt lat="47.30319" lon="-1.51187">
        <ele>14</ele>
        <time>2021-03-24T12:30:33Z</time>
      </trkpt>
      <trkpt lat="47.3032" lon="-1.51184">
        <ele>14</ele>
        <time>2021-03-24T12:30:34Z</time>
      </trkpt>
      <trkpt lat="47.30322" lon="-1.51179">
        <ele>14</ele>
        <time>2021-03-24T12:30:35Z</time>
      </trkpt>
      <trkpt lat="47.30323" lon="-1.51175">
        <ele>14</ele>
        <time>2021-03-24T12:30:36Z</time>
      </trkpt>
      <trkpt lat="47.30324" lon="-1.51171">
        <ele>14</ele>
        <time>2021-03-24T12:30:37Z</time>
      </trkpt>
      <trkpt lat="47.30325" lon="-1.51166">
        <ele>14</ele>
        <time>2021-03-24T12:30:38Z</time>
      </trkpt>
      <trkpt lat="47.30326" lon="-1.51162">
        <ele>14</ele>
        <time>2021-03-24T12:30:39Z</time>
      </trkpt>
      <trkpt lat="47.30327" lon="-1.51158">
        <ele>14</ele>
        <time>2021-03-24T12:30:40Z</time>
      </trkpt>
      <trkpt lat="47.30328" lon="-1.51154">
        <ele>14</ele>
        <time>2021-03-24T12:30:41Z</time>
      </trkpt>
      <trkpt lat="47.30329" lon="-1.5115">
        <ele>14</ele>
        <time>2021-03-24T12:30:42Z</time>
      </trkpt>
      <trkpt lat="47.3033" lon="-1.51146">
        <ele>14</ele>
        <time>2021-03-24T12:30:43Z</time>
      </trkpt>
      <trkpt lat="47.30331" lon="-1.51142">
        <ele>14</ele>
        <time>2021-03-24T12:30:44Z</time>
      </trkpt>
      <trkpt lat="47.30333" lon="-1.51137">
        <ele>14</ele>
        <time>2021-03-24T12:30:45Z</time>
      </trkpt>
      <trkpt lat="47.30334" lon="-1.51133">
        <ele>14</ele>
        <time>2021-03-24T12:30:46Z</time>
      </trkpt>
      <trkpt lat="47.30335" lon="-1.51129">
        <ele>14</ele>
        <time>2021-03-24T12:30:47Z</time>
      </trkpt>
      <trkpt lat="47.30336" lon="-1.51125">
        <ele>14</ele>
        <time>2021-03-24T12:30:48Z</time>
      </trkpt>
      <trkpt lat="47.30337" lon="-1.51121">
        <ele>14</ele>
        <time>2021-03-24T12:30:49Z</time>
      </trkpt>
      <trkpt lat="47.30338" lon="-1.51117">
        <ele>14</ele>
        <time>2021-03-24T12:30:50Z</time>
      </trkpt>
      <trkpt lat="47.30339" lon="-1.51113">
        <ele>14</ele>
        <time>2021-03-24T12:30:51Z</time>
      </trkpt>
      <trkpt lat="47.3034" lon="-1.51109">
        <ele>14</ele>
        <time>2021-03-24T12:30:52Z</time>
      </trkpt>
      <trkpt lat="47.30341" lon="-1.51105">
        <ele>14</ele>
        <time>2021-03-24T12:30:53Z</time>
      </trkpt>
      <trkpt lat="47.30343" lon="-1.51101">
        <ele>14</ele>
        <time>2021-03-24T12:30:54Z</time>
      </trkpt>
      <trkpt lat="47.30344" lon="-1.51097">
        <ele>14</ele>
        <time>2021-03-24T12:30:55Z</time>
      </trkpt>
      <trkpt lat="47.30345" lon="-1.51093">
        <ele>14</ele>
        <time>2021-03-24T12:30:56Z</time>
      </trkpt>
      <trkpt lat="47.30346" lon="-1.51089">
        <ele>14</ele>
        <time>2021-03-24T12:30:57Z</time>
      </trkpt>
      <trkpt lat="47.30347" lon="-1.51085">
        <ele>14</ele>
        <time>2021-03-24T12:30:58Z</time>
      </trkpt>
      <trkpt lat="47.30348" lon="-1.51081">
        <ele>14</ele>
        <time>2021-03-24T12:30:59Z</time>
      </trkpt>
      <trkpt lat="47.3035" lon="-1.51077">
        <ele>14</ele>
        <time>2021-03-24T12:31:00Z</time>
      </trkpt>
      <trkpt lat="47.30351" lon="-1.51073">
        <ele>14</ele>
        <time>2021-03-24T12:31:01Z</time>
      </trkpt>
      <trkpt lat="47.30352" lon="-1.51069">
        <ele>14</ele>
        <time>2021-03-24T12:31:02Z</time>
      </trkpt>
      <trkpt lat="47.30353" lon="-1.51065">
        <ele>14</ele>
        <time>2021-03-24T12:31:03Z</time>
      </trkpt>
      <trkpt lat="47.30354" lon="-1.51061">
        <ele>14</ele>
        <time>2021-03-24T12:31:04Z</time>
      </trkpt>
      <trkpt lat="47.30355" lon="-1.51057">
        <ele>14</ele>
        <time>2021-03-24T12:31:05Z</time>
      </trkpt>
      <trkpt lat="47.30356" lon="-1.51053">
        <ele>14</ele>
        <time>2021-03-24T12:31:06Z</time>
      </trkpt>
      <trkpt lat="47.30357" lon="-1.51049">
        <ele>15</ele>
        <time>2021-03-24T12:31:07Z</time>
      </trkpt>
      <trkpt lat="47.30358" lon="-1.51045">
        <ele>15</ele>
        <time>2021-03-24T12:31:08Z</time>
      </trkpt>
      <trkpt lat="47.30359" lon="-1.51041">
        <ele>15</ele>
        <time>2021-03-24T12:31:09Z</time>
      </trkpt>
      <trkpt lat="47.3036" lon="-1.51037">
        <ele>15</ele>
        <time>2021-03-24T12:31:10Z</time>
      </trkpt>
      <trkpt lat="47.30361" lon="-1.51033">
        <ele>15</ele>
        <time>2021-03-24T12:31:11Z</time>
      </trkpt>
      <trkpt lat="47.30362" lon="-1.51029">
        <ele>15</ele>
        <time>2021-03-24T12:31:12Z</time>
      </trkpt>
      <trkpt lat="47.30363" lon="-1.51025">
        <ele>15</ele>
        <time>2021-03-24T12:31:13Z</time>
      </trkpt>
      <trkpt lat="47.30365" lon="-1.51021">
        <ele>15</ele>
        <time>2021-03-24T12:31:14Z</time>
      </trkpt>
      <trkpt lat="47.30366" lon="-1.51017">
        <ele>15</ele>
        <time>2021-03-24T12:31:15Z</time>
      </trkpt>
      <trkpt lat="47.30367" lon="-1.51013">
        <ele>15</ele>
        <time>2021-03-24T12:31:16Z</time>
      </trkpt>
      <trkpt lat="47.30368" lon="-1.51009">
        <ele>15</ele>
        <time>2021-03-24T12:31:17Z</time>
      </trkpt>
      <trkpt lat="47.30369" lon="-1.51005">
        <ele>15</ele>
        <time>2021-03-24T12:31:18Z</time>
      </trkpt>
      <trkpt lat="47.3037" lon="-1.51001">
        <ele>15</ele>
        <time>2021-03-24T12:31:19Z</time>
      </trkpt>
      <trkpt lat="47.30371" lon="-1.50997">
        <ele>15</ele>
        <time>2021-03-24T12:31:20Z</time>
      </trkpt>
      <trkpt lat="47.30373" lon="-1.50993">
        <ele>15</ele>
        <time>2021-03-24T12:31:21Z</time>
      </trkpt>
      <trkpt lat="47.30374" lon="-1.50989">
        <ele>15</ele>
        <time>2021-03-24T12:31:22Z</time>
      </trkpt>
      <trkpt lat="47.30375" lon="-1.50985">
        <ele>15</ele>
        <time>2021-03-24T12:31:23Z</time>
      </trkpt>
      <trkpt lat="47.30376" lon="-1.50981">
        <ele>15</ele>
        <time>2021-03-24T12:31:24Z</time>
      </trkpt>
      <trkpt lat="47.30378" lon="-1.50977">
        <ele>15</ele>
        <time>2021-03-24T12:31:25Z</time>
      </trkpt>
      <trkpt lat="47.30379" lon="-1.50973">
        <ele>15</ele>
        <time>2021-03-24T12:31:26Z</time>
      </trkpt>
      <trkpt lat="47.3038" lon="-1.50969">
        <ele>16</ele>
        <time>2021-03-24T12:31:27Z</time>
      </trkpt>
      <trkpt lat="47.30381" lon="-1.50965">
        <ele>16</ele>
        <time>2021-03-24T12:31:28Z</time>
      </trkpt>
      <trkpt lat="47.30382" lon="-1.50961">
        <ele>16</ele>
        <time>2021-03-24T12:31:29Z</time>
      </trkpt>
      <trkpt lat="47.30383" lon="-1.50957">
        <ele>16</ele>
        <time>2021-03-24T12:31:30Z</time>
      </trkpt>
      <trkpt lat="47.30384" lon="-1.50953">
        <ele>16</ele>
        <time>2021-03-24T12:31:31Z</time>
      </trkpt>
      <trkpt lat="47.30386" lon="-1.5095">
        <ele>16</ele>
        <time>2021-03-24T12:31:32Z</time>
      </trkpt>
      <trkpt lat="47.30386" lon="-1.50946">
        <ele>16</ele>
        <time>2021-03-24T12:31:33Z</time>
      </trkpt>
      <trkpt lat="47.30387" lon="-1.50942">
        <ele>16</ele>
        <time>2021-03-24T12:31:34Z</time>
      </trkpt>
      <trkpt lat="47.30388" lon="-1.50938">
        <ele>16</ele>
        <time>2021-03-24T12:31:35Z</time>
      </trkpt>
      <trkpt lat="47.30389" lon="-1.50934">
        <ele>16</ele>
        <time>2021-03-24T12:31:36Z</time>
      </trkpt>
      <trkpt lat="47.3039" lon="-1.50931">
        <ele>16</ele>
        <time>2021-03-24T12:31:37Z</time>
      </trkpt>
      <trkpt lat="47.30391" lon="-1.50927">
        <ele>16</ele>
        <time>2021-03-24T12:31:38Z</time>
      </trkpt>
      <trkpt lat="47.30392" lon="-1.50923">
        <ele>16</ele>
        <time>2021-03-24T12:31:39Z</time>
      </trkpt>
      <trkpt lat="47.30393" lon="-1.5092">
        <ele>16</ele>
        <time>2021-03-24T12:31:40Z</time>
      </trkpt>
      <trkpt lat="47.30394" lon="-1.50916">
        <ele>16</ele>
        <time>2021-03-24T12:31:41Z</time>
      </trkpt>
      <trkpt lat="47.30395" lon="-1.50912">
        <ele>16</ele>
        <time>2021-03-24T12:31:42Z</time>
      </trkpt>
      <trkpt lat="47.30396" lon="-1.50908">
        <ele>16</ele>
        <time>2021-03-24T12:31:43Z</time>
      </trkpt>
      <trkpt lat="47.30398" lon="-1.50905">
        <ele>16</ele>
        <time>2021-03-24T12:31:44Z</time>
      </trkpt>
      <trkpt lat="47.30399" lon="-1.50901">
        <ele>16</ele>
        <time>2021-03-24T12:31:45Z</time>
      </trkpt>
      <trkpt lat="47.304" lon="-1.50897">
        <ele>16</ele>
        <time>2021-03-24T12:31:46Z</time>
      </trkpt>
      <trkpt lat="47.30401" lon="-1.50893">
        <ele>16</ele>
        <time>2021-03-24T12:31:47Z</time>
      </trkpt>
      <trkpt lat="47.30403" lon="-1.50889">
        <ele>16</ele>
        <time>2021-03-24T12:31:48Z</time>
      </trkpt>
      <trkpt lat="47.30404" lon="-1.50885">
        <ele>16</ele>
        <time>2021-03-24T12:31:49Z</time>
      </trkpt>
      <trkpt lat="47.30405" lon="-1.50881">
        <ele>16</ele>
        <time>2021-03-24T12:31:50Z</time>
      </trkpt>
      <trkpt lat="47.30406" lon="-1.50877">
        <ele>16</ele>
        <time>2021-03-24T12:31:51Z</time>
      </trkpt>
      <trkpt lat="47.30408" lon="-1.50873">
        <ele>16</ele>
        <time>2021-03-24T12:31:52Z</time>
      </trkpt>
      <trkpt lat="47.30409" lon="-1.50869">
        <ele>16</ele>
        <time>2021-03-24T12:31:53Z</time>
      </trkpt>
      <trkpt lat="47.3041" lon="-1.50865">
        <ele>16</ele>
        <time>2021-03-24T12:31:54Z</time>
      </trkpt>
      <trkpt lat="47.30411" lon="-1.50862">
        <ele>16</ele>
        <time>2021-03-24T12:31:55Z</time>
      </trkpt>
      <trkpt lat="47.30412" lon="-1.50858">
        <ele>16</ele>
        <time>2021-03-24T12:31:56Z</time>
      </trkpt>
      <trkpt lat="47.30414" lon="-1.50854">
        <ele>16</ele>
        <time>2021-03-24T12:31:57Z</time>
      </trkpt>
      <trkpt lat="47.30415" lon="-1.5085">
        <ele>16</ele>
        <time>2021-03-24T12:31:58Z</time>
      </trkpt>
      <trkpt lat="47.30416" lon="-1.50846">
        <ele>16</ele>
        <time>2021-03-24T12:31:59Z</time>
      </trkpt>
      <trkpt lat="47.30417" lon="-1.50842">
        <ele>16</ele>
        <time>2021-03-24T12:32:00Z</time>
      </trkpt>
      <trkpt lat="47.30418" lon="-1.50838">
        <ele>16</ele>
        <time>2021-03-24T12:32:01Z</time>
      </trkpt>
      <trkpt lat="47.30419" lon="-1.50834">
        <ele>16</ele>
        <time>2021-03-24T12:32:02Z</time>
      </trkpt>
      <trkpt lat="47.3042" lon="-1.50831">
        <ele>16</ele>
        <time>2021-03-24T12:32:03Z</time>
      </trkpt>
      <trkpt lat="47.3042" lon="-1.50827">
        <ele>16</ele>
        <time>2021-03-24T12:32:04Z</time>
      </trkpt>
      <trkpt lat="47.30421" lon="-1.50822">
        <ele>16</ele>
        <time>2021-03-24T12:32:05Z</time>
      </trkpt>
      <trkpt lat="47.30422" lon="-1.50818">
        <ele>16</ele>
        <time>2021-03-24T12:32:06Z</time>
      </trkpt>
      <trkpt lat="47.30423" lon="-1.50814">
        <ele>16</ele>
        <time>2021-03-24T12:32:07Z</time>
      </trkpt>
      <trkpt lat="47.30424" lon="-1.5081">
        <ele>16</ele>
        <time>2021-03-24T12:32:08Z</time>
      </trkpt>
      <trkpt lat="47.30424" lon="-1.50806">
        <ele>16</ele>
        <time>2021-03-24T12:32:09Z</time>
      </trkpt>
      <trkpt lat="47.30425" lon="-1.50801">
        <ele>16</ele>
        <time>2021-03-24T12:32:10Z</time>
      </trkpt>
      <trkpt lat="47.30425" lon="-1.50797">
        <ele>16</ele>
        <time>2021-03-24T12:32:11Z</time>
      </trkpt>
      <trkpt lat="47.30425" lon="-1.50793">
        <ele>16</ele>
        <time>2021-03-24T12:32:12Z</time>
      </trkpt>
      <trkpt lat="47.30426" lon="-1.50789">
        <ele>16</ele>
        <time>2021-03-24T12:32:13Z</time>
      </trkpt>
      <trkpt lat="47.30426" lon="-1.50784">
        <ele>16</ele>
        <time>2021-03-24T12:32:14Z</time>
      </trkpt>
      <trkpt lat="47.30426" lon="-1.5078">
        <ele>16</ele>
        <time>2021-03-24T12:32:15Z</time>
      </trkpt>
      <trkpt lat="47.30426" lon="-1.50776">
        <ele>16</ele>
        <time>2021-03-24T12:32:16Z</time>
      </trkpt>
      <trkpt lat="47.30427" lon="-1.50772">
        <ele>16</ele>
        <time>2021-03-24T12:32:17Z</time>
      </trkpt>
      <trkpt lat="47.30427" lon="-1.50767">
        <ele>16</ele>
        <time>2021-03-24T12:32:18Z</time>
      </trkpt>
      <trkpt lat="47.30428" lon="-1.50763">
        <ele>16</ele>
        <time>2021-03-24T12:32:19Z</time>
      </trkpt>
      <trkpt lat="47.30428" lon="-1.50759">
        <ele>16</ele>
        <time>2021-03-24T12:32:20Z</time>
      </trkpt>
      <trkpt lat="47.30429" lon="-1.50755">
        <ele>16</ele>
        <time>2021-03-24T12:32:21Z</time>
      </trkpt>
      <trkpt lat="47.30429" lon="-1.5075">
        <ele>16</ele>
        <time>2021-03-24T12:32:22Z</time>
      </trkpt>
      <trkpt lat="47.30429" lon="-1.50746">
        <ele>16</ele>
        <time>2021-03-24T12:32:23Z</time>
      </trkpt>
      <trkpt lat="47.3043" lon="-1.50742">
        <ele>16</ele>
        <time>2021-03-24T12:32:24Z</time>
      </trkpt>
      <trkpt lat="47.3043" lon="-1.50738">
        <ele>16</ele>
        <time>2021-03-24T12:32:25Z</time>
      </trkpt>
      <trkpt lat="47.3043" lon="-1.50733">
        <ele>16</ele>
        <time>2021-03-24T12:32:26Z</time>
      </trkpt>
      <trkpt lat="47.3043" lon="-1.50729">
        <ele>16</ele>
        <time>2021-03-24T12:32:27Z</time>
      </trkpt>
      <trkpt lat="47.3043" lon="-1.50725">
        <ele>16</ele>
        <time>2021-03-24T12:32:28Z</time>
      </trkpt>
      <trkpt lat="47.3043" lon="-1.50721">
        <ele>16</ele>
        <time>2021-03-24T12:32:29Z</time>
      </trkpt>
      <trkpt lat="47.3043" lon="-1.50717">
        <ele>16</ele>
        <time>2021-03-24T12:32:30Z</time>
      </trkpt>
      <trkpt lat="47.30429" lon="-1.50713">
        <ele>16</ele>
        <time>2021-03-24T12:32:31Z</time>
      </trkpt>
      <trkpt lat="47.30429" lon="-1.50709">
        <ele>16</ele>
        <time>2021-03-24T12:32:32Z</time>
      </trkpt>
      <trkpt lat="47.30429" lon="-1.50705">
        <ele>16</ele>
        <time>2021-03-24T12:32:33Z</time>
      </trkpt>
      <trkpt lat="47.30428" lon="-1.50701">
        <ele>16</ele>
        <time>2021-03-24T12:32:34Z</time>
      </trkpt>
      <trkpt lat="47.30428" lon="-1.50697">
        <ele>16</ele>
        <time>2021-03-24T12:32:35Z</time>
      </trkpt>
      <trkpt lat="47.30428" lon="-1.50694">
        <ele>16</ele>
        <time>2021-03-24T12:32:36Z</time>
      </trkpt>
      <trkpt lat="47.30428" lon="-1.50689">
        <ele>16</ele>
        <time>2021-03-24T12:32:37Z</time>
      </trkpt>
      <trkpt lat="47.30428" lon="-1.50685">
        <ele>16</ele>
        <time>2021-03-24T12:32:38Z</time>
      </trkpt>
      <trkpt lat="47.30429" lon="-1.50681">
        <ele>16</ele>
        <time>2021-03-24T12:32:39Z</time>
      </trkpt>
      <trkpt lat="47.30429" lon="-1.50677">
        <ele>16</ele>
        <time>2021-03-24T12:32:40Z</time>
      </trkpt>
      <trkpt lat="47.3043" lon="-1.50673">
        <ele>16</ele>
        <time>2021-03-24T12:32:41Z</time>
      </trkpt>
      <trkpt lat="47.3043" lon="-1.50668">
        <ele>16</ele>
        <time>2021-03-24T12:32:42Z</time>
      </trkpt>
      <trkpt lat="47.30431" lon="-1.50664">
        <ele>16</ele>
        <time>2021-03-24T12:32:43Z</time>
      </trkpt>
      <trkpt lat="47.30432" lon="-1.5066">
        <ele>16</ele>
        <time>2021-03-24T12:32:44Z</time>
      </trkpt>
      <trkpt lat="47.30433" lon="-1.50656">
        <ele>16</ele>
        <time>2021-03-24T12:32:45Z</time>
      </trkpt>
      <trkpt lat="47.30434" lon="-1.50652">
        <ele>16</ele>
        <time>2021-03-24T12:32:46Z</time>
      </trkpt>
      <trkpt lat="47.30434" lon="-1.50647">
        <ele>16</ele>
        <time>2021-03-24T12:32:47Z</time>
      </trkpt>
      <trkpt lat="47.30435" lon="-1.50643">
        <ele>16</ele>
        <time>2021-03-24T12:32:48Z</time>
      </trkpt>
      <trkpt lat="47.30436" lon="-1.50639">
        <ele>16</ele>
        <time>2021-03-24T12:32:49Z</time>
      </trkpt>
      <trkpt lat="47.30437" lon="-1.50635">
        <ele>16</ele>
        <time>2021-03-24T12:32:50Z</time>
      </trkpt>
      <trkpt lat="47.30438" lon="-1.50631">
        <ele>16</ele>
        <time>2021-03-24T12:32:51Z</time>
      </trkpt>
      <trkpt lat="47.30439" lon="-1.50627">
        <ele>16</ele>
        <time>2021-03-24T12:32:52Z</time>
      </trkpt>
      <trkpt lat="47.3044" lon="-1.50623">
        <ele>16</ele>
        <time>2021-03-24T12:32:53Z</time>
      </trkpt>
      <trkpt lat="47.30441" lon="-1.50619">
        <ele>16</ele>
        <time>2021-03-24T12:32:54Z</time>
      </trkpt>
      <trkpt lat="47.30442" lon="-1.50615">
        <ele>16</ele>
        <time>2021-03-24T12:32:55Z</time>
      </trkpt>
      <trkpt lat="47.30443" lon="-1.50611">
        <ele>16</ele>
        <time>2021-03-24T12:32:56Z</time>
      </trkpt>
      <trkpt lat="47.30443" lon="-1.50606">
        <ele>16</ele>
        <time>2021-03-24T12:32:57Z</time>
      </trkpt>
      <trkpt lat="47.30444" lon="-1.50602">
        <ele>16</ele>
        <time>2021-03-24T12:32:58Z</time>
      </trkpt>
      <trkpt lat="47.30445" lon="-1.50598">
        <ele>16</ele>
        <time>2021-03-24T12:32:59Z</time>
      </trkpt>
      <trkpt lat="47.30445" lon="-1.50593">
        <ele>16</ele>
        <time>2021-03-24T12:33:00Z</time>
      </trkpt>
      <trkpt lat="47.30446" lon="-1.50589">
        <ele>16</ele>
        <time>2021-03-24T12:33:01Z</time>
      </trkpt>
      <trkpt lat="47.30446" lon="-1.50585">
        <ele>16</ele>
        <time>2021-03-24T12:33:02Z</time>
      </trkpt>
      <trkpt lat="47.30447" lon="-1.50581">
        <ele>16</ele>
        <time>2021-03-24T12:33:03Z</time>
      </trkpt>
      <trkpt lat="47.30448" lon="-1.50577">
        <ele>16</ele>
        <time>2021-03-24T12:33:04Z</time>
      </trkpt>
      <trkpt lat="47.3045" lon="-1.50573">
        <ele>16</ele>
        <time>2021-03-24T12:33:05Z</time>
      </trkpt>
      <trkpt lat="47.30451" lon="-1.50569">
        <ele>16</ele>
        <time>2021-03-24T12:33:06Z</time>
      </trkpt>
      <trkpt lat="47.30452" lon="-1.50565">
        <ele>16</ele>
        <time>2021-03-24T12:33:07Z</time>
      </trkpt>
      <trkpt lat="47.30453" lon="-1.50561">
        <ele>16</ele>
        <time>2021-03-24T12:33:08Z</time>
      </trkpt>
      <trkpt lat="47.30454" lon="-1.50557">
        <ele>16</ele>
        <time>2021-03-24T12:33:09Z</time>
      </trkpt>
      <trkpt lat="47.30454" lon="-1.50553">
        <ele>16</ele>
        <time>2021-03-24T12:33:10Z</time>
      </trkpt>
      <trkpt lat="47.30455" lon="-1.5055">
        <ele>16</ele>
        <time>2021-03-24T12:33:11Z</time>
      </trkpt>
      <trkpt lat="47.30456" lon="-1.50546">
        <ele>16</ele>
        <time>2021-03-24T12:33:12Z</time>
      </trkpt>
      <trkpt lat="47.30456" lon="-1.50542">
        <ele>16</ele>
        <time>2021-03-24T12:33:13Z</time>
      </trkpt>
      <trkpt lat="47.30457" lon="-1.50539">
        <ele>16</ele>
        <time>2021-03-24T12:33:14Z</time>
      </trkpt>
      <trkpt lat="47.30457" lon="-1.50535">
        <ele>16</ele>
        <time>2021-03-24T12:33:15Z</time>
      </trkpt>
      <trkpt lat="47.30458" lon="-1.50531">
        <ele>16</ele>
        <time>2021-03-24T12:33:16Z</time>
      </trkpt>
      <trkpt lat="47.30459" lon="-1.50527">
        <ele>16</ele>
        <time>2021-03-24T12:33:17Z</time>
      </trkpt>
      <trkpt lat="47.30459" lon="-1.50523">
        <ele>16</ele>
        <time>2021-03-24T12:33:18Z</time>
      </trkpt>
      <trkpt lat="47.3046" lon="-1.50519">
        <ele>16</ele>
        <time>2021-03-24T12:33:19Z</time>
      </trkpt>
      <trkpt lat="47.3046" lon="-1.50515">
        <ele>16</ele>
        <time>2021-03-24T12:33:20Z</time>
      </trkpt>
      <trkpt lat="47.30461" lon="-1.50511">
        <ele>16</ele>
        <time>2021-03-24T12:33:21Z</time>
      </trkpt>
      <trkpt lat="47.30462" lon="-1.50507">
        <ele>16</ele>
        <time>2021-03-24T12:33:22Z</time>
      </trkpt>
      <trkpt lat="47.30462" lon="-1.50503">
        <ele>16</ele>
        <time>2021-03-24T12:33:23Z</time>
      </trkpt>
      <trkpt lat="47.30463" lon="-1.505">
        <ele>16</ele>
        <time>2021-03-24T12:33:24Z</time>
      </trkpt>
      <trkpt lat="47.30464" lon="-1.50496">
        <ele>16</ele>
        <time>2021-03-24T12:33:25Z</time>
      </trkpt>
      <trkpt lat="47.30465" lon="-1.50492">
        <ele>16</ele>
        <time>2021-03-24T12:33:26Z</time>
      </trkpt>
      <trkpt lat="47.30466" lon="-1.50488">
        <ele>17</ele>
        <time>2021-03-24T12:33:27Z</time>
      </trkpt>
      <trkpt lat="47.30466" lon="-1.50484">
        <ele>17</ele>
        <time>2021-03-24T12:33:28Z</time>
      </trkpt>
      <trkpt lat="47.30467" lon="-1.5048">
        <ele>17</ele>
        <time>2021-03-24T12:33:29Z</time>
      </trkpt>
      <trkpt lat="47.30467" lon="-1.50476">
        <ele>17</ele>
        <time>2021-03-24T12:33:30Z</time>
      </trkpt>
      <trkpt lat="47.30467" lon="-1.50472">
        <ele>17</ele>
        <time>2021-03-24T12:33:31Z</time>
      </trkpt>
      <trkpt lat="47.30467" lon="-1.50468">
        <ele>17</ele>
        <time>2021-03-24T12:33:32Z</time>
      </trkpt>
      <trkpt lat="47.30467" lon="-1.50464">
        <ele>17</ele>
        <time>2021-03-24T12:33:33Z</time>
      </trkpt>
      <trkpt lat="47.30467" lon="-1.50459">
        <ele>17</ele>
        <time>2021-03-24T12:33:34Z</time>
      </trkpt>
      <trkpt lat="47.30467" lon="-1.50455">
        <ele>17</ele>
        <time>2021-03-24T12:33:35Z</time>
      </trkpt>
      <trkpt lat="47.30466" lon="-1.50451">
        <ele>17</ele>
        <time>2021-03-24T12:33:36Z</time>
      </trkpt>
      <trkpt lat="47.30466" lon="-1.50447">
        <ele>17</ele>
        <time>2021-03-24T12:33:37Z</time>
      </trkpt>
      <trkpt lat="47.30465" lon="-1.50443">
        <ele>17</ele>
        <time>2021-03-24T12:33:38Z</time>
      </trkpt>
      <trkpt lat="47.30465" lon="-1.50439">
        <ele>17</ele>
        <time>2021-03-24T12:33:39Z</time>
      </trkpt>
      <trkpt lat="47.30464" lon="-1.50435">
        <ele>17</ele>
        <time>2021-03-24T12:33:40Z</time>
      </trkpt>
      <trkpt lat="47.30464" lon="-1.5043">
        <ele>17</ele>
        <time>2021-03-24T12:33:41Z</time>
      </trkpt>
      <trkpt lat="47.30463" lon="-1.50426">
        <ele>17</ele>
        <time>2021-03-24T12:33:42Z</time>
      </trkpt>
      <trkpt lat="47.30463" lon="-1.50422">
        <ele>17</ele>
        <time>2021-03-24T12:33:43Z</time>
      </trkpt>
      <trkpt lat="47.30462" lon="-1.50418">
        <ele>17</ele>
        <time>2021-03-24T12:33:44Z</time>
      </trkpt>
      <trkpt lat="47.30462" lon="-1.50414">
        <ele>17</ele>
        <time>2021-03-24T12:33:45Z</time>
      </trkpt>
      <trkpt lat="47.30461" lon="-1.50409">
        <ele>17</ele>
        <time>2021-03-24T12:33:46Z</time>
      </trkpt>
      <trkpt lat="47.30461" lon="-1.50405">
        <ele>18</ele>
        <time>2021-03-24T12:33:47Z</time>
      </trkpt>
      <trkpt lat="47.30461" lon="-1.50401">
        <ele>18</ele>
        <time>2021-03-24T12:33:48Z</time>
      </trkpt>
      <trkpt lat="47.3046" lon="-1.50398">
        <ele>18</ele>
        <time>2021-03-24T12:33:49Z</time>
      </trkpt>
      <trkpt lat="47.3046" lon="-1.50394">
        <ele>18</ele>
        <time>2021-03-24T12:33:50Z</time>
      </trkpt>
      <trkpt lat="47.30459" lon="-1.50391">
        <ele>18</ele>
        <time>2021-03-24T12:33:51Z</time>
      </trkpt>
      <trkpt lat="47.30458" lon="-1.50387">
        <ele>18</ele>
        <time>2021-03-24T12:33:52Z</time>
      </trkpt>
      <trkpt lat="47.30456" lon="-1.50385">
        <ele>18</ele>
        <time>2021-03-24T12:33:53Z</time>
      </trkpt>
      <trkpt lat="47.30454" lon="-1.50382">
        <ele>18</ele>
        <time>2021-03-24T12:33:54Z</time>
      </trkpt>
      <trkpt lat="47.30452" lon="-1.5038">
        <ele>18</ele>
        <time>2021-03-24T12:33:55Z</time>
      </trkpt>
      <trkpt lat="47.3045" lon="-1.50378">
        <ele>18</ele>
        <time>2021-03-24T12:33:56Z</time>
      </trkpt>
      <trkpt lat="47.30447" lon="-1.50377">
        <ele>18</ele>
        <time>2021-03-24T12:33:57Z</time>
      </trkpt>
      <trkpt lat="47.30445" lon="-1.50376">
        <ele>18</ele>
        <time>2021-03-24T12:33:58Z</time>
      </trkpt>
      <trkpt lat="47.30442" lon="-1.50376">
        <ele>18</ele>
        <time>2021-03-24T12:33:59Z</time>
      </trkpt>
      <trkpt lat="47.30439" lon="-1.50377">
        <ele>18</ele>
        <time>2021-03-24T12:34:00Z</time>
      </trkpt>
      <trkpt lat="47.30436" lon="-1.50378">
        <ele>18</ele>
        <time>2021-03-24T12:34:01Z</time>
      </trkpt>
      <trkpt lat="47.30433" lon="-1.5038">
        <ele>19</ele>
        <time>2021-03-24T12:34:02Z</time>
      </trkpt>
      <trkpt lat="47.30431" lon="-1.50382">
        <ele>19</ele>
        <time>2021-03-24T12:34:03Z</time>
      </trkpt>
      <trkpt lat="47.30428" lon="-1.50384">
        <ele>19</ele>
        <time>2021-03-24T12:34:04Z</time>
      </trkpt>
      <trkpt lat="47.30426" lon="-1.50385">
        <ele>19</ele>
        <time>2021-03-24T12:34:05Z</time>
      </trkpt>
      <trkpt lat="47.30423" lon="-1.50387">
        <ele>19</ele>
        <time>2021-03-24T12:34:06Z</time>
      </trkpt>
      <trkpt lat="47.30421" lon="-1.50389">
        <ele>19</ele>
        <time>2021-03-24T12:34:07Z</time>
      </trkpt>
      <trkpt lat="47.30418" lon="-1.50391">
        <ele>19</ele>
        <time>2021-03-24T12:34:08Z</time>
      </trkpt>
      <trkpt lat="47.30416" lon="-1.50393">
        <ele>19</ele>
        <time>2021-03-24T12:34:09Z</time>
      </trkpt>
      <trkpt lat="47.30413" lon="-1.50395">
        <ele>19</ele>
        <time>2021-03-24T12:34:10Z</time>
      </trkpt>
      <trkpt lat="47.30411" lon="-1.50397">
        <ele>19</ele>
        <time>2021-03-24T12:34:11Z</time>
      </trkpt>
      <trkpt lat="47.30408" lon="-1.50399">
        <ele>20</ele>
        <time>2021-03-24T12:34:12Z</time>
      </trkpt>
      <trkpt lat="47.30406" lon="-1.50401">
        <ele>20</ele>
        <time>2021-03-24T12:34:13Z</time>
      </trkpt>
      <trkpt lat="47.30403" lon="-1.50404">
        <ele>20</ele>
        <time>2021-03-24T12:34:14Z</time>
      </trkpt>
      <trkpt lat="47.30401" lon="-1.50405">
        <ele>20</ele>
        <time>2021-03-24T12:34:15Z</time>
      </trkpt>
      <trkpt lat="47.30399" lon="-1.50407">
        <ele>20</ele>
        <time>2021-03-24T12:34:16Z</time>
      </trkpt>
      <trkpt lat="47.30396" lon="-1.50409">
        <ele>20</ele>
        <time>2021-03-24T12:34:17Z</time>
      </trkpt>
      <trkpt lat="47.30394" lon="-1.50411">
        <ele>20</ele>
        <time>2021-03-24T12:34:18Z</time>
      </trkpt>
      <trkpt lat="47.30392" lon="-1.50413">
        <ele>20</ele>
        <time>2021-03-24T12:34:19Z</time>
      </trkpt>
      <trkpt lat="47.30389" lon="-1.50415">
        <ele>20</ele>
        <time>2021-03-24T12:34:20Z</time>
      </trkpt>
      <trkpt lat="47.30387" lon="-1.50416">
        <ele>20</ele>
        <time>2021-03-24T12:34:21Z</time>
      </trkpt>
      <trkpt lat="47.30385" lon="-1.50418">
        <ele>20</ele>
        <time>2021-03-24T12:34:22Z</time>
      </trkpt>
      <trkpt lat="47.30382" lon="-1.5042">
        <ele>20</ele>
        <time>2021-03-24T12:34:23Z</time>
      </trkpt>
      <trkpt lat="47.3038" lon="-1.50422">
        <ele>20</ele>
        <time>2021-03-24T12:34:24Z</time>
      </trkpt>
      <trkpt lat="47.30378" lon="-1.50424">
        <ele>20</ele>
        <time>2021-03-24T12:34:25Z</time>
      </trkpt>
      <trkpt lat="47.30375" lon="-1.50425">
        <ele>20</ele>
        <time>2021-03-24T12:34:26Z</time>
      </trkpt>
      <trkpt lat="47.30373" lon="-1.50427">
        <ele>20</ele>
        <time>2021-03-24T12:34:27Z</time>
      </trkpt>
      <trkpt lat="47.30371" lon="-1.50429">
        <ele>20</ele>
        <time>2021-03-24T12:34:28Z</time>
      </trkpt>
      <trkpt lat="47.30369" lon="-1.50431">
        <ele>20</ele>
        <time>2021-03-24T12:34:29Z</time>
      </trkpt>
      <trkpt lat="47.30366" lon="-1.50433">
        <ele>20</ele>
        <time>2021-03-24T12:34:30Z</time>
      </trkpt>
      <trkpt lat="47.30364" lon="-1.50435">
        <ele>20</ele>
        <time>2021-03-24T12:34:31Z</time>
      </trkpt>
      <trkpt lat="47.30362" lon="-1.50437">
        <ele>20</ele>
        <time>2021-03-24T12:34:32Z</time>
      </trkpt>
      <trkpt lat="47.30359" lon="-1.50439">
        <ele>20</ele>
        <time>2021-03-24T12:34:33Z</time>
      </trkpt>
      <trkpt lat="47.30357" lon="-1.50441">
        <ele>20</ele>
        <time>2021-03-24T12:34:34Z</time>
      </trkpt>
      <trkpt lat="47.30355" lon="-1.50444">
        <ele>20</ele>
        <time>2021-03-24T12:34:35Z</time>
      </trkpt>
      <trkpt lat="47.30353" lon="-1.50447">
        <ele>20</ele>
        <time>2021-03-24T12:34:36Z</time>
      </trkpt>
      <trkpt lat="47.30353" lon="-1.50452">
        <ele>20</ele>
        <time>2021-03-24T12:34:37Z</time>
      </trkpt>
      <trkpt lat="47.30353" lon="-1.50456">
        <ele>20</ele>
        <time>2021-03-24T12:34:38Z</time>
      </trkpt>
      <trkpt lat="47.30355" lon="-1.5046">
        <ele>20</ele>
        <time>2021-03-24T12:34:39Z</time>
      </trkpt>
      <trkpt lat="47.30356" lon="-1.50465">
        <ele>20</ele>
        <time>2021-03-24T12:34:40Z</time>
      </trkpt>
      <trkpt lat="47.30357" lon="-1.50469">
        <ele>20</ele>
        <time>2021-03-24T12:34:41Z</time>
      </trkpt>
      <trkpt lat="47.30358" lon="-1.50474">
        <ele>20</ele>
        <time>2021-03-24T12:34:42Z</time>
      </trkpt>
      <trkpt lat="47.3036" lon="-1.50478">
        <ele>20</ele>
        <time>2021-03-24T12:34:43Z</time>
      </trkpt>
      <trkpt lat="47.30361" lon="-1.50483">
        <ele>20</ele>
        <time>2021-03-24T12:34:44Z</time>
      </trkpt>
      <trkpt lat="47.30362" lon="-1.50487">
        <ele>20</ele>
        <time>2021-03-24T12:34:45Z</time>
      </trkpt>
      <trkpt lat="47.30363" lon="-1.50492">
        <ele>20</ele>
        <time>2021-03-24T12:34:46Z</time>
      </trkpt>
      <trkpt lat="47.30363" lon="-1.50496">
        <ele>20</ele>
        <time>2021-03-24T12:34:47Z</time>
      </trkpt>
      <trkpt lat="47.30364" lon="-1.50501">
        <ele>20</ele>
        <time>2021-03-24T12:34:48Z</time>
      </trkpt>
      <trkpt lat="47.30364" lon="-1.50505">
        <ele>20</ele>
        <time>2021-03-24T12:34:49Z</time>
      </trkpt>
      <trkpt lat="47.30364" lon="-1.5051">
        <ele>20</ele>
        <time>2021-03-24T12:34:50Z</time>
      </trkpt>
      <trkpt lat="47.30365" lon="-1.50514">
        <ele>20</ele>
        <time>2021-03-24T12:34:51Z</time>
      </trkpt>
      <trkpt lat="47.30365" lon="-1.50519">
        <ele>20</ele>
        <time>2021-03-24T12:34:52Z</time>
      </trkpt>
      <trkpt lat="47.30366" lon="-1.50523">
        <ele>19</ele>
        <time>2021-03-24T12:34:53Z</time>
      </trkpt>
      <trkpt lat="47.30366" lon="-1.50527">
        <ele>19</ele>
        <time>2021-03-24T12:34:54Z</time>
      </trkpt>
      <trkpt lat="47.30367" lon="-1.50532">
        <ele>19</ele>
        <time>2021-03-24T12:34:55Z</time>
      </trkpt>
      <trkpt lat="47.30367" lon="-1.50536">
        <ele>19</ele>
        <time>2021-03-24T12:34:56Z</time>
      </trkpt>
      <trkpt lat="47.30368" lon="-1.5054">
        <ele>19</ele>
        <time>2021-03-24T12:34:57Z</time>
      </trkpt>
      <trkpt lat="47.30368" lon="-1.50544">
        <ele>19</ele>
        <time>2021-03-24T12:34:58Z</time>
      </trkpt>
      <trkpt lat="47.30368" lon="-1.50548">
        <ele>19</ele>
        <time>2021-03-24T12:34:59Z</time>
      </trkpt>
      <trkpt lat="47.30368" lon="-1.50552">
        <ele>19</ele>
        <time>2021-03-24T12:35:00Z</time>
      </trkpt>
      <trkpt lat="47.30368" lon="-1.50555">
        <ele>19</ele>
        <time>2021-03-24T12:35:01Z</time>
      </trkpt>
      <trkpt lat="47.30368" lon="-1.50559">
        <ele>19</ele>
        <time>2021-03-24T12:35:02Z</time>
      </trkpt>
      <trkpt lat="47.30369" lon="-1.50563">
        <ele>19</ele>
        <time>2021-03-24T12:35:03Z</time>
      </trkpt>
      <trkpt lat="47.30369" lon="-1.50567">
        <ele>19</ele>
        <time>2021-03-24T12:35:04Z</time>
      </trkpt>
      <trkpt lat="47.30369" lon="-1.50571">
        <ele>19</ele>
        <time>2021-03-24T12:35:05Z</time>
      </trkpt>
      <trkpt lat="47.30369" lon="-1.50575">
        <ele>19</ele>
        <time>2021-03-24T12:35:06Z</time>
      </trkpt>
      <trkpt lat="47.30369" lon="-1.5058">
        <ele>19</ele>
        <time>2021-03-24T12:35:07Z</time>
      </trkpt>
      <trkpt lat="47.30368" lon="-1.50584">
        <ele>19</ele>
        <time>2021-03-24T12:35:08Z</time>
      </trkpt>
      <trkpt lat="47.30368" lon="-1.50588">
        <ele>19</ele>
        <time>2021-03-24T12:35:09Z</time>
      </trkpt>
      <trkpt lat="47.30368" lon="-1.50593">
        <ele>19</ele>
        <time>2021-03-24T12:35:10Z</time>
      </trkpt>
      <trkpt lat="47.30367" lon="-1.50597">
        <ele>19</ele>
        <time>2021-03-24T12:35:11Z</time>
      </trkpt>
      <trkpt lat="47.30367" lon="-1.50601">
        <ele>20</ele>
        <time>2021-03-24T12:35:12Z</time>
      </trkpt>
      <trkpt lat="47.30366" lon="-1.50605">
        <ele>20</ele>
        <time>2021-03-24T12:35:13Z</time>
      </trkpt>
      <trkpt lat="47.30365" lon="-1.50609">
        <ele>20</ele>
        <time>2021-03-24T12:35:14Z</time>
      </trkpt>
      <trkpt lat="47.30364" lon="-1.50613">
        <ele>20</ele>
        <time>2021-03-24T12:35:15Z</time>
      </trkpt>
      <trkpt lat="47.30363" lon="-1.50617">
        <ele>20</ele>
        <time>2021-03-24T12:35:16Z</time>
      </trkpt>
      <trkpt lat="47.30362" lon="-1.5062">
        <ele>20</ele>
        <time>2021-03-24T12:35:17Z</time>
      </trkpt>
      <trkpt lat="47.30361" lon="-1.50624">
        <ele>20</ele>
        <time>2021-03-24T12:35:18Z</time>
      </trkpt>
      <trkpt lat="47.3036" lon="-1.50628">
        <ele>20</ele>
        <time>2021-03-24T12:35:19Z</time>
      </trkpt>
      <trkpt lat="47.30359" lon="-1.50632">
        <ele>20</ele>
        <time>2021-03-24T12:35:20Z</time>
      </trkpt>
      <trkpt lat="47.30358" lon="-1.50636">
        <ele>20</ele>
        <time>2021-03-24T12:35:21Z</time>
      </trkpt>
      <trkpt lat="47.30357" lon="-1.5064">
        <ele>20</ele>
        <time>2021-03-24T12:35:22Z</time>
      </trkpt>
      <trkpt lat="47.30355" lon="-1.50644">
        <ele>20</ele>
        <time>2021-03-24T12:35:23Z</time>
      </trkpt>
      <trkpt lat="47.30354" lon="-1.50648">
        <ele>20</ele>
        <time>2021-03-24T12:35:24Z</time>
      </trkpt>
      <trkpt lat="47.30352" lon="-1.50652">
        <ele>20</ele>
        <time>2021-03-24T12:35:25Z</time>
      </trkpt>
      <trkpt lat="47.30351" lon="-1.50656">
        <ele>20</ele>
        <time>2021-03-24T12:35:26Z</time>
      </trkpt>
      <trkpt lat="47.3035" lon="-1.50659">
        <ele>20</ele>
        <time>2021-03-24T12:35:27Z</time>
      </trkpt>
      <trkpt lat="47.30348" lon="-1.50663">
        <ele>20</ele>
        <time>2021-03-24T12:35:28Z</time>
      </trkpt>
      <trkpt lat="47.30346" lon="-1.50667">
        <ele>20</ele>
        <time>2021-03-24T12:35:29Z</time>
      </trkpt>
      <trkpt lat="47.30345" lon="-1.50671">
        <ele>20</ele>
        <time>2021-03-24T12:35:30Z</time>
      </trkpt>
      <trkpt lat="47.30343" lon="-1.50674">
        <ele>20</ele>
        <time>2021-03-24T12:35:31Z</time>
      </trkpt>
      <trkpt lat="47.30341" lon="-1.50678">
        <ele>20</ele>
        <time>2021-03-24T12:35:32Z</time>
      </trkpt>
      <trkpt lat="47.3034" lon="-1.50682">
        <ele>20</ele>
        <time>2021-03-24T12:35:33Z</time>
      </trkpt>
      <trkpt lat="47.30338" lon="-1.50685">
        <ele>20</ele>
        <time>2021-03-24T12:35:34Z</time>
      </trkpt>
      <trkpt lat="47.30336" lon="-1.50688">
        <ele>20</ele>
        <time>2021-03-24T12:35:35Z</time>
      </trkpt>
      <trkpt lat="47.30335" lon="-1.50692">
        <ele>20</ele>
        <time>2021-03-24T12:35:36Z</time>
      </trkpt>
      <trkpt lat="47.30333" lon="-1.50695">
        <ele>20</ele>
        <time>2021-03-24T12:35:37Z</time>
      </trkpt>
      <trkpt lat="47.30331" lon="-1.50698">
        <ele>20</ele>
        <time>2021-03-24T12:35:38Z</time>
      </trkpt>
      <trkpt lat="47.30329" lon="-1.50702">
        <ele>20</ele>
        <time>2021-03-24T12:35:39Z</time>
      </trkpt>
      <trkpt lat="47.30327" lon="-1.50705">
        <ele>20</ele>
        <time>2021-03-24T12:35:40Z</time>
      </trkpt>
      <trkpt lat="47.30325" lon="-1.50708">
        <ele>20</ele>
        <time>2021-03-24T12:35:41Z</time>
      </trkpt>
      <trkpt lat="47.30323" lon="-1.50711">
        <ele>20</ele>
        <time>2021-03-24T12:35:42Z</time>
      </trkpt>
      <trkpt lat="47.30321" lon="-1.50714">
        <ele>20</ele>
        <time>2021-03-24T12:35:43Z</time>
      </trkpt>
      <trkpt lat="47.30319" lon="-1.50718">
        <ele>20</ele>
        <time>2021-03-24T12:35:44Z</time>
      </trkpt>
      <trkpt lat="47.30317" lon="-1.5072">
        <ele>20</ele>
        <time>2021-03-24T12:35:45Z</time>
      </trkpt>
      <trkpt lat="47.30315" lon="-1.50723">
        <ele>20</ele>
        <time>2021-03-24T12:35:46Z</time>
      </trkpt>
      <trkpt lat="47.30313" lon="-1.50726">
        <ele>20</ele>
        <time>2021-03-24T12:35:47Z</time>
      </trkpt>
      <trkpt lat="47.30311" lon="-1.50728">
        <ele>20</ele>
        <time>2021-03-24T12:35:48Z</time>
      </trkpt>
      <trkpt lat="47.30308" lon="-1.50731">
        <ele>20</ele>
        <time>2021-03-24T12:35:49Z</time>
      </trkpt>
      <trkpt lat="47.30306" lon="-1.50734">
        <ele>20</ele>
        <time>2021-03-24T12:35:50Z</time>
      </trkpt>
      <trkpt lat="47.30304" lon="-1.50736">
        <ele>20</ele>
        <time>2021-03-24T12:35:51Z</time>
      </trkpt>
      <trkpt lat="47.30302" lon="-1.50739">
        <ele>20</ele>
        <time>2021-03-24T12:35:52Z</time>
      </trkpt>
      <trkpt lat="47.303" lon="-1.50742">
        <ele>20</ele>
        <time>2021-03-24T12:35:53Z</time>
      </trkpt>
      <trkpt lat="47.30298" lon="-1.50744">
        <ele>20</ele>
        <time>2021-03-24T12:35:54Z</time>
      </trkpt>
      <trkpt lat="47.30296" lon="-1.50747">
        <ele>20</ele>
        <time>2021-03-24T12:35:55Z</time>
      </trkpt>
      <trkpt lat="47.30293" lon="-1.5075">
        <ele>20</ele>
        <time>2021-03-24T12:35:56Z</time>
      </trkpt>
      <trkpt lat="47.30291" lon="-1.50753">
        <ele>21</ele>
        <time>2021-03-24T12:35:57Z</time>
      </trkpt>
      <trkpt lat="47.30289" lon="-1.50755">
        <ele>21</ele>
        <time>2021-03-24T12:35:58Z</time>
      </trkpt>
      <trkpt lat="47.30287" lon="-1.50758">
        <ele>21</ele>
        <time>2021-03-24T12:35:59Z</time>
      </trkpt>
      <trkpt lat="47.30284" lon="-1.5076">
        <ele>21</ele>
        <time>2021-03-24T12:36:00Z</time>
      </trkpt>
      <trkpt lat="47.30282" lon="-1.50762">
        <ele>21</ele>
        <time>2021-03-24T12:36:01Z</time>
      </trkpt>
      <trkpt lat="47.30279" lon="-1.50765">
        <ele>21</ele>
        <time>2021-03-24T12:36:02Z</time>
      </trkpt>
      <trkpt lat="47.30277" lon="-1.50766">
        <ele>21</ele>
        <time>2021-03-24T12:36:03Z</time>
      </trkpt>
      <trkpt lat="47.30274" lon="-1.50768">
        <ele>21</ele>
        <time>2021-03-24T12:36:04Z</time>
      </trkpt>
      <trkpt lat="47.30272" lon="-1.5077">
        <ele>21</ele>
        <time>2021-03-24T12:36:05Z</time>
      </trkpt>
      <trkpt lat="47.30269" lon="-1.50772">
        <ele>21</ele>
        <time>2021-03-24T12:36:06Z</time>
      </trkpt>
      <trkpt lat="47.30266" lon="-1.50774">
        <ele>22</ele>
        <time>2021-03-24T12:36:07Z</time>
      </trkpt>
      <trkpt lat="47.30264" lon="-1.50776">
        <ele>22</ele>
        <time>2021-03-24T12:36:08Z</time>
      </trkpt>
      <trkpt lat="47.30261" lon="-1.50778">
        <ele>22</ele>
        <time>2021-03-24T12:36:09Z</time>
      </trkpt>
      <trkpt lat="47.30258" lon="-1.5078">
        <ele>22</ele>
        <time>2021-03-24T12:36:10Z</time>
      </trkpt>
      <trkpt lat="47.30256" lon="-1.50782">
        <ele>22</ele>
        <time>2021-03-24T12:36:11Z</time>
      </trkpt>
      <trkpt lat="47.30254" lon="-1.50785">
        <ele>22</ele>
        <time>2021-03-24T12:36:12Z</time>
      </trkpt>
      <trkpt lat="47.30252" lon="-1.50787">
        <ele>22</ele>
        <time>2021-03-24T12:36:13Z</time>
      </trkpt>
      <trkpt lat="47.3025" lon="-1.50789">
        <ele>22</ele>
        <time>2021-03-24T12:36:14Z</time>
      </trkpt>
      <trkpt lat="47.30248" lon="-1.50791">
        <ele>22</ele>
        <time>2021-03-24T12:36:15Z</time>
      </trkpt>
      <trkpt lat="47.30245" lon="-1.50793">
        <ele>22</ele>
        <time>2021-03-24T12:36:16Z</time>
      </trkpt>
      <trkpt lat="47.30243" lon="-1.50793">
        <ele>22</ele>
        <time>2021-03-24T12:36:17Z</time>
      </trkpt>
      <trkpt lat="47.3024" lon="-1.50794">
        <ele>22</ele>
        <time>2021-03-24T12:36:18Z</time>
      </trkpt>
      <trkpt lat="47.30237" lon="-1.50795">
        <ele>22</ele>
        <time>2021-03-24T12:36:19Z</time>
      </trkpt>
      <trkpt lat="47.30235" lon="-1.50796">
        <ele>22</ele>
        <time>2021-03-24T12:36:20Z</time>
      </trkpt>
      <trkpt lat="47.30232" lon="-1.50796">
        <ele>22</ele>
        <time>2021-03-24T12:36:21Z</time>
      </trkpt>
      <trkpt lat="47.30229" lon="-1.50796">
        <ele>22</ele>
        <time>2021-03-24T12:36:22Z</time>
      </trkpt>
      <trkpt lat="47.30226" lon="-1.50796">
        <ele>22</ele>
        <time>2021-03-24T12:36:23Z</time>
      </trkpt>
      <trkpt lat="47.30223" lon="-1.50795">
        <ele>22</ele>
        <time>2021-03-24T12:36:24Z</time>
      </trkpt>
      <trkpt lat="47.30221" lon="-1.50795">
        <ele>22</ele>
        <time>2021-03-24T12:36:25Z</time>
      </trkpt>
      <trkpt lat="47.30218" lon="-1.50795">
        <ele>22</ele>
        <time>2021-03-24T12:36:26Z</time>
      </trkpt>
      <trkpt lat="47.30215" lon="-1.50795">
        <ele>22</ele>
        <time>2021-03-24T12:36:27Z</time>
      </trkpt>
      <trkpt lat="47.30212" lon="-1.50795">
        <ele>22</ele>
        <time>2021-03-24T12:36:28Z</time>
      </trkpt>
      <trkpt lat="47.30209" lon="-1.50795">
        <ele>22</ele>
        <time>2021-03-24T12:36:29Z</time>
      </trkpt>
      <trkpt lat="47.30206" lon="-1.50795">
        <ele>22</ele>
        <time>2021-03-24T12:36:30Z</time>
      </trkpt>
      <trkpt lat="47.30204" lon="-1.50795">
        <ele>22</ele>
        <time>2021-03-24T12:36:31Z</time>
      </trkpt>
      <trkpt lat="47.30201" lon="-1.50795">
        <ele>23</ele>
        <time>2021-03-24T12:36:32Z</time>
      </trkpt>
      <trkpt lat="47.30198" lon="-1.50795">
        <ele>23</ele>
        <time>2021-03-24T12:36:33Z</time>
      </trkpt>
      <trkpt lat="47.30195" lon="-1.50795">
        <ele>23</ele>
        <time>2021-03-24T12:36:34Z</time>
      </trkpt>
      <trkpt lat="47.30192" lon="-1.50796">
        <ele>23</ele>
        <time>2021-03-24T12:36:35Z</time>
      </trkpt>
      <trkpt lat="47.3019" lon="-1.50796">
        <ele>23</ele>
        <time>2021-03-24T12:36:36Z</time>
      </trkpt>
      <trkpt lat="47.30187" lon="-1.50797">
        <ele>23</ele>
        <time>2021-03-24T12:36:37Z</time>
      </trkpt>
      <trkpt lat="47.30184" lon="-1.50798">
        <ele>23</ele>
        <time>2021-03-24T12:36:38Z</time>
      </trkpt>
      <trkpt lat="47.30181" lon="-1.50798">
        <ele>23</ele>
        <time>2021-03-24T12:36:39Z</time>
      </trkpt>
      <trkpt lat="47.30178" lon="-1.50798">
        <ele>23</ele>
        <time>2021-03-24T12:36:40Z</time>
      </trkpt>
      <trkpt lat="47.30175" lon="-1.50798">
        <ele>23</ele>
        <time>2021-03-24T12:36:41Z</time>
      </trkpt>
      <trkpt lat="47.30172" lon="-1.50798">
        <ele>24</ele>
        <time>2021-03-24T12:36:42Z</time>
      </trkpt>
      <trkpt lat="47.30169" lon="-1.50797">
        <ele>24</ele>
        <time>2021-03-24T12:36:43Z</time>
      </trkpt>
      <trkpt lat="47.30166" lon="-1.50797">
        <ele>24</ele>
        <time>2021-03-24T12:36:44Z</time>
      </trkpt>
      <trkpt lat="47.30163" lon="-1.50797">
        <ele>24</ele>
        <time>2021-03-24T12:36:45Z</time>
      </trkpt>
      <trkpt lat="47.3016" lon="-1.50797">
        <ele>24</ele>
        <time>2021-03-24T12:36:46Z</time>
      </trkpt>
      <trkpt lat="47.30157" lon="-1.50797">
        <ele>24</ele>
        <time>2021-03-24T12:36:47Z</time>
      </trkpt>
      <trkpt lat="47.30154" lon="-1.50796">
        <ele>24</ele>
        <time>2021-03-24T12:36:48Z</time>
      </trkpt>
      <trkpt lat="47.30151" lon="-1.50796">
        <ele>24</ele>
        <time>2021-03-24T12:36:49Z</time>
      </trkpt>
      <trkpt lat="47.30148" lon="-1.50797">
        <ele>24</ele>
        <time>2021-03-24T12:36:50Z</time>
      </trkpt>
      <trkpt lat="47.30145" lon="-1.50797">
        <ele>24</ele>
        <time>2021-03-24T12:36:51Z</time>
      </trkpt>
      <trkpt lat="47.30142" lon="-1.50797">
        <ele>24</ele>
        <time>2021-03-24T12:36:52Z</time>
      </trkpt>
      <trkpt lat="47.3014" lon="-1.50797">
        <ele>24</ele>
        <time>2021-03-24T12:36:53Z</time>
      </trkpt>
      <trkpt lat="47.30137" lon="-1.50798">
        <ele>24</ele>
        <time>2021-03-24T12:36:54Z</time>
      </trkpt>
      <trkpt lat="47.30134" lon="-1.50798">
        <ele>24</ele>
        <time>2021-03-24T12:36:55Z</time>
      </trkpt>
      <trkpt lat="47.30132" lon="-1.50797">
        <ele>24</ele>
        <time>2021-03-24T12:36:56Z</time>
      </trkpt>
      <trkpt lat="47.30129" lon="-1.50797">
        <ele>24</ele>
        <time>2021-03-24T12:36:57Z</time>
      </trkpt>
      <trkpt lat="47.30127" lon="-1.50797">
        <ele>24</ele>
        <time>2021-03-24T12:36:58Z</time>
      </trkpt>
      <trkpt lat="47.30125" lon="-1.50797">
        <ele>24</ele>
        <time>2021-03-24T12:36:59Z</time>
      </trkpt>
      <trkpt lat="47.30122" lon="-1.50796">
        <ele>24</ele>
        <time>2021-03-24T12:37:00Z</time>
      </trkpt>
      <trkpt lat="47.30119" lon="-1.50796">
        <ele>24</ele>
        <time>2021-03-24T12:37:01Z</time>
      </trkpt>
      <trkpt lat="47.30117" lon="-1.50796">
        <ele>24</ele>
        <time>2021-03-24T12:37:02Z</time>
      </trkpt>
      <trkpt lat="47.30115" lon="-1.50796">
        <ele>24</ele>
        <time>2021-03-24T12:37:03Z</time>
      </trkpt>
      <trkpt lat="47.30112" lon="-1.50797">
        <ele>24</ele>
        <time>2021-03-24T12:37:04Z</time>
      </trkpt>
      <trkpt lat="47.3011" lon="-1.50797">
        <ele>24</ele>
        <time>2021-03-24T12:37:05Z</time>
      </trkpt>
      <trkpt lat="47.30107" lon="-1.50797">
        <ele>24</ele>
        <time>2021-03-24T12:37:06Z</time>
      </trkpt>
      <trkpt lat="47.30105" lon="-1.50798">
        <ele>25</ele>
        <time>2021-03-24T12:37:07Z</time>
      </trkpt>
      <trkpt lat="47.30102" lon="-1.50798">
        <ele>25</ele>
        <time>2021-03-24T12:37:08Z</time>
      </trkpt>
      <trkpt lat="47.30099" lon="-1.50798">
        <ele>25</ele>
        <time>2021-03-24T12:37:09Z</time>
      </trkpt>
      <trkpt lat="47.30097" lon="-1.50798">
        <ele>25</ele>
        <time>2021-03-24T12:37:10Z</time>
      </trkpt>
      <trkpt lat="47.30094" lon="-1.50799">
        <ele>25</ele>
        <time>2021-03-24T12:37:11Z</time>
      </trkpt>
      <trkpt lat="47.30091" lon="-1.50799">
        <ele>25</ele>
        <time>2021-03-24T12:37:12Z</time>
      </trkpt>
      <trkpt lat="47.30089" lon="-1.50799">
        <ele>25</ele>
        <time>2021-03-24T12:37:13Z</time>
      </trkpt>
      <trkpt lat="47.30086" lon="-1.50799">
        <ele>25</ele>
        <time>2021-03-24T12:37:14Z</time>
      </trkpt>
      <trkpt lat="47.30083" lon="-1.508">
        <ele>25</ele>
        <time>2021-03-24T12:37:15Z</time>
      </trkpt>
      <trkpt lat="47.3008" lon="-1.508">
        <ele>25</ele>
        <time>2021-03-24T12:37:16Z</time>
      </trkpt>
      <trkpt lat="47.30077" lon="-1.50801">
        <ele>26</ele>
        <time>2021-03-24T12:37:17Z</time>
      </trkpt>
      <trkpt lat="47.30074" lon="-1.50801">
        <ele>26</ele>
        <time>2021-03-24T12:37:18Z</time>
      </trkpt>
      <trkpt lat="47.30071" lon="-1.50802">
        <ele>26</ele>
        <time>2021-03-24T12:37:19Z</time>
      </trkpt>
      <trkpt lat="47.30068" lon="-1.50803">
        <ele>26</ele>
        <time>2021-03-24T12:37:20Z</time>
      </trkpt>
      <trkpt lat="47.30066" lon="-1.50806">
        <ele>26</ele>
        <time>2021-03-24T12:37:21Z</time>
      </trkpt>
      <trkpt lat="47.30064" lon="-1.50808">
        <ele>26</ele>
        <time>2021-03-24T12:37:22Z</time>
      </trkpt>
      <trkpt lat="47.30064" lon="-1.50812">
        <ele>26</ele>
        <time>2021-03-24T12:37:23Z</time>
      </trkpt>
      <trkpt lat="47.30063" lon="-1.50816">
        <ele>26</ele>
        <time>2021-03-24T12:37:24Z</time>
      </trkpt>
      <trkpt lat="47.30063" lon="-1.50821">
        <ele>26</ele>
        <time>2021-03-24T12:37:25Z</time>
      </trkpt>
      <trkpt lat="47.30062" lon="-1.50825">
        <ele>26</ele>
        <time>2021-03-24T12:37:26Z</time>
      </trkpt>
      <trkpt lat="47.30062" lon="-1.5083">
        <ele>26</ele>
        <time>2021-03-24T12:37:27Z</time>
      </trkpt>
      <trkpt lat="47.30063" lon="-1.50835">
        <ele>26</ele>
        <time>2021-03-24T12:37:28Z</time>
      </trkpt>
      <trkpt lat="47.30063" lon="-1.5084">
        <ele>26</ele>
        <time>2021-03-24T12:37:29Z</time>
      </trkpt>
      <trkpt lat="47.30063" lon="-1.50844">
        <ele>26</ele>
        <time>2021-03-24T12:37:30Z</time>
      </trkpt>
      <trkpt lat="47.30063" lon="-1.50849">
        <ele>26</ele>
        <time>2021-03-24T12:37:31Z</time>
      </trkpt>
      <trkpt lat="47.30063" lon="-1.50854">
        <ele>26</ele>
        <time>2021-03-24T12:37:32Z</time>
      </trkpt>
      <trkpt lat="47.30063" lon="-1.50859">
        <ele>26</ele>
        <time>2021-03-24T12:37:33Z</time>
      </trkpt>
      <trkpt lat="47.30063" lon="-1.50863">
        <ele>26</ele>
        <time>2021-03-24T12:37:34Z</time>
      </trkpt>
      <trkpt lat="47.30064" lon="-1.50868">
        <ele>26</ele>
        <time>2021-03-24T12:37:35Z</time>
      </trkpt>
      <trkpt lat="47.30064" lon="-1.50872">
        <ele>26</ele>
        <time>2021-03-24T12:37:36Z</time>
      </trkpt>
      <trkpt lat="47.30064" lon="-1.50876">
        <ele>26</ele>
        <time>2021-03-24T12:37:37Z</time>
      </trkpt>
      <trkpt lat="47.30064" lon="-1.50881">
        <ele>26</ele>
        <time>2021-03-24T12:37:38Z</time>
      </trkpt>
      <trkpt lat="47.30064" lon="-1.50885">
        <ele>26</ele>
        <time>2021-03-24T12:37:39Z</time>
      </trkpt>
      <trkpt lat="47.30064" lon="-1.5089">
        <ele>26</ele>
        <time>2021-03-24T12:37:40Z</time>
      </trkpt>
      <trkpt lat="47.30064" lon="-1.50894">
        <ele>26</ele>
        <time>2021-03-24T12:37:41Z</time>
      </trkpt>
      <trkpt lat="47.30063" lon="-1.50898">
        <ele>26</ele>
        <time>2021-03-24T12:37:42Z</time>
      </trkpt>
      <trkpt lat="47.30063" lon="-1.50902">
        <ele>26</ele>
        <time>2021-03-24T12:37:43Z</time>
      </trkpt>
      <trkpt lat="47.30063" lon="-1.50907">
        <ele>26</ele>
        <time>2021-03-24T12:37:44Z</time>
      </trkpt>
      <trkpt lat="47.30063" lon="-1.50911">
        <ele>26</ele>
        <time>2021-03-24T12:37:45Z</time>
      </trkpt>
      <trkpt lat="47.30063" lon="-1.50915">
        <ele>26</ele>
        <time>2021-03-24T12:37:46Z</time>
      </trkpt>
      <trkpt lat="47.30062" lon="-1.50919">
        <ele>26</ele>
        <time>2021-03-24T12:37:47Z</time>
      </trkpt>
      <trkpt lat="47.30062" lon="-1.50923">
        <ele>26</ele>
        <time>2021-03-24T12:37:48Z</time>
      </trkpt>
      <trkpt lat="47.30062" lon="-1.50928">
        <ele>26</ele>
        <time>2021-03-24T12:37:49Z</time>
      </trkpt>
      <trkpt lat="47.30062" lon="-1.50932">
        <ele>26</ele>
        <time>2021-03-24T12:37:50Z</time>
      </trkpt>
      <trkpt lat="47.30061" lon="-1.50936">
        <ele>26</ele>
        <time>2021-03-24T12:37:51Z</time>
      </trkpt>
      <trkpt lat="47.30061" lon="-1.5094">
        <ele>26</ele>
        <time>2021-03-24T12:37:52Z</time>
      </trkpt>
      <trkpt lat="47.30061" lon="-1.50945">
        <ele>26</ele>
        <time>2021-03-24T12:37:53Z</time>
      </trkpt>
      <trkpt lat="47.30061" lon="-1.50949">
        <ele>26</ele>
        <time>2021-03-24T12:37:54Z</time>
      </trkpt>
      <trkpt lat="47.30061" lon="-1.50953">
        <ele>26</ele>
        <time>2021-03-24T12:37:55Z</time>
      </trkpt>
      <trkpt lat="47.30061" lon="-1.50958">
        <ele>26</ele>
        <time>2021-03-24T12:37:56Z</time>
      </trkpt>
      <trkpt lat="47.30061" lon="-1.50962">
        <ele>26</ele>
        <time>2021-03-24T12:37:57Z</time>
      </trkpt>
      <trkpt lat="47.30061" lon="-1.50967">
        <ele>25</ele>
        <time>2021-03-24T12:37:58Z</time>
      </trkpt>
      <trkpt lat="47.30061" lon="-1.50971">
        <ele>25</ele>
        <time>2021-03-24T12:37:59Z</time>
      </trkpt>
      <trkpt lat="47.30061" lon="-1.50976">
        <ele>25</ele>
        <time>2021-03-24T12:38:00Z</time>
      </trkpt>
      <trkpt lat="47.30061" lon="-1.5098">
        <ele>25</ele>
        <time>2021-03-24T12:38:01Z</time>
      </trkpt>
      <trkpt lat="47.30061" lon="-1.50984">
        <ele>25</ele>
        <time>2021-03-24T12:38:02Z</time>
      </trkpt>
      <trkpt lat="47.30061" lon="-1.50989">
        <ele>25</ele>
        <time>2021-03-24T12:38:03Z</time>
      </trkpt>
      <trkpt lat="47.30061" lon="-1.50993">
        <ele>25</ele>
        <time>2021-03-24T12:38:04Z</time>
      </trkpt>
      <trkpt lat="47.30061" lon="-1.50998">
        <ele>25</ele>
        <time>2021-03-24T12:38:05Z</time>
      </trkpt>
      <trkpt lat="47.30061" lon="-1.51002">
        <ele>25</ele>
        <time>2021-03-24T12:38:06Z</time>
      </trkpt>
      <trkpt lat="47.30061" lon="-1.51007">
        <ele>25</ele>
        <time>2021-03-24T12:38:07Z</time>
      </trkpt>
      <trkpt lat="47.30061" lon="-1.51011">
        <ele>24</ele>
        <time>2021-03-24T12:38:08Z</time>
      </trkpt>
      <trkpt lat="47.30061" lon="-1.51016">
        <ele>24</ele>
        <time>2021-03-24T12:38:09Z</time>
      </trkpt>
      <trkpt lat="47.30061" lon="-1.5102">
        <ele>24</ele>
        <time>2021-03-24T12:38:10Z</time>
      </trkpt>
      <trkpt lat="47.30061" lon="-1.51025">
        <ele>24</ele>
        <time>2021-03-24T12:38:11Z</time>
      </trkpt>
      <trkpt lat="47.30061" lon="-1.5103">
        <ele>24</ele>
        <time>2021-03-24T12:38:12Z</time>
      </trkpt>
      <trkpt lat="47.30061" lon="-1.51035">
        <ele>23</ele>
        <time>2021-03-24T12:38:13Z</time>
      </trkpt>
      <trkpt lat="47.30062" lon="-1.51039">
        <ele>23</ele>
        <time>2021-03-24T12:38:14Z</time>
      </trkpt>
      <trkpt lat="47.30062" lon="-1.51044">
        <ele>23</ele>
        <time>2021-03-24T12:38:15Z</time>
      </trkpt>
      <trkpt lat="47.30062" lon="-1.51048">
        <ele>23</ele>
        <time>2021-03-24T12:38:16Z</time>
      </trkpt>
      <trkpt lat="47.30062" lon="-1.51052">
        <ele>23</ele>
        <time>2021-03-24T12:38:17Z</time>
      </trkpt>
      <trkpt lat="47.30063" lon="-1.51057">
        <ele>23</ele>
        <time>2021-03-24T12:38:18Z</time>
      </trkpt>
      <trkpt lat="47.30064" lon="-1.5106">
        <ele>23</ele>
        <time>2021-03-24T12:38:19Z</time>
      </trkpt>
      <trkpt lat="47.30065" lon="-1.51064">
        <ele>23</ele>
        <time>2021-03-24T12:38:20Z</time>
      </trkpt>
      <trkpt lat="47.30067" lon="-1.51067">
        <ele>23</ele>
        <time>2021-03-24T12:38:21Z</time>
      </trkpt>
      <trkpt lat="47.30069" lon="-1.5107">
        <ele>23</ele>
        <time>2021-03-24T12:38:22Z</time>
      </trkpt>
      <trkpt lat="47.30071" lon="-1.51072">
        <ele>22</ele>
        <time>2021-03-24T12:38:23Z</time>
      </trkpt>
      <trkpt lat="47.30073" lon="-1.51075">
        <ele>22</ele>
        <time>2021-03-24T12:38:24Z</time>
      </trkpt>
      <trkpt lat="47.30076" lon="-1.51077">
        <ele>22</ele>
        <time>2021-03-24T12:38:25Z</time>
      </trkpt>
      <trkpt lat="47.30078" lon="-1.51079">
        <ele>22</ele>
        <time>2021-03-24T12:38:26Z</time>
      </trkpt>
      <trkpt lat="47.30081" lon="-1.5108">
        <ele>22</ele>
        <time>2021-03-24T12:38:27Z</time>
      </trkpt>
      <trkpt lat="47.30084" lon="-1.51082">
        <ele>22</ele>
        <time>2021-03-24T12:38:28Z</time>
      </trkpt>
      <trkpt lat="47.30087" lon="-1.51083">
        <ele>22</ele>
        <time>2021-03-24T12:38:29Z</time>
      </trkpt>
      <trkpt lat="47.3009" lon="-1.51084">
        <ele>22</ele>
        <time>2021-03-24T12:38:30Z</time>
      </trkpt>
      <trkpt lat="47.30093" lon="-1.51085">
        <ele>22</ele>
        <time>2021-03-24T12:38:31Z</time>
      </trkpt>
      <trkpt lat="47.30096" lon="-1.51087">
        <ele>22</ele>
        <time>2021-03-24T12:38:32Z</time>
      </trkpt>
      <trkpt lat="47.30099" lon="-1.51088">
        <ele>21</ele>
        <time>2021-03-24T12:38:33Z</time>
      </trkpt>
      <trkpt lat="47.30102" lon="-1.5109">
        <ele>21</ele>
        <time>2021-03-24T12:38:34Z</time>
      </trkpt>
      <trkpt lat="47.30104" lon="-1.5109">
        <ele>21</ele>
        <time>2021-03-24T12:38:35Z</time>
      </trkpt>
      <trkpt lat="47.30107" lon="-1.5109">
        <ele>21</ele>
        <time>2021-03-24T12:38:36Z</time>
      </trkpt>
      <trkpt lat="47.30109" lon="-1.51088">
        <ele>21</ele>
        <time>2021-03-24T12:38:37Z</time>
      </trkpt>
      <trkpt lat="47.30112" lon="-1.51086">
        <ele>21</ele>
        <time>2021-03-24T12:38:38Z</time>
      </trkpt>
      <trkpt lat="47.30113" lon="-1.51082">
        <ele>21</ele>
        <time>2021-03-24T12:38:39Z</time>
      </trkpt>
      <trkpt lat="47.30114" lon="-1.51078">
        <ele>21</ele>
        <time>2021-03-24T12:38:40Z</time>
      </trkpt>
      <trkpt lat="47.30115" lon="-1.51073">
        <ele>21</ele>
        <time>2021-03-24T12:38:41Z</time>
      </trkpt>
      <trkpt lat="47.30115" lon="-1.51068">
        <ele>21</ele>
        <time>2021-03-24T12:38:42Z</time>
      </trkpt>
      <trkpt lat="47.30116" lon="-1.51064">
        <ele>21</ele>
        <time>2021-03-24T12:38:43Z</time>
      </trkpt>
      <trkpt lat="47.30116" lon="-1.51059">
        <ele>21</ele>
        <time>2021-03-24T12:38:44Z</time>
      </trkpt>
      <trkpt lat="47.30116" lon="-1.51054">
        <ele>21</ele>
        <time>2021-03-24T12:38:45Z</time>
      </trkpt>
      <trkpt lat="47.30117" lon="-1.51049">
        <ele>21</ele>
        <time>2021-03-24T12:38:46Z</time>
      </trkpt>
      <trkpt lat="47.30117" lon="-1.51044">
        <ele>21</ele>
        <time>2021-03-24T12:38:47Z</time>
      </trkpt>
      <trkpt lat="47.30117" lon="-1.5104">
        <ele>21</ele>
        <time>2021-03-24T12:38:48Z</time>
      </trkpt>
      <trkpt lat="47.30118" lon="-1.51035">
        <ele>21</ele>
        <time>2021-03-24T12:38:49Z</time>
      </trkpt>
      <trkpt lat="47.30118" lon="-1.51031">
        <ele>21</ele>
        <time>2021-03-24T12:38:50Z</time>
      </trkpt>
      <trkpt lat="47.30119" lon="-1.51026">
        <ele>21</ele>
        <time>2021-03-24T12:38:51Z</time>
      </trkpt>
      <trkpt lat="47.30119" lon="-1.51022">
        <ele>22</ele>
        <time>2021-03-24T12:38:52Z</time>
      </trkpt>
      <trkpt lat="47.3012" lon="-1.51018">
        <ele>22</ele>
        <time>2021-03-24T12:38:53Z</time>
      </trkpt>
      <trkpt lat="47.3012" lon="-1.51013">
        <ele>22</ele>
        <time>2021-03-24T12:38:54Z</time>
      </trkpt>
      <trkpt lat="47.30121" lon="-1.51009">
        <ele>22</ele>
        <time>2021-03-24T12:38:55Z</time>
      </trkpt>
      <trkpt lat="47.30121" lon="-1.51005">
        <ele>22</ele>
        <time>2021-03-24T12:38:56Z</time>
      </trkpt>
      <trkpt lat="47.30121" lon="-1.51">
        <ele>22</ele>
        <time>2021-03-24T12:38:57Z</time>
      </trkpt>
      <trkpt lat="47.30122" lon="-1.50996">
        <ele>22</ele>
        <time>2021-03-24T12:38:58Z</time>
      </trkpt>
      <trkpt lat="47.30122" lon="-1.50992">
        <ele>22</ele>
        <time>2021-03-24T12:38:59Z</time>
      </trkpt>
      <trkpt lat="47.30122" lon="-1.50987">
        <ele>22</ele>
        <time>2021-03-24T12:39:00Z</time>
      </trkpt>
      <trkpt lat="47.30122" lon="-1.50983">
        <ele>22</ele>
        <time>2021-03-24T12:39:01Z</time>
      </trkpt>
      <trkpt lat="47.30122" lon="-1.50979">
        <ele>22</ele>
        <time>2021-03-24T12:39:02Z</time>
      </trkpt>
      <trkpt lat="47.30123" lon="-1.50975">
        <ele>22</ele>
        <time>2021-03-24T12:39:03Z</time>
      </trkpt>
      <trkpt lat="47.30123" lon="-1.50971">
        <ele>22</ele>
        <time>2021-03-24T12:39:04Z</time>
      </trkpt>
      <trkpt lat="47.30123" lon="-1.50967">
        <ele>22</ele>
        <time>2021-03-24T12:39:05Z</time>
      </trkpt>
      <trkpt lat="47.30123" lon="-1.50963">
        <ele>22</ele>
        <time>2021-03-24T12:39:06Z</time>
      </trkpt>
      <trkpt lat="47.30123" lon="-1.5096">
        <ele>23</ele>
        <time>2021-03-24T12:39:07Z</time>
      </trkpt>
      <trkpt lat="47.30123" lon="-1.50956">
        <ele>23</ele>
        <time>2021-03-24T12:39:08Z</time>
      </trkpt>
      <trkpt lat="47.30123" lon="-1.50953">
        <ele>23</ele>
        <time>2021-03-24T12:39:09Z</time>
      </trkpt>
      <trkpt lat="47.30124" lon="-1.5095">
        <ele>23</ele>
        <time>2021-03-24T12:39:10Z</time>
      </trkpt>
      <trkpt lat="47.30124" lon="-1.50946">
        <ele>23</ele>
        <time>2021-03-24T12:39:11Z</time>
      </trkpt>
      <trkpt lat="47.30124" lon="-1.50943">
        <ele>23</ele>
        <time>2021-03-24T12:39:12Z</time>
      </trkpt>
      <trkpt lat="47.30124" lon="-1.5094">
        <ele>23</ele>
        <time>2021-03-24T12:39:13Z</time>
      </trkpt>
      <trkpt lat="47.30125" lon="-1.50936">
        <ele>23</ele>
        <time>2021-03-24T12:39:14Z</time>
      </trkpt>
      <trkpt lat="47.30125" lon="-1.50933">
        <ele>23</ele>
        <time>2021-03-24T12:39:15Z</time>
      </trkpt>
      <trkpt lat="47.30125" lon="-1.5093">
        <ele>23</ele>
        <time>2021-03-24T12:39:16Z</time>
      </trkpt>
      <trkpt lat="47.30125" lon="-1.50927">
        <ele>24</ele>
        <time>2021-03-24T12:39:17Z</time>
      </trkpt>
      <trkpt lat="47.30126" lon="-1.50924">
        <ele>24</ele>
        <time>2021-03-24T12:39:18Z</time>
      </trkpt>
      <trkpt lat="47.30126" lon="-1.50921">
        <ele>24</ele>
        <time>2021-03-24T12:39:19Z</time>
      </trkpt>
      <trkpt lat="47.30126" lon="-1.50918">
        <ele>24</ele>
        <time>2021-03-24T12:39:20Z</time>
      </trkpt>
      <trkpt lat="47.30126" lon="-1.50914">
        <ele>24</ele>
        <time>2021-03-24T12:39:21Z</time>
      </trkpt>
      <trkpt lat="47.30126" lon="-1.50911">
        <ele>24</ele>
        <time>2021-03-24T12:39:22Z</time>
      </trkpt>
      <trkpt lat="47.30125" lon="-1.50908">
        <ele>24</ele>
        <time>2021-03-24T12:39:23Z</time>
      </trkpt>
      <trkpt lat="47.30125" lon="-1.50905">
        <ele>24</ele>
        <time>2021-03-24T12:39:24Z</time>
      </trkpt>
      <trkpt lat="47.30122" lon="-1.50902">
        <ele>24</ele>
        <time>2021-03-24T12:39:25Z</time>
      </trkpt>
      <trkpt lat="47.3012" lon="-1.50899">
        <ele>24</ele>
        <time>2021-03-24T12:39:26Z</time>
      </trkpt>
      <trkpt lat="47.30117" lon="-1.50895">
        <ele>24</ele>
        <time>2021-03-24T12:39:27Z</time>
      </trkpt>
    </trkseg>
  </trk>
</gpx>